<?xml version="1.0" encoding="UTF-8"?><gpx version="1.1" creator="strava.com Android" xmlns="http://www.topografix.com/GPX/1/1" xmlns:xsi="http://www.w3.org/2001/XMLSchema-instance" xsi:schemaLocation="http://www.topografix.com/GPX/1/1 http://www.topografix.com/GPX/1/1/gpx.xsd"><metadata><time>2012-10-12T04:32:56Z</time></metadata><trk><trkseg><trkpt lat="32.75083318333333437522" lon="35.24126249999999771489"><ele>177.90963999963512</ele><time>2012-10-12T04:32:56Z</time></trkpt><trkpt lat="32.75080516666666596848" lon="35.24126916666666886613"><ele>177.7943999995988</ele><time>2012-10-12T04:36:34Z</time></trkpt><trkpt lat="32.75078080000000113614" lon="35.24128453333333510500"><ele>177.62527999960645</ele><time>2012-10-12T04:37:00Z</time></trkpt><trkpt lat="32.75078719999999776746" lon="35.24124678333333093860"><ele>177.90686368924702</ele><time>2012-10-12T04:37:24Z</time></trkpt><trkpt lat="32.75077333333333484688" lon="35.24121863333333237733"><ele>178.02809007964714</ele><time>2012-10-12T04:40:21Z</time></trkpt><trkpt lat="32.75073068333333026203" lon="35.24119686666666950714"><ele>178.04841395641412</ele><time>2012-10-12T04:40:24Z</time></trkpt><trkpt lat="32.75065993333333125292" lon="35.24119416666666637639"><ele>177.89928135963254</ele><time>2012-10-12T04:40:27Z</time></trkpt><trkpt lat="32.75062153333333014871" lon="35.24125586666666976043"><ele>177.4494399995867</ele><time>2012-10-12T04:40:30Z</time></trkpt><trkpt lat="32.75066653333333022147" lon="35.24125504999999947131"><ele>177.56331999961284</ele><time>2012-10-12T04:40:36Z</time></trkpt><trkpt lat="32.75071716666666787887" lon="35.24121900000000096043"><ele>177.8937856796349</ele><time>2012-10-12T04:40:39Z</time></trkpt><trkpt lat="32.75075433333333307928" lon="35.24121075000000047339"><ele>178.0268150796346</ele><time>2012-10-12T04:40:42Z</time></trkpt><trkpt lat="32.75077848333333463415" lon="35.24119633333333467817"><ele>178.16239880763348</ele><time>2012-10-12T04:41:21Z</time></trkpt><trkpt lat="32.75080454999999801657" lon="35.24120529999999718029"><ele>178.1741527252492</ele><time>2012-10-12T04:43:12Z</time></trkpt><trkpt lat="32.75083790000000050213" lon="35.24120303333333481532"><ele>178.2642711468322</ele><time>2012-10-12T04:43:16Z</time></trkpt><trkpt lat="32.75086995000000200662" lon="35.24120116666667001937"><ele>178.34900511562626</ele><time>2012-10-12T04:43:20Z</time></trkpt><trkpt lat="32.75091083333333585870" lon="35.24117636666666442125"><ele>178.57540251965722</ele><time>2012-10-12T04:43:24Z</time></trkpt><trkpt lat="32.75088358333333360406" lon="35.24119991666666606989"><ele>178.38742596964352</ele><time>2012-10-12T04:43:27Z</time></trkpt><trkpt lat="32.75091378333333125283" lon="35.24122795000000252230"><ele>178.30959555122269</ele><time>2012-10-12T04:43:36Z</time></trkpt><trkpt lat="32.75098615000000279451" lon="35.24123531666666764295"><ele>178.44281884404398</ele><time>2012-10-12T04:43:39Z</time></trkpt><trkpt lat="32.75103119999999989886" lon="35.24125638333333654373"><ele>178.42891999959238</ele><time>2012-10-12T04:43:42Z</time></trkpt><trkpt lat="32.75108780000000052723" lon="35.24130028333333086721"><ele>178.24867999963496</ele><time>2012-10-12T04:43:45Z</time></trkpt><trkpt lat="32.75114388333333437231" lon="35.24137139999999845941"><ele>177.8712399996298</ele><time>2012-10-12T04:43:48Z</time></trkpt><trkpt lat="32.75117850000000174759" lon="35.24144913333333306582"><ele>177.39463999962283</ele><time>2012-10-12T04:43:51Z</time></trkpt><trkpt lat="32.75118066666667004938" lon="35.24152428333333375576"><ele>176.85875999962224</ele><time>2012-10-12T04:43:54Z</time></trkpt><trkpt lat="32.75115985000000051741" lon="35.24160456666666618730"><ele>176.23075999962245</ele><time>2012-10-12T04:43:57Z</time></trkpt><trkpt lat="32.75112838333333087348" lon="35.24167560000000065656"><ele>175.64379999960764</ele><time>2012-10-12T04:44:00Z</time></trkpt><trkpt lat="32.75109773333333151868" lon="35.24180866666666389619"><ele>174.61215999963477</ele><time>2012-10-12T04:44:03Z</time></trkpt><trkpt lat="32.75104795000000024174" lon="35.24195656666666565116"><ele>173.42779999962818</ele><time>2012-10-12T04:44:06Z</time></trkpt><trkpt lat="32.75101726666666479559" lon="35.24211981666666559931"><ele>172.20321375643195</ele><time>2012-10-12T04:44:09Z</time></trkpt><trkpt lat="32.75098803333333563614" lon="35.24225588333333547553"><ele>171.25910276281598</ele><time>2012-10-12T04:44:12Z</time></trkpt><trkpt lat="32.75097039999999992688" lon="35.24236539999999706652"><ele>170.5252136188407</ele><time>2012-10-12T04:44:15Z</time></trkpt><trkpt lat="32.75097195000000027676" lon="35.24247858333333027758"><ele>169.8033898756376</ele><time>2012-10-12T04:44:18Z</time></trkpt><trkpt lat="32.75095985000000098353" lon="35.24261998333333423261"><ele>168.888201912408</ele><time>2012-10-12T04:44:21Z</time></trkpt><trkpt lat="32.75096201666666928531" lon="35.24273989999999656675"><ele>168.12611114043148</ele><time>2012-10-12T04:44:24Z</time></trkpt><trkpt lat="32.75097731666666334149" lon="35.24287534999999849106"><ele>167.2650328644118</ele><time>2012-10-12T04:44:27Z</time></trkpt><trkpt lat="32.75098140000000057626" lon="35.24296726666666756955"><ele>166.674822540393</ele><time>2012-10-12T04:44:30Z</time></trkpt><trkpt lat="32.75099484999999788215" lon="35.24303359999999685215"><ele>166.2440063548169</ele><time>2012-10-12T04:44:33Z</time></trkpt><trkpt lat="32.75099571666666520287" lon="35.24307856666666793899"><ele>165.9528851979865</ele><time>2012-10-12T04:44:36Z</time></trkpt><trkpt lat="32.75095184999999986530" lon="35.24317489999999963857"><ele>165.36245773239472</ele><time>2012-10-12T04:44:39Z</time></trkpt><trkpt lat="32.75086206666667010268" lon="35.24318648333333214850"><ele>165.35877213080025</ele><time>2012-10-12T04:44:42Z</time></trkpt><trkpt lat="32.75075793333333251667" lon="35.24321526666666670735"><ele>165.27324158679957</ele><time>2012-10-12T04:44:45Z</time></trkpt><trkpt lat="32.75066623333333382107" lon="35.24323821666666844976"><ele>165.22544529399187</ele><time>2012-10-12T04:44:48Z</time></trkpt><trkpt lat="32.75056381666666993624" lon="35.24325506666666996125"><ele>165.23226878678554</ele><time>2012-10-12T04:44:51Z</time></trkpt><trkpt lat="32.75045049999999946522" lon="35.24328375000000335149"><ele>165.20223139959384</ele><time>2012-10-12T04:44:54Z</time></trkpt><trkpt lat="32.75034303333332985630" lon="35.24332041666666981428"><ele>165.06199999961163</ele><time>2012-10-12T04:44:57Z</time></trkpt><trkpt lat="32.75023501666666447818" lon="35.24337119999999856645"><ele>164.81823999963385</ele><time>2012-10-12T04:45:00Z</time></trkpt><trkpt lat="32.75014620000000320488" lon="35.24343369999999708853"><ele>164.51823999964122</ele><time>2012-10-12T04:45:03Z</time></trkpt><trkpt lat="32.75006766666666635501" lon="35.24349511666666501242"><ele>164.22343999963545</ele><time>2012-10-12T04:45:06Z</time></trkpt><trkpt lat="32.74998516666666859010" lon="35.24355630000000161317"><ele>163.92975999962002</ele><time>2012-10-12T04:45:09Z</time></trkpt><trkpt lat="32.74991456666666778119" lon="35.24361471666667000591"><ele>163.64935999961202</ele><time>2012-10-12T04:45:12Z</time></trkpt><trkpt lat="32.74987089999999767542" lon="35.24370516666666475203"><ele>163.2151999996376</ele><time>2012-10-12T04:45:15Z</time></trkpt><trkpt lat="32.74986801666666735855" lon="35.24387113333333587661"><ele>162.90429788289194</ele><time>2012-10-12T04:45:18Z</time></trkpt><trkpt lat="32.74985600000000118825" lon="35.24400453333333160799"><ele>162.7944999676982</ele><time>2012-10-12T04:45:21Z</time></trkpt><trkpt lat="32.74990629999999924848" lon="35.24413158333333484507"><ele>162.71956372369866</ele><time>2012-10-12T04:45:24Z</time></trkpt><trkpt lat="32.75000860000000102445" lon="35.24429394999999942684"><ele>162.68036627650704</ele><time>2012-10-12T04:45:27Z</time></trkpt><trkpt lat="32.75011591666666532774" lon="35.24447393333333167220"><ele>162.6864789517114</ele><time>2012-10-12T04:45:30Z</time></trkpt><trkpt lat="32.75024476666666828351" lon="35.24465955000000150221"><ele>162.77485363092063</ele><time>2012-10-12T04:45:33Z</time></trkpt><trkpt lat="32.75037286666666602741" lon="35.24485144999999874926"><ele>162.93052934532486</ele><time>2012-10-12T04:45:36Z</time></trkpt><trkpt lat="32.75050636666667003283" lon="35.24502439999999836573"><ele>162.94933169889552</ele><time>2012-10-12T04:45:39Z</time></trkpt><trkpt lat="32.75063546666666525198" lon="35.24521428333333261662"><ele>162.93623467810497</ele><time>2012-10-12T04:45:42Z</time></trkpt><trkpt lat="32.75075776666666627079" lon="35.24540365000000008422"><ele>162.99360642131185</ele><time>2012-10-12T04:45:45Z</time></trkpt><trkpt lat="32.75084633333333528071" lon="35.24549139999999880501"><ele>163.13312099173012</ele><time>2012-10-12T04:45:48Z</time></trkpt><trkpt lat="32.75090895000000301707" lon="35.24560478333333435330"><ele>163.31812635212918</ele><time>2012-10-12T04:45:51Z</time></trkpt><trkpt lat="32.75102315000000174905" lon="35.24572891666666407673"><ele>163.47670083371784</ele><time>2012-10-12T04:45:54Z</time></trkpt><trkpt lat="32.75112930000000233122" lon="35.24579051666666629217"><ele>163.51359812051675</ele><time>2012-10-12T04:45:57Z</time></trkpt><trkpt lat="32.75125624999999729425" lon="35.24575823333333346454"><ele>163.36623179963541</ele><time>2012-10-12T04:46:00Z</time></trkpt><trkpt lat="32.75133828333333241289" lon="35.24570388333333426090"><ele>162.7419334388224</ele><time>2012-10-12T04:46:03Z</time></trkpt><trkpt lat="32.75142753333333445198" lon="35.24568285000000145146"><ele>162.1181215260057</ele><time>2012-10-12T04:46:06Z</time></trkpt><trkpt lat="32.75147613333333396213" lon="35.24576458333333306427"><ele>161.8341143996019</ele><time>2012-10-12T04:46:09Z</time></trkpt><trkpt lat="32.75150409999999823185" lon="35.24584976666666591427"><ele>161.67817395481381</ele><time>2012-10-12T04:46:12Z</time></trkpt><trkpt lat="32.75151976666666797655" lon="35.24595851666666845858"><ele>161.6106415627866</ele><time>2012-10-12T04:46:15Z</time></trkpt><trkpt lat="32.75153240000000209875" lon="35.24607555000000047585"><ele>161.5603822779735</ele><time>2012-10-12T04:46:18Z</time></trkpt><trkpt lat="32.75147461666666970359" lon="35.24615384999999889715"><ele>162.0600390499636</ele><time>2012-10-12T04:46:21Z</time></trkpt><trkpt lat="32.75139468333333070404" lon="35.24620014999999995098"><ele>162.745611896412</ele><time>2012-10-12T04:46:24Z</time></trkpt><trkpt lat="32.75130783333333539531" lon="35.24621836666666752080"><ele>163.48150884757706</ele><time>2012-10-12T04:46:27Z</time></trkpt><trkpt lat="32.75125214999999911925" lon="35.24621919999999875017"><ele>163.94517071320152</ele><time>2012-10-12T04:46:30Z</time></trkpt><trkpt lat="32.75118495000000251594" lon="35.24620888333333112996"><ele>164.02486851930175</ele><time>2012-10-12T04:46:33Z</time></trkpt><trkpt lat="32.75113170000000195614" lon="35.24622264999999998736"><ele>164.10448087250617</ele><time>2012-10-12T04:46:36Z</time></trkpt><trkpt lat="32.75107084999999784714" lon="35.24625044999999801121"><ele>164.2167160889472</ele><time>2012-10-12T04:46:39Z</time></trkpt><trkpt lat="32.75100644999999843776" lon="35.24627600000000171576"><ele>164.39497851176193</ele><time>2012-10-12T04:46:42Z</time></trkpt><trkpt lat="32.75094826666666847359" lon="35.24631850000000099499"><ele>164.63844297575525</ele><time>2012-10-12T04:46:45Z</time></trkpt><trkpt lat="32.75088650000000001228" lon="35.24637161666666429483"><ele>164.93767902774397</ele><time>2012-10-12T04:46:48Z</time></trkpt><trkpt lat="32.75082586666666628616" lon="35.24642095000000097116"><ele>165.22878805415866</ele><time>2012-10-12T04:46:51Z</time></trkpt><trkpt lat="32.75076803333332975399" lon="35.24646933333333009841"><ele>165.52018435174574</ele><time>2012-10-12T04:46:54Z</time></trkpt><trkpt lat="32.75071631666666860383" lon="35.24652253333333362662"><ele>165.83098295655233</ele><time>2012-10-12T04:46:57Z</time></trkpt><trkpt lat="32.75065671666666844430" lon="35.24657975000000220689"><ele>166.18075465776099</ele><time>2012-10-12T04:47:00Z</time></trkpt><trkpt lat="32.75060504999999722031" lon="35.24662788333333196533"><ele>166.48527083215285</ele><time>2012-10-12T04:47:03Z</time></trkpt><trkpt lat="32.75055724999999995362" lon="35.24668641666666957235"><ele>166.83775180976735</ele><time>2012-10-12T04:47:06Z</time></trkpt><trkpt lat="32.75050578333333106684" lon="35.24674186666666741985"><ele>167.19089973416158</ele><time>2012-10-12T04:47:09Z</time></trkpt><trkpt lat="32.75045428333333319415" lon="35.24679333333333630662"><ele>167.53342871976812</ele><time>2012-10-12T04:47:12Z</time></trkpt><trkpt lat="32.75039790000000294867" lon="35.24684580000000266864"><ele>167.86952179818826</ele><time>2012-10-12T04:47:15Z</time></trkpt><trkpt lat="32.75034484999999762067" lon="35.24690429999999707888"><ele>168.1897901773639</ele><time>2012-10-12T04:47:18Z</time></trkpt><trkpt lat="32.75029228333333009004" lon="35.24695694999999773245"><ele>168.49734645656824</ele><time>2012-10-12T04:47:21Z</time></trkpt><trkpt lat="32.75023696666666950250" lon="35.24700258333333380278"><ele>168.78624896777777</ele><time>2012-10-12T04:47:24Z</time></trkpt><trkpt lat="32.75018008333333341398" lon="35.24706128333333055025"><ele>169.16303601176296</ele><time>2012-10-12T04:47:27Z</time></trkpt><trkpt lat="32.75013923333333565324" lon="35.24711130000000025575"><ele>169.43355838533813</ele><time>2012-10-12T04:47:30Z</time></trkpt><trkpt lat="32.75008898333333462460" lon="35.24716701666666551773"><ele>169.71252145693424</ele><time>2012-10-12T04:47:33Z</time></trkpt><trkpt lat="32.75004033333333097744" lon="35.24722568333333327928"><ele>170.02466693574473</ele><time>2012-10-12T04:47:36Z</time></trkpt><trkpt lat="32.74999076666667008340" lon="35.24728463333333650098"><ele>170.36456945414713</ele><time>2012-10-12T04:47:39Z</time></trkpt><trkpt lat="32.74993916666666393667" lon="35.24734461666666618385"><ele>170.73905525974516</ele><time>2012-10-12T04:47:42Z</time></trkpt><trkpt lat="32.74989188333333345327" lon="35.24740858333333193286"><ele>171.1477025657337</ele><time>2012-10-12T04:47:45Z</time></trkpt><trkpt lat="32.74984401666666400388" lon="35.24747215000000011287"><ele>171.58221333294844</ele><time>2012-10-12T04:47:48Z</time></trkpt><trkpt lat="32.74979081666666758110" lon="35.24754048333333145138"><ele>172.0841636545275</ele><time>2012-10-12T04:47:51Z</time></trkpt><trkpt lat="32.74973440000000124428" lon="35.24761418333333296005"><ele>172.6573830429333</ele><time>2012-10-12T04:47:54Z</time></trkpt><trkpt lat="32.74968158333333434484" lon="35.24768661666666957899"><ele>173.24574242175152</ele><time>2012-10-12T04:47:57Z</time></trkpt><trkpt lat="32.74962810000000246191" lon="35.24775963333333095306"><ele>173.87328899011467</ele><time>2012-10-12T04:48:00Z</time></trkpt><trkpt lat="32.74957394999999849006" lon="35.24783641666666511583"><ele>174.48255132383719</ele><time>2012-10-12T04:48:03Z</time></trkpt><trkpt lat="32.74951519999999760557" lon="35.24791393333333644478"><ele>174.73778365426296</ele><time>2012-10-12T04:48:06Z</time></trkpt><trkpt lat="32.74945718333333388728" lon="35.24799134999999949969"><ele>174.9314733510283</ele><time>2012-10-12T04:48:09Z</time></trkpt><trkpt lat="32.74939839999999691145" lon="35.24807458333333443079"><ele>175.17634767982497</ele><time>2012-10-12T04:48:12Z</time></trkpt><trkpt lat="32.74933858333333347446" lon="35.24815081666666571891"><ele>175.40786765182418</ele><time>2012-10-12T04:48:15Z</time></trkpt><trkpt lat="32.74928311666666758128" lon="35.24823166666666907076"><ele>175.70357655984478</ele><time>2012-10-12T04:48:18Z</time></trkpt><trkpt lat="32.74922443333333177407" lon="35.24831091666666793571"><ele>176.0078694158322</ele><time>2012-10-12T04:48:21Z</time></trkpt><trkpt lat="32.74916653333333016462" lon="35.24838965000000001737"><ele>176.33760162537902</ele><time>2012-10-12T04:48:24Z</time></trkpt><trkpt lat="32.74911333333333374185" lon="35.24847264999999651991"><ele>176.7292990397638</ele><time>2012-10-12T04:48:27Z</time></trkpt><trkpt lat="32.74906446666666681722" lon="35.24855269999999762831"><ele>177.13548750696808</ele><time>2012-10-12T04:48:30Z</time></trkpt><trkpt lat="32.74901031666666995079" lon="35.24863504999999719303"><ele>177.57091939416813</ele><time>2012-10-12T04:48:33Z</time></trkpt><trkpt lat="32.74895328333333566206" lon="35.24871371666666419742"><ele>178.00394229496663</ele><time>2012-10-12T04:48:36Z</time></trkpt><trkpt lat="32.74889859999999686124" lon="35.24879095000000006621"><ele>178.34859206534082</ele><time>2012-10-12T04:48:39Z</time></trkpt><trkpt lat="32.74884386666666813426" lon="35.24886778333333126056"><ele>178.6302383869341</ele><time>2012-10-12T04:48:42Z</time></trkpt><trkpt lat="32.74878971666666416240" lon="35.24894673333333372511"><ele>178.95822528134153</ele><time>2012-10-12T04:48:45Z</time></trkpt><trkpt lat="32.74874028333333342289" lon="35.24902676666666678784"><ele>179.28179755740237</ele><time>2012-10-12T04:48:48Z</time></trkpt><trkpt lat="32.74869006666666848560" lon="35.24910361666666602787"><ele>179.42931559820468</ele><time>2012-10-12T04:48:51Z</time></trkpt><trkpt lat="32.74863739999999978636" lon="35.24918136666666867995"><ele>179.60479055020804</ele><time>2012-10-12T04:48:54Z</time></trkpt><trkpt lat="32.74858333333333604287" lon="35.24925783333333129121"><ele>179.80323999979606</ele><time>2012-10-12T04:48:57Z</time></trkpt><trkpt lat="32.74852983333333611426" lon="35.24933736666666561632"><ele>180.05701618379905</ele><time>2012-10-12T04:49:00Z</time></trkpt><trkpt lat="32.74847770000000224400" lon="35.24941731666666555611"><ele>180.35430861819418</ele><time>2012-10-12T04:49:03Z</time></trkpt><trkpt lat="32.74842591666666891115" lon="35.24949326666666848951"><ele>180.66378306381</ele><time>2012-10-12T04:49:06Z</time></trkpt><trkpt lat="32.74837651666666715755" lon="35.24956798333333551909"><ele>181.00519357300615</ele><time>2012-10-12T04:49:09Z</time></trkpt><trkpt lat="32.74832883333333199971" lon="35.24964384999999822412"><ele>181.27889570375763</ele><time>2012-10-12T04:49:12Z</time></trkpt><trkpt lat="32.74827704999999866686" lon="35.24971930000000241989"><ele>181.49552034697751</ele><time>2012-10-12T04:49:15Z</time></trkpt><trkpt lat="32.74822756666666379033" lon="35.24979499999999887905"><ele>181.69768463975691</ele><time>2012-10-12T04:49:18Z</time></trkpt><trkpt lat="32.74818046666666759847" lon="35.24987078333333556657"><ele>181.88632841258405</ele><time>2012-10-12T04:49:21Z</time></trkpt><trkpt lat="32.74813114999999896781" lon="35.24994345000000350865"><ele>182.033628386183</ele><time>2012-10-12T04:49:24Z</time></trkpt><trkpt lat="32.74808421666666902183" lon="35.25001786666666703240"><ele>182.1761214525825</ele><time>2012-10-12T04:49:27Z</time></trkpt><trkpt lat="32.74803814999999929114" lon="35.25008755000000348900"><ele>182.28315129338395</ele><time>2012-10-12T04:49:30Z</time></trkpt><trkpt lat="32.74799248333333423489" lon="35.25014999999999787406"><ele>182.3456927997687</ele><time>2012-10-12T04:49:33Z</time></trkpt><trkpt lat="32.74795923333333291794" lon="35.25020520000000345817"><ele>182.4171158781849</ele><time>2012-10-12T04:49:36Z</time></trkpt><trkpt lat="32.74791871666666764895" lon="35.25026251666666610163"><ele>182.45398989817625</ele><time>2012-10-12T04:49:39Z</time></trkpt><trkpt lat="32.74787223333333230357" lon="35.25033301666666574192"><ele>182.62413095333926</ele><time>2012-10-12T04:49:42Z</time></trkpt><trkpt lat="32.74782435000000191394" lon="35.25040353333333342789"><ele>182.83495642854623</ele><time>2012-10-12T04:49:45Z</time></trkpt><trkpt lat="32.74777160000000009177" lon="35.25047030000000347627"><ele>183.05261136615562</ele><time>2012-10-12T04:49:48Z</time></trkpt><trkpt lat="32.74772311666666979590" lon="35.25053849999999755482"><ele>183.3082092357314</ele><time>2012-10-12T04:49:51Z</time></trkpt><trkpt lat="32.74768676666666777919" lon="35.25060783333333347400"><ele>183.60218061573957</ele><time>2012-10-12T04:49:54Z</time></trkpt><trkpt lat="32.74764706666666569390" lon="35.25067553333333592036"><ele>183.9098947581495</ele><time>2012-10-12T04:49:57Z</time></trkpt><trkpt lat="32.74760061666666643987" lon="35.25075424999999995634"><ele>184.29695467773564</ele><time>2012-10-12T04:50:00Z</time></trkpt><trkpt lat="32.74755880000000018981" lon="35.25083193333333042574"><ele>184.707515622119</ele><time>2012-10-12T04:50:03Z</time></trkpt><trkpt lat="32.74750935000000140462" lon="35.25091985000000249784"><ele>185.2080854185443</ele><time>2012-10-12T04:50:06Z</time></trkpt><trkpt lat="32.74746251666666552183" lon="35.25099320000000346909"><ele>185.66165688934277</ele><time>2012-10-12T04:50:09Z</time></trkpt><trkpt lat="32.74741038333333165156" lon="35.25107256666666444289"><ele>186.1882477493083</ele><time>2012-10-12T04:50:12Z</time></trkpt><trkpt lat="32.74735615000000166219" lon="35.25116438333333235278"><ele>186.82970506330463</ele><time>2012-10-12T04:50:15Z</time></trkpt><trkpt lat="32.74729348333333689425" lon="35.25124674999999996317"><ele>187.47519050570196</ele><time>2012-10-12T04:50:18Z</time></trkpt><trkpt lat="32.74723728333333383489" lon="35.25132818333333517558"><ele>187.94664461328608</ele><time>2012-10-12T04:50:21Z</time></trkpt><trkpt lat="32.74718210000000340187" lon="35.25141891666666538185"><ele>188.41910800767025</ele><time>2012-10-12T04:50:24Z</time></trkpt><trkpt lat="32.74713433333333512110" lon="35.25150820000000351229"><ele>188.84504441569422</ele><time>2012-10-12T04:50:27Z</time></trkpt><trkpt lat="32.74710606666666734554" lon="35.25159500000000178943"><ele>189.21002783969269</ele><time>2012-10-12T04:50:30Z</time></trkpt><trkpt lat="32.74709833333333364180" lon="35.25168415000000265991"><ele>189.5456952797006</ele><time>2012-10-12T04:50:33Z</time></trkpt><trkpt lat="32.74713728333333051523" lon="35.25176576666666505844"><ele>189.80741776129372</ele><time>2012-10-12T04:50:36Z</time></trkpt><trkpt lat="32.74717309999999770298" lon="35.25183896666666782949"><ele>190.05710437410866</ele><time>2012-10-12T04:50:39Z</time></trkpt><trkpt lat="32.74720324999999832016" lon="35.25191736666666741939"><ele>190.34520175171167</ele><time>2012-10-12T04:50:42Z</time></trkpt><trkpt lat="32.74722951666666403980" lon="35.25199743333333657347"><ele>190.65459541252685</ele><time>2012-10-12T04:50:45Z</time></trkpt><trkpt lat="32.74725731666666916908" lon="35.25207846666666711144"><ele>190.98004144932028</ele><time>2012-10-12T04:50:48Z</time></trkpt><trkpt lat="32.74728838333333413857" lon="35.25215810000000260516"><ele>191.2235930061127</ele><time>2012-10-12T04:50:51Z</time></trkpt><trkpt lat="32.74732068333333501187" lon="35.25224356666666380988"><ele>191.49409037890265</ele><time>2012-10-12T04:50:54Z</time></trkpt><trkpt lat="32.74734416666666447782" lon="35.25232824999999792226"><ele>191.77178139970803</ele><time>2012-10-12T04:50:57Z</time></trkpt><trkpt lat="32.74737023333333496566" lon="35.25241220000000197388"><ele>192.06101331812957</ele><time>2012-10-12T04:51:00Z</time></trkpt><trkpt lat="32.74739635000000248510" lon="35.25249019999999688935"><ele>192.34326541731954</ele><time>2012-10-12T04:51:03Z</time></trkpt><trkpt lat="32.74742371666666684860" lon="35.25257636666666627434"><ele>192.66660254853156</ele><time>2012-10-12T04:51:06Z</time></trkpt><trkpt lat="32.74744905000000017026" lon="35.25266443333333654664"><ele>193.00669171014968</ele><time>2012-10-12T04:51:09Z</time></trkpt><trkpt lat="32.74748224999999735019" lon="35.25274881666666715319"><ele>193.36172049174087</ele><time>2012-10-12T04:51:12Z</time></trkpt><trkpt lat="32.74751161666666376959" lon="35.25283191666666482433"><ele>193.71994460372161</ele><time>2012-10-12T04:51:15Z</time></trkpt><trkpt lat="32.74754480000000000928" lon="35.25291608333333215342"><ele>194.10534473573435</ele><time>2012-10-12T04:51:18Z</time></trkpt><trkpt lat="32.74757936666666324754" lon="35.25300248333333286155"><ele>194.41605563011254</ele><time>2012-10-12T04:51:21Z</time></trkpt><trkpt lat="32.74761445000000037453" lon="35.25309231666666676119"><ele>194.75413705012872</ele><time>2012-10-12T04:51:24Z</time></trkpt><trkpt lat="32.74765196666666611236" lon="35.25317908333333605242"><ele>195.10937032773782</ele><time>2012-10-12T04:51:27Z</time></trkpt><trkpt lat="32.74768170000000111486" lon="35.25326648333333423579"><ele>195.45869766214253</ele><time>2012-10-12T04:51:30Z</time></trkpt><trkpt lat="32.74771685000000331911" lon="35.25334984999999932143"><ele>195.83061512055042</ele><time>2012-10-12T04:51:33Z</time></trkpt><trkpt lat="32.74775783333333123437" lon="35.25344431666666622505"><ele>196.27697178373575</ele><time>2012-10-12T04:51:36Z</time></trkpt><trkpt lat="32.74779984999999982165" lon="35.25353728333332981038"><ele>196.74506469333807</ele><time>2012-10-12T04:51:39Z</time></trkpt><trkpt lat="32.74783653333333433011" lon="35.25363288333333144919"><ele>197.22076865255318</ele><time>2012-10-12T04:51:42Z</time></trkpt><trkpt lat="32.74787563333333650917" lon="35.25373294999999984611"><ele>197.7436749005747</ele><time>2012-10-12T04:51:45Z</time></trkpt><trkpt lat="32.74790481666666863703" lon="35.25383488333333303899"><ele>198.04208310133222</ele><time>2012-10-12T04:51:48Z</time></trkpt><trkpt lat="32.74795061666666384781" lon="35.25395410000000140371"><ele>198.02126391799843</ele><time>2012-10-12T04:51:51Z</time></trkpt><trkpt lat="32.74799626666666796382" lon="35.25409788333332983257"><ele>197.86010844115845</ele><time>2012-10-12T04:51:54Z</time></trkpt><trkpt lat="32.74804676666666836127" lon="35.25426476666666530946"><ele>197.64424310674875</ele><time>2012-10-12T04:51:57Z</time></trkpt><trkpt lat="32.74809238333333638593" lon="35.25443693333333072815"><ele>197.42238776912805</ele><time>2012-10-12T04:52:00Z</time></trkpt><trkpt lat="32.74814911666666716883" lon="35.25460220000000077789"><ele>197.02108560430668</ele><time>2012-10-12T04:52:03Z</time></trkpt><trkpt lat="32.74819276666666922893" lon="35.25475835000000301989"><ele>196.4694714787011</ele><time>2012-10-12T04:52:06Z</time></trkpt><trkpt lat="32.74821733333333639848" lon="35.25482211666666643168"><ele>196.21147089550766</ele><time>2012-10-12T04:52:09Z</time></trkpt><trkpt lat="32.74823279999999670054" lon="35.25488459999999690808"><ele>196.03287868116143</ele><time>2012-10-12T04:52:12Z</time></trkpt><trkpt lat="32.74824813333333395349" lon="35.25495046666666354440"><ele>195.86027143633862</ele><time>2012-10-12T04:52:15Z</time></trkpt><trkpt lat="32.74828091666666551873" lon="35.25504455000000092468"><ele>195.55913209755445</ele><time>2012-10-12T04:52:18Z</time></trkpt><trkpt lat="32.74831575000000327691" lon="35.25513529999999917663"><ele>195.27459261153678</ele><time>2012-10-12T04:52:21Z</time></trkpt><trkpt lat="32.74834529999999688243" lon="35.25522589999999922838"><ele>195.0471581259815</ele><time>2012-10-12T04:52:24Z</time></trkpt><trkpt lat="32.74837026666666872643" lon="35.25532189999999843621"><ele>194.86445978836096</ele><time>2012-10-12T04:52:27Z</time></trkpt><trkpt lat="32.74840946666666496867" lon="35.25542440000000254940"><ele>194.6324634619875</ele><time>2012-10-12T04:52:30Z</time></trkpt><trkpt lat="32.74845063333333428091" lon="35.25554023333333475421"><ele>194.42543567798594</ele><time>2012-10-12T04:52:33Z</time></trkpt><trkpt lat="32.74849336666666488327" lon="35.25564486666666397241"><ele>194.25268470040618</ele><time>2012-10-12T04:52:36Z</time></trkpt><trkpt lat="32.74854255000000335940" lon="35.25574661666666997917"><ele>194.09600408879922</ele><time>2012-10-12T04:52:39Z</time></trkpt><trkpt lat="32.74858506666666357887" lon="35.25584589999999707288"><ele>194.0009260988264</ele><time>2012-10-12T04:52:42Z</time></trkpt><trkpt lat="32.74862478333333370983" lon="35.25593996666666640749"><ele>193.94592819082627</ele><time>2012-10-12T04:52:45Z</time></trkpt><trkpt lat="32.74866538333333210176" lon="35.25604009999999988167"><ele>193.92638768523898</ele><time>2012-10-12T04:52:48Z</time></trkpt><trkpt lat="32.74870873333333065602" lon="35.25614756666666949059"><ele>193.94486099485349</ele><time>2012-10-12T04:52:51Z</time></trkpt><trkpt lat="32.74875268333333622195" lon="35.25625431666666997899"><ele>193.98195667914302</ele><time>2012-10-12T04:52:54Z</time></trkpt><trkpt lat="32.74879181666666738693" lon="35.25635524999999859119"><ele>193.67931773356236</ele><time>2012-10-12T04:52:57Z</time></trkpt><trkpt lat="32.74883020000000044547" lon="35.25645554999999831125"><ele>193.39211855796722</ele><time>2012-10-12T04:53:00Z</time></trkpt><trkpt lat="32.74886683333333081691" lon="35.25654329999999703205"><ele>193.13658479158445</ele><time>2012-10-12T04:53:03Z</time></trkpt><trkpt lat="32.74888210000000299260" lon="35.25664498333333085611"><ele>192.9670753091627</ele><time>2012-10-12T04:53:06Z</time></trkpt><trkpt lat="32.74888831666666533238" lon="35.25675066666666879200"><ele>192.83500078358563</ele><time>2012-10-12T04:53:09Z</time></trkpt><trkpt lat="32.74887724999999960573" lon="35.25685113333333475794"><ele>192.77799167158415</ele><time>2012-10-12T04:53:12Z</time></trkpt><trkpt lat="32.74884721666666820283" lon="35.25693640000000073087"><ele>192.80577050837843</ele><time>2012-10-12T04:53:15Z</time></trkpt><trkpt lat="32.74880859999999671572" lon="35.25702716666666702849"><ele>192.8517004315977</ele><time>2012-10-12T04:53:18Z</time></trkpt><trkpt lat="32.74878414999999876045" lon="35.25712896666667006684"><ele>192.9318199996269</ele><time>2012-10-12T04:53:21Z</time></trkpt><trkpt lat="32.74876428333333677756" lon="35.25722968333333540158"><ele>193.12419999960827</ele><time>2012-10-12T04:53:24Z</time></trkpt><trkpt lat="32.74875078333333533465" lon="35.25733331666666714455"><ele>193.2971599996114</ele><time>2012-10-12T04:53:27Z</time></trkpt><trkpt lat="32.74873480000000114387" lon="35.25743504999999800020"><ele>193.40666325087648</ele><time>2012-10-12T04:53:30Z</time></trkpt><trkpt lat="32.74872078333333291766" lon="35.25752811666666985957"><ele>193.4963141508835</ele><time>2012-10-12T04:53:33Z</time></trkpt><trkpt lat="32.74869379999999807751" lon="35.25762435000000039054"><ele>193.56165320608036</ele><time>2012-10-12T04:53:36Z</time></trkpt><trkpt lat="32.74865870000000001028" lon="35.25771436666666858173"><ele>193.59131357088668</ele><time>2012-10-12T04:53:39Z</time></trkpt><trkpt lat="32.74862721666666942610" lon="35.25780728333333513547"><ele>193.61273969649434</ele><time>2012-10-12T04:53:42Z</time></trkpt><trkpt lat="32.74859169999999863876" lon="35.25789685000000162063"><ele>193.60533449728695</ele><time>2012-10-12T04:53:45Z</time></trkpt><trkpt lat="32.74856324999999657166" lon="35.25798888333333280798"><ele>193.74454050570645</ele><time>2012-10-12T04:53:48Z</time></trkpt><trkpt lat="32.74853366666666687479" lon="35.25807749999999884949"><ele>193.9169027997119</ele><time>2012-10-12T04:53:51Z</time></trkpt><trkpt lat="32.74849751666666719530" lon="35.25816531666666975298"><ele>194.08120317212314</ele><time>2012-10-12T04:53:54Z</time></trkpt><trkpt lat="32.74847023333333595474" lon="35.25825291666666316814"><ele>194.27102301970754</ele><time>2012-10-12T04:53:57Z</time></trkpt><trkpt lat="32.74843853333333498767" lon="35.25834456666666483216"><ele>194.4713582845088</ele><time>2012-10-12T04:54:00Z</time></trkpt><trkpt lat="32.74840636666666426891" lon="35.25842348333333120536"><ele>194.6424291045</ele><time>2012-10-12T04:54:03Z</time></trkpt><trkpt lat="32.74837145000000049322" lon="35.25850580000000178416"><ele>194.82654364931528</ele><time>2012-10-12T04:54:06Z</time></trkpt><trkpt lat="32.74833846666666659075" lon="35.25859813333333647734"><ele>195.05168259811734</ele><time>2012-10-12T04:54:09Z</time></trkpt><trkpt lat="32.74830923333333032588" lon="35.25869238333333299806"><ele>195.29623047090186</ele><time>2012-10-12T04:54:12Z</time></trkpt><trkpt lat="32.74827675000000226646" lon="35.25877906666666916635"><ele>195.72448857583083</ele><time>2012-10-12T04:54:15Z</time></trkpt><trkpt lat="32.74824173333333021674" lon="35.25886193333333551436"><ele>196.58941790702</ele><time>2012-10-12T04:54:18Z</time></trkpt><trkpt lat="32.74819766666666964738" lon="35.25894193333333248574"><ele>197.55204924776965</ele><time>2012-10-12T04:54:21Z</time></trkpt><trkpt lat="32.74814796666666438796" lon="35.25901625000000194632"><ele>198.59771453981529</ele><time>2012-10-12T04:54:24Z</time></trkpt><trkpt lat="32.74811048333333474147" lon="35.25909388333333538412"><ele>199.7621259833935</ele><time>2012-10-12T04:54:27Z</time></trkpt><trkpt lat="32.74807725000000147020" lon="35.25917491666666592209"><ele>201.05394950974318</ele><time>2012-10-12T04:54:30Z</time></trkpt><trkpt lat="32.74805193333333619421" lon="35.25925028333332988950"><ele>202.30026654527953</ele><time>2012-10-12T04:54:33Z</time></trkpt><trkpt lat="32.74802460000000081664" lon="35.25933065000000254940"><ele>203.71122970696982</ele><time>2012-10-12T04:54:36Z</time></trkpt><trkpt lat="32.74801471666666685678" lon="35.25936380000000269774"><ele>204.30287255497308</ele><time>2012-10-12T04:54:40Z</time></trkpt><trkpt lat="32.74797050000000098180" lon="35.25939449999999908414"><ele>205.24269867971452</ele><time>2012-10-12T04:54:43Z</time></trkpt><trkpt lat="32.74792471666666671126" lon="35.25940723333333437495"><ele>205.95213756536631</ele><time>2012-10-12T04:54:46Z</time></trkpt><trkpt lat="32.74787994999999796164" lon="35.25942959999999715137"><ele>206.58539181099374</ele><time>2012-10-12T04:54:49Z</time></trkpt><trkpt lat="32.74785734999999675665" lon="35.25944940000000116243"><ele>207.0231999502668</ele><time>2012-10-12T04:54:52Z</time></trkpt><trkpt lat="32.74784400000000061937" lon="35.25949971666666726833"><ele>207.93529035183806</ele><time>2012-10-12T04:54:55Z</time></trkpt><trkpt lat="32.74782278333333351839" lon="35.25955063333333328046"><ele>208.8968592214277</ele><time>2012-10-12T04:54:58Z</time></trkpt><trkpt lat="32.74779071666666396823" lon="35.25959468333333290957"><ele>209.69039705328933</ele><time>2012-10-12T04:55:01Z</time></trkpt><trkpt lat="32.74775836666666606334" lon="35.25962436666666377505"><ele>210.07398726046046</ele><time>2012-10-12T04:55:04Z</time></trkpt><trkpt lat="32.74772926666666705842" lon="35.25968748333333024902"><ele>210.70561100445227</ele><time>2012-10-12T04:55:07Z</time></trkpt><trkpt lat="32.74768449999999830879" lon="35.25973756666666503179"><ele>211.32800657567392</ele><time>2012-10-12T04:55:10Z</time></trkpt><trkpt lat="32.74770234999999729553" lon="35.25983558333333434121"><ele>212.00061677169586</ele><time>2012-10-12T04:55:13Z</time></trkpt><trkpt lat="32.74769941666666994706" lon="35.25990968333333341889"><ele>212.59671066765188</ele><time>2012-10-12T04:55:16Z</time></trkpt><trkpt lat="32.74768781666666939145" lon="35.25998704999999944221"><ele>213.27132481004665</ele><time>2012-10-12T04:55:19Z</time></trkpt><trkpt lat="32.74768456666666338606" lon="35.26005121666666752844"><ele>213.79559567809164</ele><time>2012-10-12T04:55:22Z</time></trkpt><trkpt lat="32.74767813333333066339" lon="35.26012401666666562505"><ele>214.40931647327068</ele><time>2012-10-12T04:55:25Z</time></trkpt><trkpt lat="32.74764573333333572691" lon="35.26018930000000040081"><ele>215.13626851804807</ele><time>2012-10-12T04:55:28Z</time></trkpt><trkpt lat="32.74761173333333630353" lon="35.26024389999999897327"><ele>215.7998749308314</ele><time>2012-10-12T04:55:31Z</time></trkpt><trkpt lat="32.74755018333333111968" lon="35.26028998333333674964"><ele>216.59284928850354</ele><time>2012-10-12T04:55:34Z</time></trkpt><trkpt lat="32.74750794999999925494" lon="35.26034003333333544106"><ele>217.30079459648275</ele><time>2012-10-12T04:55:37Z</time></trkpt><trkpt lat="32.74750619999999656784" lon="35.26042128333333636192"><ele>217.95792391155302</ele><time>2012-10-12T04:55:40Z</time></trkpt><trkpt lat="32.74748280000000022483" lon="35.26047478333333629053"><ele>218.16590716747086</ele><time>2012-10-12T04:55:43Z</time></trkpt><trkpt lat="32.74746019999999901984" lon="35.26054156666666727915"><ele>218.39729134347226</ele><time>2012-10-12T04:55:46Z</time></trkpt><trkpt lat="32.74743124999999821512" lon="35.26059029999999694382"><ele>218.6851284994721</ele><time>2012-10-12T04:55:49Z</time></trkpt><trkpt lat="32.74741011666666423707" lon="35.26064709999999990941"><ele>218.93454723547632</ele><time>2012-10-12T04:55:52Z</time></trkpt><trkpt lat="32.74737981666666541969" lon="35.26071191666666493347"><ele>219.2979557294585</ele><time>2012-10-12T04:55:55Z</time></trkpt><trkpt lat="32.74733743333333535475" lon="35.26077206666666796764"><ele>219.79970859142847</ele><time>2012-10-12T04:55:58Z</time></trkpt><trkpt lat="32.74729305000000323389" lon="35.26084046666666438341"><ele>220.37579895140357</ele><time>2012-10-12T04:56:01Z</time></trkpt><trkpt lat="32.74727930000000242217" lon="35.26090346666666874853"><ele>220.654664671413</ele><time>2012-10-12T04:56:04Z</time></trkpt><trkpt lat="32.74726056666666806905" lon="35.26098608333333572773"><ele>221.04719877941486</ele><time>2012-10-12T04:56:07Z</time></trkpt><trkpt lat="32.74722984999999653155" lon="35.26103986666666401106"><ele>221.53117385545494</ele><time>2012-10-12T04:56:10Z</time></trkpt><trkpt lat="32.74722125000000261252" lon="35.26107318333333040528"><ele>221.71853894937877</ele><time>2012-10-12T04:56:13Z</time></trkpt><trkpt lat="32.74722105000000027530" lon="35.26112990000000024793"><ele>221.86886635540705</ele><time>2012-10-12T04:56:16Z</time></trkpt><trkpt lat="32.74719706666666496631" lon="35.26116871666666696683"><ele>222.27266129542943</ele><time>2012-10-12T04:56:22Z</time></trkpt><trkpt lat="32.74719379999999802067" lon="35.26120376666666800247"><ele>222.4121721434319</ele><time>2012-10-12T04:56:25Z</time></trkpt><trkpt lat="32.74719939999999951397" lon="35.26125028333333233377"><ele>222.46903470981852</ele><time>2012-10-12T04:56:31Z</time></trkpt><trkpt lat="32.74722514999999845031" lon="35.26128376666666497385"><ele>222.26337138663283</ele><time>2012-10-12T04:56:34Z</time></trkpt><trkpt lat="32.74726824999999763577" lon="35.26128038333333591936"><ele>221.68466094746347</ele><time>2012-10-12T04:56:37Z</time></trkpt><trkpt lat="32.74733108333333575501" lon="35.26129153333333476894"><ele>220.90885486340076</ele><time>2012-10-12T04:56:40Z</time></trkpt><trkpt lat="32.74738324999999861120" lon="35.26131173333333634901"><ele>220.31666278346205</ele><time>2012-10-12T04:56:43Z</time></trkpt><trkpt lat="32.74744861666666650990" lon="35.26136778333333410274"><ele>219.72618995064298</ele><time>2012-10-12T04:56:46Z</time></trkpt><trkpt lat="32.74751211666666961264" lon="35.26143516666666499759"><ele>219.23532157548928</ele><time>2012-10-12T04:56:49Z</time></trkpt><trkpt lat="32.74760178333333016099" lon="35.26153355000000289010"><ele>218.6006187123972</ele><time>2012-10-12T04:56:52Z</time></trkpt><trkpt lat="32.74770095000000225127" lon="35.26166911666666692327"><ele>218.10177790272778</ele><time>2012-10-12T04:56:55Z</time></trkpt><trkpt lat="32.74771824999999836336" lon="35.26179954999999921483"><ele>218.60236514757318</ele><time>2012-10-12T04:56:58Z</time></trkpt><trkpt lat="32.74773321666666703322" lon="35.26191658333333123210"><ele>219.0688600275472</ele><time>2012-10-12T04:57:01Z</time></trkpt><trkpt lat="32.74772578333333683531" lon="35.26204263333332988850"><ele>219.83971458030916</ele><time>2012-10-12T04:57:04Z</time></trkpt><trkpt lat="32.74771539999999703241" lon="35.26215739999999954080"><ele>220.39135778514648</ele><time>2012-10-12T04:57:07Z</time></trkpt><trkpt lat="32.74766466666666531182" lon="35.26223813333333367837"><ele>221.24440294353025</ele><time>2012-10-12T04:57:10Z</time></trkpt><trkpt lat="32.74759625000000085038" lon="35.26229099999999760939"><ele>222.28460439949674</ele><time>2012-10-12T04:57:13Z</time></trkpt><trkpt lat="32.74754441666666338051" lon="35.26233306666666322826"><ele>223.12318233554743</ele><time>2012-10-12T04:57:16Z</time></trkpt><trkpt lat="32.74746600000000285036" lon="35.26234775000000354339"><ele>224.21407503941776</ele><time>2012-10-12T04:57:19Z</time></trkpt><trkpt lat="32.74742429999999870915" lon="35.26239186666666824976"><ele>225.00031560906172</ele><time>2012-10-12T04:57:22Z</time></trkpt><trkpt lat="32.74737644999999730544" lon="35.26241456666666351794"><ele>225.77784230825716</ele><time>2012-10-12T04:57:25Z</time></trkpt><trkpt lat="32.74731853333333475575" lon="35.26243193333333181272"><ele>226.6796801786151</ele><time>2012-10-12T04:57:28Z</time></trkpt><trkpt lat="32.74723516666666967012" lon="35.26247051666666720848"><ele>228.10461741541144</ele><time>2012-10-12T04:57:31Z</time></trkpt><trkpt lat="32.74716906666666460524" lon="35.26251503333333658929"><ele>229.38058426830716</ele><time>2012-10-12T04:57:34Z</time></trkpt><trkpt lat="32.74713258333333243399" lon="35.26256484999999685215"><ele>230.3079450274375</ele><time>2012-10-12T04:57:37Z</time></trkpt><trkpt lat="32.74706986666666352903" lon="35.26260138333333316041"><ele>231.43853397403322</ele><time>2012-10-12T04:57:40Z</time></trkpt><trkpt lat="32.74703058333333416385" lon="35.26263838333333211494"><ele>232.0000584015984</ele><time>2012-10-12T04:57:43Z</time></trkpt><trkpt lat="32.74702248333333187702" lon="35.26271150000000176306"><ele>232.65967752363883</ele><time>2012-10-12T04:57:46Z</time></trkpt><trkpt lat="32.74700471666666601323" lon="35.26281131666666368574"><ele>233.59868646239568</ele><time>2012-10-12T04:57:49Z</time></trkpt><trkpt lat="32.74700676666666510073" lon="35.26286526666666532037"><ele>234.03330715801582</ele><time>2012-10-12T04:57:52Z</time></trkpt><trkpt lat="32.74698768333333021019" lon="35.26291334999999804722"><ele>234.54649682402035</ele><time>2012-10-12T04:57:55Z</time></trkpt><trkpt lat="32.74696678333333466071" lon="35.26297316666666858964"><ele>234.98946501555716</ele><time>2012-10-12T04:57:58Z</time></trkpt><trkpt lat="32.74697241666666513993" lon="35.26304093333333611326"><ele>235.30167574357515</ele><time>2012-10-12T04:58:01Z</time></trkpt><trkpt lat="32.74692935000000204582" lon="35.26309533333333234850"><ele>235.86073366353173</ele><time>2012-10-12T04:58:04Z</time></trkpt><trkpt lat="32.74694269999999818310" lon="35.26315278333333225191"><ele>236.0727929163527</ele><time>2012-10-12T04:58:07Z</time></trkpt><trkpt lat="32.74690566666666313722" lon="35.26321483333333617338"><ele>236.64976591958373</ele><time>2012-10-12T04:58:10Z</time></trkpt><trkpt lat="32.74690041666666928677" lon="35.26327516666666639367"><ele>237.0071577995213</ele><time>2012-10-12T04:58:13Z</time></trkpt><trkpt lat="32.74690348333333389519" lon="35.26334011666666867768"><ele>237.3309935491439</ele><time>2012-10-12T04:58:16Z</time></trkpt><trkpt lat="32.74689328333333548926" lon="35.26338810000000023592"><ele>237.66121620592034</ele><time>2012-10-12T04:58:19Z</time></trkpt><trkpt lat="32.74687731666666934416" lon="35.26344610000000301397"><ele>238.09150762032849</ele><time>2012-10-12T04:58:22Z</time></trkpt><trkpt lat="32.74685753333333337878" lon="35.26351311666666532574"><ele>238.6056338203218</ele><time>2012-10-12T04:58:25Z</time></trkpt><trkpt lat="32.74684183333333464816" lon="35.26358164999999900147"><ele>239.10342920751035</ele><time>2012-10-12T04:58:28Z</time></trkpt><trkpt lat="32.74682181666666735964" lon="35.26364531666666835008"><ele>239.61541586272725</ele><time>2012-10-12T04:58:31Z</time></trkpt><trkpt lat="32.74682386666666644714" lon="35.26371300000000275077"><ele>239.97427123153653</ele><time>2012-10-12T04:58:34Z</time></trkpt><trkpt lat="32.74683566666666933997" lon="35.26375124999999854936"><ele>240.08489999945155</ele><time>2012-10-12T04:58:38Z</time></trkpt><trkpt lat="32.74683736666666789006" lon="35.26379390000000313421"><ele>240.22415999948012</ele><time>2012-10-12T04:58:41Z</time></trkpt><trkpt lat="32.74682190000000048258" lon="35.26383973333333443634"><ele>240.51907999947872</ele><time>2012-10-12T04:58:44Z</time></trkpt><trkpt lat="32.74680268333333543751" lon="35.26387456666666508909"><ele>240.8058999994552</ele><time>2012-10-12T04:58:47Z</time></trkpt><trkpt lat="32.74683186666666756537" lon="35.26387781666666398905"><ele>240.57245999946159</ele><time>2012-10-12T04:58:55Z</time></trkpt><trkpt lat="32.74687004999999828669" lon="35.26387036666666574547"><ele>240.22489999949016</ele><time>2012-10-12T04:58:59Z</time></trkpt><trkpt lat="32.74689980000000133487" lon="35.26388229999999879283"><ele>240.01795999946373</ele><time>2012-10-12T04:59:02Z</time></trkpt><trkpt lat="32.74689178333333217097" lon="35.26396081666666759702"><ele>240.36795999949206</ele><time>2012-10-12T04:59:05Z</time></trkpt><trkpt lat="32.74694978333333494902" lon="35.26407688333333112496"><ele>240.29859999945748</ele><time>2012-10-12T04:59:08Z</time></trkpt><trkpt lat="32.74700653333333377759" lon="35.26418089999999949669"><ele>240.196359999448</ele><time>2012-10-12T04:59:11Z</time></trkpt><trkpt lat="32.74701369999999656102" lon="35.26426903333333484625"><ele>240.45343999948764</ele><time>2012-10-12T04:59:14Z</time></trkpt><trkpt lat="32.74699774999999846159" lon="35.26433480000000031396"><ele>240.824179999467</ele><time>2012-10-12T04:59:17Z</time></trkpt><trkpt lat="32.74695701666666991514" lon="35.26437798333333262235"><ele>241.3217999994227</ele><time>2012-10-12T04:59:20Z</time></trkpt><trkpt lat="32.74694151666666641631" lon="35.26445541666666372294"><ele>241.73075999944365</ele><time>2012-10-12T04:59:23Z</time></trkpt><trkpt lat="32.74695015000000353211" lon="35.26453684999999893535"><ele>241.95139999941847</ele><time>2012-10-12T04:59:26Z</time></trkpt><trkpt lat="32.74693154999999933352" lon="35.26465575000000285399"><ele>242.63840796548817</ele><time>2012-10-12T04:59:29Z</time></trkpt><trkpt lat="32.74698320000000251184" lon="35.26472485000000034461"><ele>242.54080557064557</ele><time>2012-10-12T04:59:32Z</time></trkpt><trkpt lat="32.74701483333333129622" lon="35.26478854999999867914"><ele>242.58068257147434</ele><time>2012-10-12T04:59:35Z</time></trkpt><trkpt lat="32.74703381666666501815" lon="35.26486125000000271257"><ele>242.76975656948835</ele><time>2012-10-12T04:59:38Z</time></trkpt><trkpt lat="32.74704518333333425062" lon="35.26493448333333446953"><ele>243.02527077585557</ele><time>2012-10-12T04:59:41Z</time></trkpt><trkpt lat="32.74704444999999708443" lon="35.26499694999999690026"><ele>243.33513922386743</ele><time>2012-10-12T04:59:44Z</time></trkpt><trkpt lat="32.74703356666666564934" lon="35.26506556666666369892"><ele>243.76731876904904</ele><time>2012-10-12T04:59:47Z</time></trkpt><trkpt lat="32.74702378333333285809" lon="35.26513838333332984121"><ele>244.2120566470394</ele><time>2012-10-12T04:59:50Z</time></trkpt><trkpt lat="32.74702564999999765405" lon="35.26521154999999652091"><ele>244.5521621886546</ele><time>2012-10-12T04:59:53Z</time></trkpt><trkpt lat="32.74701530000000104792" lon="35.26527236666666453857"><ele>244.94634321702767</ele><time>2012-10-12T04:59:56Z</time></trkpt><trkpt lat="32.74699520000000063646" lon="35.26534748333333624259"><ele>245.50521980425412</ele><time>2012-10-12T04:59:59Z</time></trkpt><trkpt lat="32.74697934999999660022" lon="35.26542236666666951805"><ele>246.03329349471073</ele><time>2012-10-12T05:00:02Z</time></trkpt><trkpt lat="32.74696300000000093178" lon="35.26549099999999725696"><ele>246.61408047943252</ele><time>2012-10-12T05:00:05Z</time></trkpt><trkpt lat="32.74693299999999851480" lon="35.26555321666666742431"><ele>247.2920603434761</ele><time>2012-10-12T05:00:08Z</time></trkpt><trkpt lat="32.74690381666666638694" lon="35.26561728333333434193"><ele>247.97892021026416</ele><time>2012-10-12T05:00:11Z</time></trkpt><trkpt lat="32.74688768333333399596" lon="35.26569408333333655037"><ele>248.62089826146638</ele><time>2012-10-12T05:00:14Z</time></trkpt><trkpt lat="32.74685506666666867659" lon="35.26576763333333275341"><ele>249.41252414662682</ele><time>2012-10-12T05:00:17Z</time></trkpt><trkpt lat="32.74685085000000128730" lon="35.26585388333333526134"><ele>250.00150964624711</ele><time>2012-10-12T05:00:20Z</time></trkpt><trkpt lat="32.74682940000000286318" lon="35.26591104999999970460"><ele>250.58483818661503</ele><time>2012-10-12T05:00:23Z</time></trkpt><trkpt lat="32.74680858333333333121" lon="35.26598884999999938827"><ele>251.29707861344028</ele><time>2012-10-12T05:00:26Z</time></trkpt><trkpt lat="32.74679708333333394421" lon="35.26605931666667004265"><ele>251.86880032945726</ele><time>2012-10-12T05:00:29Z</time></trkpt><trkpt lat="32.74678395000000108439" lon="35.26613351666666318351"><ele>252.48422263660584</ele><time>2012-10-12T05:00:32Z</time></trkpt><trkpt lat="32.74678169999999965967" lon="35.26619008333333482597"><ele>252.8721150754512</ele><time>2012-10-12T05:00:35Z</time></trkpt><trkpt lat="32.74677270000000106620" lon="35.26626451666666639539"><ele>253.36339391613623</ele><time>2012-10-12T05:00:38Z</time></trkpt><trkpt lat="32.74675891666666416313" lon="35.26633700000000004593"><ele>253.56187167936966</ele><time>2012-10-12T05:00:41Z</time></trkpt><trkpt lat="32.74673909999999921183" lon="35.26640498333333084702"><ele>253.83903847294286</ele><time>2012-10-12T05:00:44Z</time></trkpt><trkpt lat="32.74672491666666473975" lon="35.26647303333333383080"><ele>254.06370785535316</ele><time>2012-10-12T05:00:47Z</time></trkpt><trkpt lat="32.74670948333333342362" lon="35.26653463333333604623"><ele>254.3089425881255</ele><time>2012-10-12T05:00:50Z</time></trkpt><trkpt lat="32.74669578333333674891" lon="35.26659653333333466207"><ele>254.54326220087614</ele><time>2012-10-12T05:00:53Z</time></trkpt><trkpt lat="32.74669360000000040145" lon="35.26666423333333000301"><ele>254.64193749690267</ele><time>2012-10-12T05:00:56Z</time></trkpt><trkpt lat="32.74668915000000168902" lon="35.26672703333333203091"><ele>254.76784227448084</ele><time>2012-10-12T05:00:59Z</time></trkpt><trkpt lat="32.74668410000000307036" lon="35.26679911666666811243"><ele>254.91551990005652</ele><time>2012-10-12T05:01:02Z</time></trkpt><trkpt lat="32.74667885000000211448" lon="35.26687195000000230038"><ele>255.07111403606262</ele><time>2012-10-12T05:01:05Z</time></trkpt><trkpt lat="32.74666788333333045102" lon="35.26694708333333494465"><ele>255.31847483932788</ele><time>2012-10-12T05:01:08Z</time></trkpt><trkpt lat="32.74664761666666379369" lon="35.26700133333333297969"><ele>255.689782303322</ele><time>2012-10-12T05:01:11Z</time></trkpt><trkpt lat="32.74662841666666679430" lon="35.26705919999999849779"><ele>256.0624229432702</ele><time>2012-10-12T05:01:14Z</time></trkpt><trkpt lat="32.74661125000000083674" lon="35.26710860000000025138"><ele>256.3644999992364</ele><time>2012-10-12T05:01:17Z</time></trkpt><trkpt lat="32.74658958333333202972" lon="35.26717165000000164810"><ele>256.70249999926943</ele><time>2012-10-12T05:01:20Z</time></trkpt><trkpt lat="32.74656251666666406663" lon="35.26722918333333467444"><ele>257.1247399992893</ele><time>2012-10-12T05:01:23Z</time></trkpt><trkpt lat="32.74652044999999844777" lon="35.26728603333333467162"><ele>257.78097999927235</ele><time>2012-10-12T05:01:26Z</time></trkpt><trkpt lat="32.74649088333333679657" lon="35.26731321666666474357"><ele>258.2422199991937</ele><time>2012-10-12T05:01:29Z</time></trkpt><trkpt lat="32.74647003333333117325" lon="35.26738058333333469818"><ele>258.56747999928115</ele><time>2012-10-12T05:01:32Z</time></trkpt><trkpt lat="32.74643388333333149376" lon="35.26742279999999851725"><ele>259.13141999927564</ele><time>2012-10-12T05:01:35Z</time></trkpt><trkpt lat="32.74641276666666556139" lon="35.26749180000000194468"><ele>259.4608399992639</ele><time>2012-10-12T05:01:38Z</time></trkpt><trkpt lat="32.74638393333333397095" lon="35.26754856666666881893"><ele>259.91063999923625</ele><time>2012-10-12T05:01:41Z</time></trkpt><trkpt lat="32.74634836666666615201" lon="35.26759163333333191304"><ele>260.4654799992537</ele><time>2012-10-12T05:01:44Z</time></trkpt><trkpt lat="32.74630751666666839128" lon="35.26764649999999789998"><ele>261.1027399992182</ele><time>2012-10-12T05:01:47Z</time></trkpt><trkpt lat="32.74627733333333168275" lon="35.26768308333333123983"><ele>261.5735999992704</ele><time>2012-10-12T05:01:50Z</time></trkpt><trkpt lat="32.74625828333333288356" lon="35.26773033333333273731"><ele>261.87077999925145</ele><time>2012-10-12T05:01:53Z</time></trkpt><trkpt lat="32.74622776666666368328" lon="35.26776966666666623951"><ele>262.1820536474018</ele><time>2012-10-12T05:01:56Z</time></trkpt><trkpt lat="32.74620155000000210066" lon="35.26782921666666936744"><ele>262.4008787877591</ele><time>2012-10-12T05:01:59Z</time></trkpt><trkpt lat="32.74617888333333581841" lon="35.26787066666666703441"><ele>262.59266923135493</ele><time>2012-10-12T05:02:02Z</time></trkpt><trkpt lat="32.74616481666666345518" lon="35.26791708333333019709"><ele>262.71609110941694</ele><time>2012-10-12T05:02:05Z</time></trkpt><trkpt lat="32.74613978333333363935" lon="35.26797475000000048340"><ele>263.004738521391</ele><time>2012-10-12T05:02:08Z</time></trkpt><trkpt lat="32.74610595000000046184" lon="35.26801796666666888314"><ele>263.3525928609916</ele><time>2012-10-12T05:02:11Z</time></trkpt><trkpt lat="32.74611773333333530900" lon="35.26806839999999709789"><ele>263.32201973696976</ele><time>2012-10-12T05:02:14Z</time></trkpt><trkpt lat="32.74609741666666451465" lon="35.26810861666666596648"><ele>263.55421525340773</ele><time>2012-10-12T05:02:17Z</time></trkpt><trkpt lat="32.74607746666666940882" lon="35.26816569999999728680"><ele>263.80999183296086</ele><time>2012-10-12T05:02:20Z</time></trkpt><trkpt lat="32.74604551666666907295" lon="35.26822105000000107111"><ele>264.17254749816817</ele><time>2012-10-12T05:02:23Z</time></trkpt><trkpt lat="32.74602038333333098308" lon="35.26827113333333585388"><ele>264.47134369381166</ele><time>2012-10-12T05:02:26Z</time></trkpt><trkpt lat="32.74599111666666573228" lon="35.26831088333333497076"><ele>264.79464081899727</ele><time>2012-10-12T05:02:29Z</time></trkpt><trkpt lat="32.74598456666666379533" lon="35.26835846666666895999"><ele>264.9286665626147</ele><time>2012-10-12T05:02:32Z</time></trkpt><trkpt lat="32.74596214999999688189" lon="35.26841158333333225983"><ele>265.21698493741076</ele><time>2012-10-12T05:02:35Z</time></trkpt><trkpt lat="32.74592046666666789179" lon="35.26844893333333175178"><ele>265.65937543616985</ele><time>2012-10-12T05:02:38Z</time></trkpt><trkpt lat="32.74588883333333200198" lon="35.26849794999999687661"><ele>266.0336538353898</ele><time>2012-10-12T05:02:41Z</time></trkpt><trkpt lat="32.74587129999999746133" lon="35.26853965000000101782"><ele>266.2683902546075</ele><time>2012-10-12T05:02:44Z</time></trkpt><trkpt lat="32.74584713333333496621" lon="35.26857013333333412675"><ele>266.54733430976773</ele><time>2012-10-12T05:02:47Z</time></trkpt><trkpt lat="32.74583224999999941929" lon="35.26861256666666832871"><ele>266.7628056033892</ele><time>2012-10-12T05:02:50Z</time></trkpt><trkpt lat="32.74580310000000338277" lon="35.26867179999999990514"><ele>267.14607548414733</ele><time>2012-10-12T05:02:53Z</time></trkpt><trkpt lat="32.74578131666666536148" lon="35.26869434999999697311"><ele>267.395021591786</ele><time>2012-10-12T05:02:56Z</time></trkpt><trkpt lat="32.74576565000000272221" lon="35.26872829999999936490"><ele>267.6085850305514</ele><time>2012-10-12T05:02:59Z</time></trkpt><trkpt lat="32.74573011666666388919" lon="35.26876958333333078599"><ele>268.0613799994242</ele><time>2012-10-12T05:03:02Z</time></trkpt><trkpt lat="32.74572006666666368346" lon="35.26883815000000055306"><ele>268.40469999943707</ele><time>2012-10-12T05:03:05Z</time></trkpt><trkpt lat="32.74568668333333221199" lon="35.26886751666666697247"><ele>268.8308999994179</ele><time>2012-10-12T05:03:08Z</time></trkpt><trkpt lat="32.74566828333333035062" lon="35.26890553333333144792"><ele>269.1443999994276</ele><time>2012-10-12T05:03:11Z</time></trkpt><trkpt lat="32.74564649999999943475" lon="35.26894193333333049623"><ele>269.48455999940063</ele><time>2012-10-12T05:03:14Z</time></trkpt><trkpt lat="32.74562458333333125893" lon="35.26897748333333026949"><ele>269.822939999414</ele><time>2012-10-12T05:03:17Z</time></trkpt><trkpt lat="32.74560418333333444707" lon="35.26901488333333389846"><ele>270.15341999939614</ele><time>2012-10-12T05:03:20Z</time></trkpt><trkpt lat="32.74558508333333151086" lon="35.26905143333333114697"><ele>270.46835999941413</ele><time>2012-10-12T05:03:23Z</time></trkpt><trkpt lat="32.74556843333333233659" lon="35.26908111666666911788"><ele>270.73505999942273</ele><time>2012-10-12T05:03:26Z</time></trkpt><trkpt lat="32.74555608333333367455" lon="35.26912741666667017171"><ele>271.0202999994134</ele><time>2012-10-12T05:03:29Z</time></trkpt><trkpt lat="32.74554443333333608734" lon="35.26916328333333439105"><ele>271.2612599993812</ele><time>2012-10-12T05:03:32Z</time></trkpt><trkpt lat="32.74552539999999822840" lon="35.26920486666666931796"><ele>271.5936799994301</ele><time>2012-10-12T05:03:35Z</time></trkpt><trkpt lat="32.74551198333332990842" lon="35.26924921666666534747"><ele>271.88213999943133</ele><time>2012-10-12T05:03:38Z</time></trkpt><trkpt lat="32.74549650000000156069" lon="35.26929428333333049750"><ele>272.1930199993778</ele><time>2012-10-12T05:03:41Z</time></trkpt><trkpt lat="32.74548286666666996325" lon="35.26935361666666324254"><ele>272.53749999935866</ele><time>2012-10-12T05:03:44Z</time></trkpt><trkpt lat="32.74546728333333334149" lon="35.26940636666666506471"><ele>272.8769999993965</ele><time>2012-10-12T05:03:47Z</time></trkpt><trkpt lat="32.74544610000000233185" lon="35.26945873333333025812"><ele>273.26887999936855</ele><time>2012-10-12T05:03:50Z</time></trkpt><trkpt lat="32.74543144999999810807" lon="35.26948986666666741030"><ele>273.5215999994226</ele><time>2012-10-12T05:03:53Z</time></trkpt><trkpt lat="32.74541099999999715919" lon="35.26952388333333487935"><ele>273.8010353355332</ele><time>2012-10-12T05:03:56Z</time></trkpt><trkpt lat="32.74539529999999842858" lon="35.26955166666666485753"><ele>273.9402029595185</ele><time>2012-10-12T05:03:59Z</time></trkpt><trkpt lat="32.74538091666666872470" lon="35.26958143333333595137"><ele>274.0792534355259</ele><time>2012-10-12T05:04:02Z</time></trkpt><trkpt lat="32.74535261666666485780" lon="35.26960224999999837792"><ele>274.2008647215048</ele><time>2012-10-12T05:04:05Z</time></trkpt><trkpt lat="32.74532349999999780721" lon="35.26960590000000195232"><ele>274.28078754351526</ele><time>2012-10-12T05:04:08Z</time></trkpt><trkpt lat="32.74531191666666529727" lon="35.26956998333333359597"><ele>274.20938114151977</ele><time>2012-10-12T05:05:33Z</time></trkpt><trkpt lat="32.74530105000000190785" lon="35.26953929999999814981"><ele>274.14095306430187</ele><time>2012-10-12T05:06:58Z</time></trkpt><trkpt lat="32.74531975000000016962" lon="35.26956373333333516484"><ele>274.1702461275212</ele><time>2012-10-12T05:07:09Z</time></trkpt><trkpt lat="32.74535148333333012260" lon="35.26957903333333632645"><ele>274.142170845137</ele><time>2012-10-12T05:08:34Z</time></trkpt><trkpt lat="32.74536979999999886104" lon="35.26960278333333320688"><ele>274.1604726411065</ele><time>2012-10-12T05:11:16Z</time></trkpt><trkpt lat="32.74534175000000146838" lon="35.26960631666666756701"><ele>274.2374394415033</ele><time>2012-10-12T05:11:42Z</time></trkpt><trkpt lat="32.74531321666666627834" lon="35.26958986666666362453"><ele>274.26493325709885</ele><time>2012-10-12T05:12:50Z</time></trkpt><trkpt lat="32.74535498333333549681" lon="35.26957769999999925403"><ele>274.1292611251118</ele><time>2012-10-12T05:12:58Z</time></trkpt><trkpt lat="32.74539539999999959718" lon="35.26957388333333653918"><ele>274.01788818993464</ele><time>2012-10-12T05:13:01Z</time></trkpt><trkpt lat="32.74543318333333274950" lon="35.26957498333333518303"><ele>273.81137999941376</ele><time>2012-10-12T05:13:04Z</time></trkpt><trkpt lat="32.74548130000000156770" lon="35.26956845000000129176"><ele>273.32593999939155</ele><time>2012-10-12T05:13:07Z</time></trkpt><trkpt lat="32.74551996666667008640" lon="35.26959639999999751581"><ele>273.05134215615806</ele><time>2012-10-12T05:13:10Z</time></trkpt><trkpt lat="32.74555455000000137034" lon="35.26963571666667007776"><ele>272.86444489300976</ele><time>2012-10-12T05:13:13Z</time></trkpt><trkpt lat="32.74560201666666614528" lon="35.26965783333333348537"><ele>272.5187460874263</ele><time>2012-10-12T05:13:16Z</time></trkpt><trkpt lat="32.74565656666666768615" lon="35.26969148333333237133"><ele>272.18068639782155</ele><time>2012-10-12T05:13:19Z</time></trkpt><trkpt lat="32.74572045000000031223" lon="35.26973120000000250229"><ele>271.8266638650609</ele><time>2012-10-12T05:13:22Z</time></trkpt><trkpt lat="32.74578261666666634255" lon="35.26978893333333076043"><ele>271.63038772425773</ele><time>2012-10-12T05:13:25Z</time></trkpt><trkpt lat="32.74583786666666895826" lon="35.26985193333333512555"><ele>271.57860052428185</ele><time>2012-10-12T05:13:28Z</time></trkpt><trkpt lat="32.74588598333333067103" lon="35.26990930000000190603"><ele>271.59864093233426</ele><time>2012-10-12T05:13:31Z</time></trkpt><trkpt lat="32.74594696666666493456" lon="35.26995699999999800411"><ele>271.51798294351784</ele><time>2012-10-12T05:13:34Z</time></trkpt><trkpt lat="32.74596879999999998745" lon="35.27000178333333479941"><ele>271.6999872699414</ele><time>2012-10-12T05:13:37Z</time></trkpt><trkpt lat="32.74601658333333631390" lon="35.27005611666666595738"><ele>271.8260483955247</ele><time>2012-10-12T05:13:40Z</time></trkpt><trkpt lat="32.74608909999999895035" lon="35.27008853333333604496"><ele>271.69224308439084</ele><time>2012-10-12T05:13:43Z</time></trkpt><trkpt lat="32.74614780000000280324" lon="35.27013018333333604915"><ele>271.7480070747887</ele><time>2012-10-12T05:13:46Z</time></trkpt><trkpt lat="32.74623710000000187392" lon="35.27016516666666490210"><ele>271.64459118357297</ele><time>2012-10-12T05:13:49Z</time></trkpt><trkpt lat="32.74634086666666377141" lon="35.27021393333333065812"><ele>271.80622175320934</ele><time>2012-10-12T05:13:52Z</time></trkpt><trkpt lat="32.74645530000000093196" lon="35.27031206666666918181"><ele>272.3495293212278</ele><time>2012-10-12T05:13:55Z</time></trkpt><trkpt lat="32.74644786666666362862" lon="35.27040050000000093178"><ele>273.14629900762066</ele><time>2012-10-12T05:13:58Z</time></trkpt><trkpt lat="32.74646839999999770043" lon="35.27048466666666826086"><ele>273.39440281549514</ele><time>2012-10-12T05:14:01Z</time></trkpt><trkpt lat="32.74647579999999891243" lon="35.27057441666666903757"><ele>273.601141815485</ele><time>2012-10-12T05:14:04Z</time></trkpt><trkpt lat="32.74647809999999736874" lon="35.27064905000000294422"><ele>273.78643132188773</ele><time>2012-10-12T05:14:07Z</time></trkpt><trkpt lat="32.74648084999999753109" lon="35.27073451666666414894"><ele>273.99621709426657</ele><time>2012-10-12T05:14:10Z</time></trkpt><trkpt lat="32.74647906666666585807" lon="35.27082455000000038581"><ele>274.24011170505906</ele><time>2012-10-12T05:14:13Z</time></trkpt><trkpt lat="32.74647886666666352085" lon="35.27092033333333631617"><ele>274.49130275147195</ele><time>2012-10-12T05:14:16Z</time></trkpt><trkpt lat="32.74647901666666882647" lon="35.27101893333333038072"><ele>274.74784626821696</ele><time>2012-10-12T05:14:19Z</time></trkpt><trkpt lat="32.74648238333332983530" lon="35.27112079999999849633"><ele>274.9914233626489</ele><time>2012-10-12T05:14:22Z</time></trkpt><trkpt lat="32.74649051666666821347" lon="35.27122378333333330147"><ele>275.2011399550096</ele><time>2012-10-12T05:14:25Z</time></trkpt><trkpt lat="32.74648454999999813708" lon="35.27132726666666684423"><ele>275.00698302810406</ele><time>2012-10-12T05:14:28Z</time></trkpt><trkpt lat="32.74645329999999887605" lon="35.27145380000000329801"><ele>274.7428971416846</ele><time>2012-10-12T05:14:31Z</time></trkpt><trkpt lat="32.74641873333333563778" lon="35.27157846666666785040"><ele>274.5228304824647</ele><time>2012-10-12T05:14:34Z</time></trkpt><trkpt lat="32.74636568333333030978" lon="35.27167368333333286046"><ele>274.571241134938</ele><time>2012-10-12T05:14:37Z</time></trkpt><trkpt lat="32.74632918333333009286" lon="35.27177306666666822821"><ele>274.4871978457308</ele><time>2012-10-12T05:14:40Z</time></trkpt><trkpt lat="32.74630086666666528572" lon="35.27187895000000139589"><ele>274.3234706697148</ele><time>2012-10-12T05:14:43Z</time></trkpt><trkpt lat="32.74628753333333008868" lon="35.27200946666666681040"><ele>273.95463234493235</ele><time>2012-10-12T05:14:46Z</time></trkpt><trkpt lat="32.74625171666667000636" lon="35.27212206666666816091"><ele>273.89281149689117</ele><time>2012-10-12T05:14:49Z</time></trkpt><trkpt lat="32.74620258333333566725" lon="35.27221999999999724196"><ele>273.7298103994486</ele><time>2012-10-12T05:14:52Z</time></trkpt><trkpt lat="32.74615250000000088448" lon="35.27227266666666594119"><ele>273.620105599448</ele><time>2012-10-12T05:14:55Z</time></trkpt><trkpt lat="32.74612916666666961873" lon="35.27232891666666603214"><ele>273.4442109994538</ele><time>2012-10-12T05:14:58Z</time></trkpt><trkpt lat="32.74612353333333203409" lon="35.27237113333332985121"><ele>273.29832899787044</ele><time>2012-10-12T05:15:01Z</time></trkpt><trkpt lat="32.74611696666666915689" lon="35.27241035000000124455"><ele>273.15856442666046</ele><time>2012-10-12T05:15:04Z</time></trkpt><trkpt lat="32.74610928333333248474" lon="35.27246629999999782967"><ele>272.9529921898788</ele><time>2012-10-12T05:15:07Z</time></trkpt><trkpt lat="32.74610605000000163045" lon="35.27251321666666683541"><ele>272.7791020610802</ele><time>2012-10-12T05:15:10Z</time></trkpt><trkpt lat="32.74610425000000191176" lon="35.27257654999999658685"><ele>272.54498211550447</ele><time>2012-10-12T05:15:13Z</time></trkpt><trkpt lat="32.74608889999999661313" lon="35.27267296666666851479"><ele>272.15080700428564</ele><time>2012-10-12T05:15:16Z</time></trkpt><trkpt lat="32.74606948333333633627" lon="35.27275836666666464225"><ele>271.7603348107313</ele><time>2012-10-12T05:15:19Z</time></trkpt><trkpt lat="32.74604883333333305018" lon="35.27286028333332978946"><ele>271.26771874354006</ele><time>2012-10-12T05:15:22Z</time></trkpt><trkpt lat="32.74602901666666809888" lon="35.27296723333333261508"><ele>270.91950438760114</ele><time>2012-10-12T05:15:25Z</time></trkpt><trkpt lat="32.74600668333333430837" lon="35.27307375000000178034"><ele>270.7453888496098</ele><time>2012-10-12T05:15:28Z</time></trkpt><trkpt lat="32.74598495000000042410" lon="35.27316665000000028840"><ele>270.5506818056174</ele><time>2012-10-12T05:15:31Z</time></trkpt><trkpt lat="32.74596704999999730035" lon="35.27325824999999781539"><ele>270.35585276960705</ele><time>2012-10-12T05:15:34Z</time></trkpt><trkpt lat="32.74595461666666551537" lon="35.27335155000000099790"><ele>270.1791275216255</ele><time>2012-10-12T05:15:37Z</time></trkpt><trkpt lat="32.74595066666666554056" lon="35.27345758333333236578"><ele>270.04651639963987</ele><time>2012-10-12T05:15:40Z</time></trkpt><trkpt lat="32.74594890000000191321" lon="35.27356435000000089985"><ele>269.9278143476795</ele><time>2012-10-12T05:15:43Z</time></trkpt><trkpt lat="32.74594973333333314258" lon="35.27367339999999984457"><ele>269.83080307167444</ele><time>2012-10-12T05:15:46Z</time></trkpt><trkpt lat="32.74594946666666572810" lon="35.27377766666666758510"><ele>269.7662132476959</ele><time>2012-10-12T05:15:49Z</time></trkpt><trkpt lat="32.74595140000000270675" lon="35.27388761666666994188"><ele>269.8342929645328</ele><time>2012-10-12T05:15:52Z</time></trkpt><trkpt lat="32.74594968333333611099" lon="35.27397785000000141054"><ele>269.8551150993301</ele><time>2012-10-12T05:15:55Z</time></trkpt><trkpt lat="32.74596950000000106229" lon="35.27406791666666663332"><ele>270.09901289970844</ele><time>2012-10-12T05:15:58Z</time></trkpt><trkpt lat="32.74599621666666848796" lon="35.27415086666666610427"><ele>270.4056359213129</ele><time>2012-10-12T05:16:01Z</time></trkpt><trkpt lat="32.74602984999999932825" lon="35.27420806666666663887"><ele>270.7675944620852</ele><time>2012-10-12T05:16:04Z</time></trkpt><trkpt lat="32.74603943333333688770" lon="35.27427033333333383780"><ele>270.88365339172594</ele><time>2012-10-12T05:16:07Z</time></trkpt><trkpt lat="32.74606786666666380370" lon="35.27429401666666564097"><ele>271.17564033885964</ele><time>2012-10-12T05:16:10Z</time></trkpt><trkpt lat="32.74606101666666546635" lon="35.27434325000000114869"><ele>271.1204246816759</ele><time>2012-10-12T05:16:14Z</time></trkpt><trkpt lat="32.74603178333333630690" lon="35.27439086666666412384"><ele>270.84464081411573</ele><time>2012-10-12T05:16:17Z</time></trkpt><trkpt lat="32.74600505000000083555" lon="35.27445440000000331793"><ele>270.60300160289574</ele><time>2012-10-12T05:16:20Z</time></trkpt><trkpt lat="32.74599616666666435094" lon="35.27452093333333493774"><ele>270.5403915516631</ele><time>2012-10-12T05:16:23Z</time></trkpt><trkpt lat="32.74598085000000224909" lon="35.27461381666666540013"><ele>270.48931999973297</ele><time>2012-10-12T05:16:26Z</time></trkpt><trkpt lat="32.74596458333333259816" lon="35.27470480000000208065"><ele>270.5515199997123</ele><time>2012-10-12T05:16:29Z</time></trkpt><trkpt lat="32.74594136666666344126" lon="35.27479569999999853280"><ele>270.54679999967993</ele><time>2012-10-12T05:16:32Z</time></trkpt><trkpt lat="32.74591913333333081937" lon="35.27488156666666441197"><ele>270.5394399996849</ele><time>2012-10-12T05:16:35Z</time></trkpt><trkpt lat="32.74589294999999822267" lon="35.27496653333333398450"><ele>270.491999999699</ele><time>2012-10-12T05:16:38Z</time></trkpt><trkpt lat="32.74586156666666880710" lon="35.27505123333333614255"><ele>270.39399999974177</ele><time>2012-10-12T05:16:41Z</time></trkpt><trkpt lat="32.74583013333333525452" lon="35.27514781666666721094"><ele>270.32403999973434</ele><time>2012-10-12T05:16:44Z</time></trkpt><trkpt lat="32.74580699999999922056" lon="35.27523556666666593173"><ele>270.31255999970534</ele><time>2012-10-12T05:16:47Z</time></trkpt><trkpt lat="32.74580524999999653346" lon="35.27532988333333463515"><ele>270.52211999968426</ele><time>2012-10-12T05:16:50Z</time></trkpt><trkpt lat="32.74581426666667027803" lon="35.27541715000000266400"><ele>270.819333081402</ele><time>2012-10-12T05:16:53Z</time></trkpt><trkpt lat="32.74581580000000258224" lon="35.27548989999999662359"><ele>271.1905959805536</ele><time>2012-10-12T05:16:56Z</time></trkpt><trkpt lat="32.74581733333333488645" lon="35.27557788333333377295"><ele>271.6350977277527</ele><time>2012-10-12T05:16:59Z</time></trkpt><trkpt lat="32.74579955000000097698" lon="35.27566178333333368755"><ele>271.89993774213974</ele><time>2012-10-12T05:17:02Z</time></trkpt><trkpt lat="32.74576331666666817455" lon="35.27573233333333035944"><ele>271.9703471037225</ele><time>2012-10-12T05:17:05Z</time></trkpt><trkpt lat="32.74571929999999753136" lon="35.27581008333333301152"><ele>272.0520886557026</ele><time>2012-10-12T05:17:08Z</time></trkpt><trkpt lat="32.74568750000000250111" lon="35.27588813333333206401"><ele>272.25907199972755</ele><time>2012-10-12T05:17:11Z</time></trkpt><trkpt lat="32.74567631666666756018" lon="35.27593646666666415967"><ele>272.45779543650514</ele><time>2012-10-12T05:17:14Z</time></trkpt><trkpt lat="32.74565303333333332603" lon="35.27600618333333670762"><ele>272.71102956452813</ele><time>2012-10-12T05:17:17Z</time></trkpt><trkpt lat="32.74563523333333137089" lon="35.27608141666666341507"><ele>273.0475569756718</ele><time>2012-10-12T05:17:20Z</time></trkpt><trkpt lat="32.74561118333333098462" lon="35.27615436666666681731"><ele>273.35226911648545</ele><time>2012-10-12T05:17:23Z</time></trkpt><trkpt lat="32.74558833333333041082" lon="35.27621921666666793271"><ele>273.63279855968585</ele><time>2012-10-12T05:17:26Z</time></trkpt><trkpt lat="32.74557243333333644841" lon="35.27629544999999922084"><ele>273.9694069156713</ele><time>2012-10-12T05:17:29Z</time></trkpt><trkpt lat="32.74554853333333426235" lon="35.27636538333333504625"><ele>274.21571044766756</ele><time>2012-10-12T05:17:32Z</time></trkpt><trkpt lat="32.74553556666666764841" lon="35.27643700000000137607"><ele>274.5326330396581</ele><time>2012-10-12T05:17:35Z</time></trkpt><trkpt lat="32.74552558333333251994" lon="35.27652516666666571155"><ele>274.95801429963024</ele><time>2012-10-12T05:17:38Z</time></trkpt><trkpt lat="32.74552293333333352621" lon="35.27661478333333633373"><ele>275.4196769756424</ele><time>2012-10-12T05:17:41Z</time></trkpt><trkpt lat="32.74553283333333553173" lon="35.27670063333333416722"><ele>275.88449027962173</ele><time>2012-10-12T05:17:44Z</time></trkpt><trkpt lat="32.74552771666666473038" lon="35.27678416666666549872"><ele>276.3109416995959</ele><time>2012-10-12T05:17:47Z</time></trkpt><trkpt lat="32.74556428333333002456" lon="35.27686671666666740066"><ele>276.75338885759106</ele><time>2012-10-12T05:17:50Z</time></trkpt><trkpt lat="32.74556313333333434912" lon="35.27692011666666616065"><ele>277.0170617675794</ele><time>2012-10-12T05:17:53Z</time></trkpt><trkpt lat="32.74554514999999810243" lon="35.27697141666666880155"><ele>277.27785186958897</ele><time>2012-10-12T05:17:56Z</time></trkpt><trkpt lat="32.74550535000000195396" lon="35.27702564999999879092"><ele>277.58431196156744</ele><time>2012-10-12T05:17:59Z</time></trkpt><trkpt lat="32.74547470000000259915" lon="35.27701995000000323444"><ele>277.5765440915962</ele><time>2012-10-12T05:18:02Z</time></trkpt><trkpt lat="32.74544701666666668416" lon="35.27701833333333070186"><ele>277.5877837995685</ele><time>2012-10-12T05:18:06Z</time></trkpt><trkpt lat="32.74538311666666601241" lon="35.27720535000000268155"><ele>277.09813486875476</ele><time>2012-10-12T05:18:09Z</time></trkpt><trkpt lat="32.74532500000000112550" lon="35.27735848333333024129"><ele>275.83559979959733</ele><time>2012-10-12T05:18:12Z</time></trkpt><trkpt lat="32.74527344999999911579" lon="35.27748681666666641377"><ele>274.77161117436486</ele><time>2012-10-12T05:18:15Z</time></trkpt><trkpt lat="32.74525580000000246628" lon="35.27757376666666999654"><ele>274.21520790037727</ele><time>2012-10-12T05:18:18Z</time></trkpt><trkpt lat="32.74522054999999909342" lon="35.27759256666666942692"><ele>273.81677156675084</ele><time>2012-10-12T05:18:23Z</time></trkpt><trkpt lat="32.74521566666666672063" lon="35.27764121666666596866"><ele>273.5540337515742</ele><time>2012-10-12T05:18:26Z</time></trkpt><trkpt lat="32.74517526666666356050" lon="35.27766596666666742976"><ele>273.0884526683408</ele><time>2012-10-12T05:18:29Z</time></trkpt><trkpt lat="32.74515116666666614265" lon="35.27772528333333212913"><ele>272.6152703235718</ele><time>2012-10-12T05:18:42Z</time></trkpt><trkpt lat="32.74509058333333655355" lon="35.27780881666666346064"><ele>271.7279379536128</ele><time>2012-10-12T05:18:45Z</time></trkpt><trkpt lat="32.74504029999999943357" lon="35.27790523333333538858"><ele>270.8872034987576</ele><time>2012-10-12T05:18:48Z</time></trkpt><trkpt lat="32.74498366666666981928" lon="35.27801910000000162881"><ele>268.88775999939025</ele><time>2012-10-12T05:18:51Z</time></trkpt><trkpt lat="32.74499131666666329465" lon="35.27816288333333005767"><ele>266.8815399994079</ele><time>2012-10-12T05:18:54Z</time></trkpt><trkpt lat="32.74497496666666762621" lon="35.27823058333333250403"><ele>265.7693199994101</ele><time>2012-10-12T05:18:57Z</time></trkpt><trkpt lat="32.74500689999999991642" lon="35.27829729999999841539"><ele>265.0768399994128</ele><time>2012-10-12T05:19:00Z</time></trkpt><trkpt lat="32.74503465000000090868" lon="35.27834059999999993806"><ele>264.68641999939956</ele><time>2012-10-12T05:19:03Z</time></trkpt><trkpt lat="32.74505923333333612391" lon="35.27837361666666993187"><ele>264.41747999936774</ele><time>2012-10-12T05:19:06Z</time></trkpt><trkpt lat="32.74503330000000289601" lon="35.27838236666666915653"><ele>264.07363999938</ele><time>2012-10-12T05:19:46Z</time></trkpt><trkpt lat="32.74501126666666550591" lon="35.27841004999999796610"><ele>263.48991999941165</ele><time>2012-10-12T05:19:57Z</time></trkpt><trkpt lat="32.74492738333333363698" lon="35.27842464999999805286"><ele>262.57505999942356</ele><time>2012-10-12T05:20:00Z</time></trkpt><trkpt lat="32.74483754999999973734" lon="35.27845788333333132414"><ele>261.3418999994208</ele><time>2012-10-12T05:20:03Z</time></trkpt><trkpt lat="32.74474866666666628134" lon="35.27845828333333599858"><ele>260.5895199993531</ele><time>2012-10-12T05:20:06Z</time></trkpt><trkpt lat="32.74467640000000301370" lon="35.27847568333333327928"><ele>259.7319199994217</ele><time>2012-10-12T05:20:09Z</time></trkpt><trkpt lat="32.74462925000000268483" lon="35.27853859999999741603"><ele>258.4298599994564</ele><time>2012-10-12T05:20:12Z</time></trkpt><trkpt lat="32.74465798333333310666" lon="35.27862530000000163000"><ele>257.42273999937225</ele><time>2012-10-12T05:20:15Z</time></trkpt><trkpt lat="32.74471520000000168693" lon="35.27874051666666588289"><ele>256.24423999942417</ele><time>2012-10-12T05:20:18Z</time></trkpt><trkpt lat="32.74478355000000107111" lon="35.27886709999999936826"><ele>255.58594667552512</ele><time>2012-10-12T05:20:21Z</time></trkpt><trkpt lat="32.74486401666666779420" lon="35.27893104999999707161"><ele>255.76828756556455</ele><time>2012-10-12T05:20:24Z</time></trkpt><trkpt lat="32.74495104999999739448" lon="35.27896189999999876363"><ele>256.3613179635273</ele><time>2012-10-12T05:20:27Z</time></trkpt><trkpt lat="32.74503363333333538776" lon="35.27895594999999673291"><ele>257.22598285159796</ele><time>2012-10-12T05:20:30Z</time></trkpt><trkpt lat="32.74509505000000331165" lon="35.27896330000000091331"><ele>257.7806539875883</ele><time>2012-10-12T05:20:33Z</time></trkpt><trkpt lat="32.74515484999999870297" lon="35.27897680000000235623"><ele>258.2845638555426</ele><time>2012-10-12T05:20:36Z</time></trkpt><trkpt lat="32.74522458333333219116" lon="35.27897564999999957536"><ele>258.99130604957145</ele><time>2012-10-12T05:20:39Z</time></trkpt><trkpt lat="32.74530978333333308683" lon="35.27895974999999850752"><ele>259.9339647895951</ele><time>2012-10-12T05:20:42Z</time></trkpt><trkpt lat="32.74539835000000209675" lon="35.27894020000000097070"><ele>260.9080964236139</ele><time>2012-10-12T05:20:46Z</time></trkpt><trkpt lat="32.74545504999999678830" lon="35.27895145000000098889"><ele>261.1013690882553</ele><time>2012-10-12T05:20:49Z</time></trkpt><trkpt lat="32.74549053333333148430" lon="35.27895001666666985329"><ele>261.17111074504965</ele><time>2012-10-12T05:20:52Z</time></trkpt><trkpt lat="32.74555736666666660994" lon="35.27894173333333327491"><ele>261.32621341387085</ele><time>2012-10-12T05:20:55Z</time></trkpt><trkpt lat="32.74561549999999954252" lon="35.27895598333333282426"><ele>261.3678342954759</ele><time>2012-10-12T05:20:58Z</time></trkpt><trkpt lat="32.74566276666666908568" lon="35.27896173333333251776"><ele>261.4290698106852</ele><time>2012-10-12T05:21:01Z</time></trkpt><trkpt lat="32.74570858333333234214" lon="35.27897238333333262972"><ele>261.4698221154814</ele><time>2012-10-12T05:21:04Z</time></trkpt><trkpt lat="32.74576745000000244090" lon="35.27897441666666367155"><ele>261.5704582834996</ele><time>2012-10-12T05:21:07Z</time></trkpt><trkpt lat="32.74583736666666311521" lon="35.27897724999999695683"><ele>261.68937973549197</ele><time>2012-10-12T05:21:10Z</time></trkpt><trkpt lat="32.74591685000000040873" lon="35.27899618333333364717"><ele>261.7731739842926</ele><time>2012-10-12T05:21:13Z</time></trkpt><trkpt lat="32.74598238333333455330" lon="35.27897626666666752726"><ele>261.9614281338949</ele><time>2012-10-12T05:21:16Z</time></trkpt><trkpt lat="32.74605209999999999582" lon="35.27897240000000067539"><ele>262.10200267469696</ele><time>2012-10-12T05:21:19Z</time></trkpt><trkpt lat="32.74619558333333202427" lon="35.27896726666666893379"><ele>262.37920996749824</ele><time>2012-10-12T05:21:22Z</time></trkpt><trkpt lat="32.74635658333333054770" lon="35.27899006666666537058"><ele>261.30958543132544</ele><time>2012-10-12T05:21:25Z</time></trkpt><trkpt lat="32.74653961666666646124" lon="35.27906569999999675247"><ele>259.2461220529109</ele><time>2012-10-12T05:21:28Z</time></trkpt><trkpt lat="32.74673851666666735127" lon="35.27909975000000031287"><ele>257.1306565333032</ele><time>2012-10-12T05:21:31Z</time></trkpt><trkpt lat="32.74694060000000206401" lon="35.27912450000000177397"><ele>255.01514676729528</ele><time>2012-10-12T05:21:34Z</time></trkpt><trkpt lat="32.74713500000000010459" lon="35.27912883333333127212"><ele>252.9817703993166</ele><time>2012-10-12T05:21:37Z</time></trkpt><trkpt lat="32.74734604999999731945" lon="35.27909025000000298178"><ele>250.69654131535555</ele><time>2012-10-12T05:21:40Z</time></trkpt><trkpt lat="32.74747923333333687879" lon="35.27903421666666616829"><ele>249.2322015688934</ele><time>2012-10-12T05:21:43Z</time></trkpt><trkpt lat="32.74759178333333409228" lon="35.27899328333333528462"><ele>247.96290854261036</ele><time>2012-10-12T05:21:46Z</time></trkpt><trkpt lat="32.74764928333333102728" lon="35.27896760000000142554"><ele>247.30215407304817</ele><time>2012-10-12T05:21:49Z</time></trkpt><trkpt lat="32.74775344999999759921" lon="35.27892951666666476740"><ele>246.08963567705305</ele><time>2012-10-12T05:21:52Z</time></trkpt><trkpt lat="32.74790645000000210985" lon="35.27885606666666973297"><ele>244.24675909381332</ele><time>2012-10-12T05:21:55Z</time></trkpt><trkpt lat="32.74809556666666310321" lon="35.27875796666666730061"><ele>242.07333531787685</ele><time>2012-10-12T05:21:58Z</time></trkpt><trkpt lat="32.74828396666666918691" lon="35.27865189999999984138"><ele>240.49009253371568</ele><time>2012-10-12T05:22:01Z</time></trkpt><trkpt lat="32.74848765000000128111" lon="35.27852673333333655137"><ele>239.00428685050642</ele><time>2012-10-12T05:22:04Z</time></trkpt><trkpt lat="32.74871060000000255741" lon="35.27842085000000338368"><ele>237.36307069048456</ele><time>2012-10-12T05:22:07Z</time></trkpt><trkpt lat="32.74894780000000338305" lon="35.27833150000000017599"><ele>236.20499780735307</ele><time>2012-10-12T05:22:10Z</time></trkpt><trkpt lat="32.74917503333333002047" lon="35.27826393333333498958"><ele>235.0687038681955</ele><time>2012-10-12T05:22:13Z</time></trkpt><trkpt lat="32.74937848333333079154" lon="35.27820071666666734700"><ele>234.02768979420117</ele><time>2012-10-12T05:22:16Z</time></trkpt><trkpt lat="32.74956408333333257588" lon="35.27819991666666510355"><ele>232.77114830940616</ele><time>2012-10-12T05:22:19Z</time></trkpt><trkpt lat="32.74973169999999811353" lon="35.27813580000000115433"><ele>232.3856817882668</ele><time>2012-10-12T05:22:22Z</time></trkpt><trkpt lat="32.74991318333333367718" lon="35.27808083333333399878"><ele>231.77873577948753</ele><time>2012-10-12T05:22:25Z</time></trkpt><trkpt lat="32.75006348333333505707" lon="35.27803763333333364471"><ele>231.12392802110404</ele><time>2012-10-12T05:22:28Z</time></trkpt><trkpt lat="32.75021233333333015025" lon="35.27802799999999905367"><ele>230.39748895955324</ele><time>2012-10-12T05:22:31Z</time></trkpt><trkpt lat="32.75032231666666859837" lon="35.27796778333333094224"><ele>229.70150559593446</ele><time>2012-10-12T05:22:34Z</time></trkpt><trkpt lat="32.75041850000000209775" lon="35.27790273333333459505"><ele>228.99625929572557</ele><time>2012-10-12T05:22:37Z</time></trkpt><trkpt lat="32.75051736666666357678" lon="35.27782868333333254895"><ele>229.54291027649336</ele><time>2012-10-12T05:22:40Z</time></trkpt><trkpt lat="32.75062018333333213604" lon="35.27778159999999729735"><ele>230.06574093410936</ele><time>2012-10-12T05:22:43Z</time></trkpt><trkpt lat="32.75071828333333456840" lon="35.27772336666666319616"><ele>230.4359463853258</ele><time>2012-10-12T05:22:46Z</time></trkpt><trkpt lat="32.75078785000000181071" lon="35.27766305000000102154"><ele>230.55482526294873</ele><time>2012-10-12T05:22:49Z</time></trkpt><trkpt lat="32.75086746666666925876" lon="35.27763844999999776064"><ele>230.82827056614516</ele><time>2012-10-12T05:22:52Z</time></trkpt><trkpt lat="32.75092295000000319760" lon="35.27758638333333607306"><ele>230.80414557817522</ele><time>2012-10-12T05:22:55Z</time></trkpt><trkpt lat="32.75095914999999990869" lon="35.27752875000000187811"><ele>230.62219285975505</ele><time>2012-10-12T05:22:58Z</time></trkpt><trkpt lat="32.75100653333333156070" lon="35.27743606666666664751"><ele>230.22096709093435</ele><time>2012-10-12T05:23:01Z</time></trkpt><trkpt lat="32.75104499999999774218" lon="35.27738388333333574565"><ele>229.99228583974931</ele><time>2012-10-12T05:23:04Z</time></trkpt><trkpt lat="32.75106925000000046566" lon="35.27732480000000236942"><ele>229.65122633575265</ele><time>2012-10-12T05:23:07Z</time></trkpt><trkpt lat="32.75109400000000192676" lon="35.27725313333333190258"><ele>229.197456767723</ele><time>2012-10-12T05:23:10Z</time></trkpt><trkpt lat="32.75114003333333556611" lon="35.27717905000000087057"><ele>228.71307844613636</ele><time>2012-10-12T05:23:13Z</time></trkpt><trkpt lat="32.75118783333333283281" lon="35.27708546666666933334"><ele>228.01677414374456</ele><time>2012-10-12T05:23:16Z</time></trkpt><trkpt lat="32.75123068333333264945" lon="35.27699859999999887350"><ele>227.50102776927537</ele><time>2012-10-12T05:23:19Z</time></trkpt><trkpt lat="32.75127938333333332821" lon="35.27691066666666586116"><ele>227.23877412783065</ele><time>2012-10-12T05:23:22Z</time></trkpt><trkpt lat="32.75131053333333142064" lon="35.27680856666666642241"><ele>226.90856913901533</ele><time>2012-10-12T05:23:25Z</time></trkpt><trkpt lat="32.75135668333333427427" lon="35.27669035000000263835"><ele>226.6058883282579</ele><time>2012-10-12T05:23:28Z</time></trkpt><trkpt lat="32.75139946666666901365" lon="35.27656988333333032415"><ele>226.24366912943393</ele><time>2012-10-12T05:23:31Z</time></trkpt><trkpt lat="32.75145229999999685333" lon="35.27646443333333081682"><ele>226.04838700298777</ele><time>2012-10-12T05:23:34Z</time></trkpt><trkpt lat="32.75151414999999843758" lon="35.27632763333333087985"><ele>225.71418985660083</ele><time>2012-10-12T05:23:37Z</time></trkpt><trkpt lat="32.75158128333332996363" lon="35.27620148333333105484"><ele>225.66705610572302</ele><time>2012-10-12T05:23:40Z</time></trkpt><trkpt lat="32.75166645000000187338" lon="35.27607586666666605879"><ele>225.97605164776292</ele><time>2012-10-12T05:23:43Z</time></trkpt><trkpt lat="32.75175463333333425453" lon="35.27596791666666575793"><ele>226.21400969975195</ele><time>2012-10-12T05:23:46Z</time></trkpt><trkpt lat="32.75186878333333595492" lon="35.27590779999999881511"><ele>226.67319687176595</ele><time>2012-10-12T05:23:49Z</time></trkpt><trkpt lat="32.75195066666666576793" lon="35.27583115000000191230"><ele>226.7725855197612</ele><time>2012-10-12T05:23:52Z</time></trkpt><trkpt lat="32.75201365000000208738" lon="35.27574266666666602532"><ele>226.62519927976015</ele><time>2012-10-12T05:23:55Z</time></trkpt><trkpt lat="32.75202658333333260998" lon="35.27558998333333306618"><ele>225.83288280973423</ele><time>2012-10-12T05:23:58Z</time></trkpt><trkpt lat="32.75215993333333130977" lon="35.27552691666666362380"><ele>225.98590406373327</ele><time>2012-10-12T05:24:01Z</time></trkpt><trkpt lat="32.75223518333333316832" lon="35.27543593333333404871"><ele>225.67911170536448</ele><time>2012-10-12T05:24:04Z</time></trkpt><trkpt lat="32.75231184999999811680" lon="35.27533443333333451619"><ele>224.83585999984862</ele><time>2012-10-12T05:24:07Z</time></trkpt><trkpt lat="32.75238445000000098162" lon="35.27522100000000193631"><ele>223.73601999986897</ele><time>2012-10-12T05:24:10Z</time></trkpt><trkpt lat="32.75245756666666352430" lon="35.27509820000000217988"><ele>222.52563999985813</ele><time>2012-10-12T05:24:13Z</time></trkpt><trkpt lat="32.75256158333333189603" lon="35.27498976666666408164"><ele>221.59889999980794</ele><time>2012-10-12T05:24:16Z</time></trkpt><trkpt lat="32.75266021666666915735" lon="35.27490186666666716064"><ele>220.89917999985965</ele><time>2012-10-12T05:24:19Z</time></trkpt><trkpt lat="32.75279429999999791789" lon="35.27487124999999679176"><ele>221.01447999979868</ele><time>2012-10-12T05:24:22Z</time></trkpt><trkpt lat="32.75291818333333537794" lon="35.27483761666666595147"><ele>221.06034606428693</ele><time>2012-10-12T05:24:25Z</time></trkpt><trkpt lat="32.75305296666666521332" lon="35.27481399999999922557"><ele>221.55806022387213</ele><time>2012-10-12T05:24:28Z</time></trkpt><trkpt lat="32.75317753333333570254" lon="35.27475683333333478231"><ele>221.52968478392657</ele><time>2012-10-12T05:24:31Z</time></trkpt><trkpt lat="32.75326570000000003802" lon="35.27470481666667012632"><ele>221.3163354855436</ele><time>2012-10-12T05:24:34Z</time></trkpt><trkpt lat="32.75332834999999676029" lon="35.27466125000000118916"><ele>221.04965260989755</ele><time>2012-10-12T05:24:37Z</time></trkpt><trkpt lat="32.75338678333333319870" lon="35.27459673333333256551"><ele>220.44457411348597</ele><time>2012-10-12T05:24:40Z</time></trkpt><trkpt lat="32.75345503333333141427" lon="35.27457301666666467099"><ele>220.45674404943642</ele><time>2012-10-12T05:24:43Z</time></trkpt><trkpt lat="32.75352058333333360451" lon="35.27452565000000106465"><ele>220.1754925318856</ele><time>2012-10-12T05:24:46Z</time></trkpt><trkpt lat="32.75358861666666854262" lon="35.27448678333333020873"><ele>219.99577489504085</ele><time>2012-10-12T05:24:49Z</time></trkpt><trkpt lat="32.75368031666666723822" lon="35.27443571666666599640"><ele>219.7466048934676</ele><time>2012-10-12T05:24:52Z</time></trkpt><trkpt lat="32.75377360000000237505" lon="35.27438630000000330256"><ele>219.43417598067268</ele><time>2012-10-12T05:24:55Z</time></trkpt><trkpt lat="32.75384631666666734873" lon="35.27434631666666575711"><ele>219.01983326341468</ele><time>2012-10-12T05:24:58Z</time></trkpt><trkpt lat="32.75391584999999849970" lon="35.27434506666666891306"><ele>219.11080379825074</ele><time>2012-10-12T05:25:01Z</time></trkpt><trkpt lat="32.75396603333333445107" lon="35.27433636666666671999"><ele>219.07610836622553</ele><time>2012-10-12T05:25:04Z</time></trkpt><trkpt lat="32.75403064999999713791" lon="35.27435418333333672081"><ele>219.40460776425996</ele><time>2012-10-12T05:25:07Z</time></trkpt><trkpt lat="32.75410696666666865440" lon="35.27435164999999983593"><ele>219.48923264702026</ele><time>2012-10-12T05:25:10Z</time></trkpt><trkpt lat="32.75416963333333342234" lon="35.27435419999999766105"><ele>219.6174588573884</ele><time>2012-10-12T05:25:13Z</time></trkpt><trkpt lat="32.75422669999999669699" lon="35.27440215000000023338"><ele>220.30479293661273</ele><time>2012-10-12T05:25:16Z</time></trkpt><trkpt lat="32.75427559999999971296" lon="35.27447564999999940483"><ele>221.29080163820294</ele><time>2012-10-12T05:25:19Z</time></trkpt><trkpt lat="32.75431291666666311357" lon="35.27457454999999697520"><ele>222.56667976976445</ele><time>2012-10-12T05:25:22Z</time></trkpt><trkpt lat="32.75434824999999960937" lon="35.27470306666666743922"><ele>224.27629638381438</ele><time>2012-10-12T05:25:25Z</time></trkpt><trkpt lat="32.75438673333333383653" lon="35.27480444999999775746"><ele>225.60527703816416</ele><time>2012-10-12T05:25:28Z</time></trkpt><trkpt lat="32.75444136666666850033" lon="35.27494043333333451073"><ele>227.33384800139115</ele><time>2012-10-12T05:25:31Z</time></trkpt><trkpt lat="32.75450303333333579303" lon="35.27507811666666981409"><ele>229.0126783589969</ele><time>2012-10-12T05:25:34Z</time></trkpt><trkpt lat="32.75455155000000218024" lon="35.27520766666666673927"><ele>230.539583463743</ele><time>2012-10-12T05:25:37Z</time></trkpt><trkpt lat="32.75460703333333611909" lon="35.27532763333333321043"><ele>231.39731705849024</ele><time>2012-10-12T05:25:40Z</time></trkpt><trkpt lat="32.75467161666666982001" lon="35.27544571666666683996"><ele>231.16882613599012</ele><time>2012-10-12T05:25:43Z</time></trkpt><trkpt lat="32.75472684999999728461" lon="35.27557591666666780839"><ele>230.74914248333852</ele><time>2012-10-12T05:25:46Z</time></trkpt><trkpt lat="32.75478348333333400433" lon="35.27573796666666794408"><ele>230.54958760087573</ele><time>2012-10-12T05:25:49Z</time></trkpt><trkpt lat="32.75484003333333049568" lon="35.27590246666666473629"><ele>230.42118999614132</ele><time>2012-10-12T05:25:52Z</time></trkpt><trkpt lat="32.75489191666666499714" lon="35.27608096666666881447"><ele>230.54047669535518</ele><time>2012-10-12T05:25:55Z</time></trkpt><trkpt lat="32.75495206666666803130" lon="35.27626450000000346563"><ele>230.57454084730577</ele><time>2012-10-12T05:25:58Z</time></trkpt><trkpt lat="32.75501630000000119480" lon="35.27644583333333372366"><ele>230.45538339942897</ele><time>2012-10-12T05:26:01Z</time></trkpt><trkpt lat="32.75509256666666857427" lon="35.27663151666666863093"><ele>230.0787953538192</ele><time>2012-10-12T05:26:04Z</time></trkpt><trkpt lat="32.75516939999999976862" lon="35.27678050000000098407"><ele>229.41613195145385</ele><time>2012-10-12T05:26:07Z</time></trkpt><trkpt lat="32.75522465000000238433" lon="35.27695583333333217979"><ele>229.34730573938006</ele><time>2012-10-12T05:26:10Z</time></trkpt><trkpt lat="32.75531038333333100354" lon="35.27709931666666420824"><ele>228.47567865114627</ele><time>2012-10-12T05:26:13Z</time></trkpt><trkpt lat="32.75539486666666988413" lon="35.27724788333333094670"><ele>228.2635166602118</ele><time>2012-10-12T05:26:16Z</time></trkpt><trkpt lat="32.75550510000000059563" lon="35.27740626666666656774"><ele>227.83750550993096</ele><time>2012-10-12T05:26:19Z</time></trkpt><trkpt lat="32.75559865000000314694" lon="35.27752805000000080327"><ele>227.2794573162724</ele><time>2012-10-12T05:26:22Z</time></trkpt><trkpt lat="32.75566806666666508363" lon="35.27763016666666828769"><ele>226.8904303355582</ele><time>2012-10-12T05:26:25Z</time></trkpt><trkpt lat="32.75573370000000039681" lon="35.27773121666666611418"><ele>226.48787246988473</ele><time>2012-10-12T05:26:28Z</time></trkpt><trkpt lat="32.75579716666666740821" lon="35.27782433333333500514"><ele>225.9863651194838</ele><time>2012-10-12T05:26:31Z</time></trkpt><trkpt lat="32.75585358333333374503" lon="35.27792063333333061337"><ele>225.59591999944323</ele><time>2012-10-12T05:26:34Z</time></trkpt><trkpt lat="32.75592508333333086057" lon="35.27801798333333493929"><ele>224.86925999954252</ele><time>2012-10-12T05:26:37Z</time></trkpt><trkpt lat="32.75598953333333440696" lon="35.27811871666666831970"><ele>224.32329999946688</ele><time>2012-10-12T05:26:40Z</time></trkpt><trkpt lat="32.75603306666666725278" lon="35.27819206666666929095"><ele>223.99911999948583</ele><time>2012-10-12T05:26:43Z</time></trkpt><trkpt lat="32.75607345000000236723" lon="35.27823886666666908241"><ele>223.51995999944606</ele><time>2012-10-12T05:26:46Z</time></trkpt><trkpt lat="32.75610756666666389947" lon="35.27828275000000246564"><ele>223.15165999955767</ele><time>2012-10-12T05:26:49Z</time></trkpt><trkpt lat="32.75614928333333608634" lon="35.27834730000000007522"><ele>222.7927999994187</ele><time>2012-10-12T05:26:52Z</time></trkpt><trkpt lat="32.75618575000000021191" lon="35.27844396666666426654"><ele>222.8171199994528</ele><time>2012-10-12T05:26:55Z</time></trkpt><trkpt lat="32.75624338333333440687" lon="35.27853635000000309674"><ele>222.34825999948075</ele><time>2012-10-12T05:26:58Z</time></trkpt><trkpt lat="32.75628198333333074288" lon="35.27862618333332989096"><ele>222.57460249680713</ele><time>2012-10-12T05:27:01Z</time></trkpt><trkpt lat="32.75632418333333362170" lon="35.27871429999999719485"><ele>222.87224468199634</ele><time>2012-10-12T05:27:04Z</time></trkpt><trkpt lat="32.75634366666666608126" lon="35.27878199999999964120"><ele>223.03543231949035</ele><time>2012-10-12T05:27:07Z</time></trkpt><trkpt lat="32.75635736666666986139" lon="35.27887249999999852434"><ele>223.02531895945316</ele><time>2012-10-12T05:27:10Z</time></trkpt><trkpt lat="32.75639866666666932815" lon="35.27900141666666655738"><ele>222.8037465594691</ele><time>2012-10-12T05:27:13Z</time></trkpt><trkpt lat="32.75641546666666670262" lon="35.27913073333333215942"><ele>222.8512761850995</ele><time>2012-10-12T05:27:16Z</time></trkpt><trkpt lat="32.75639348333333344954" lon="35.27930771666666487363"><ele>223.35010637310268</ele><time>2012-10-12T05:27:19Z</time></trkpt><trkpt lat="32.75635849999999749116" lon="35.27946701666666484698"><ele>223.9126733675293</ele><time>2012-10-12T05:27:22Z</time></trkpt><trkpt lat="32.75632866666666842548" lon="35.27960816666666943320"><ele>224.20593439934572</ele><time>2012-10-12T05:27:25Z</time></trkpt><trkpt lat="32.75629236666666344036" lon="35.27976323333333397159"><ele>223.72572330339494</ele><time>2012-10-12T05:27:28Z</time></trkpt><trkpt lat="32.75626305000000115797" lon="35.27991935000000012224"><ele>223.2459278733441</ele><time>2012-10-12T05:27:31Z</time></trkpt><trkpt lat="32.75624418333333665032" lon="35.28003223333332982747"><ele>222.9607199856291</ele><time>2012-10-12T05:27:34Z</time></trkpt><trkpt lat="32.75621594999999786069" lon="35.28014328333333082810"><ele>222.99345546773125</ele><time>2012-10-12T05:27:37Z</time></trkpt><trkpt lat="32.75619534999999871161" lon="35.28024473333333332903"><ele>222.92660953370117</ele><time>2012-10-12T05:27:40Z</time></trkpt><trkpt lat="32.75617505000000306836" lon="35.28036013333333187347"><ele>222.79423846961805</ele><time>2012-10-12T05:27:43Z</time></trkpt><trkpt lat="32.75617523333333025448" lon="35.28047696666666865895"><ele>221.96583641685342</ele><time>2012-10-12T05:27:46Z</time></trkpt><trkpt lat="32.75620539999999891734" lon="35.28065151666666565689"><ele>219.70052901843167</ele><time>2012-10-12T05:27:49Z</time></trkpt><trkpt lat="32.75617788333333635364" lon="35.28079809999999838510"><ele>218.92825326554166</ele><time>2012-10-12T05:27:52Z</time></trkpt><trkpt lat="32.75619931666666673209" lon="35.28094509999999672800"><ele>217.07668153441475</ele><time>2012-10-12T05:27:55Z</time></trkpt><trkpt lat="32.75622708333333577002" lon="35.28109238333333053106"><ele>215.0475159491474</ele><time>2012-10-12T05:27:58Z</time></trkpt><trkpt lat="32.75626189999999837710" lon="35.28119678333333553155"><ele>213.31278384086846</ele><time>2012-10-12T05:28:01Z</time></trkpt><trkpt lat="32.75624618333333160081" lon="35.28123696666666830879"><ele>213.21650510559587</ele><time>2012-10-12T05:28:06Z</time></trkpt><trkpt lat="32.75625363333332984439" lon="35.28129528333333553292"><ele>212.8834353874334</ele><time>2012-10-12T05:28:09Z</time></trkpt><trkpt lat="32.75627773333333436767" lon="35.28137273333333467917"><ele>212.362292607347</ele><time>2012-10-12T05:28:12Z</time></trkpt><trkpt lat="32.75630261666666598330" lon="35.28146174999999828970"><ele>211.78172062937216</ele><time>2012-10-12T05:28:15Z</time></trkpt><trkpt lat="32.75633301666666596930" lon="35.28158701666666985375"><ele>210.9994583973506</ele><time>2012-10-12T05:28:18Z</time></trkpt><trkpt lat="32.75635691666666815536" lon="35.28172451666666376013"><ele>210.26909706930397</ele><time>2012-10-12T05:28:21Z</time></trkpt><trkpt lat="32.75638906666666372303" lon="35.28187201666666794608"><ele>209.2944471513719</ele><time>2012-10-12T05:28:24Z</time></trkpt><trkpt lat="32.75641581666666724004" lon="35.28202711666666857582"><ele>208.35395595327824</ele><time>2012-10-12T05:28:27Z</time></trkpt><trkpt lat="32.75641054999999823849" lon="35.28220281666666835463"><ele>207.30817640842164</ele><time>2012-10-12T05:28:30Z</time></trkpt><trkpt lat="32.75638833333333366227" lon="35.28234396666666583542"><ele>206.6047618391938</ele><time>2012-10-12T05:28:33Z</time></trkpt><trkpt lat="32.75637085000000325863" lon="35.28250433333333546670"><ele>205.63495589509805</ele><time>2012-10-12T05:28:36Z</time></trkpt><trkpt lat="32.75632809999999750517" lon="35.28269113333332995808"><ele>205.0454443800784</ele><time>2012-10-12T05:28:39Z</time></trkpt><trkpt lat="32.75628354999999913844" lon="35.28287180000000233804"><ele>204.57384759758958</ele><time>2012-10-12T05:28:42Z</time></trkpt><trkpt lat="32.75623386666666903011" lon="35.28308486666666965448"><ele>203.74903426470448</ele><time>2012-10-12T05:28:45Z</time></trkpt><trkpt lat="32.75619041666666930723" lon="35.28331388333333507035"><ele>202.41223285913543</ele><time>2012-10-12T05:28:48Z</time></trkpt><trkpt lat="32.75614608333333421797" lon="35.28354124999999896772"><ele>200.9372240992218</ele><time>2012-10-12T05:28:51Z</time></trkpt><trkpt lat="32.75611905000000234622" lon="35.28370061666666401834"><ele>199.72991269763017</ele><time>2012-10-12T05:28:54Z</time></trkpt><trkpt lat="32.75609321666666318151" lon="35.28380823333333182745"><ele>198.82583832967825</ele><time>2012-10-12T05:28:57Z</time></trkpt><trkpt lat="32.75607513333333287164" lon="35.28388556666666886485"><ele>198.0458696855802</ele><time>2012-10-12T05:29:00Z</time></trkpt><trkpt lat="32.75607313333333081573" lon="35.28399145000000203254"><ele>196.59973674642157</ele><time>2012-10-12T05:29:03Z</time></trkpt><trkpt lat="32.75602231666666597221" lon="35.28411524999999926422"><ele>195.64452302123524</ele><time>2012-10-12T05:29:06Z</time></trkpt><trkpt lat="32.75599125000000100272" lon="35.28421854999999851543"><ele>194.63839480922493</ele><time>2012-10-12T05:29:09Z</time></trkpt><trkpt lat="32.75595631666666918136" lon="35.28433016666666333094"><ele>193.5396155872353</ele><time>2012-10-12T05:29:12Z</time></trkpt><trkpt lat="32.75592755000000266818" lon="35.28442764999999781139"><ele>192.52822439162196</ele><time>2012-10-12T05:29:15Z</time></trkpt><trkpt lat="32.75591361666666756491" lon="35.28450899999999990087"><ele>191.52947941522066</ele><time>2012-10-12T05:29:18Z</time></trkpt><trkpt lat="32.75590778333333474848" lon="35.28457906666666588080"><ele>190.57988773682834</ele><time>2012-10-12T05:29:21Z</time></trkpt><trkpt lat="32.75589718333333166811" lon="35.28463843333333471719"><ele>190.09249668572554</ele><time>2012-10-12T05:29:24Z</time></trkpt><trkpt lat="32.75588690000000013924" lon="35.28467694999999793026"><ele>189.82518729054107</ele><time>2012-10-12T05:29:27Z</time></trkpt><trkpt lat="32.75589116666666456013" lon="35.28475385000000130731"><ele>188.98022376734227</ele><time>2012-10-12T05:29:30Z</time></trkpt><trkpt lat="32.75589080000000308246" lon="35.28480013333333431547"><ele>188.50764380089137</ele><time>2012-10-12T05:29:33Z</time></trkpt><trkpt lat="32.75588728333333676801" lon="35.28486099999999936472"><ele>187.9184882073124</ele><time>2012-10-12T05:29:36Z</time></trkpt><trkpt lat="32.75589313333333052469" lon="35.28496235000000069704"><ele>186.81308729857648</ele><time>2012-10-12T05:29:39Z</time></trkpt><trkpt lat="32.75590541666666410947" lon="35.28510098333333644405"><ele>185.28027241936465</ele><time>2012-10-12T05:29:42Z</time></trkpt><trkpt lat="32.75595429999999907977" lon="35.28527211666666829615"><ele>183.18426327779267</ele><time>2012-10-12T05:29:45Z</time></trkpt><trkpt lat="32.75603931666666568390" lon="35.28544019999999648007"><ele>181.122899999514</ele><time>2012-10-12T05:29:48Z</time></trkpt><trkpt lat="32.75615446666666485953" lon="35.28559586666666803012"><ele>179.49799999949113</ele><time>2012-10-12T05:29:51Z</time></trkpt><trkpt lat="32.75626075000000270165" lon="35.28572541666666495530"><ele>178.07441504947374</ele><time>2012-10-12T05:29:54Z</time></trkpt><trkpt lat="32.75632221666666765714" lon="35.28583894999999870379"><ele>177.08158679511774</ele><time>2012-10-12T05:29:57Z</time></trkpt><trkpt lat="32.75636173333333545088" lon="35.28591114999999689417"><ele>176.54242351314326</ele><time>2012-10-12T05:30:00Z</time></trkpt><trkpt lat="32.75641118333333423607" lon="35.28597806666666514275"><ele>176.06354866996466</ele><time>2012-10-12T05:30:03Z</time></trkpt><trkpt lat="32.75642581666666330875" lon="35.28603149999999999409"><ele>175.81312939558413</ele><time>2012-10-12T05:30:06Z</time></trkpt><trkpt lat="32.75644038333333440960" lon="35.28606090000000250484"><ele>175.66802071077169</ele><time>2012-10-12T05:30:09Z</time></trkpt><trkpt lat="32.75641209999999858837" lon="35.28606838333333683977"><ele>175.70815680036725</ele><time>2012-10-12T05:30:36Z</time></trkpt><trkpt lat="32.75638586666666896008" lon="35.28609811666666473684"><ele>175.64385896597997</ele><time>2012-10-12T05:30:40Z</time></trkpt><trkpt lat="32.75640466666666839046" lon="35.28612231666666332330"><ele>175.5101613115955</ele><time>2012-10-12T05:31:19Z</time></trkpt><trkpt lat="32.75637935000000311447" lon="35.28613596666667007185"><ele>175.49303725636184</ele><time>2012-10-12T05:31:40Z</time></trkpt><trkpt lat="32.75634446666666832471" lon="35.28616244999999906895"><ele>175.41811358517984</ele><time>2012-10-12T05:31:44Z</time></trkpt><trkpt lat="32.75629605000000310611" lon="35.28622326666666708661"><ele>175.14444533237253</ele><time>2012-10-12T05:31:47Z</time></trkpt><trkpt lat="32.75625428333333388764" lon="35.28629373333333063556"><ele>175.05409848290668</ele><time>2012-10-12T05:31:50Z</time></trkpt><trkpt lat="32.75621336666666394422" lon="35.28635760000000232139"><ele>175.33756776924727</ele><time>2012-10-12T05:31:53Z</time></trkpt><trkpt lat="32.75617479999999659412" lon="35.28642166666666923902"><ele>175.62002111965052</ele><time>2012-10-12T05:31:56Z</time></trkpt><trkpt lat="32.75612116666666651099" lon="35.28647595000000336540"><ele>175.96030351163165</ele><time>2012-10-12T05:31:59Z</time></trkpt><trkpt lat="32.75608643333332992142" lon="35.28653270000000219397"><ele>176.18746794524725</ele><time>2012-10-12T05:32:02Z</time></trkpt><trkpt lat="32.75604375000000345608" lon="35.28660126666666485562"><ele>176.45036759960954</ele><time>2012-10-12T05:32:05Z</time></trkpt><trkpt lat="32.75601628333333081855" lon="35.28665823333333406708"><ele>176.6173965100408</ele><time>2012-10-12T05:32:08Z</time></trkpt><trkpt lat="32.75597299999999734155" lon="35.28673994999999763422"><ele>176.8590774876399</ele><time>2012-10-12T05:32:11Z</time></trkpt><trkpt lat="32.75592306666666786441" lon="35.28680513333333124137"><ele>177.10506421722218</ele><time>2012-10-12T05:32:14Z</time></trkpt><trkpt lat="32.75588418333333606824" lon="35.28685475000000337786"><ele>177.2834644276163</ele><time>2012-10-12T05:32:17Z</time></trkpt><trkpt lat="32.75585769999999996571" lon="35.28695111666666406336"><ele>177.40300156282927</ele><time>2012-10-12T05:32:20Z</time></trkpt><trkpt lat="32.75584693333333063947" lon="35.28700658333332995653"><ele>177.4480338556408</ele><time>2012-10-12T05:32:23Z</time></trkpt><trkpt lat="32.75583473333333017763" lon="35.28706499999999834927"><ele>177.49488607964355</ele><time>2012-10-12T05:32:26Z</time></trkpt><trkpt lat="32.75584709999999688534" lon="35.28711626666666489882"><ele>177.4938772220699</ele><time>2012-10-12T05:32:29Z</time></trkpt><trkpt lat="32.75582506666666660067" lon="35.28717123333333205437"><ele>177.6289618300627</ele><time>2012-10-12T05:32:32Z</time></trkpt><trkpt lat="32.75580778333333142882" lon="35.28725109999999887123"><ele>177.75626517247244</ele><time>2012-10-12T05:32:35Z</time></trkpt><trkpt lat="32.75578146666666867759" lon="35.28731771666666361398"><ele>177.86294626526652</ele><time>2012-10-12T05:32:38Z</time></trkpt><trkpt lat="32.75575045000000073969" lon="35.28738795000000294522"><ele>177.94578034927483</ele><time>2012-10-12T05:32:41Z</time></trkpt><trkpt lat="32.75571513333333228957" lon="35.28744918333333657756"><ele>177.99091641887554</ele><time>2012-10-12T05:32:44Z</time></trkpt><trkpt lat="32.75570125000000132331" lon="35.28752604999999675783"><ele>178.00153173968002</ele><time>2012-10-12T05:32:47Z</time></trkpt><trkpt lat="32.75569054999999707434" lon="35.28759496666666706233"><ele>177.9968045612836</ele><time>2012-10-12T05:32:50Z</time></trkpt><trkpt lat="32.75569168333333180954" lon="35.28766643333333519195"><ele>177.9960295660915</ele><time>2012-10-12T05:32:53Z</time></trkpt><trkpt lat="32.75569328333333629644" lon="35.28772398333333626397"><ele>177.99775299890572</ele><time>2012-10-12T05:32:56Z</time></trkpt><trkpt lat="32.75569383333333206565" lon="35.28778296666666847159"><ele>177.99850593570324</ele><time>2012-10-12T05:32:59Z</time></trkpt><trkpt lat="32.75568411666666435167" lon="35.28784576666666339406"><ele>177.96914654850534</ele><time>2012-10-12T05:33:02Z</time></trkpt><trkpt lat="32.75567181666666982665" lon="35.28791534999999868205"><ele>177.91879741332957</ele><time>2012-10-12T05:33:05Z</time></trkpt><trkpt lat="32.75566725000000189993" lon="35.28797513333333313312"><ele>177.95116288773718</ele><time>2012-10-12T05:33:08Z</time></trkpt><trkpt lat="32.75567523333333497249" lon="35.28801810000000216405"><ele>178.01479271813716</ele><time>2012-10-12T05:33:11Z</time></trkpt><trkpt lat="32.75564788333333154924" lon="35.28806968333333315968"><ele>177.9650527945232</ele><time>2012-10-12T05:33:14Z</time></trkpt><trkpt lat="32.75564365000000321970" lon="35.28811618333333655073"><ele>177.99134678014207</ele><time>2012-10-12T05:33:17Z</time></trkpt><trkpt lat="32.75562623333333078790" lon="35.28814798333333158098"><ele>177.9622141813185</ele><time>2012-10-12T05:34:21Z</time></trkpt><trkpt lat="32.75559203333333613273" lon="35.28818703333333672845"><ele>177.8874848461406</ele><time>2012-10-12T05:34:24Z</time></trkpt><trkpt lat="32.75555084999999877482" lon="35.28823830000000327800"><ele>177.80687272052782</ele><time>2012-10-12T05:34:27Z</time></trkpt><trkpt lat="32.75552346666666636565" lon="35.28830296666667010186"><ele>177.7886301501305</ele><time>2012-10-12T05:34:30Z</time></trkpt><trkpt lat="32.75550108333333554356" lon="35.28836929999999938445"><ele>177.79203789173295</ele><time>2012-10-12T05:34:33Z</time></trkpt><trkpt lat="32.75548718333333653163" lon="35.28845005000000156770"><ele>177.8397581225367</ele><time>2012-10-12T05:34:36Z</time></trkpt><trkpt lat="32.75547746666666881765" lon="35.28852570000000099526"><ele>177.8963979133317</ele><time>2012-10-12T05:34:39Z</time></trkpt><trkpt lat="32.75547333333333455130" lon="35.28860980000000324708"><ele>177.9792003197301</ele><time>2012-10-12T05:34:42Z</time></trkpt><trkpt lat="32.75547009999999659158" lon="35.28869651666666840129"><ele>178.06817522131527</ele><time>2012-10-12T05:34:45Z</time></trkpt><trkpt lat="32.75548498333333213850" lon="35.28876901666667009749"><ele>178.21334156694786</ele><time>2012-10-12T05:34:48Z</time></trkpt><trkpt lat="32.75549029999999817164" lon="35.28884048333333112168"><ele>178.41306825733378</ele><time>2012-10-12T05:34:51Z</time></trkpt><trkpt lat="32.75549466666666376113" lon="35.28891120000000114487"><ele>178.61029196774152</ele><time>2012-10-12T05:34:54Z</time></trkpt><trkpt lat="32.75549974999999847114" lon="35.28899258333333222026"><ele>178.83964533974202</ele><time>2012-10-12T05:34:57Z</time></trkpt><trkpt lat="32.75547508333333013297" lon="35.28908518333333432793"><ele>179.00103124374357</ele><time>2012-10-12T05:35:00Z</time></trkpt><trkpt lat="32.75545683333333357723" lon="35.28916631666666603451"><ele>179.143719511753</ele><time>2012-10-12T05:35:03Z</time></trkpt><trkpt lat="32.75541808333333193559" lon="35.28925275000000283399"><ele>179.2120512197565</ele><time>2012-10-12T05:35:06Z</time></trkpt><trkpt lat="32.75537793333333524970" lon="35.28932541666666367064"><ele>179.61007667961672</ele><time>2012-10-12T05:35:09Z</time></trkpt><trkpt lat="32.75531818333332978455" lon="35.28941195000000163873"><ele>180.1343146960579</ele><time>2012-10-12T05:35:12Z</time></trkpt><trkpt lat="32.75528549999999938791" lon="35.28946486666666970677"><ele>180.41240795164427</ele><time>2012-10-12T05:35:15Z</time></trkpt><trkpt lat="32.75523495000000195887" lon="35.28951789999999988368"><ele>180.76656621322448</ele><time>2012-10-12T05:35:18Z</time></trkpt><trkpt lat="32.75520656666666496903" lon="35.28956575000000128739"><ele>180.98223919564532</ele><time>2012-10-12T05:35:21Z</time></trkpt><trkpt lat="32.75522813333333260744" lon="35.28963673333333161963"><ele>180.9896276220407</ele><time>2012-10-12T05:35:24Z</time></trkpt><trkpt lat="32.75520301666666966867" lon="35.28966228333333532419"><ele>181.14213167602924</ele><time>2012-10-12T05:35:27Z</time></trkpt><trkpt lat="32.75523351666666371784" lon="35.28965073333333180017"><ele>180.98755258045202</ele><time>2012-10-12T05:35:34Z</time></trkpt><trkpt lat="32.75526645000000058872" lon="35.28963223333333587561"><ele>180.80666702924424</ele><time>2012-10-12T05:35:37Z</time></trkpt><trkpt lat="32.75530143333333654709" lon="35.28965723333333670553"><ele>180.6936919884381</ele><time>2012-10-12T05:35:40Z</time></trkpt><trkpt lat="32.75530263333333635956" lon="35.28974363333333030823"><ele>180.85311237243226</ele><time>2012-10-12T05:35:43Z</time></trkpt><trkpt lat="32.75527803333333309865" lon="35.28980731666666770252"><ele>181.06885727725475</ele><time>2012-10-12T05:35:46Z</time></trkpt><trkpt lat="32.75525938333333186847" lon="35.28988028333333204500"><ele>181.26587316485728</ele><time>2012-10-12T05:35:49Z</time></trkpt><trkpt lat="32.75528151666666332176" lon="35.28991523333333191204"><ele>181.2515008484663</ele><time>2012-10-12T05:35:52Z</time></trkpt><trkpt lat="32.75533963333333531409" lon="35.28991564999999752672"><ele>181.05673033004976</ele><time>2012-10-12T05:35:55Z</time></trkpt><trkpt lat="32.75540070000000270056" lon="35.28990146666667016007"><ele>180.81821643486384</ele><time>2012-10-12T05:35:58Z</time></trkpt><trkpt lat="32.75545883333333563314" lon="35.28990644999999659603"><ele>181.01711928778244</ele><time>2012-10-12T05:36:01Z</time></trkpt><trkpt lat="32.75550020000000017717" lon="35.28995133333333455994"><ele>181.37269196778516</ele><time>2012-10-12T05:36:04Z</time></trkpt><trkpt lat="32.75548526666666759866" lon="35.29003260000000352647"><ele>181.4962807165977</ele><time>2012-10-12T05:36:07Z</time></trkpt><trkpt lat="32.75545253333333306500" lon="35.29010695000000197297"><ele>181.48292750698732</ele><time>2012-10-12T05:36:10Z</time></trkpt><trkpt lat="32.75542383333333162909" lon="35.29016810000000248237"><ele>181.4499095837799</ele><time>2012-10-12T05:36:13Z</time></trkpt><trkpt lat="32.75539779999999723259" lon="35.29022690000000039845"><ele>181.58266674208753</ele><time>2012-10-12T05:36:16Z</time></trkpt><trkpt lat="32.75537298333333069422" lon="35.29029191666666775973"><ele>181.77656182168957</ele><time>2012-10-12T05:36:19Z</time></trkpt><trkpt lat="32.75535140000000211558" lon="35.29035763333333619585"><ele>181.95328456608738</ele><time>2012-10-12T05:36:22Z</time></trkpt><trkpt lat="32.75533161666666615019" lon="35.29042076666666361007"><ele>182.11581572929688</ele><time>2012-10-12T05:36:25Z</time></trkpt><trkpt lat="32.75530753333333677801" lon="35.29048358333333368364"><ele>182.35082782370503</ele><time>2012-10-12T05:36:28Z</time></trkpt><trkpt lat="32.75528698333333466053" lon="35.29055636666666373458"><ele>182.6063637260982</ele><time>2012-10-12T05:36:31Z</time></trkpt><trkpt lat="32.75526058333333168093" lon="35.29062363333333252058"><ele>182.8393443437081</ele><time>2012-10-12T05:36:34Z</time></trkpt><trkpt lat="32.75522331666666531191" lon="35.29068244999999848233"><ele>183.04083908210575</ele><time>2012-10-12T05:36:37Z</time></trkpt><trkpt lat="32.75521761666666975543" lon="35.29075583333333554492"><ele>183.26542795971784</ele><time>2012-10-12T05:36:40Z</time></trkpt><trkpt lat="32.75520756666666954970" lon="35.29082448333333132950"><ele>183.4734695405075</ele><time>2012-10-12T05:36:43Z</time></trkpt><trkpt lat="32.75519728333333091541" lon="35.29089068333333045757"><ele>183.6702248933062</ele><time>2012-10-12T05:36:46Z</time></trkpt><trkpt lat="32.75519658333332984057" lon="35.29096898333333598430"><ele>183.90235960372408</ele><time>2012-10-12T05:36:49Z</time></trkpt><trkpt lat="32.75517741666666893252" lon="35.29103603333333438741"><ele>184.09005159172315</ele><time>2012-10-12T05:36:52Z</time></trkpt><trkpt lat="32.75513596666666416013" lon="35.29110271666666420742"><ele>184.2520062029102</ele><time>2012-10-12T05:36:55Z</time></trkpt><trkpt lat="32.75510391666666976107" lon="35.29116640000000160171"><ele>184.39904019172687</ele><time>2012-10-12T05:36:58Z</time></trkpt><trkpt lat="32.75508785000000244736" lon="35.29122894999999715537"><ele>184.54957418131602</ele><time>2012-10-12T05:37:01Z</time></trkpt><trkpt lat="32.75506051666666706979" lon="35.29129951666666897836"><ele>184.86971999978977</ele><time>2012-10-12T05:37:04Z</time></trkpt><trkpt lat="32.75503090000000128157" lon="35.29136893333333091505"><ele>185.2506799997621</ele><time>2012-10-12T05:37:07Z</time></trkpt><trkpt lat="32.75500906666666622868" lon="35.29140863333333300034"><ele>185.46267999977235</ele><time>2012-10-12T05:37:10Z</time></trkpt><trkpt lat="32.75496406666666615592" lon="35.29143553333333471755"><ele>185.57007999979095</ele><time>2012-10-12T05:37:13Z</time></trkpt><trkpt lat="32.75492059999999838737" lon="35.29150200000000126010"><ele>185.91671999978863</ele><time>2012-10-12T05:37:16Z</time></trkpt><trkpt lat="32.75488431666666855335" lon="35.29155004999999789561"><ele>186.16147999977238</ele><time>2012-10-12T05:37:19Z</time></trkpt><trkpt lat="32.75482536666666533165" lon="35.29157814999999942529"><ele>186.25933999977764</ele><time>2012-10-12T05:37:22Z</time></trkpt><trkpt lat="32.75476146666666465990" lon="35.29160949999999985494"><ele>186.3707599997793</ele><time>2012-10-12T05:37:25Z</time></trkpt><trkpt lat="32.75471240000000250348" lon="35.29164828333333048249"><ele>186.54457999976836</ele><time>2012-10-12T05:37:28Z</time></trkpt><trkpt lat="32.75471123333333167693" lon="35.29171366666666642686"><ele>186.93547999977864</ele><time>2012-10-12T05:37:31Z</time></trkpt><trkpt lat="32.75469325000000253567" lon="35.29177655000000157770"><ele>187.29119999979426</ele><time>2012-10-12T05:37:34Z</time></trkpt><trkpt lat="32.75463938333333402397" lon="35.29180836666666465362"><ele>187.41745999977033</ele><time>2012-10-12T05:37:37Z</time></trkpt><trkpt lat="32.75460259999999834690" lon="35.29186393333333171540"><ele>187.7067199997697</ele><time>2012-10-12T05:37:40Z</time></trkpt><trkpt lat="32.75453708333333224800" lon="35.29190435000000292121"><ele>187.91828115977432</ele><time>2012-10-12T05:37:43Z</time></trkpt><trkpt lat="32.75448303333333655019" lon="35.29192693333333608052"><ele>188.03159665897064</ele><time>2012-10-12T05:37:46Z</time></trkpt><trkpt lat="32.75443526666666826941" lon="35.29197468333333631563"><ele>188.26308367337123</ele><time>2012-10-12T05:37:49Z</time></trkpt><trkpt lat="32.75440856666666888941" lon="35.29204203333333111914"><ele>188.5840548925502</ele><time>2012-10-12T05:37:52Z</time></trkpt><trkpt lat="32.75438111666666429755" lon="35.29210441666666753235"><ele>188.82710070173525</ele><time>2012-10-12T05:37:55Z</time></trkpt><trkpt lat="32.75434486666666344945" lon="35.29216739999999674637"><ele>188.98761217892104</ele><time>2012-10-12T05:37:58Z</time></trkpt><trkpt lat="32.75428143333333252940" lon="35.29220376666666680876"><ele>189.01892329413454</ele><time>2012-10-12T05:38:01Z</time></trkpt><trkpt lat="32.75429164999999898100" lon="35.29229661666666828523"><ele>189.32821588094126</ele><time>2012-10-12T05:38:04Z</time></trkpt><trkpt lat="32.75427541666666542142" lon="35.29238068333333444571"><ele>189.5691150097407</ele><time>2012-10-12T05:38:07Z</time></trkpt><trkpt lat="32.75427598333333634173" lon="35.29244754999999855727"><ele>189.78116353054136</ele><time>2012-10-12T05:38:10Z</time></trkpt><trkpt lat="32.75427425000000170030" lon="35.29252568333333073269"><ele>190.02467886173744</ele><time>2012-10-12T05:38:13Z</time></trkpt><trkpt lat="32.75427665000000132522" lon="35.29257706666666649653"><ele>190.19137551014578</ele><time>2012-10-12T05:38:16Z</time></trkpt><trkpt lat="32.75426786666666600922" lon="35.29261699999999990496"><ele>190.3002101757429</ele><time>2012-10-12T05:38:19Z</time></trkpt><trkpt lat="32.75425675000000325099" lon="35.29265374999999949068"><ele>190.39334444975006</ele><time>2012-10-12T05:38:22Z</time></trkpt><trkpt lat="32.75424303333333142518" lon="35.29269298333333182427"><ele>190.48763199093702</ele><time>2012-10-12T05:38:26Z</time></trkpt><trkpt lat="32.75424344999999703987" lon="35.29272559999999714364"><ele>190.5899541405313</ele><time>2012-10-12T05:38:29Z</time></trkpt><trkpt lat="32.75421003333333658247" lon="35.29276354999999654183"><ele>190.63516817014306</ele><time>2012-10-12T05:38:32Z</time></trkpt><trkpt lat="32.75418946666666641931" lon="35.29280156666666812271"><ele>190.7056410365508</ele><time>2012-10-12T05:38:35Z</time></trkpt><trkpt lat="32.75416718333333676583" lon="35.29283143333333327973"><ele>190.74547658615478</ele><time>2012-10-12T05:38:38Z</time></trkpt><trkpt lat="32.75416433333333543487" lon="35.29287903333333531464"><ele>190.881626447759</ele><time>2012-10-12T05:38:41Z</time></trkpt><trkpt lat="32.75415784999999857519" lon="35.29294494999999898255"><ele>191.14782182939345</ele><time>2012-10-12T05:38:44Z</time></trkpt><trkpt lat="32.75414913333333544188" lon="35.29298366666666453284"><ele>191.35653676779725</ele><time>2012-10-12T05:38:47Z</time></trkpt><trkpt lat="32.75412771666666600368" lon="35.29302283333333178916"><ele>191.5316106477944</ele><time>2012-10-12T05:38:50Z</time></trkpt><trkpt lat="32.75412016666666659148" lon="35.29306540000000325108"><ele>191.76088163182575</ele><time>2012-10-12T05:39:10Z</time></trkpt><trkpt lat="32.75411703333332980037" lon="35.29310088333333084165"><ele>191.95984733258342</ele><time>2012-10-12T05:39:14Z</time></trkpt><trkpt lat="32.75407281666666392539" lon="35.29314629999999652910"><ele>192.09049286538</ele><time>2012-10-12T05:39:17Z</time></trkpt><trkpt lat="32.75401405000000210066" lon="35.29320740000000000691"><ele>192.2503322334151</ele><time>2012-10-12T05:39:20Z</time></trkpt><trkpt lat="32.75395058333333508926" lon="35.29324840000000307327"><ele>192.2653557118295</ele><time>2012-10-12T05:39:23Z</time></trkpt><trkpt lat="32.75386506666666974752" lon="35.29327608333333188284"><ele>192.12046780780736</ele><time>2012-10-12T05:39:26Z</time></trkpt><trkpt lat="32.75380135000000336731" lon="35.29331564999999670817"><ele>192.09736484699863</ele><time>2012-10-12T05:39:29Z</time></trkpt><trkpt lat="32.75374556666666592264" lon="35.29334386666666745214"><ele>192.06897826527103</ele><time>2012-10-12T05:39:32Z</time></trkpt><trkpt lat="32.75367978333333240926" lon="35.29336010000000101172"><ele>192.41527070606824</ele><time>2012-10-12T05:39:35Z</time></trkpt><trkpt lat="32.75360491666666717947" lon="35.29338001666666713163"><ele>192.80417075365514</ele><time>2012-10-12T05:39:38Z</time></trkpt><trkpt lat="32.75352148333332991115" lon="35.29339006666666733736"><ele>193.17608330686517</ele><time>2012-10-12T05:39:41Z</time></trkpt><trkpt lat="32.75344195000000269147" lon="35.29342809999999985848"><ele>193.6225767940346</ele><time>2012-10-12T05:39:44Z</time></trkpt><trkpt lat="32.75338885000000033187" lon="35.29347849999999908732"><ele>193.98714561164041</ele><time>2012-10-12T05:39:47Z</time></trkpt><trkpt lat="32.75334071666666346800" lon="35.29353820000000041546"><ele>194.34012442685682</ele><time>2012-10-12T05:39:50Z</time></trkpt><trkpt lat="32.75329063333333579067" lon="35.29358903333333330465"><ele>194.64927255483676</ele><time>2012-10-12T05:39:53Z</time></trkpt><trkpt lat="32.75323660000000103310" lon="35.29360781666666468936"><ele>194.86502670843313</ele><time>2012-10-12T05:39:56Z</time></trkpt><trkpt lat="32.75319216666666477522" lon="35.29364503333333402679"><ele>195.08791287164746</ele><time>2012-10-12T05:39:59Z</time></trkpt><trkpt lat="32.75313463333333174887" lon="35.29368141666666502942"><ele>195.33000083563905</ele><time>2012-10-12T05:40:02Z</time></trkpt><trkpt lat="32.75307106666666356887" lon="35.29373460000000051195"><ele>195.6006880764455</ele><time>2012-10-12T05:40:05Z</time></trkpt><trkpt lat="32.75304866666666470110" lon="35.29380673333333362507"><ele>195.83755097566896</ele><time>2012-10-12T05:40:08Z</time></trkpt><trkpt lat="32.75300053333333494265" lon="35.29384561666666542123"><ele>196.00583946845705</ele><time>2012-10-12T05:40:11Z</time></trkpt><trkpt lat="32.75294711666666813699" lon="35.29387400000000241107"><ele>196.11921721565815</ele><time>2012-10-12T05:40:14Z</time></trkpt><trkpt lat="32.75290090000000020609" lon="35.29391615000000115288"><ele>196.37349092107658</ele><time>2012-10-12T05:40:17Z</time></trkpt><trkpt lat="32.75286161666666373549" lon="35.29397649999999941883"><ele>196.86057956750957</ele><time>2012-10-12T05:40:20Z</time></trkpt><trkpt lat="32.75279978333333019691" lon="35.29401779999999888560"><ele>197.54366418510767</ele><time>2012-10-12T05:40:23Z</time></trkpt><trkpt lat="32.75273909999999943921" lon="35.29406989999999666452"><ele>198.18749139787846</ele><time>2012-10-12T05:40:26Z</time></trkpt><trkpt lat="32.75267916666666678793" lon="35.29411418333333472219"><ele>198.78881719946915</ele><time>2012-10-12T05:40:29Z</time></trkpt><trkpt lat="32.75264926666666553956" lon="35.29416863333333509445"><ele>199.0663708922825</ele><time>2012-10-12T05:40:32Z</time></trkpt><trkpt lat="32.75262155000000063865" lon="35.29422439999999738802"><ele>199.3042607226698</ele><time>2012-10-12T05:40:35Z</time></trkpt><trkpt lat="32.75260596666666401688" lon="35.29429928333333066348"><ele>199.40452496910476</ele><time>2012-10-12T05:40:38Z</time></trkpt><trkpt lat="32.75258591666666774245" lon="35.29437784999999649926"><ele>199.52629040747843</ele><time>2012-10-12T05:40:41Z</time></trkpt><trkpt lat="32.75255738333333255241" lon="35.29443988333333237506"><ele>199.71156575789468</ele><time>2012-10-12T05:40:44Z</time></trkpt><trkpt lat="32.75252228333333448518" lon="35.29449413333333041010"><ele>199.93515100108291</ele><time>2012-10-12T05:40:47Z</time></trkpt><trkpt lat="32.75248986666666439760" lon="35.29454853333333375076"><ele>200.11675120590633</ele><time>2012-10-12T05:40:50Z</time></trkpt><trkpt lat="32.75246743333333654391" lon="35.29457758333333572409"><ele>200.24245860746367</ele><time>2012-10-12T05:40:53Z</time></trkpt><trkpt lat="32.75244881666666429965" lon="35.29462389999999771817"><ele>200.56665052042277</ele><time>2012-10-12T05:40:56Z</time></trkpt><trkpt lat="32.75242513333333249648" lon="35.29466436666666595556"><ele>200.9154677084216</ele><time>2012-10-12T05:40:59Z</time></trkpt><trkpt lat="32.75239493333333484770" lon="35.29470109999999749562"><ele>201.26769662039948</ele><time>2012-10-12T05:41:02Z</time></trkpt><trkpt lat="32.75238606666666640876" lon="35.29475123333333641540"><ele>201.53415558044034</ele><time>2012-10-12T05:41:05Z</time></trkpt><trkpt lat="32.75236088333333128730" lon="35.29480424999999854663"><ele>201.88479944163367</ele><time>2012-10-12T05:41:08Z</time></trkpt><trkpt lat="32.75234661666666369229" lon="35.29486681666666925139"><ele>202.1968752840594</ele><time>2012-10-12T05:41:11Z</time></trkpt><trkpt lat="32.75231003333333035243" lon="35.29491616666666686797"><ele>202.5277294316493</ele><time>2012-10-12T05:41:14Z</time></trkpt><trkpt lat="32.75229373333333171558" lon="35.29497506666666595265"><ele>202.78600058844626</ele><time>2012-10-12T05:41:17Z</time></trkpt><trkpt lat="32.75225900000000223145" lon="35.29503463333333002083"><ele>203.07588593563028</ele><time>2012-10-12T05:41:20Z</time></trkpt><trkpt lat="32.75223703333332991861" lon="35.29511303333333671617"><ele>203.3496620908699</ele><time>2012-10-12T05:41:23Z</time></trkpt><trkpt lat="32.75223466666666638503" lon="35.29516548333333503251"><ele>203.49701489566726</ele><time>2012-10-12T05:41:26Z</time></trkpt><trkpt lat="32.75221404999999919028" lon="35.29521241666666497849"><ele>203.64263529766214</ele><time>2012-10-12T05:41:29Z</time></trkpt><trkpt lat="32.75219926666666481196" lon="35.29525336666666390784"><ele>203.7523263132636</ele><time>2012-10-12T05:41:32Z</time></trkpt><trkpt lat="32.75219201666666890560" lon="35.29530495000000200889"><ele>203.873971263281</ele><time>2012-10-12T05:41:35Z</time></trkpt><trkpt lat="32.75219531666666483716" lon="35.29536064999999922520"><ele>204.00392883448282</ele><time>2012-10-12T05:41:38Z</time></trkpt><trkpt lat="32.75221280000000234622" lon="35.29541833333333045175"><ele>204.16535999975375</ele><time>2012-10-12T05:41:41Z</time></trkpt><trkpt lat="32.75222465000000227064" lon="35.29547929999999666961"><ele>204.54537999975065</ele><time>2012-10-12T05:41:44Z</time></trkpt><trkpt lat="32.75223319999999915808" lon="35.29553873333333058326"><ele>204.91223999975003</ele><time>2012-10-12T05:41:47Z</time></trkpt><trkpt lat="32.75223583333333010614" lon="35.29559046666666688452"><ele>205.2257999997647</ele><time>2012-10-12T05:41:50Z</time></trkpt><trkpt lat="32.75223878333333260571" lon="35.29565218333333120881"><ele>205.59963999975326</ele><time>2012-10-12T05:41:53Z</time></trkpt><trkpt lat="32.75224448333333526762" lon="35.29569694999999995844"><ele>205.87507999976876</ele><time>2012-10-12T05:41:56Z</time></trkpt><trkpt lat="32.75224479999999971369" lon="35.29574083333333334167"><ele>206.1387599997661</ele><time>2012-10-12T05:41:59Z</time></trkpt><trkpt lat="32.75224226666666993424" lon="35.29577545000000071695"><ele>206.34341999977448</ele><time>2012-10-12T05:42:02Z</time></trkpt><trkpt lat="32.75225378333333026148" lon="35.29582140000000123337"><ele>206.6329399997697</ele><time>2012-10-12T05:42:05Z</time></trkpt><trkpt lat="32.75228415000000126156" lon="35.29585229999999995698"><ele>206.85477999972437</ele><time>2012-10-12T05:42:08Z</time></trkpt><trkpt lat="32.75231178333333303954" lon="35.29585225000000292539"><ele>206.88763999974034</ele><time>2012-10-12T05:42:11Z</time></trkpt><trkpt lat="32.75234126666666867322" lon="35.29583310000000295759"><ele>206.80811999978596</ele><time>2012-10-12T05:42:14Z</time></trkpt><trkpt lat="32.75237440000000077589" lon="35.29581453333333485034"><ele>206.73647999977592</ele><time>2012-10-12T05:42:17Z</time></trkpt><trkpt lat="32.75240071666666352712" lon="35.29579408333333390146"><ele>206.64535999976562</ele><time>2012-10-12T05:42:20Z</time></trkpt><trkpt lat="32.75242430000000126711" lon="35.29576833333333496512"><ele>206.5191599997774</ele><time>2012-10-12T05:42:23Z</time></trkpt><trkpt lat="32.75244725000000300952" lon="35.29572408333333299879"><ele>206.28119999976792</ele><time>2012-10-12T05:42:26Z</time></trkpt><trkpt lat="32.75244581666666476849" lon="35.29568556666666978572"><ele>206.04837999978295</ele><time>2012-10-12T05:43:10Z</time></trkpt><trkpt lat="32.75245878333333138244" lon="35.29565114999999764223"><ele>205.8574399997502</ele><time>2012-10-12T05:43:13Z</time></trkpt><trkpt lat="32.75250303333333334876" lon="35.29555764999999922793"><ele>205.3495399997625</ele><time>2012-10-12T05:43:16Z</time></trkpt><trkpt lat="32.75252368333333663486" lon="35.29548643333333046712"><ele>204.94701999975427</ele><time>2012-10-12T05:43:19Z</time></trkpt><trkpt lat="32.75255216666666768788" lon="35.29542144999999919719"><ele>204.59129999976426</ele><time>2012-10-12T05:43:22Z</time></trkpt><trkpt lat="32.75258308333333445717" lon="35.29535628333333363571"><ele>204.2230601657654</ele><time>2012-10-12T05:43:25Z</time></trkpt><trkpt lat="32.75261796666666924693" lon="35.29528894999999977244"><ele>203.80002160055724</ele><time>2012-10-12T05:43:28Z</time></trkpt><trkpt lat="32.75263379999999813208" lon="35.29522726666666443407"><ele>203.38235546213843</ele><time>2012-10-12T05:43:31Z</time></trkpt><trkpt lat="32.75264791666666752690" lon="35.29517443333333659439"><ele>203.00827009976788</ele><time>2012-10-12T05:43:34Z</time></trkpt><trkpt lat="32.75264988333333349146" lon="35.29512520000000108666"><ele>202.6655851645462</ele><time>2012-10-12T05:43:37Z</time></trkpt><trkpt lat="32.75267265000000094233" lon="35.29507671666666368537"><ele>202.27983093531233</ele><time>2012-10-12T05:43:40Z</time></trkpt><trkpt lat="32.75268094999999846095" lon="35.29503876666666428719"><ele>201.98719946931806</ele><time>2012-10-12T05:43:43Z</time></trkpt><trkpt lat="32.75270354999999966594" lon="35.29499115000000131204"><ele>201.57340171133893</ele><time>2012-10-12T05:43:46Z</time></trkpt><trkpt lat="32.75272948333333289384" lon="35.29494723333333183746"><ele>201.15455056851624</ele><time>2012-10-12T05:43:49Z</time></trkpt><trkpt lat="32.75275330000000195696" lon="35.29489600000000137925"><ele>200.6629605437258</ele><time>2012-10-12T05:43:52Z</time></trkpt><trkpt lat="32.75278420000000068057" lon="35.29484324999999955708"><ele>200.10190263171364</ele><time>2012-10-12T05:43:55Z</time></trkpt><trkpt lat="32.75282401666666487472" lon="35.29481675000000251430"><ele>199.6898893737546</ele><time>2012-10-12T05:43:58Z</time></trkpt><trkpt lat="32.75285603333333028786" lon="35.29476846666666745023"><ele>199.10068946854605</ele><time>2012-10-12T05:44:01Z</time></trkpt><trkpt lat="32.75291058333333182873" lon="35.29474248333333008532"><ele>198.56188092170692</ele><time>2012-10-12T05:44:04Z</time></trkpt><trkpt lat="32.75296521666666649253" lon="35.29470418333333014971"><ele>198.56886205634285</ele><time>2012-10-12T05:44:07Z</time></trkpt><trkpt lat="32.75301421666666357169" lon="35.29468146666666683586"><ele>198.74093489915842</ele><time>2012-10-12T05:44:10Z</time></trkpt><trkpt lat="32.75305476666666493202" lon="35.29464928333333517685"><ele>198.71924556559105</ele><time>2012-10-12T05:44:13Z</time></trkpt><trkpt lat="32.75309511666666395513" lon="35.29462004999999891197"><ele>198.70336505875426</ele><time>2012-10-12T05:44:16Z</time></trkpt><trkpt lat="32.75313916666666358424" lon="35.29460063333333152968"><ele>198.80688043994826</ele><time>2012-10-12T05:44:19Z</time></trkpt><trkpt lat="32.75318578333333618957" lon="35.29461071666666782676"><ele>199.27480265883833</ele><time>2012-10-12T05:44:22Z</time></trkpt><trkpt lat="32.75322461666666384872" lon="35.29462796666666690726"><ele>199.78426793679424</ele><time>2012-10-12T05:44:25Z</time></trkpt><trkpt lat="32.75327361666666803330" lon="35.29462101666666740130"><ele>200.06738674364087</ele><time>2012-10-12T05:44:28Z</time></trkpt><trkpt lat="32.75332060000000211630" lon="35.29460730000000268092"><ele>200.2359838304798</ele><time>2012-10-12T05:44:31Z</time></trkpt><trkpt lat="32.75336753333333206228" lon="35.29460753333333400406"><ele>200.58854261123625</ele><time>2012-10-12T05:44:34Z</time></trkpt><trkpt lat="32.75339758333333151086" lon="35.29460566666666920810"><ele>200.78526396006475</ele><time>2012-10-12T05:44:37Z</time></trkpt><trkpt lat="32.75343265000000059217" lon="35.29460184999999938782"><ele>200.9891472572428</ele><time>2012-10-12T05:44:40Z</time></trkpt><trkpt lat="32.75346846666666777992" lon="35.29460568333333014834"><ele>201.31183391841483</ele><time>2012-10-12T05:44:43Z</time></trkpt><trkpt lat="32.75349886666666776591" lon="35.29462433333333137853"><ele>201.82605161604167</ele><time>2012-10-12T05:44:46Z</time></trkpt><trkpt lat="32.75350139999999754536" lon="35.29467083333333476958"><ele>202.5658148000739</ele><time>2012-10-12T05:44:49Z</time></trkpt><trkpt lat="32.75347889999999750898" lon="35.29469443333333344981"><ele>202.74427836325214</ele><time>2012-10-12T05:44:52Z</time></trkpt><trkpt lat="32.75344210000000089167" lon="35.29470924999999681404"><ele>202.6588210040267</ele><time>2012-10-12T05:44:55Z</time></trkpt><trkpt lat="32.75339815000000243117" lon="35.29472643333333081728"><ele>202.53495467124577</ele><time>2012-10-12T05:44:58Z</time></trkpt><trkpt lat="32.75336639999999732709" lon="35.29475424999999688680"><ele>202.65369857599183</ele><time>2012-10-12T05:45:01Z</time></trkpt><trkpt lat="32.75329666666666383890" lon="35.29476635000000328546"><ele>202.19398704006713</ele><time>2012-10-12T05:45:04Z</time></trkpt><trkpt lat="32.75323470000000014579" lon="35.29481128333333117553"><ele>202.20891663921796</ele><time>2012-10-12T05:45:07Z</time></trkpt><trkpt lat="32.75319698333333207074" lon="35.29485803333333393539"><ele>202.43159012243956</ele><time>2012-10-12T05:45:10Z</time></trkpt><trkpt lat="32.75316968333333278451" lon="35.29489389999999815473"><ele>202.59523171121728</ele><time>2012-10-12T05:45:13Z</time></trkpt><trkpt lat="32.75313323333333670462" lon="35.29492321666666754254"><ele>202.56412259768945</ele><time>2012-10-12T05:45:16Z</time></trkpt><trkpt lat="32.75311246666666420424" lon="35.29496288333333353648"><ele>202.80254417122094</ele><time>2012-10-12T05:45:19Z</time></trkpt><trkpt lat="32.75309273333333237588" lon="35.29498604999999855636"><ele>202.8484822096186</ele><time>2012-10-12T05:45:22Z</time></trkpt><trkpt lat="32.75309136666666631754" lon="35.29502751666666426900"><ele>203.30419618962088</ele><time>2012-10-12T05:51:11Z</time></trkpt><trkpt lat="32.75308526666666608662" lon="35.29508356666666912815"><ele>203.86630054728087</ele><time>2012-10-12T05:51:14Z</time></trkpt><trkpt lat="32.75308013333333434502" lon="35.29511838333333173523"><ele>204.19506542725955</ele><time>2012-10-12T05:51:17Z</time></trkpt><trkpt lat="32.75306908333333666405" lon="35.29514851666666430674"><ele>204.39148506608427</ele><time>2012-10-12T05:51:22Z</time></trkpt><trkpt lat="32.75305273333333389019" lon="35.29520380000000301379"><ele>204.78716229771393</ele><time>2012-10-12T05:51:25Z</time></trkpt><trkpt lat="32.75301131666666520914" lon="35.29527254999999996699"><ele>204.95552232365583</ele><time>2012-10-12T05:51:28Z</time></trkpt><trkpt lat="32.75297791666666569199" lon="35.29533353333333423052"><ele>205.10609348007512</ele><time>2012-10-12T05:51:31Z</time></trkpt><trkpt lat="32.75294759999999882893" lon="35.29539408333333483370"><ele>205.25871833608127</ele><time>2012-10-12T05:51:34Z</time></trkpt><trkpt lat="32.75294271666666645615" lon="35.29547203333333271758"><ele>205.74273382880673</ele><time>2012-10-12T05:51:37Z</time></trkpt><trkpt lat="32.75292511666666683823" lon="35.29553529999999739175"><ele>205.84650706080285</ele><time>2012-10-12T05:51:40Z</time></trkpt><trkpt lat="32.75292453333333497767" lon="35.29562825000000003683"><ele>206.39701363204668</ele><time>2012-10-12T05:51:43Z</time></trkpt><trkpt lat="32.75293478333333041519" lon="35.29570276666666472920"><ele>207.0141475535638</ele><time>2012-10-12T05:51:46Z</time></trkpt><trkpt lat="32.75295041666666406854" lon="35.29576148333333662777"><ele>207.6289161800036</ele><time>2012-10-12T05:51:49Z</time></trkpt><trkpt lat="32.75297871666666793544" lon="35.29584456666666625324"><ele>208.61184744160633</ele><time>2012-10-12T05:51:52Z</time></trkpt><trkpt lat="32.75301309999999688216" lon="35.29591795000000331584"><ele>209.65128041755915</ele><time>2012-10-12T05:51:55Z</time></trkpt><trkpt lat="32.75304419999999794300" lon="35.29599528333333324781"><ele>210.6737435871595</ele><time>2012-10-12T05:51:58Z</time></trkpt><trkpt lat="32.75307219999999830407" lon="35.29605028333333649471"><ele>211.51183971518935</ele><time>2012-10-12T05:52:01Z</time></trkpt><trkpt lat="32.75310621666666577312" lon="35.29612753333333330374"><ele>212.6102449567867</ele><time>2012-10-12T05:52:04Z</time></trkpt><trkpt lat="32.75315293333333244163" lon="35.29619123333333163828"><ele>213.86021233917924</ele><time>2012-10-12T05:52:07Z</time></trkpt><trkpt lat="32.75318633333333195878" lon="35.29626178333333541559"><ele>214.87811718392365</ele><time>2012-10-12T05:52:10Z</time></trkpt><trkpt lat="32.75320601666666675555" lon="35.29633273333333676192"><ele>215.36825199354323</ele><time>2012-10-12T05:52:13Z</time></trkpt><trkpt lat="32.75321448333333052005" lon="35.29638870000000139271"><ele>215.62209069108292</ele><time>2012-10-12T05:52:16Z</time></trkpt><trkpt lat="32.75322700000000253340" lon="35.29644993333333502505"><ele>215.9483751679671</ele><time>2012-10-12T05:52:19Z</time></trkpt><trkpt lat="32.75324066666667022218" lon="35.29649804999999673782"><ele>216.26205916796843</ele><time>2012-10-12T05:52:22Z</time></trkpt><trkpt lat="32.75326906666666815227" lon="35.29650480000000101199"><ele>216.743280844738</ele><time>2012-10-12T05:52:29Z</time></trkpt><trkpt lat="32.75328146666666384590" lon="35.29653711666666993096"><ele>216.99671667826618</ele><time>2012-10-12T05:52:49Z</time></trkpt><trkpt lat="32.75330906666666663796" lon="35.29656861666666856081"><ele>217.49007496310367</ele><time>2012-10-12T05:52:52Z</time></trkpt><trkpt lat="32.75330846666666673173" lon="35.29663084999999966840"><ele>217.56396990709604</ele><time>2012-10-12T05:52:55Z</time></trkpt><trkpt lat="32.75330420000000231084" lon="35.29670243333332990687"><ele>217.59444193271952</ele><time>2012-10-12T05:52:58Z</time></trkpt><trkpt lat="32.75330006666666804449" lon="35.29677153333333450291"><ele>217.62697413110436</ele><time>2012-10-12T05:53:01Z</time></trkpt><trkpt lat="32.75328538333333483479" lon="35.29684756666666345382"><ele>217.51902313269295</ele><time>2012-10-12T05:53:04Z</time></trkpt><trkpt lat="32.75326508333333208611" lon="35.29693128333333618230"><ele>217.35686610385633</ele><time>2012-10-12T05:53:07Z</time></trkpt><trkpt lat="32.75326271666666855253" lon="35.29702499999999787406"><ele>217.4741327998823</ele><time>2012-10-12T05:53:10Z</time></trkpt><trkpt lat="32.75328128333333665978" lon="35.29709723333333215578"><ele>217.8504673311089</ele><time>2012-10-12T05:53:13Z</time></trkpt><trkpt lat="32.75329321666666970714" lon="35.29716773333333179608"><ele>218.19252247669476</ele><time>2012-10-12T05:53:16Z</time></trkpt><trkpt lat="32.75330228333333337787" lon="35.29724063333333106129"><ele>218.49579279024655</ele><time>2012-10-12T05:53:19Z</time></trkpt><trkpt lat="32.75332713333333600758" lon="35.29731481666666326191"><ele>218.98198673266546</ele><time>2012-10-12T05:53:22Z</time></trkpt><trkpt lat="32.75332376666666789333" lon="35.29738756666666432693"><ele>219.12064447344324</ele><time>2012-10-12T05:53:25Z</time></trkpt><trkpt lat="32.75332488333333458286" lon="35.29746363333333647461"><ele>219.31968996144855</ele><time>2012-10-12T05:53:28Z</time></trkpt><trkpt lat="32.75332131666666413139" lon="35.29754473333333208984"><ele>219.4806762621894</ele><time>2012-10-12T05:53:31Z</time></trkpt><trkpt lat="32.75332138333333631408" lon="35.29762869999999708170"><ele>219.68867867823346</ele><time>2012-10-12T05:53:34Z</time></trkpt><trkpt lat="32.75332871666666534338" lon="35.29770824999999945248"><ele>219.9554777837879</ele><time>2012-10-12T05:53:37Z</time></trkpt><trkpt lat="32.75333296666666882402" lon="35.29778671666666411966"><ele>220.18476554540717</ele><time>2012-10-12T05:53:40Z</time></trkpt><trkpt lat="32.75333388333333317632" lon="35.29787015000000138798"><ele>220.39312736458697</ele><time>2012-10-12T05:53:43Z</time></trkpt><trkpt lat="32.75333898333333593200" lon="35.29795380000000193377"><ele>220.70311788303619</ele><time>2012-10-12T05:53:46Z</time></trkpt><trkpt lat="32.75334058333333331348" lon="35.29803768333333380269"><ele>221.06790658580573</ele><time>2012-10-12T05:53:49Z</time></trkpt><trkpt lat="32.75334699999999799047" lon="35.29811773333333491109"><ele>221.45532300779175</ele><time>2012-10-12T05:53:52Z</time></trkpt><trkpt lat="32.75334134999999946558" lon="35.29819355000000058453"><ele>221.7270536585976</ele><time>2012-10-12T05:53:55Z</time></trkpt><trkpt lat="32.75332234999999769798" lon="35.29826903333333376622"><ele>221.8932530309815</ele><time>2012-10-12T05:53:58Z</time></trkpt><trkpt lat="32.75329436666666538258" lon="35.29833463333333298806"><ele>221.9515929453853</ele><time>2012-10-12T05:54:01Z</time></trkpt><trkpt lat="32.75328108333333432256" lon="35.29840058333333274732"><ele>222.1299598898004</ele><time>2012-10-12T05:54:04Z</time></trkpt><trkpt lat="32.75326530000000246901" lon="35.29846968333333023793"><ele>222.30536793659925</ele><time>2012-10-12T05:54:07Z</time></trkpt><trkpt lat="32.75325289999999966994" lon="35.29853526666666851952"><ele>222.49412872619777</ele><time>2012-10-12T05:54:10Z</time></trkpt><trkpt lat="32.75324813333333651144" lon="35.29859673333333347500"><ele>222.72403601901482</ele><time>2012-10-12T05:54:13Z</time></trkpt><trkpt lat="32.75324053333333296223" lon="35.29866746666666443843"><ele>222.97417090537644</ele><time>2012-10-12T05:54:16Z</time></trkpt><trkpt lat="32.75322148333333416304" lon="35.29873094999999949550"><ele>223.1116017305914</ele><time>2012-10-12T05:54:19Z</time></trkpt><trkpt lat="32.75318918333333328974" lon="35.29878420000000005530"><ele>223.13970090060116</ele><time>2012-10-12T05:54:22Z</time></trkpt><trkpt lat="32.75317168333333484043" lon="35.29883841666666910442"><ele>223.29298872182562</ele><time>2012-10-12T05:54:25Z</time></trkpt><trkpt lat="32.75317758333333273413" lon="35.29890389999999911197"><ele>223.67514330779434</ele><time>2012-10-12T05:54:28Z</time></trkpt><trkpt lat="32.75318286666666978135" lon="35.29896776666666369238"><ele>224.0453960606127</ele><time>2012-10-12T05:54:31Z</time></trkpt><trkpt lat="32.75317656666666721321" lon="35.29902609999999896218"><ele>224.29989208140455</ele><time>2012-10-12T05:54:34Z</time></trkpt><trkpt lat="32.75315526666666698929" lon="35.29907560000000188438"><ele>224.39267095021862</ele><time>2012-10-12T05:54:37Z</time></trkpt><trkpt lat="32.75312566666666924675" lon="35.29911853333333482396"><ele>224.38467379183436</ele><time>2012-10-12T05:54:40Z</time></trkpt><trkpt lat="32.75309405000000140262" lon="35.29916049999999927422"><ele>224.35241483581436</ele><time>2012-10-12T05:54:43Z</time></trkpt><trkpt lat="32.75307734999999809133" lon="35.29922216666666656693"><ele>224.53257181179245</ele><time>2012-10-12T05:54:46Z</time></trkpt><trkpt lat="32.75306708333333460814" lon="35.29928651666666894471"><ele>224.77448950983074</ele><time>2012-10-12T05:54:49Z</time></trkpt><trkpt lat="32.75305916666666661285" lon="35.29934513333333256924"><ele>225.0047613598059</ele><time>2012-10-12T05:54:52Z</time></trkpt><trkpt lat="32.75306295000000034179" lon="35.29940495000000311165"><ele>225.33496390742982</ele><time>2012-10-12T05:54:55Z</time></trkpt><trkpt lat="32.75305273333333389019" lon="35.29947063333333545643"><ele>225.5799180126278</ele><time>2012-10-12T05:54:58Z</time></trkpt><trkpt lat="32.75301723333333114851" lon="35.29953623333333467826"><ele>225.61185916620178</ele><time>2012-10-12T05:55:01Z</time></trkpt><trkpt lat="32.75299040000000161399" lon="35.29958603333333400087"><ele>225.63642002545538</ele><time>2012-10-12T05:55:04Z</time></trkpt><trkpt lat="32.75297288333333511900" lon="35.29964128333333661658"><ele>225.8339935050761</ele><time>2012-10-12T05:55:07Z</time></trkpt><trkpt lat="32.75295221666666378724" lon="35.29970386666666826159"><ele>226.04033102702715</ele><time>2012-10-12T05:55:10Z</time></trkpt><trkpt lat="32.75292410000000131731" lon="35.29975759999999951333"><ele>226.11363605105396</ele><time>2012-10-12T05:55:13Z</time></trkpt><trkpt lat="32.75289906666666439605" lon="35.29981459999999771071"><ele>226.49673633238427</ele><time>2012-10-12T05:55:16Z</time></trkpt><trkpt lat="32.75287440000000316331" lon="35.29987326666666547226"><ele>226.99098049236002</ele><time>2012-10-12T05:55:19Z</time></trkpt><trkpt lat="32.75285446666666899773" lon="35.29992990000000219197"><ele>227.43411614998732</ele><time>2012-10-12T05:55:22Z</time></trkpt><trkpt lat="32.75283774999999764077" lon="35.29999033333333358087"><ele>227.87144555960504</ele><time>2012-10-12T05:55:25Z</time></trkpt><trkpt lat="32.75281346666666593137" lon="35.30004904999999837401"><ele>228.3297123323876</ele><time>2012-10-12T05:55:28Z</time></trkpt><trkpt lat="32.75279979999999824258" lon="35.30010886666666891642"><ele>228.7293171388168</ele><time>2012-10-12T05:55:31Z</time></trkpt><trkpt lat="32.75277468333333530381" lon="35.30015335000000220589"><ele>229.09275001679936</ele><time>2012-10-12T05:55:34Z</time></trkpt><trkpt lat="32.75276991666666503988" lon="35.30021401666666491792"><ele>229.44087199359842</ele><time>2012-10-12T05:55:37Z</time></trkpt><trkpt lat="32.75276056666666590900" lon="35.30027076666666374649"><ele>229.78494795639128</ele><time>2012-10-12T05:55:40Z</time></trkpt><trkpt lat="32.75273478333333088131" lon="35.30031621666666552528"><ele>230.13100718080858</ele><time>2012-10-12T05:55:43Z</time></trkpt><trkpt lat="32.75271020000000277150" lon="35.30037221666666624742"><ele>230.51622655479386</ele><time>2012-10-12T05:55:46Z</time></trkpt><trkpt lat="32.75270856666666929868" lon="35.30042558333333602150"><ele>230.8160439876626</ele><time>2012-10-12T05:55:49Z</time></trkpt><trkpt lat="32.75271484999999671572" lon="35.30047778333333496903"><ele>231.18663555607898</ele><time>2012-10-12T05:55:52Z</time></trkpt><trkpt lat="32.75271051666666721758" lon="35.30053705000000263681"><ele>231.6461504552773</ele><time>2012-10-12T05:55:55Z</time></trkpt><trkpt lat="32.75270369999999786614" lon="35.30058521666666848660"><ele>232.02743130288152</ele><time>2012-10-12T05:55:58Z</time></trkpt><trkpt lat="32.75270053333333208911" lon="35.30063666666666932770"><ele>232.42066687968807</ele><time>2012-10-12T05:56:01Z</time></trkpt><trkpt lat="32.75268471666666414421" lon="35.30068339999999693646"><ele>232.8083067980502</ele><time>2012-10-12T05:56:04Z</time></trkpt><trkpt lat="32.75267331666666592582" lon="35.30073320000000336449"><ele>233.20217736929547</ele><time>2012-10-12T05:56:07Z</time></trkpt><trkpt lat="32.75267863333333195897" lon="35.30076978333333670435"><ele>233.45998871889958</ele><time>2012-10-12T05:56:10Z</time></trkpt><trkpt lat="32.75268546666666935607" lon="35.30082328333333663295"><ele>233.8417777788954</ele><time>2012-10-12T05:56:13Z</time></trkpt><trkpt lat="32.75267649999999974852" lon="35.30088645000000013852"><ele>234.32337039568077</ele><time>2012-10-12T05:56:16Z</time></trkpt><trkpt lat="32.75266646666666758847" lon="35.30094156666666549427"><ele>234.74253448607232</ele><time>2012-10-12T05:56:19Z</time></trkpt><trkpt lat="32.75265541666666990750" lon="35.30099773333333246228"><ele>235.16566815967505</ele><time>2012-10-12T05:56:22Z</time></trkpt><trkpt lat="32.75263093333333586088" lon="35.30104885000000081163"><ele>235.55863312288997</ele><time>2012-10-12T05:56:25Z</time></trkpt><trkpt lat="32.75260758333333654946" lon="35.30109896666666458032"><ele>235.9329857476709</ele><time>2012-10-12T05:56:28Z</time></trkpt><trkpt lat="32.75259319999999974016" lon="35.30114805000000188784"><ele>236.28608248290317</ele><time>2012-10-12T05:56:31Z</time></trkpt><trkpt lat="32.75259485000000125865" lon="35.30118508333332982829"><ele>236.54495026566747</ele><time>2012-10-12T05:56:34Z</time></trkpt><trkpt lat="32.75259261666666787960" lon="35.30121830000000215932"><ele>236.7780967029093</ele><time>2012-10-12T05:56:37Z</time></trkpt><trkpt lat="32.75260393333333297505" lon="35.30124773333333365599"><ele>236.98402228449945</ele><time>2012-10-12T05:58:56Z</time></trkpt><trkpt lat="32.75260091666666539822" lon="35.30129231666666811407"><ele>237.3677589157413</ele><time>2012-10-12T06:00:18Z</time></trkpt><trkpt lat="32.75257811666666896144" lon="35.30134531666666930505"><ele>237.82210396215316</ele><time>2012-10-12T06:00:21Z</time></trkpt><trkpt lat="32.75254056666666713227" lon="35.30141318333333089186"><ele>238.38980503490995</ele><time>2012-10-12T06:00:24Z</time></trkpt><trkpt lat="32.75245961666666971723" lon="35.30149974999999784586"><ele>239.0688530757141</ele><time>2012-10-12T06:00:27Z</time></trkpt><trkpt lat="32.75238653333333616047" lon="35.30155396666666689498"><ele>239.45398855653238</ele><time>2012-10-12T06:00:30Z</time></trkpt><trkpt lat="32.75231441666666398760" lon="35.30161594999999863376"><ele>239.8783870437132</ele><time>2012-10-12T06:00:33Z</time></trkpt><trkpt lat="32.75225478333333484215" lon="35.30168806666666370120"><ele>240.3703868061056</ele><time>2012-10-12T06:00:36Z</time></trkpt><trkpt lat="32.75222163333333469382" lon="35.30175228333333592445"><ele>240.81650146054895</ele><time>2012-10-12T06:00:39Z</time></trkpt><trkpt lat="32.75217194999999748006" lon="35.30177273333333687333"><ele>240.89708991014814</ele><time>2012-10-12T06:00:42Z</time></trkpt><trkpt lat="32.75214230000000270593" lon="35.30180864999999812426"><ele>241.11715217731594</ele><time>2012-10-12T06:00:45Z</time></trkpt><trkpt lat="32.75211156666667022819" lon="35.30186451666666869187"><ele>241.47448757894705</ele><time>2012-10-12T06:00:48Z</time></trkpt><trkpt lat="32.75207411666666956762" lon="35.30192695000000213668"><ele>241.94247551916956</ele><time>2012-10-12T06:00:51Z</time></trkpt><trkpt lat="32.75202491666667015124" lon="35.30198086666666767997"><ele>242.69145949555656</ele><time>2012-10-12T06:00:54Z</time></trkpt><trkpt lat="32.75198255000000102655" lon="35.30201018333332996235"><ele>243.20957611274278</ele><time>2012-10-12T06:00:57Z</time></trkpt><trkpt lat="32.75194621666666705551" lon="35.30195394999999791708"><ele>243.0812264799544</ele><time>2012-10-12T06:01:00Z</time></trkpt><trkpt lat="32.75190489999999954307" lon="35.30196821666666551209"><ele>243.48545853636605</ele><time>2012-10-12T06:01:03Z</time></trkpt><trkpt lat="32.75181119999999879155" lon="35.30200336666666771634"><ele>244.41493669718415</ele><time>2012-10-12T06:01:06Z</time></trkpt><trkpt lat="32.75170669999999972788" lon="35.30202566666666541551"><ele>245.32783563155863</ele><time>2012-10-12T06:01:09Z</time></trkpt><trkpt lat="32.75160991666666632227" lon="35.30209841666666648052"><ele>246.57396521964648</ele><time>2012-10-12T06:01:12Z</time></trkpt><trkpt lat="32.75153765000000305463" lon="35.30213590000000323244"><ele>247.51617209086112</ele><time>2012-10-12T06:01:15Z</time></trkpt><trkpt lat="32.75145826666666692972" lon="35.30215103333333104274"><ele>248.27227299802237</ele><time>2012-10-12T06:01:18Z</time></trkpt><trkpt lat="32.75140476666666700112" lon="35.30220488333333150877"><ele>249.2901017612264</ele><time>2012-10-12T06:01:21Z</time></trkpt><trkpt lat="32.75136366666666987157" lon="35.30227150000000335694"><ele>250.3780017596627</ele><time>2012-10-12T06:01:24Z</time></trkpt><trkpt lat="32.75135503333333275577" lon="35.30233685000000320997"><ele>251.20927222208724</ele><time>2012-10-12T06:01:27Z</time></trkpt><trkpt lat="32.75135960000000068248" lon="35.30238560000000092032"><ele>251.74267013084747</ele><time>2012-10-12T06:01:30Z</time></trkpt><trkpt lat="32.75136276666666645951" lon="35.30242158333333435394"><ele>252.13722722365367</ele><time>2012-10-12T06:01:33Z</time></trkpt><trkpt lat="32.75138485000000088121" lon="35.30245698333333592700"><ele>252.3677662964599</ele><time>2012-10-12T06:01:36Z</time></trkpt><trkpt lat="32.75143630000000172231" lon="35.30249051666666559868"><ele>252.3263682252061</ele><time>2012-10-12T06:01:39Z</time></trkpt><trkpt lat="32.75145081666666868614" lon="35.30254588333333032324"><ele>252.8372032819774</ele><time>2012-10-12T06:01:42Z</time></trkpt><trkpt lat="32.75141186666666470728" lon="35.30258306666666356932"><ele>253.59839631321003</ele><time>2012-10-12T06:01:45Z</time></trkpt><trkpt lat="32.75136943333333050532" lon="35.30261668333333346936"><ele>254.35682466685532</ele><time>2012-10-12T06:01:48Z</time></trkpt><trkpt lat="32.75132336666666788005" lon="35.30261566666666794845"><ele>254.7472800956358</ele><time>2012-10-12T06:01:51Z</time></trkpt><trkpt lat="32.75127640000000184273" lon="35.30260633333332975781"><ele>255.0461552635754</ele><time>2012-10-12T06:01:54Z</time></trkpt><trkpt lat="32.75121599999999943975" lon="35.30260238333333688843"><ele>255.6065238716402</ele><time>2012-10-12T06:01:57Z</time></trkpt><trkpt lat="32.75116154999999906750" lon="35.30259379999999680422"><ele>256.11531728915617</ele><time>2012-10-12T06:02:00Z</time></trkpt><trkpt lat="32.75111085000000343825" lon="35.30259209999999825413"><ele>256.66427222191504</ele><time>2012-10-12T06:02:03Z</time></trkpt><trkpt lat="32.75107578333333435694" lon="35.30259000000000213504"><ele>257.0351291195768</ele><time>2012-10-12T06:02:06Z</time></trkpt><trkpt lat="32.75104058333333512110" lon="35.30256744999999796164"><ele>257.20035866751573</ele><time>2012-10-12T06:02:09Z</time></trkpt><trkpt lat="32.75099294999999699485" lon="35.30254731666666856427"><ele>257.5473138467994</ele><time>2012-10-12T06:02:12Z</time></trkpt><trkpt lat="32.75095069999999708443" lon="35.30251768333333473038"><ele>257.7580717483825</ele><time>2012-10-12T06:02:15Z</time></trkpt><trkpt lat="32.75089263333333633454" lon="35.30252161666666665951"><ele>258.4810553418895</ele><time>2012-10-12T06:02:18Z</time></trkpt><trkpt lat="32.75086238333333454875" lon="35.30254190000000136251"><ele>259.01387656431973</ele><time>2012-10-12T06:02:21Z</time></trkpt><trkpt lat="32.75084288333333404353" lon="35.30257629999999835491"><ele>259.5326156651008</ele><time>2012-10-12T06:02:24Z</time></trkpt><trkpt lat="32.75082646666666619240" lon="35.30260305000000187192"><ele>259.94190624914404</ele><time>2012-10-12T06:02:28Z</time></trkpt><trkpt lat="32.75080104999999974780" lon="35.30265589999999775728"><ele>260.6534751243095</ele><time>2012-10-12T06:02:31Z</time></trkpt><trkpt lat="32.75076349999999791862" lon="35.30272011666666998053"><ele>261.554170407573</ele><time>2012-10-12T06:02:34Z</time></trkpt><trkpt lat="32.75075363333333200444" lon="35.30276861666666832207"><ele>262.02780841395594</ele><time>2012-10-12T06:02:37Z</time></trkpt><trkpt lat="32.75075478333333478531" lon="35.30282161666666951305"><ele>262.4259077731456</ele><time>2012-10-12T06:02:40Z</time></trkpt><trkpt lat="32.75076984999999751835" lon="35.30286650000000037153"><ele>262.63937621557</ele><time>2012-10-12T06:02:43Z</time></trkpt><trkpt lat="32.75077636666666336396" lon="35.30292883333333264773"><ele>263.00771999946994</ele><time>2012-10-12T06:02:46Z</time></trkpt><trkpt lat="32.75076765000000023065" lon="35.30299018333333549435"><ele>263.22817999944687</ele><time>2012-10-12T06:02:49Z</time></trkpt><trkpt lat="32.75077471666666895089" lon="35.30305153333333123555"><ele>263.31605999941934</ele><time>2012-10-12T06:02:52Z</time></trkpt><trkpt lat="32.75078611666666716928" lon="35.30311075000000187174"><ele>263.3624199994438</ele><time>2012-10-12T06:02:55Z</time></trkpt><trkpt lat="32.75078053333333372166" lon="35.30315138333333635501"><ele>263.5068399994474</ele><time>2012-10-12T06:02:58Z</time></trkpt><trkpt lat="32.75078944999999919219" lon="35.30321156666666837509"><ele>263.57637999945416</ele><time>2012-10-12T06:03:01Z</time></trkpt><trkpt lat="32.75075809999999876254" lon="35.30327350000000308228"><ele>263.9883599994607</ele><time>2012-10-12T06:03:04Z</time></trkpt><trkpt lat="32.75075543333333172313" lon="35.30332289999999773045"><ele>264.1293199994509</ele><time>2012-10-12T06:03:07Z</time></trkpt><trkpt lat="32.75076581666666442061" lon="35.30336893333333136979"><ele>264.15257999943987</ele><time>2012-10-12T06:03:10Z</time></trkpt><trkpt lat="32.75077939999999898646" lon="35.30340604999999953861"><ele>264.1275599994331</ele><time>2012-10-12T06:03:13Z</time></trkpt><trkpt lat="32.75077421666667021327" lon="35.30343770000000347409"><ele>264.2470599994042</ele><time>2012-10-12T06:03:17Z</time></trkpt><trkpt lat="32.75080750000000051614" lon="35.30349646666666529882"><ele>264.10851999941815</ele><time>2012-10-12T06:03:20Z</time></trkpt><trkpt lat="32.75081133333333127666" lon="35.30355699999999785632"><ele>264.22159999943784</ele><time>2012-10-12T06:03:23Z</time></trkpt><trkpt lat="32.75082406666666656747" lon="35.30361733333333518203"><ele>264.2594399994309</ele><time>2012-10-12T06:03:26Z</time></trkpt><trkpt lat="32.75086340000000006967" lon="35.30367131666666580259"><ele>264.0585999994232</ele><time>2012-10-12T06:03:29Z</time></trkpt><trkpt lat="32.75086868333333001146" lon="35.30374534999999980300"><ele>264.19189999945314</ele><time>2012-10-12T06:03:32Z</time></trkpt><trkpt lat="32.75088711666666796418" lon="35.30379024999999870715"><ele>264.15105456341547</ele><time>2012-10-12T06:03:35Z</time></trkpt><trkpt lat="32.75091261666666753172" lon="35.30382943333333400915"><ele>264.042797489027</ele><time>2012-10-12T06:03:38Z</time></trkpt><trkpt lat="32.75092663333333575792" lon="35.30387730000000345854"><ele>264.0560060186247</ele><time>2012-10-12T06:03:41Z</time></trkpt><trkpt lat="32.75094846666666370538" lon="35.30392591666666390893"><ele>264.0134111514538</ele><time>2012-10-12T06:03:44Z</time></trkpt><trkpt lat="32.75095998333333113806" lon="35.30395811666666361361"><ele>264.0115309698485</ele><time>2012-10-12T06:03:47Z</time></trkpt><trkpt lat="32.75097716666666514129" lon="35.30401031666666966657"><ele>264.0243935754628</ele><time>2012-10-12T06:03:50Z</time></trkpt><trkpt lat="32.75100416666666802712" lon="35.30406779999999855590"><ele>263.984077599432</ele><time>2012-10-12T06:03:53Z</time></trkpt><trkpt lat="32.75104016666666950641" lon="35.30410626666666473739"><ele>263.8298609274228</ele><time>2012-10-12T06:03:56Z</time></trkpt><trkpt lat="32.75107053333333340106" lon="35.30414255000000167684"><ele>263.7178050362571</ele><time>2012-10-12T06:04:00Z</time></trkpt><trkpt lat="32.75113533333333037945" lon="35.30413921666666965393"><ele>263.23584508748655</ele><time>2012-10-12T06:04:03Z</time></trkpt><trkpt lat="32.75118334999999802903" lon="35.30414818333333215605"><ele>262.9168879122682</ele><time>2012-10-12T06:04:06Z</time></trkpt><trkpt lat="32.75121345000000161463" lon="35.30419591666666434548"><ele>262.86538102744163</ele><time>2012-10-12T06:04:09Z</time></trkpt><trkpt lat="32.75127308333333076007" lon="35.30421874999999687361"><ele>262.5801624995022</ele><time>2012-10-12T06:04:12Z</time></trkpt><trkpt lat="32.75132793333333580676" lon="35.30421489999999806741"><ele>262.310385874685</ele><time>2012-10-12T06:04:15Z</time></trkpt><trkpt lat="32.75138764999999807515" lon="35.30422393333333275223"><ele>262.0681423387135</ele><time>2012-10-12T06:04:18Z</time></trkpt><trkpt lat="32.75142751666666640631" lon="35.30425385000000204627"><ele>262.0063523043195</ele><time>2012-10-12T06:04:21Z</time></trkpt><trkpt lat="32.75147051666666442316" lon="35.30428274999999871397"><ele>261.93314313151757</ele><time>2012-10-12T06:04:24Z</time></trkpt><trkpt lat="32.75150541666666725860" lon="35.30429846666666549027"><ele>261.8454320795074</ele><time>2012-10-12T06:04:27Z</time></trkpt><trkpt lat="32.75153558333333592145" lon="35.30430400000000190630"><ele>261.73655391951377</ele><time>2012-10-12T06:04:30Z</time></trkpt><trkpt lat="32.75159266666666724177" lon="35.30430993333333589135"><ele>261.5123470075286</ele><time>2012-10-12T06:04:33Z</time></trkpt><trkpt lat="32.75163309999999938782" lon="35.30432005000000117434"><ele>261.3825321259298</ele><time>2012-10-12T06:04:36Z</time></trkpt><trkpt lat="32.75166913333332985303" lon="35.30438458333333073824"><ele>261.5357080795279</ele><time>2012-10-12T06:04:39Z</time></trkpt><trkpt lat="32.75170980000000042764" lon="35.30441230000000274458"><ele>261.5025135547405</ele><time>2012-10-12T06:04:42Z</time></trkpt><trkpt lat="32.75175511666666494648" lon="35.30444096666666808915"><ele>261.461954084346</ele><time>2012-10-12T06:04:45Z</time></trkpt><trkpt lat="32.75179368333333229657" lon="35.30447096666666340070"><ele>261.46227537392207</ele><time>2012-10-12T06:04:48Z</time></trkpt><trkpt lat="32.75183043333333188230" lon="35.30449724999999716601"><ele>261.4566389675282</ele><time>2012-10-12T06:04:51Z</time></trkpt><trkpt lat="32.75187098333333324263" lon="35.30453216666666804713"><ele>261.48875189554855</ele><time>2012-10-12T06:04:54Z</time></trkpt><trkpt lat="32.75194118333333648252" lon="35.30453673333333597384"><ele>261.25121766674704</ele><time>2012-10-12T06:04:57Z</time></trkpt><trkpt lat="32.75198273333333531809" lon="35.30453528333333679257"><ele>261.0877814299581</ele><time>2012-10-12T06:05:00Z</time></trkpt><trkpt lat="32.75204338333332998445" lon="35.30453958333333019937"><ele>260.88635369954267</ele><time>2012-10-12T06:05:03Z</time></trkpt><trkpt lat="32.75208365000000299005" lon="35.30455183333333479823"><ele>260.8106199995962</ele><time>2012-10-12T06:05:06Z</time></trkpt><trkpt lat="32.75213881666666537740" lon="35.30455659999999795673"><ele>260.7730199995804</ele><time>2012-10-12T06:05:09Z</time></trkpt><trkpt lat="32.75221298333333663777" lon="35.30456216666666335868"><ele>260.71741999956726</ele><time>2012-10-12T06:05:12Z</time></trkpt><trkpt lat="32.75227688333333020410" lon="35.30456268333333014198"><ele>260.64383999957573</ele><time>2012-10-12T06:05:15Z</time></trkpt><trkpt lat="32.75232609999999766615" lon="35.30454615000000018199"><ele>260.4855799995952</ele><time>2012-10-12T06:05:18Z</time></trkpt><trkpt lat="32.75238748333333660412" lon="35.30457091666666968877"><ele>260.56051999960545</ele><time>2012-10-12T06:05:21Z</time></trkpt><trkpt lat="32.75244188333333283936" lon="35.30460756666666810588"><ele>260.6610360779646</ele><time>2012-10-12T06:05:24Z</time></trkpt><trkpt lat="32.75251908333333261680" lon="35.30460618333333400187"><ele>260.55810416355877</ele><time>2012-10-12T06:05:27Z</time></trkpt><trkpt lat="32.75253465000000119289" lon="35.30464479999999838356"><ele>260.6735661179456</ele><time>2012-10-12T06:05:30Z</time></trkpt><trkpt lat="32.75256798333333563278" lon="35.30465493333333171222"><ele>260.6621612923423</ele><time>2012-10-12T06:05:55Z</time></trkpt><trkpt lat="32.75254145000000249865" lon="35.30464503333333681212"><ele>260.66501450036134</ele><time>2012-10-12T06:06:35Z</time></trkpt><trkpt lat="32.75257273333333074561" lon="35.30464220000000352684"><ele>260.61230908116704</ele><time>2012-10-12T06:06:42Z</time></trkpt><trkpt lat="32.75260161666666647307" lon="35.30465016666666855372"><ele>260.5991008235565</ele><time>2012-10-12T06:07:06Z</time></trkpt><trkpt lat="32.75263255000000128803" lon="35.30466588333333533001"><ele>260.60660703235254</ele><time>2012-10-12T06:07:09Z</time></trkpt><trkpt lat="32.75267459999999886122" lon="35.30467904999999717575"><ele>260.58692906513863</ele><time>2012-10-12T06:07:12Z</time></trkpt><trkpt lat="32.75273501666666930987" lon="35.30467593333333553574"><ele>260.48866387474595</ele><time>2012-10-12T06:07:15Z</time></trkpt><trkpt lat="32.75281268333333173359" lon="35.30470689999999933661"><ele>260.4583447563395</ele><time>2012-10-12T06:07:18Z</time></trkpt><trkpt lat="32.75287595000000351320" lon="35.30476345000000293339"><ele>260.5022612003347</ele><time>2012-10-12T06:07:21Z</time></trkpt><trkpt lat="32.75291866666666606989" lon="35.30481759999999979982"><ele>260.55609062351016</ele><time>2012-10-12T06:07:24Z</time></trkpt><trkpt lat="32.75298014999999907104" lon="35.30484373333333536493"><ele>260.4249905467125</ele><time>2012-10-12T06:07:27Z</time></trkpt><trkpt lat="32.75305708333333143401" lon="35.30489138333333443143"><ele>260.27774457950807</ele><time>2012-10-12T06:07:30Z</time></trkpt><trkpt lat="32.75313694999999825086" lon="35.30495238333333674063"><ele>260.12290877470554</ele><time>2012-10-12T06:07:33Z</time></trkpt><trkpt lat="32.75319050000000231648" lon="35.30500545000000300888"><ele>260.0229819114852</ele><time>2012-10-12T06:07:36Z</time></trkpt><trkpt lat="32.75321859999999674073" lon="35.30500134999999772845"><ele>259.9151060826962</ele><time>2012-10-12T06:07:40Z</time></trkpt><trkpt lat="32.75325808333333554856" lon="35.30501350000000115870"><ele>259.79002571947933</ele><time>2012-10-12T06:07:43Z</time></trkpt><trkpt lat="32.75331876666666630626" lon="35.30495931666666820092"><ele>259.5019132522893</ele><time>2012-10-12T06:07:46Z</time></trkpt><trkpt lat="32.75338633333333149267" lon="35.30494103333333555383"><ele>259.2474406714931</ele><time>2012-10-12T06:07:49Z</time></trkpt><trkpt lat="32.75347494999999753418" lon="35.30493580000000264363"><ele>258.93932435469185</ele><time>2012-10-12T06:07:52Z</time></trkpt><trkpt lat="32.75358258333333338896" lon="35.30492124999999958845"><ele>258.5647298994775</ele><time>2012-10-12T06:07:55Z</time></trkpt><trkpt lat="32.75365611666666865176" lon="35.30481136666666941437"><ele>258.28697656427534</ele><time>2012-10-12T06:07:58Z</time></trkpt><trkpt lat="32.75374475000000273894" lon="35.30474706666666406818"><ele>258.01507564747266</ele><time>2012-10-12T06:08:01Z</time></trkpt><trkpt lat="32.75383438333333430137" lon="35.30466245000000213849"><ele>257.1514655017368</ele><time>2012-10-12T06:08:04Z</time></trkpt><trkpt lat="32.75402760000000057516" lon="35.30461615000000108466"><ele>255.2825669369309</ele><time>2012-10-12T06:08:07Z</time></trkpt><trkpt lat="32.75415506666666942692" lon="35.30443898333333407891"><ele>253.24525999942875</ele><time>2012-10-12T06:08:10Z</time></trkpt><trkpt lat="32.75417366666666652009" lon="35.30430306666666950832"><ele>252.25119999947012</ele><time>2012-10-12T06:08:13Z</time></trkpt><trkpt lat="32.75408604999999795382" lon="35.30423111666666358133"><ele>252.66061999945242</ele><time>2012-10-12T06:08:16Z</time></trkpt><trkpt lat="32.75401613333333017408" lon="35.30419038333333503488"><ele>253.08741999949143</ele><time>2012-10-12T06:08:19Z</time></trkpt><trkpt lat="32.75394514999999984184" lon="35.30414333333333587461"><ele>253.48655999946732</ele><time>2012-10-12T06:08:22Z</time></trkpt><trkpt lat="32.75388914999999911970" lon="35.30410516666666609353"><ele>253.7951599994553</ele><time>2012-10-12T06:08:25Z</time></trkpt><trkpt lat="32.75383668333333275768" lon="35.30409163333333566470"><ele>254.2176399994694</ele><time>2012-10-12T06:08:28Z</time></trkpt><trkpt lat="32.75377518333333171086" lon="35.30405931666666674573"><ele>254.6141399994656</ele><time>2012-10-12T06:08:31Z</time></trkpt><trkpt lat="32.75375866666666979654" lon="35.30402794999999827041"><ele>254.58449999940913</ele><time>2012-10-12T06:08:35Z</time></trkpt><trkpt lat="32.75371623333333559458" lon="35.30399261666666888004"><ele>254.53673999958428</ele><time>2012-10-12T06:08:38Z</time></trkpt><trkpt lat="32.75368104999999729898" lon="35.30393600000000020600"><ele>254.2814799995844</ele><time>2012-10-12T06:08:41Z</time></trkpt><trkpt lat="32.75366886666666488281" lon="35.30384023333333232131"><ele>253.7361199995754</ele><time>2012-10-12T06:08:44Z</time></trkpt><trkpt lat="32.75364878333333251703" lon="35.30375250000000164619"><ele>253.25791999958946</ele><time>2012-10-12T06:08:47Z</time></trkpt><trkpt lat="32.75363283333333441760" lon="35.30368051666666673327"><ele>252.99589031555587</ele><time>2012-10-12T06:08:50Z</time></trkpt><trkpt lat="32.75364725000000021282" lon="35.30361384999999785350"><ele>252.6960257375533</ele><time>2012-10-12T06:08:53Z</time></trkpt><trkpt lat="32.75367433333333622159" lon="35.30356333333333651581"><ele>252.44858239957273</ele><time>2012-10-12T06:08:56Z</time></trkpt><trkpt lat="32.75370073333333209575" lon="35.30348523333333332630"><ele>252.10872918037109</ele><time>2012-10-12T06:08:59Z</time></trkpt><trkpt lat="32.75369063333333485843" lon="35.30342793333333162309"><ele>251.90044149396653</ele><time>2012-10-12T06:09:02Z</time></trkpt><trkpt lat="32.75367810000000190485" lon="35.30332684999999770525"><ele>251.51778622440114</ele><time>2012-10-12T06:09:05Z</time></trkpt><trkpt lat="32.75368021666666606961" lon="35.30323460000000324044"><ele>251.15666545403104</ele><time>2012-10-12T06:09:08Z</time></trkpt><trkpt lat="32.75368776666666548181" lon="35.30317393333333342298"><ele>250.9206456284227</ele><time>2012-10-12T06:09:11Z</time></trkpt><trkpt lat="32.75371186666667000509" lon="35.30306921666666397641"><ele>250.5285504764204</ele><time>2012-10-12T06:09:14Z</time></trkpt><trkpt lat="32.75374186666666531664" lon="35.30309150000000073533"><ele>250.62578294362643</ele><time>2012-10-12T06:09:17Z</time></trkpt><trkpt lat="32.75379565000000070540" lon="35.30315215000000250711"><ele>250.52740080229194</ele><time>2012-10-12T06:09:20Z</time></trkpt><trkpt lat="32.75382359999999692945" lon="35.30320053333333163437"><ele>250.49006402509892</ele><time>2012-10-12T06:09:23Z</time></trkpt><trkpt lat="32.75386968333333470582" lon="35.30324551666666366145"><ele>250.2957340262556</ele><time>2012-10-12T06:09:26Z</time></trkpt><trkpt lat="32.75390196666666753345" lon="35.30326515000000142663"><ele>250.11396208506858</ele><time>2012-10-12T06:09:29Z</time></trkpt><trkpt lat="32.75393586666666578822" lon="35.30325541666666566698"><ele>249.83230271947275</ele><time>2012-10-12T06:09:32Z</time></trkpt><trkpt lat="32.75397341666666761739" lon="35.30323466666666831770"><ele>249.49737911946497</ele><time>2012-10-12T06:09:35Z</time></trkpt><trkpt lat="32.75402778333333486671" lon="35.30318598333333568462"><ele>248.9796535358618</ele><time>2012-10-12T06:09:38Z</time></trkpt><trkpt lat="32.75407874999999791044" lon="35.30315261666666515339"><ele>248.54182380947714</ele><time>2012-10-12T06:09:41Z</time></trkpt><trkpt lat="32.75410740000000231475" lon="35.30313216666666420451"><ele>248.29867489544398</ele><time>2012-10-12T06:09:44Z</time></trkpt><trkpt lat="32.75417641666666668243" lon="35.30309263333333547052"><ele>247.75082828346638</ele><time>2012-10-12T06:09:47Z</time></trkpt><trkpt lat="32.75424259999999776483" lon="35.30304865000000091868"><ele>247.23867524267698</ele><time>2012-10-12T06:09:50Z</time></trkpt><trkpt lat="32.75426399999999915735" lon="35.30299730000000124619"><ele>247.02723529547038</ele><time>2012-10-12T06:09:53Z</time></trkpt><trkpt lat="32.75432138333333398350" lon="35.30294348333333687151"><ele>246.60204638306305</ele><time>2012-10-12T06:09:56Z</time></trkpt><trkpt lat="32.75435670000000243363" lon="35.30289201666666798474"><ele>246.45138796175533</ele><time>2012-10-12T06:09:59Z</time></trkpt><trkpt lat="32.75440913333333270430" lon="35.30281850000000076761"><ele>246.46182561537725</ele><time>2012-10-12T06:10:02Z</time></trkpt><trkpt lat="32.75445491666666697483" lon="35.30275985000000105174"><ele>246.50841023337273</ele><time>2012-10-12T06:10:05Z</time></trkpt><trkpt lat="32.75451286666666561587" lon="35.30267043333333276678"><ele>246.72529947779066</ele><time>2012-10-12T06:10:08Z</time></trkpt><trkpt lat="32.75457655000000301015" lon="35.30260379999999997835"><ele>246.89650742817514</ele><time>2012-10-12T06:10:11Z</time></trkpt><trkpt lat="32.75461525000000051477" lon="35.30259319999999689799"><ele>247.0322665275065</ele><time>2012-10-12T06:10:14Z</time></trkpt><trkpt lat="32.75467133333333435985" lon="35.30255875000000287400"><ele>247.4040551994706</ele><time>2012-10-12T06:10:17Z</time></trkpt><trkpt lat="32.75472798333333201981" lon="35.30252661666666824658"><ele>247.7687058542705</ele><time>2012-10-12T06:10:20Z</time></trkpt><trkpt lat="32.75476659999999640149" lon="35.30248511666666644260"><ele>248.14302777067445</ele><time>2012-10-12T06:10:23Z</time></trkpt><trkpt lat="32.75480141666666611400" lon="35.30242930000000001201"><ele>248.6006526274822</ele><time>2012-10-12T06:10:26Z</time></trkpt><trkpt lat="32.75485048333333537585" lon="35.30238355000000183281"><ele>249.04494784867828</ele><time>2012-10-12T06:10:29Z</time></trkpt><trkpt lat="32.75491296666666585224" lon="35.30235308333333676956"><ele>249.44013722745737</ele><time>2012-10-12T06:10:32Z</time></trkpt><trkpt lat="32.75497860000000116543" lon="35.30234990000000294685"><ele>249.67183451786465</ele><time>2012-10-12T06:10:35Z</time></trkpt><trkpt lat="32.75504388333333594119" lon="35.30236310000000088394"><ele>249.79384098425774</ele><time>2012-10-12T06:10:38Z</time></trkpt><trkpt lat="32.75510154999999912206" lon="35.30236371666666883584"><ele>249.97404898383607</ele><time>2012-10-12T06:10:41Z</time></trkpt><trkpt lat="32.75515973333333619166" lon="35.30236676666666539859"><ele>250.1391857978695</ele><time>2012-10-12T06:10:44Z</time></trkpt><trkpt lat="32.75522161666666676183" lon="35.30232898333333224627"><ele>250.59813620625806</ele><time>2012-10-12T06:10:47Z</time></trkpt><trkpt lat="32.75526141666667001573" lon="35.30230291666666886385"><ele>250.90919004944496</ele><time>2012-10-12T06:10:50Z</time></trkpt><trkpt lat="32.75529120000000204982" lon="35.30226568333333148075"><ele>251.2683455386686</ele><time>2012-10-12T06:10:53Z</time></trkpt><trkpt lat="32.75530741666666756373" lon="35.30223474999999666579"><ele>251.54032086947512</ele><time>2012-10-12T06:10:57Z</time></trkpt><trkpt lat="32.75532736666666977499" lon="35.30220030000000264181"><ele>251.85140097704033</ele><time>2012-10-12T06:11:00Z</time></trkpt><trkpt lat="32.75537321666666912279" lon="35.30220566666666570654"><ele>251.97043415146217</ele><time>2012-10-12T06:11:03Z</time></trkpt><trkpt lat="32.75540628333333614819" lon="35.30221368333333487044"><ele>252.02604899264438</ele><time>2012-10-12T06:11:06Z</time></trkpt><trkpt lat="32.75539744999999669517" lon="35.30217928333333077262"><ele>252.24263512785342</ele><time>2012-10-12T06:11:10Z</time></trkpt><trkpt lat="32.75534590000000179089" lon="35.30215078333333167393"><ele>252.2664734242664</ele><time>2012-10-12T06:11:13Z</time></trkpt><trkpt lat="32.75529826666666366464" lon="35.30219124999999991132"><ele>251.8151593594396</ele><time>2012-10-12T06:11:16Z</time></trkpt><trkpt lat="32.75531673333333060327" lon="35.30222415000000069085"><ele>251.64662408103433</ele><time>2012-10-12T06:11:19Z</time></trkpt><trkpt lat="32.75535450000000281534" lon="35.30217293333333117289"><ele>252.13910099147301</ele><time>2012-10-12T06:11:22Z</time></trkpt><trkpt lat="32.75536124999999998408" lon="35.30214149999999762031"><ele>252.38634169946488</ele><time>2012-10-12T06:11:27Z</time></trkpt><trkpt lat="32.75535301666666754272" lon="35.30210021666666619922"><ele>252.65084745825513</ele><time>2012-10-12T06:11:34Z</time></trkpt><trkpt lat="32.75537986666666512292" lon="35.30210745000000116534"><ele>252.69515798983394</ele><time>2012-10-12T06:11:37Z</time></trkpt><trkpt lat="32.75537956666666872252" lon="35.30204499999999967486"><ele>252.91448791956668</ele><time>2012-10-12T06:11:40Z</time></trkpt><trkpt lat="32.75538586666666418523" lon="35.30200436666666519159"><ele>252.98738232915156</ele><time>2012-10-12T06:11:43Z</time></trkpt><trkpt lat="32.75542256666666673937" lon="35.30197886666666562405"><ele>253.14040754834915</ele><time>2012-10-12T06:11:46Z</time></trkpt><trkpt lat="32.75545853333333212731" lon="35.30193776666666849451"><ele>253.28393592274185</ele><time>2012-10-12T06:11:49Z</time></trkpt><trkpt lat="32.75549581666666654201" lon="35.30191973333333521623"><ele>253.40492647314366</ele><time>2012-10-12T06:11:52Z</time></trkpt><trkpt lat="32.75559093333333038345" lon="35.30189161666666564088"><ele>253.6964101467377</ele><time>2012-10-12T06:11:55Z</time></trkpt><trkpt lat="32.75564011666666885958" lon="35.30183770000000009759"><ele>253.9100769459494</ele><time>2012-10-12T06:11:58Z</time></trkpt><trkpt lat="32.75567199999999701276" lon="35.30182976666666405663"><ele>254.0103113915386</ele><time>2012-10-12T06:12:02Z</time></trkpt><trkpt lat="32.75570605000000057316" lon="35.30180630000000263635"><ele>254.14240311393948</ele><time>2012-10-12T06:12:05Z</time></trkpt><trkpt lat="32.75574594999999789025" lon="35.30179253333333377896"><ele>254.2771280539345</ele><time>2012-10-12T06:12:08Z</time></trkpt><trkpt lat="32.75581323333333472192" lon="35.30179798333332996663"><ele>254.45713082914895</ele><time>2012-10-12T06:12:11Z</time></trkpt><trkpt lat="32.75585513333333409491" lon="35.30177375000000239424"><ele>254.61928843953604</ele><time>2012-10-12T06:12:14Z</time></trkpt><trkpt lat="32.75591953333333350429" lon="35.30174840000000102691"><ele>254.85133460433528</ele><time>2012-10-12T06:12:17Z</time></trkpt><trkpt lat="32.75597076666666396250" lon="35.30173754999999857773"><ele>255.02068190433047</ele><time>2012-10-12T06:12:20Z</time></trkpt><trkpt lat="32.75601209999999952061" lon="35.30168828333333408409"><ele>255.24182535073203</ele><time>2012-10-12T06:12:23Z</time></trkpt><trkpt lat="32.75606898333333560913" lon="35.30168015000000281134"><ele>255.42810461913425</ele><time>2012-10-12T06:12:26Z</time></trkpt><trkpt lat="32.75613178333333053160" lon="35.30167966666666501396"><ele>255.61636301552696</ele><time>2012-10-12T06:12:29Z</time></trkpt><trkpt lat="32.75617261666666735209" lon="35.30166036666666684596"><ele>255.78226797793238</ele><time>2012-10-12T06:12:32Z</time></trkpt><trkpt lat="32.75621635000000253513" lon="35.30163496666666844703"><ele>255.9735939443334</ele><time>2012-10-12T06:12:35Z</time></trkpt><trkpt lat="32.75624729999999829033" lon="35.30159979999999819711"><ele>256.1521200219285</ele><time>2012-10-12T06:12:38Z</time></trkpt><trkpt lat="32.75626741666666674746" lon="35.30157788333333002129"><ele>256.1257100574322</ele><time>2012-10-12T06:12:41Z</time></trkpt><trkpt lat="32.75626401666666964729" lon="35.30154226666666517076"><ele>256.2304026682157</ele><time>2012-10-12T06:12:50Z</time></trkpt><trkpt lat="32.75629554999999726306" lon="35.30151655000000232576"><ele>256.1438493566324</ele><time>2012-10-12T06:14:14Z</time></trkpt><trkpt lat="32.75636103333333437604" lon="35.30150258333333113114"><ele>255.87292486742274</ele><time>2012-10-12T06:14:17Z</time></trkpt><trkpt lat="32.75642361666666602105" lon="35.30145794999999964148"><ele>255.71993250862292</ele><time>2012-10-12T06:14:20Z</time></trkpt><trkpt lat="32.75651556666666408546" lon="35.30143196666666938199"><ele>255.3984791050151</ele><time>2012-10-12T06:14:23Z</time></trkpt><trkpt lat="32.75667083333333096107" lon="35.30145240000000228520"><ele>254.63127679940158</ele><time>2012-10-12T06:14:26Z</time></trkpt><trkpt lat="32.75681871666666467036" lon="35.30144134999999749880"><ele>254.02326060381105</ele><time>2012-10-12T06:14:29Z</time></trkpt><trkpt lat="32.75683920000000171058" lon="35.30131983333333067776"><ele>254.5335301434014</ele><time>2012-10-12T06:14:32Z</time></trkpt><trkpt lat="32.75689301666666608526" lon="35.30124658333333087512"><ele>254.67916728351852</ele><time>2012-10-12T06:14:35Z</time></trkpt><trkpt lat="32.75694523333333307846" lon="35.30116283333333626615"><ele>254.35789137552706</ele><time>2012-10-12T06:14:38Z</time></trkpt><trkpt lat="32.75699668333333391956" lon="35.30108620000000030359"><ele>254.0745033819207</ele><time>2012-10-12T06:14:41Z</time></trkpt><trkpt lat="32.75704593333333036753" lon="35.30099868333333290593"><ele>253.80599017873112</ele><time>2012-10-12T06:14:44Z</time></trkpt><trkpt lat="32.75709218333333438977" lon="35.30092713333333165338"><ele>253.55295461225984</ele><time>2012-10-12T06:14:47Z</time></trkpt><trkpt lat="32.75713970000000330174" lon="35.30085100000000153386"><ele>253.14774603144943</ele><time>2012-10-12T06:14:50Z</time></trkpt><trkpt lat="32.75718523333333109804" lon="35.30078696666666360215"><ele>252.7786236586814</ele><time>2012-10-12T06:14:53Z</time></trkpt><trkpt lat="32.75722396666666469400" lon="35.30071650000000005321"><ele>252.45528015148346</ele><time>2012-10-12T06:14:56Z</time></trkpt><trkpt lat="32.75726850000000212049" lon="35.30064278333333049886"><ele>252.10004825145526</ele><time>2012-10-12T06:14:59Z</time></trkpt><trkpt lat="32.75730360000000018772" lon="35.30059601666666679876"><ele>251.83673304907057</ele><time>2012-10-12T06:15:02Z</time></trkpt><trkpt lat="32.75733458333333203427" lon="35.30053793333333089777"><ele>251.59414571947818</ele><time>2012-10-12T06:15:05Z</time></trkpt><trkpt lat="32.75735540000000156624" lon="35.30046171666666765532"><ele>251.40401049066463</ele><time>2012-10-12T06:15:08Z</time></trkpt><trkpt lat="32.75739436666666648534" lon="35.30038278333333323644"><ele>251.1592840610478</ele><time>2012-10-12T06:15:11Z</time></trkpt><trkpt lat="32.75743391666666326500" lon="35.30030931666667015634"><ele>250.97112542546483</ele><time>2012-10-12T06:15:14Z</time></trkpt><trkpt lat="32.75745896666666823194" lon="35.30020491666666515584"><ele>250.88576188343603</ele><time>2012-10-12T06:15:17Z</time></trkpt><trkpt lat="32.75748563333333152059" lon="35.30015591666666807669"><ele>250.74804439545542</ele><time>2012-10-12T06:15:20Z</time></trkpt><trkpt lat="32.75753201666666569736" lon="35.30009294999999980291"><ele>250.48720536625123</ele><time>2012-10-12T06:15:23Z</time></trkpt><trkpt lat="32.75755493333333134842" lon="35.30003918333333245982"><ele>250.3670295578579</ele><time>2012-10-12T06:15:26Z</time></trkpt><trkpt lat="32.75756873333333629716" lon="35.30000456666666508454"><ele>250.29407198982543</ele><time>2012-10-12T06:15:29Z</time></trkpt><trkpt lat="32.75759786666666428800" lon="35.29996366666666318679"><ele>250.1207596154616</ele><time>2012-10-12T06:15:32Z</time></trkpt><trkpt lat="32.75762081666666603041" lon="35.29994126666666431902"><ele>249.9776318090497</ele><time>2012-10-12T06:15:35Z</time></trkpt><trkpt lat="32.75764745000000033315" lon="35.29992251666666902565"><ele>249.80686811824177</ele><time>2012-10-12T06:15:38Z</time></trkpt><trkpt lat="32.75767154999999775100" lon="35.29988153333333400496"><ele>249.65958494185975</ele><time>2012-10-12T06:15:41Z</time></trkpt><trkpt lat="32.75769268333333172905" lon="35.29983603333333519458"><ele>249.53117515225486</ele><time>2012-10-12T06:15:44Z</time></trkpt><trkpt lat="32.75773405000000337850" lon="35.29978081666666867022"><ele>249.2629082022207</ele><time>2012-10-12T06:15:47Z</time></trkpt><trkpt lat="32.75779206666666709680" lon="35.29968011666666427573"><ele>248.87975474664168</ele><time>2012-10-12T06:15:50Z</time></trkpt><trkpt lat="32.75783564999999697420" lon="35.29961316666666704123"><ele>248.57983952346586</ele><time>2012-10-12T06:15:53Z</time></trkpt><trkpt lat="32.75787278333333318869" lon="35.29953523333333009759"><ele>248.30684139385235</ele><time>2012-10-12T06:15:56Z</time></trkpt><trkpt lat="32.75792141666666879019" lon="35.29942785000000071705"><ele>247.96579999943083</ele><time>2012-10-12T06:15:59Z</time></trkpt><trkpt lat="32.75796081666666736965" lon="35.29932554999999894108"><ele>247.68211999944137</ele><time>2012-10-12T06:16:02Z</time></trkpt><trkpt lat="32.75800441666666529272" lon="35.29922404999999940856"><ele>247.36819999945658</ele><time>2012-10-12T06:16:05Z</time></trkpt><trkpt lat="32.75804899999999975080" lon="35.29907140000000254076"><ele>247.04719999944876</ele><time>2012-10-12T06:16:08Z</time></trkpt><trkpt lat="32.75810105000000049813" lon="35.29892708333333217752"><ele>246.67243999944375</ele><time>2012-10-12T06:16:11Z</time></trkpt><trkpt lat="32.75815628333333506816" lon="35.29881356666666647470"><ele>246.27475999943516</ele><time>2012-10-12T06:16:14Z</time></trkpt><trkpt lat="32.75822980000000228529" lon="35.29863491666666419633"><ele>245.4516626314579</ele><time>2012-10-12T06:16:17Z</time></trkpt><trkpt lat="32.75828576666666691608" lon="35.29838838333333228547"><ele>244.3319378850659</ele><time>2012-10-12T06:16:20Z</time></trkpt><trkpt lat="32.75830693333332988004" lon="35.29818626666666858682"><ele>243.5631726586992</ele><time>2012-10-12T06:16:23Z</time></trkpt><trkpt lat="32.75834571666666761303" lon="35.29799440000000032569"><ele>242.60361842184273</ele><time>2012-10-12T06:16:26Z</time></trkpt><trkpt lat="32.75840695000000124537" lon="35.29778110000000168611"><ele>241.59974460421347</ele><time>2012-10-12T06:16:29Z</time></trkpt><trkpt lat="32.75849618333333523879" lon="35.29759715000000142027"><ele>240.65751174501676</ele><time>2012-10-12T06:16:32Z</time></trkpt><trkpt lat="32.75860769999999888569" lon="35.29741828333333586443"><ele>239.72640109704804</ele><time>2012-10-12T06:16:35Z</time></trkpt><trkpt lat="32.75870426666666901383" lon="35.29724231666666867113"><ele>239.12550002502962</ele><time>2012-10-12T06:16:38Z</time></trkpt><trkpt lat="32.75880279999999800111" lon="35.29709453333333613045"><ele>238.41376532419974</ele><time>2012-10-12T06:16:41Z</time></trkpt><trkpt lat="32.75889211666666511746" lon="35.29697914999999852625"><ele>237.9041627317722</ele><time>2012-10-12T06:16:44Z</time></trkpt><trkpt lat="32.75898283333333438350" lon="35.29688253333333136652"><ele>237.41025267134978</ele><time>2012-10-12T06:16:47Z</time></trkpt><trkpt lat="32.75908359999999674983" lon="35.29677865000000025475"><ele>236.93307499458186</ele><time>2012-10-12T06:16:50Z</time></trkpt><trkpt lat="32.75915293333333266901" lon="35.29668341666666719902"><ele>236.78414374335773</ele><time>2012-10-12T06:16:53Z</time></trkpt><trkpt lat="32.75921041666666866377" lon="35.29661656666666402771"><ele>236.6362588993529</ele><time>2012-10-12T06:16:56Z</time></trkpt><trkpt lat="32.75927106666666333012" lon="35.29655209999999954107"><ele>236.48073048258752</ele><time>2012-10-12T06:16:59Z</time></trkpt><trkpt lat="32.75931074999999736974" lon="35.29652173333333564642"><ele>236.32610230336434</ele><time>2012-10-12T06:17:02Z</time></trkpt><trkpt lat="32.75940241666666707943" lon="35.29647111666666603469"><ele>235.88337594135524</ele><time>2012-10-12T06:17:05Z</time></trkpt><trkpt lat="32.75948346666666566307" lon="35.29641576666666935580"><ele>235.59703571774352</ele><time>2012-10-12T06:17:08Z</time></trkpt><trkpt lat="32.75955638333333297396" lon="35.29636626666666643359"><ele>235.37045622975742</ele><time>2012-10-12T06:17:11Z</time></trkpt><trkpt lat="32.75961474999999722968" lon="35.29631978333333108822"><ele>235.13003099333852</ele><time>2012-10-12T06:17:14Z</time></trkpt><trkpt lat="32.75971246666667013869" lon="35.29627541666666701303"><ele>234.28157883925016</ele><time>2012-10-12T06:17:17Z</time></trkpt><trkpt lat="32.75978481666666652927" lon="35.29637058333333499149"><ele>232.81895669729704</ele><time>2012-10-12T06:17:20Z</time></trkpt><trkpt lat="32.75987510000000213495" lon="35.29645033333333259407"><ele>231.30890654329883</ele><time>2012-10-12T06:17:23Z</time></trkpt><trkpt lat="32.75990440000000347709" lon="35.29653503333333475211"><ele>230.49030351288093</ele><time>2012-10-12T06:17:26Z</time></trkpt><trkpt lat="32.75985986666666605061" lon="35.29662179999999693791"><ele>230.4488012025548</ele><time>2012-10-12T06:17:29Z</time></trkpt><trkpt lat="32.75984408333333419705" lon="35.29667280000000317841"><ele>230.3030988313046</ele><time>2012-10-12T06:17:32Z</time></trkpt><trkpt lat="32.75983670000000103073" lon="35.29672501666667017162"><ele>230.05940664170444</ele><time>2012-10-12T06:17:47Z</time></trkpt><trkpt lat="32.75979053333333013143" lon="35.29679608333333362680"><ele>230.0706013753672</ele><time>2012-10-12T06:17:50Z</time></trkpt><trkpt lat="32.75977530000000115251" lon="35.29683289999999828979"><ele>229.98291663773986</ele><time>2012-10-12T06:17:56Z</time></trkpt><trkpt lat="32.75980785000000139462" lon="35.29679973333333009577"><ele>229.8809129561464</ele><time>2012-10-12T06:19:26Z</time></trkpt><trkpt lat="32.75983575000000058708" lon="35.29678841666666500032"><ele>229.68151106934533</ele><time>2012-10-12T06:19:30Z</time></trkpt><trkpt lat="32.75984644999999773063" lon="35.29675768333333252258"><ele>229.7643453677664</ele><time>2012-10-12T06:19:34Z</time></trkpt><trkpt lat="32.75987323333333023356" lon="35.29673761666666820247"><ele>229.6210355089611</ele><time>2012-10-12T06:20:56Z</time></trkpt><trkpt lat="32.75986823333333575192" lon="35.29677103333333576529"><ele>229.47103115290366</ele><time>2012-10-12T06:21:02Z</time></trkpt><trkpt lat="32.75982880000000108112" lon="35.29684075000000120781"><ele>229.4274407513266</ele><time>2012-10-12T06:21:05Z</time></trkpt><trkpt lat="32.75976371666666864257" lon="35.29690000000000082991"><ele>229.66191639932066</ele><time>2012-10-12T06:21:08Z</time></trkpt><trkpt lat="32.75974533333333482688" lon="35.29693128333333618230"><ele>229.62754932731318</ele><time>2012-10-12T06:21:12Z</time></trkpt><trkpt lat="32.75976184999999674119" lon="35.29698698333333339860"><ele>229.11987565017884</ele><time>2012-10-12T06:21:15Z</time></trkpt><trkpt lat="32.75975231666666331876" lon="35.29702733333333242172"><ele>228.94285955138767</ele><time>2012-10-12T06:21:18Z</time></trkpt><trkpt lat="32.75974818333333615783" lon="35.29712603333333476030"><ele>228.29880073449672</ele><time>2012-10-12T06:21:21Z</time></trkpt><trkpt lat="32.75976831666666555520" lon="35.29725356666666868932"><ele>227.1302131808938</ele><time>2012-10-12T06:21:24Z</time></trkpt><trkpt lat="32.75975505000000254086" lon="35.29735279999999875145"><ele>226.53119282165278</ele><time>2012-10-12T06:21:27Z</time></trkpt><trkpt lat="32.75973176666666830670" lon="35.29752409999999684942"><ele>225.60115646483584</ele><time>2012-10-12T06:21:30Z</time></trkpt><trkpt lat="32.75967448333333464916" lon="35.29769220000000018445"><ele>225.43268856398487</ele><time>2012-10-12T06:21:33Z</time></trkpt><trkpt lat="32.75965798333333367509" lon="35.29780736666666740575"><ele>225.04144243997388</ele><time>2012-10-12T06:21:36Z</time></trkpt><trkpt lat="32.75965436666666619203" lon="35.29792778333333558294"><ele>224.42762898319694</ele><time>2012-10-12T06:21:39Z</time></trkpt><trkpt lat="32.75964163333333090122" lon="35.29796893333333684950"><ele>224.57140108723064</ele><time>2012-10-12T06:21:42Z</time></trkpt><trkpt lat="32.75961856666666704996" lon="35.29800350000000008777"><ele>224.9865042391754</ele><time>2012-10-12T06:21:45Z</time></trkpt><trkpt lat="32.75961285000000344780" lon="35.29804176666666393203"><ele>225.0090274951039</ele><time>2012-10-12T06:21:51Z</time></trkpt><trkpt lat="32.75961388333332990896" lon="35.29807478333333392584"><ele>224.89108131524932</ele><time>2012-10-12T06:22:09Z</time></trkpt><trkpt lat="32.75961645000000288519" lon="35.29810673333333426172"><ele>224.73788100708865</ele><time>2012-10-12T06:22:35Z</time></trkpt><trkpt lat="32.75960376666666462597" lon="35.29813613333333677247"><ele>224.96734412719863</ele><time>2012-10-12T06:22:59Z</time></trkpt><trkpt lat="32.75957166666666608990" lon="35.29819928333333223236"><ele>225.5182077593005</ele><time>2012-10-12T06:23:02Z</time></trkpt><trkpt lat="32.75955454999999716392" lon="35.29827635000000185528"><ele>225.6406889281256</ele><time>2012-10-12T06:23:05Z</time></trkpt><trkpt lat="32.75955571666666799047" lon="35.29835159999999660840"><ele>225.45761857205295</ele><time>2012-10-12T06:23:08Z</time></trkpt><trkpt lat="32.75960785000000186074" lon="35.29844250000000016598"><ele>224.0227997990327</ele><time>2012-10-12T06:23:11Z</time></trkpt><trkpt lat="32.75961660000000108539" lon="35.29851043333333393548"><ele>223.57196201503592</ele><time>2012-10-12T06:23:14Z</time></trkpt><trkpt lat="32.75963223333333473875" lon="35.29859251666666608571"><ele>222.84581346300652</ele><time>2012-10-12T06:23:17Z</time></trkpt><trkpt lat="32.75964960000000303353" lon="35.29863054999999860684"><ele>222.1741039669447</ele><time>2012-10-12T06:23:20Z</time></trkpt><trkpt lat="32.75964923333333445044" lon="35.29866725000000116097"><ele>222.06288643898841</ele><time>2012-10-12T06:23:24Z</time></trkpt><trkpt lat="32.75966276666666487927" lon="35.29871526666666881056"><ele>221.45412937506654</ele><time>2012-10-12T06:23:27Z</time></trkpt><trkpt lat="32.75965243333333631881" lon="35.29877196666666350211"><ele>221.75950577021064</ele><time>2012-10-12T06:23:44Z</time></trkpt><trkpt lat="32.75963451666666514939" lon="35.29883518333333114469"><ele>222.5931783515656</ele><time>2012-10-12T06:23:47Z</time></trkpt><trkpt lat="32.75961323333333297114" lon="35.29887833333333446717"><ele>223.46288551913875</ele><time>2012-10-12T06:23:50Z</time></trkpt><trkpt lat="32.75958330000000273685" lon="35.29890588333333312221"><ele>224.56187755206042</ele><time>2012-10-12T06:23:53Z</time></trkpt><trkpt lat="32.75958843333333447845" lon="35.29895764999999840938"><ele>224.5777049806789</ele><time>2012-10-12T06:24:00Z</time></trkpt><trkpt lat="32.75959708333333253449" lon="35.29902891666666420178"><ele>224.54762254914223</ele><time>2012-10-12T06:24:03Z</time></trkpt><trkpt lat="32.75960605000000214204" lon="35.29909378333333336286"><ele>224.4855858394556</ele><time>2012-10-12T06:24:06Z</time></trkpt><trkpt lat="32.75960468333333608371" lon="35.29917598333333472738"><ele>224.8292764306422</ele><time>2012-10-12T06:24:09Z</time></trkpt><trkpt lat="32.75959063333333176615" lon="35.29924263333333556147"><ele>225.53337856078804</ele><time>2012-10-12T06:24:12Z</time></trkpt><trkpt lat="32.75955478333333559249" lon="35.29932910000000134687"><ele>226.63001612170498</ele><time>2012-10-12T06:24:15Z</time></trkpt><trkpt lat="32.75953046666666779174" lon="35.29942906666666857518"><ele>227.43147203773324</ele><time>2012-10-12T06:24:18Z</time></trkpt><trkpt lat="32.75952230000000042764" lon="35.29948481666666992851"><ele>227.76991529775376</ele><time>2012-10-12T06:24:21Z</time></trkpt><trkpt lat="32.75947639999999694282" lon="35.29955711666666928750"><ele>228.84253084101496</ele><time>2012-10-12T06:24:24Z</time></trkpt><trkpt lat="32.75945741666666322089" lon="35.29965726666666370193"><ele>228.76099118326655</ele><time>2012-10-12T06:24:27Z</time></trkpt><trkpt lat="32.75942048333333644905" lon="35.29977421666666970168"><ele>228.64646580950193</ele><time>2012-10-12T06:24:30Z</time></trkpt><trkpt lat="32.75942165000000017017" lon="35.29983909999999980300"><ele>228.18787723597572</ele><time>2012-10-12T06:24:33Z</time></trkpt><trkpt lat="32.75939784999999915271" lon="35.29991376666666980100"><ele>228.13609484237057</ele><time>2012-10-12T06:24:36Z</time></trkpt><trkpt lat="32.75936348333333114624" lon="35.29998315000000275177"><ele>228.33177111839763</ele><time>2012-10-12T06:24:39Z</time></trkpt><trkpt lat="32.75931934999999839420" lon="35.30005136666666487599"><ele>228.73769263761514</ele><time>2012-10-12T06:24:42Z</time></trkpt><trkpt lat="32.75928706666666556657" lon="35.30013565000000141936"><ele>228.82738309038285</ele><time>2012-10-12T06:24:45Z</time></trkpt><trkpt lat="32.75922820000000257323" lon="35.30023434999999665251"><ele>229.37092942953782</ele><time>2012-10-12T06:24:48Z</time></trkpt><trkpt lat="32.75918726666666458414" lon="35.30032194999999717311"><ele>229.6536793496252</ele><time>2012-10-12T06:24:51Z</time></trkpt><trkpt lat="32.75916318333333521196" lon="35.30035424999999804641"><ele>229.94493383513938</ele><time>2012-10-12T06:24:54Z</time></trkpt><trkpt lat="32.75912703333333553246" lon="35.30037724999999682041"><ele>230.54052082314</ele><time>2012-10-12T06:25:03Z</time></trkpt><trkpt lat="32.75907523333333415394" lon="35.30041103333333296632"><ele>231.39755658475164</ele><time>2012-10-12T06:25:06Z</time></trkpt><trkpt lat="32.75904510000000158243" lon="35.30041526666666840129"><ele>231.98786984232498</ele><time>2012-10-12T06:25:13Z</time></trkpt><trkpt lat="32.75903421666667014733" lon="35.30044850000000167256"><ele>231.75572301492514</ele><time>2012-10-12T06:25:45Z</time></trkpt><trkpt lat="32.75899551666666553729" lon="35.30048478333333150658"><ele>232.04415552146864</ele><time>2012-10-12T06:25:48Z</time></trkpt><trkpt lat="32.75896296666666529518" lon="35.30054046666666778265"><ele>231.94538801183234</ele><time>2012-10-12T06:25:51Z</time></trkpt><trkpt lat="32.75892161666666879682" lon="35.30057788333333235187"><ele>232.29127769418838</ele><time>2012-10-12T06:25:54Z</time></trkpt><trkpt lat="32.75887746666666799911" lon="35.30062530000000009522"><ele>232.56912986779</ele><time>2012-10-12T06:25:57Z</time></trkpt><trkpt lat="32.75880368333333336750" lon="35.30065701666666910796"><ele>233.6950799661873</ele><time>2012-10-12T06:26:00Z</time></trkpt><trkpt lat="32.75875553333333556338" lon="35.30067843333333144074"><ele>234.42762848539934</ele><time>2012-10-12T06:26:03Z</time></trkpt><trkpt lat="32.75871196666666662622" lon="35.30072368333333088231"><ele>234.58874157592854</ele><time>2012-10-12T06:26:06Z</time></trkpt><trkpt lat="32.75864723333333472510" lon="35.30077061666666793371"><ele>235.13722830386433</ele><time>2012-10-12T06:26:09Z</time></trkpt><trkpt lat="32.75860513333333301489" lon="35.30080281666666763840"><ele>235.5273137703025</ele><time>2012-10-12T06:26:12Z</time></trkpt><trkpt lat="32.75857764999999943711" lon="35.30087366666666781612"><ele>235.28342096709736</ele><time>2012-10-12T06:26:15Z</time></trkpt><trkpt lat="32.75855728333333161117" lon="35.30090298333333009850"><ele>235.3777658179641</ele><time>2012-10-12T06:26:18Z</time></trkpt><trkpt lat="32.75851655000000306472" lon="35.30094513333333594574"><ele>235.7798294054113</ele><time>2012-10-12T06:26:22Z</time></trkpt><trkpt lat="32.75848173333333335222" lon="35.30107708333333249584"><ele>235.30803759908503</ele><time>2012-10-12T06:26:25Z</time></trkpt><trkpt lat="32.75844216666666852689" lon="35.30112023333333581832"><ele>235.8375673510149</ele><time>2012-10-12T06:26:28Z</time></trkpt><trkpt lat="32.75842566666666755282" lon="35.30117373333333574692"><ele>235.7881045750302</ele><time>2012-10-12T06:26:31Z</time></trkpt><trkpt lat="32.75836908333333497012" lon="35.30120148333333673918"><ele>236.9467840170152</ele><time>2012-10-12T06:26:34Z</time></trkpt><trkpt lat="32.75832464999999871225" lon="35.30121926666666354322"><ele>237.9174328135394</ele><time>2012-10-12T06:26:37Z</time></trkpt><trkpt lat="32.75829448333333004939" lon="35.30123546666666811689"><ele>238.56599641836502</ele><time>2012-10-12T06:26:40Z</time></trkpt><trkpt lat="32.75828715000000102009" lon="35.30127723333333022993"><ele>238.2716599989545</ele><time>2012-10-12T06:26:44Z</time></trkpt><trkpt lat="32.75827283333333639348" lon="35.30130605000000088012"><ele>238.21747999884576</ele><time>2012-10-12T06:26:47Z</time></trkpt><trkpt lat="32.75820670000000234268" lon="35.30142216666666854508"><ele>238.2119599988495</ele><time>2012-10-12T06:26:50Z</time></trkpt><trkpt lat="32.75812555000000259042" lon="35.30152121666666431565"><ele>238.8306199989036</ele><time>2012-10-12T06:26:53Z</time></trkpt><trkpt lat="32.75805901666666386518" lon="35.30157606666666936235"><ele>239.717419998966</ele><time>2012-10-12T06:26:56Z</time></trkpt><trkpt lat="32.75801775000000048976" lon="35.30163756666666330375"><ele>239.87173999897018</ele><time>2012-10-12T06:26:59Z</time></trkpt><trkpt lat="32.75800926666666867959" lon="35.30167945000000173650"><ele>239.48239999885868</ele><time>2012-10-12T06:27:02Z</time></trkpt><trkpt lat="32.75796073333333424671" lon="35.30168516666666533865"><ele>240.62311999892947</ele><time>2012-10-12T06:27:05Z</time></trkpt><trkpt lat="32.75794321666666775172" lon="35.30173898333333681876"><ele>240.28957999885614</ele><time>2012-10-12T06:27:09Z</time></trkpt><trkpt lat="32.75793581666666653973" lon="35.30182876666666658139"><ele>239.18317999893912</ele><time>2012-10-12T06:27:12Z</time></trkpt><trkpt lat="32.75792245000000235677" lon="35.30193270000000183018"><ele>238.02337999884995</ele><time>2012-10-12T06:27:15Z</time></trkpt><trkpt lat="32.75791970000000219443" lon="35.30201758333333117434"><ele>236.87035999891256</ele><time>2012-10-12T06:27:18Z</time></trkpt><trkpt lat="32.75788060000000001537" lon="35.30213476666666849724"><ele>235.8300137238485</ele><time>2012-10-12T06:27:21Z</time></trkpt><trkpt lat="32.75780663333333109222" lon="35.30226439999999854535"><ele>235.1952289527305</ele><time>2012-10-12T06:27:24Z</time></trkpt><trkpt lat="32.75775381666666419278" lon="35.30235489999999742849"><ele>234.82095040794943</ele><time>2012-10-12T06:27:27Z</time></trkpt><trkpt lat="32.75771448333333069058" lon="35.30241511666666553992"><ele>234.66617017953268</ele><time>2012-10-12T06:27:30Z</time></trkpt><trkpt lat="32.75768983333333039809" lon="35.30243000000000108685"><ele>234.88630559910897</ele><time>2012-10-12T06:27:46Z</time></trkpt><trkpt lat="32.75769773333333034770" lon="35.30246098333333293340"><ele>234.33437834792815</ele><time>2012-10-12T06:27:57Z</time></trkpt><trkpt lat="32.75769756666666410183" lon="35.30242824999999839974"><ele>234.7776277631383</ele><time>2012-10-12T06:28:29Z</time></trkpt><trkpt lat="32.75767163333333087394" lon="35.30241153333333414821"><ele>235.44385413990648</ele><time>2012-10-12T06:28:32Z</time></trkpt><trkpt lat="32.75769433333333324754" lon="35.30244584999999801767"><ele>234.59635000710043</ele><time>2012-10-12T06:28:40Z</time></trkpt><trkpt lat="32.75767141666666759647" lon="35.30248361666666312431"><ele>234.48591218510313</ele><time>2012-10-12T06:28:45Z</time></trkpt><trkpt lat="32.75763488333333128821" lon="35.30254348333333069831"><ele>234.32980243474228</ele><time>2012-10-12T06:28:48Z</time></trkpt><trkpt lat="32.75760093333333600185" lon="35.30261790000000132750"><ele>233.95681182620515</ele><time>2012-10-12T06:28:51Z</time></trkpt><trkpt lat="32.75756566666666458332" lon="35.30267001666666715209"><ele>233.91695967110164</ele><time>2012-10-12T06:28:54Z</time></trkpt><trkpt lat="32.75752033333333201881" lon="35.30269501666666798201"><ele>234.42185973507927</ele><time>2012-10-12T06:28:57Z</time></trkpt><trkpt lat="32.75745189999999951169" lon="35.30275335000000325181"><ele>234.9473741022424</ele><time>2012-10-12T06:29:00Z</time></trkpt><trkpt lat="32.75740135000000208265" lon="35.30282856666666901901"><ele>234.96659459820566</ele><time>2012-10-12T06:29:03Z</time></trkpt><trkpt lat="32.75737825000000214004" lon="35.30287599999999770262"><ele>234.82861095905974</ele><time>2012-10-12T06:29:06Z</time></trkpt><trkpt lat="32.75731241666666448964" lon="35.30294161666666497013"><ele>235.26701151710938</ele><time>2012-10-12T06:29:09Z</time></trkpt><trkpt lat="32.75728566666666807805" lon="35.30306488333333447827"><ele>234.11043322300947</ele><time>2012-10-12T06:29:12Z</time></trkpt><trkpt lat="32.75723564999999837255" lon="35.30312648333333669370"><ele>234.192221044234</ele><time>2012-10-12T06:29:15Z</time></trkpt><trkpt lat="32.75721061666666855672" lon="35.30318050000000340560"><ele>233.90203245097047</ele><time>2012-10-12T06:29:18Z</time></trkpt><trkpt lat="32.75718021666666857072" lon="35.30322044999999775428"><ele>233.89250426024876</ele><time>2012-10-12T06:29:21Z</time></trkpt><trkpt lat="32.75713414999999884003" lon="35.30329689999999942529"><ele>233.63243186228073</ele><time>2012-10-12T06:29:24Z</time></trkpt><trkpt lat="32.75711641666666906758" lon="35.30338174999999978354"><ele>232.73406970911955</ele><time>2012-10-12T06:29:27Z</time></trkpt><trkpt lat="32.75707828333333537785" lon="35.30346839999999986048"><ele>232.09950779445398</ele><time>2012-10-12T06:29:30Z</time></trkpt><trkpt lat="32.75702683333333453675" lon="35.30354754999999755682"><ele>231.40635133129607</ele><time>2012-10-12T06:29:33Z</time></trkpt><trkpt lat="32.75698059999999856018" lon="35.30358453333333557111"><ele>231.27015847605105</ele><time>2012-10-12T06:29:36Z</time></trkpt><trkpt lat="32.75696070000000048594" lon="35.30364006666666654155"><ele>230.6325733464701</ele><time>2012-10-12T06:29:39Z</time></trkpt><trkpt lat="32.75692939999999708789" lon="35.30373586666666341216"><ele>229.49969285054684</ele><time>2012-10-12T06:29:42Z</time></trkpt><trkpt lat="32.75690308333333433666" lon="35.30380000000000251248"><ele>228.66112199919294</ele><time>2012-10-12T06:29:45Z</time></trkpt><trkpt lat="32.75683386666666763176" lon="35.30384776666666368783"><ele>228.4179190840871</ele><time>2012-10-12T06:29:48Z</time></trkpt><trkpt lat="32.75677073333333311211" lon="35.30389135000000067066"><ele>228.18753214483402</ele><time>2012-10-12T06:29:51Z</time></trkpt><trkpt lat="32.75668518333333167902" lon="35.30395476666666354504"><ele>227.7869798977113</ele><time>2012-10-12T06:29:54Z</time></trkpt><trkpt lat="32.75662413333333233822" lon="35.30401178333333689352"><ele>227.2862162935898</ele><time>2012-10-12T06:29:57Z</time></trkpt><trkpt lat="32.75659206666666989349" lon="35.30405509999999935644"><ele>226.78512493683024</ele><time>2012-10-12T06:30:00Z</time></trkpt><trkpt lat="32.75656423333333577830" lon="35.30411066666666641822"><ele>226.03164022323097</ele><time>2012-10-12T06:30:03Z</time></trkpt><trkpt lat="32.75654886666666953943" lon="35.30413715000000252076"><ele>225.68743697037957</ele><time>2012-10-12T06:30:06Z</time></trkpt><trkpt lat="32.75654999999999716920" lon="35.30416960000000159425"><ele>225.10846719924157</ele><time>2012-10-12T06:30:09Z</time></trkpt><trkpt lat="32.75656239999999996826" lon="35.30420465000000262989"><ele>224.39666702960315</ele><time>2012-10-12T06:30:13Z</time></trkpt><trkpt lat="32.75657626666666999427" lon="35.30423213333333620767"><ele>223.80747781037437</ele><time>2012-10-12T06:30:16Z</time></trkpt><trkpt lat="32.75655008333333029213" lon="35.30421631666666826277"><ele>224.28710475724458</ele><time>2012-10-12T06:30:21Z</time></trkpt><trkpt lat="32.75655091666666862693" lon="35.30426038333333593755"><ele>223.50655930518994</ele><time>2012-10-12T06:30:30Z</time></trkpt><trkpt lat="32.75657323333333437176" lon="35.30428479999999780148"><ele>222.9073658680828</ele><time>2012-10-12T06:30:33Z</time></trkpt><trkpt lat="32.75656000000000034333" lon="35.30431471666666709552"><ele>222.48318951924267</ele><time>2012-10-12T06:30:53Z</time></trkpt><trkpt lat="32.75653276666666613437" lon="35.30431276666666917663"><ele>222.7241095816119</ele><time>2012-10-12T06:31:06Z</time></trkpt><trkpt lat="32.75649406666666862975" lon="35.30431716666666375204"><ele>222.9401741272877</ele><time>2012-10-12T06:31:09Z</time></trkpt><trkpt lat="32.75646236666666766268" lon="35.30432929999999913662"><ele>222.96587457365845</ele><time>2012-10-12T06:31:22Z</time></trkpt><trkpt lat="32.75642826666666707069" lon="35.30433726666666416349"><ele>223.08251370169143</ele><time>2012-10-12T06:31:25Z</time></trkpt><trkpt lat="32.75639956666666563478" lon="35.30433475000000242972"><ele>223.3440811152138</ele><time>2012-10-12T06:31:28Z</time></trkpt><trkpt lat="32.75637096666666536748" lon="35.30431811666666419569"><ele>223.85674137770172</ele><time>2012-10-12T06:31:31Z</time></trkpt><trkpt lat="32.75633884999999878573" lon="35.30431156666666936417"><ele>224.2173090848078</ele><time>2012-10-12T06:31:34Z</time></trkpt><trkpt lat="32.75629118333333167357" lon="35.30427689999999785186"><ele>225.2011072768955</ele><time>2012-10-12T06:31:37Z</time></trkpt><trkpt lat="32.75622874999999822876" lon="35.30422490000000124155"><ele>226.64455551922126</ele><time>2012-10-12T06:31:40Z</time></trkpt><trkpt lat="32.75616296666666471538" lon="35.30422531666666685624"><ele>227.2341838968516</ele><time>2012-10-12T06:31:43Z</time></trkpt><trkpt lat="32.75611538333333072615" lon="35.30423170000000254731"><ele>227.5610326520254</ele><time>2012-10-12T06:31:46Z</time></trkpt><trkpt lat="32.75607680000000243581" lon="35.30420166666666403898"><ele>228.3947142392738</ele><time>2012-10-12T06:31:49Z</time></trkpt><trkpt lat="32.75601563333333388073" lon="35.30417593333333314831"><ele>229.3268991096639</ele><time>2012-10-12T06:31:52Z</time></trkpt><trkpt lat="32.75594968333333412147" lon="35.30419356666666885758"><ele>229.6315245304347</ele><time>2012-10-12T06:31:55Z</time></trkpt><trkpt lat="32.75587241666666926676" lon="35.30422718333333165219"><ele>229.8456329752799</ele><time>2012-10-12T06:31:58Z</time></trkpt><trkpt lat="32.75581733333333289693" lon="35.30422543333333607052"><ele>230.36951187125746</ele><time>2012-10-12T06:32:01Z</time></trkpt><trkpt lat="32.75577901666666491565" lon="35.30428736666666367228"><ele>229.93854536894162</ele><time>2012-10-12T06:32:04Z</time></trkpt><trkpt lat="32.75576405000000335122" lon="35.30435576666666719348"><ele>229.2367890296381</ele><time>2012-10-12T06:32:07Z</time></trkpt><trkpt lat="32.75574771666666862302" lon="35.30444318333333342252"><ele>228.34188949364733</ele><time>2012-10-12T06:32:10Z</time></trkpt><trkpt lat="32.75573223333333316987" lon="35.30453778333333048067"><ele>227.38272918969744</ele><time>2012-10-12T06:32:13Z</time></trkpt><trkpt lat="32.75576191666666403535" lon="35.30459681666666682531"><ele>226.2485399992547</ele><time>2012-10-12T06:32:16Z</time></trkpt><trkpt lat="32.75581311666666550764" lon="35.30459596666666755027"><ele>225.5849399992254</ele><time>2012-10-12T06:32:19Z</time></trkpt><trkpt lat="32.75588073333333483106" lon="35.30457366666666985111"><ele>225.00719846317062</ele><time>2012-10-12T06:32:22Z</time></trkpt><trkpt lat="32.75593655000000126165" lon="35.30456448333332986067"><ele>224.40877370486035</ele><time>2012-10-12T06:32:25Z</time></trkpt><trkpt lat="32.75599758333333255678" lon="35.30452906666666734736"><ele>224.15090121522172</ele><time>2012-10-12T06:32:28Z</time></trkpt><trkpt lat="32.75607303333333675255" lon="35.30451226666666997289"><ele>223.47027951271798</ele><time>2012-10-12T06:32:31Z</time></trkpt><trkpt lat="32.75613345000000009577" lon="35.30449886666666969859"><ele>222.94545032235405</ele><time>2012-10-12T06:32:34Z</time></trkpt><trkpt lat="32.75619726666666764459" lon="35.30449569999999681613"><ele>222.22024380083994</ele><time>2012-10-12T06:32:37Z</time></trkpt><trkpt lat="32.75626344999999872698" lon="35.30447648333333177106"><ele>221.82439052848795</ele><time>2012-10-12T06:32:40Z</time></trkpt><trkpt lat="32.75634703333333419550" lon="35.30447113333333675200"><ele>221.30528251758517</ele><time>2012-10-12T06:32:43Z</time></trkpt><trkpt lat="32.75641696666667002091" lon="35.30443029999999993152"><ele>221.51564588882934</ele><time>2012-10-12T06:32:46Z</time></trkpt><trkpt lat="32.75648176666666699930" lon="35.30443365000000000009"><ele>220.97562408485237</ele><time>2012-10-12T06:32:49Z</time></trkpt><trkpt lat="32.75653834999999958200" lon="35.30440083333333234350"><ele>221.13310161927578</ele><time>2012-10-12T06:32:52Z</time></trkpt><trkpt lat="32.75661051666666878646" lon="35.30435726666666340634"><ele>221.3561188456967</ele><time>2012-10-12T06:32:55Z</time></trkpt><trkpt lat="32.75669926666666498249" lon="35.30430068333333082364"><ele>221.67012127771244</ele><time>2012-10-12T06:32:58Z</time></trkpt><trkpt lat="32.75675901666666334222" lon="35.30427279999999967686"><ele>221.6970640344877</ele><time>2012-10-12T06:33:01Z</time></trkpt><trkpt lat="32.75679346666666447163" lon="35.30426476666666957271"><ele>221.57193227442414</ele><time>2012-10-12T06:33:04Z</time></trkpt><trkpt lat="32.75690451666666547226" lon="35.30425066666666822357"><ele>220.96194033524247</ele><time>2012-10-12T06:33:07Z</time></trkpt><trkpt lat="32.75704185000000023820" lon="35.30424286666666944257"><ele>220.0388581160146</ele><time>2012-10-12T06:33:10Z</time></trkpt><trkpt lat="32.75714648333333656183" lon="35.30422620000000222262"><ele>219.14461116870896</ele><time>2012-10-12T06:33:13Z</time></trkpt><trkpt lat="32.75727144999999751462" lon="35.30417801666666832716"><ele>218.22253373560244</ele><time>2012-10-12T06:33:16Z</time></trkpt><trkpt lat="32.75739140000000304553" lon="35.30412309999999820320"><ele>217.42261938798458</ele><time>2012-10-12T06:33:19Z</time></trkpt><trkpt lat="32.75750279999999747815" lon="35.30407811666666617612"><ele>216.53853889844717</ele><time>2012-10-12T06:33:22Z</time></trkpt><trkpt lat="32.75761203333333071441" lon="35.30399305000000254040"><ele>216.22416231040685</ele><time>2012-10-12T06:33:25Z</time></trkpt><trkpt lat="32.75767609999999763204" lon="35.30390973333333448636"><ele>216.478357452023</ele><time>2012-10-12T06:33:28Z</time></trkpt><trkpt lat="32.75776096666666603596" lon="35.30384658333333192104"><ele>216.0890557312347</ele><time>2012-10-12T06:33:31Z</time></trkpt><trkpt lat="32.75782389999999821839" lon="35.30377105000000170776"><ele>216.16086416960889</ele><time>2012-10-12T06:33:34Z</time></trkpt><trkpt lat="32.75788446666666686724" lon="35.30363179999999800884"><ele>216.79532209204945</ele><time>2012-10-12T06:33:37Z</time></trkpt><trkpt lat="32.75793441666666439005" lon="35.30350683333332995062"><ele>217.27296931926043</ele><time>2012-10-12T06:33:40Z</time></trkpt><trkpt lat="32.75802004999999894608" lon="35.30342236666666622114"><ele>216.45592914000508</ele><time>2012-10-12T06:33:43Z</time></trkpt><trkpt lat="32.75810566666666545643" lon="35.30329116666666777746"><ele>216.07684783911793</ele><time>2012-10-12T06:33:46Z</time></trkpt><trkpt lat="32.75817108333333038672" lon="35.30318888333333404717"><ele>215.76411859515838</ele><time>2012-10-12T06:33:49Z</time></trkpt><trkpt lat="32.75824973333333645087" lon="35.30309644999999818538"><ele>215.03655392545764</ele><time>2012-10-12T06:33:52Z</time></trkpt><trkpt lat="32.75825855000000075279" lon="35.30304685000000119999"><ele>215.3375216334759</ele><time>2012-10-12T06:33:55Z</time></trkpt><trkpt lat="32.75828376666666486017" lon="35.30307426666666970050"><ele>214.53518228391567</ele><time>2012-10-12T06:34:08Z</time></trkpt><trkpt lat="32.75830721666666534020" lon="35.30310206666666772435"><ele>213.7703349527279</ele><time>2012-10-12T06:37:55Z</time></trkpt><trkpt lat="32.75836145000000243499" lon="35.30309571666666812462"><ele>212.6882987518488</ele><time>2012-10-12T06:40:47Z</time></trkpt><trkpt lat="32.75840108333333233759" lon="35.30299148333333647543"><ele>212.83295822710346</ele><time>2012-10-12T06:40:50Z</time></trkpt><trkpt lat="32.75843386666666390283" lon="35.30290783333333592964"><ele>212.9359436470817</ele><time>2012-10-12T06:40:53Z</time></trkpt><trkpt lat="32.75849161666666731207" lon="35.30284704999999689790"><ele>212.41064723627784</ele><time>2012-10-12T06:40:56Z</time></trkpt><trkpt lat="32.75855578333333539831" lon="35.30281018333333520332"><ele>211.43444121939166</ele><time>2012-10-12T06:40:59Z</time></trkpt><trkpt lat="32.75861799999999846023" lon="35.30276516666666708488"><ele>210.57379135909162</ele><time>2012-10-12T06:41:02Z</time></trkpt><trkpt lat="32.75867976666666692154" lon="35.30270481666666881893"><ele>209.8692969838344</ele><time>2012-10-12T06:41:05Z</time></trkpt><trkpt lat="32.75871819999999701167" lon="35.30257220000000017990"><ele>210.45444145192513</ele><time>2012-10-12T06:41:08Z</time></trkpt><trkpt lat="32.75877448333333319397" lon="35.30249358333333020710"><ele>210.09831509515786</ele><time>2012-10-12T06:41:11Z</time></trkpt><trkpt lat="32.75888379999999955317" lon="35.30241519999999866286"><ele>208.7815256567506</ele><time>2012-10-12T06:41:14Z</time></trkpt><trkpt lat="32.75899150000000048522" lon="35.30231513333333026594"><ele>207.60260307115163</ele><time>2012-10-12T06:41:17Z</time></trkpt><trkpt lat="32.75911208333333490827" lon="35.30221676666666752453"><ele>206.01620855909832</ele><time>2012-10-12T06:41:20Z</time></trkpt><trkpt lat="32.75918508333333534210" lon="35.30212273333333428127"><ele>205.27541955108816</ele><time>2012-10-12T06:41:23Z</time></trkpt><trkpt lat="32.75923561666666472547" lon="35.30197308333332983921"><ele>206.0211834971199</ele><time>2012-10-12T06:41:26Z</time></trkpt><trkpt lat="32.75928588333333379978" lon="35.30184968333333017654"><ele>206.60917883626064</ele><time>2012-10-12T06:41:29Z</time></trkpt><trkpt lat="32.75931388333333416085" lon="35.30173235000000175887"><ele>207.58928434018293</ele><time>2012-10-12T06:41:32Z</time></trkpt><trkpt lat="32.75935663333333280889" lon="35.30165145000000137543"><ele>207.7385674494174</ele><time>2012-10-12T06:41:35Z</time></trkpt><trkpt lat="32.75944109999999653837" lon="35.30159729999999740357"><ele>206.5874274023384</ele><time>2012-10-12T06:41:38Z</time></trkpt><trkpt lat="32.75946986666667015697" lon="35.30151465000000143846"><ele>207.0504183061274</ele><time>2012-10-12T06:41:41Z</time></trkpt><trkpt lat="32.75946703333333687169" lon="35.30135320000000120899"><ele>209.27211688852285</ele><time>2012-10-12T06:41:44Z</time></trkpt><trkpt lat="32.75950171666666932424" lon="35.30126238333333077435"><ele>209.69594461059114</ele><time>2012-10-12T06:41:47Z</time></trkpt><trkpt lat="32.75958743333332989778" lon="35.30119841666666502533"><ele>208.71431271109057</ele><time>2012-10-12T06:41:50Z</time></trkpt><trkpt lat="32.75968533333332999291" lon="35.30112361666666487281"><ele>207.6570008950975</ele><time>2012-10-12T06:41:53Z</time></trkpt><trkpt lat="32.75971591666666427045" lon="35.30101274999999816373"><ele>208.56552537906714</ele><time>2012-10-12T06:41:56Z</time></trkpt><trkpt lat="32.75969704999999976280" lon="35.30088425000000285081"><ele>210.89006623492543</ele><time>2012-10-12T06:41:59Z</time></trkpt><trkpt lat="32.75972734999999858019" lon="35.30076883333333626069"><ele>211.79672239094378</ele><time>2012-10-12T06:42:02Z</time></trkpt><trkpt lat="32.75979168333333291230" lon="35.30065218333333376677"><ele>211.74942391334827</ele><time>2012-10-12T06:42:05Z</time></trkpt><trkpt lat="32.75984760000000051150" lon="35.30058026666666393112"><ele>211.21050198936445</ele><time>2012-10-12T06:42:08Z</time></trkpt><trkpt lat="32.75990983333333161909" lon="35.30048804999999845222"><ele>210.68458952700718</ele><time>2012-10-12T06:42:11Z</time></trkpt><trkpt lat="32.76000396666666603096" lon="35.30040883333333567862"><ele>208.92792576706486</ele><time>2012-10-12T06:42:14Z</time></trkpt><trkpt lat="32.76007814999999823158" lon="35.30031460000000009813"><ele>207.2659814759108</ele><time>2012-10-12T06:42:17Z</time></trkpt><trkpt lat="32.76011760000000094806" lon="35.30023806666666530418"><ele>206.48682548383647</ele><time>2012-10-12T06:42:20Z</time></trkpt><trkpt lat="32.76017219999999952051" lon="35.30014308333333161727"><ele>205.31447026307868</ele><time>2012-10-12T06:42:23Z</time></trkpt><trkpt lat="32.76020900000000324326" lon="35.30004816666667011305"><ele>204.63798871893883</ele><time>2012-10-12T06:42:26Z</time></trkpt><trkpt lat="32.76028469999999970241" lon="35.29996626666666514893"><ele>202.67885123746996</ele><time>2012-10-12T06:42:29Z</time></trkpt><trkpt lat="32.76036194999999651145" lon="35.29986418333333375585"><ele>200.69537379956185</ele><time>2012-10-12T06:42:32Z</time></trkpt><trkpt lat="32.76043371666666814690" lon="35.29977528333333225419"><ele>198.99104551204513</ele><time>2012-10-12T06:42:35Z</time></trkpt><trkpt lat="32.76047319999999984930" lon="35.29967363333333452147"><ele>198.6041822840651</ele><time>2012-10-12T06:42:38Z</time></trkpt><trkpt lat="32.76051293333333092050" lon="35.29961326666666820984"><ele>198.05221895610688</ele><time>2012-10-12T06:42:41Z</time></trkpt><trkpt lat="32.76053674999999998363" lon="35.29957091666666713081"><ele>197.6433883593921</ele><time>2012-10-12T06:42:44Z</time></trkpt><trkpt lat="32.76059493333332994780" lon="35.29951518333333382316"><ele>196.32013750985635</ele><time>2012-10-12T06:42:47Z</time></trkpt><trkpt lat="32.76071876666666327083" lon="35.29942520000000172331"><ele>193.7158071802575</ele><time>2012-10-12T06:42:50Z</time></trkpt><trkpt lat="32.76080474999999836427" lon="35.29938130000000029440"><ele>192.030657231418</ele><time>2012-10-12T06:42:53Z</time></trkpt><trkpt lat="32.76086976666666572555" lon="35.29936991666667012169"><ele>190.8330667674083</ele><time>2012-10-12T06:42:56Z</time></trkpt><trkpt lat="32.76088206666666735600" lon="35.29931423333333384562"><ele>190.4940174457773</ele><time>2012-10-12T06:42:59Z</time></trkpt><trkpt lat="32.76089989999999829706" lon="35.29924558333333095561"><ele>190.0408214554184</ele><time>2012-10-12T06:43:02Z</time></trkpt><trkpt lat="32.76092053333333353748" lon="35.29917011666666581959"><ele>189.54158716099468</ele><time>2012-10-12T06:43:05Z</time></trkpt><trkpt lat="32.76094116666666877791" lon="35.29909928333333368755"><ele>189.06853313537118</ele><time>2012-10-12T06:43:08Z</time></trkpt><trkpt lat="32.76096158333333363544" lon="35.29902433333333533483"><ele>188.60894447940956</ele><time>2012-10-12T06:43:11Z</time></trkpt><trkpt lat="32.76097726666666432038" lon="35.29894501666666428719"><ele>188.23372026185046</ele><time>2012-10-12T06:43:14Z</time></trkpt><trkpt lat="32.76099631666666311958" lon="35.29887525000000181308"><ele>187.8360573034795</ele><time>2012-10-12T06:43:17Z</time></trkpt><trkpt lat="32.76102148333333019536" lon="35.29879760000000032960"><ele>187.35329378507546</ele><time>2012-10-12T06:43:20Z</time></trkpt><trkpt lat="32.76104338333333032551" lon="35.29871296666666324882"><ele>187.24118762816042</ele><time>2012-10-12T06:43:23Z</time></trkpt><trkpt lat="32.76106046666666316014" lon="35.29863173333333037363"><ele>187.555186277754</ele><time>2012-10-12T06:43:26Z</time></trkpt><trkpt lat="32.76108516666666758965" lon="35.29855378333333248975"><ele>187.68803190325724</ele><time>2012-10-12T06:43:29Z</time></trkpt><trkpt lat="32.76110688333333342825" lon="35.29846514999999840256"><ele>187.8977933336618</ele><time>2012-10-12T06:43:32Z</time></trkpt><trkpt lat="32.76113434999999896036" lon="35.29838853333333048568"><ele>187.8819777016797</ele><time>2012-10-12T06:43:35Z</time></trkpt><trkpt lat="32.76115175000000334649" lon="35.29829706666666311321"><ele>188.10152806318314</ele><time>2012-10-12T06:43:38Z</time></trkpt><trkpt lat="32.76117073333332996299" lon="35.29820645000000212121"><ele>188.24682376887046</ele><time>2012-10-12T06:43:41Z</time></trkpt><trkpt lat="32.76119451666667004019" lon="35.29811608333333339260"><ele>188.2469392471256</ele><time>2012-10-12T06:43:44Z</time></trkpt><trkpt lat="32.76120933333333340443" lon="35.29802351666666737628"><ele>188.4130629111778</ele><time>2012-10-12T06:43:47Z</time></trkpt><trkpt lat="32.76123306666666934461" lon="35.29793614999999817883"><ele>188.30907934631543</ele><time>2012-10-12T06:43:50Z</time></trkpt><trkpt lat="32.76125216666666517540" lon="35.29784503333333134378"><ele>188.65751552731084</ele><time>2012-10-12T06:43:53Z</time></trkpt><trkpt lat="32.76127706666666483670" lon="35.29775276666666883330"><ele>189.17144283446515</ele><time>2012-10-12T06:43:56Z</time></trkpt><trkpt lat="32.76130156666666692900" lon="35.29764998333333636538"><ele>189.7408601360117</ele><time>2012-10-12T06:43:59Z</time></trkpt><trkpt lat="32.76131955000000317568" lon="35.29755269999999711672"><ele>190.32085607200057</ele><time>2012-10-12T06:44:02Z</time></trkpt><trkpt lat="32.76133966666666452738" lon="35.29745161666666319888"><ele>190.86054920728168</ele><time>2012-10-12T06:44:05Z</time></trkpt><trkpt lat="32.76136411666666958808" lon="35.29735610000000178843"><ele>191.2302824047296</ele><time>2012-10-12T06:44:08Z</time></trkpt><trkpt lat="32.76139848333333048913" lon="35.29725933333333642850"><ele>191.366581311219</ele><time>2012-10-12T06:44:11Z</time></trkpt><trkpt lat="32.76143220000000155778" lon="35.29715889999999944848"><ele>191.47782392554666</ele><time>2012-10-12T06:44:14Z</time></trkpt><trkpt lat="32.76147623333333314122" lon="35.29706258333333579458"><ele>191.24034103517081</ele><time>2012-10-12T06:44:17Z</time></trkpt><trkpt lat="32.76151970000000090977" lon="35.29695511666666618567"><ele>190.90293324635115</ele><time>2012-10-12T06:44:20Z</time></trkpt><trkpt lat="32.76155905000000245764" lon="35.29685295000000166965"><ele>190.5420443098895</ele><time>2012-10-12T06:44:23Z</time></trkpt><trkpt lat="32.76158135000000015680" lon="35.29674668333333187320"><ele>190.54628630594488</ele><time>2012-10-12T06:44:26Z</time></trkpt><trkpt lat="32.76156716666666568472" lon="35.29665056666666345109"><ele>191.40086765516375</ele><time>2012-10-12T06:44:29Z</time></trkpt><trkpt lat="32.76155228333333013779" lon="35.29657661666666967903"><ele>192.1831262083748</ele><time>2012-10-12T06:44:32Z</time></trkpt><trkpt lat="32.76155334999999979573" lon="35.29654029999999664824"><ele>192.3486500495226</ele><time>2012-10-12T06:44:35Z</time></trkpt><trkpt lat="32.76155150000000304544" lon="35.29649975000000239334"><ele>192.6161202189949</ele><time>2012-10-12T06:44:39Z</time></trkpt><trkpt lat="32.76156873333333408027" lon="35.29644009999999809679"><ele>192.4519193622723</ele><time>2012-10-12T06:44:42Z</time></trkpt><trkpt lat="32.76160206666666852016" lon="35.29640080000000068594"><ele>191.7064438646256</ele><time>2012-10-12T06:44:45Z</time></trkpt><trkpt lat="32.76162623333333101527" lon="35.29636895000000151867"><ele>191.16492978553967</ele><time>2012-10-12T06:44:48Z</time></trkpt><trkpt lat="32.76166308333333176961" lon="35.29640969999999811080"><ele>189.9309916351458</ele><time>2012-10-12T06:44:51Z</time></trkpt><trkpt lat="32.76169449999999727652" lon="35.29641583333333443306"><ele>189.01502619917258</ele><time>2012-10-12T06:44:54Z</time></trkpt><trkpt lat="32.76162874999999985448" lon="35.29641933333333270184"><ele>190.86158079909652</ele><time>2012-10-12T06:44:57Z</time></trkpt><trkpt lat="32.76159798333333128539" lon="35.29644663333333198807"><ele>191.59850523675337</ele><time>2012-10-12T06:45:02Z</time></trkpt><trkpt lat="32.76159188333333105447" lon="35.29648435000000006312"><ele>191.58257321955796</ele><time>2012-10-12T06:45:06Z</time></trkpt><trkpt lat="32.76154931666666669798" lon="35.29653330000000011069"><ele>192.49552782869577</ele><time>2012-10-12T06:45:09Z</time></trkpt><trkpt lat="32.76153591666666642368" lon="35.29657335000000273340"><ele>192.6382676330937</ele><time>2012-10-12T06:45:12Z</time></trkpt><trkpt lat="32.76150858333333104611" lon="35.29663159999999777483"><ele>193.03170803118113</ele><time>2012-10-12T06:45:15Z</time></trkpt><trkpt lat="32.76149079999999713664" lon="35.29670833333333490600"><ele>193.03849599918277</ele><time>2012-10-12T06:45:18Z</time></trkpt><trkpt lat="32.76145363333333193623" lon="35.29675796666666798274"><ele>193.6667445703488</ele><time>2012-10-12T06:45:21Z</time></trkpt><trkpt lat="32.76142518333332986913" lon="35.29683481666666722276"><ele>193.86473734041158</ele><time>2012-10-12T06:45:24Z</time></trkpt><trkpt lat="32.76139586666666758674" lon="35.29685380000000094469"><ele>194.43986887590182</ele><time>2012-10-12T06:45:27Z</time></trkpt><trkpt lat="32.76135948333333658411" lon="35.29690449999999657393"><ele>194.94000096308255</ele><time>2012-10-12T06:45:30Z</time></trkpt><trkpt lat="32.76131988333333566743" lon="35.29696541666666576020"><ele>195.39795666909197</ele><time>2012-10-12T06:45:33Z</time></trkpt><trkpt lat="32.76128851666666719211" lon="35.29701166666666978244"><ele>195.7422155591048</ele><time>2012-10-12T06:45:36Z</time></trkpt><trkpt lat="32.76124434999999834872" lon="35.29705353333333306409"><ele>196.4324101878195</ele><time>2012-10-12T06:45:39Z</time></trkpt><trkpt lat="32.76120850000000217506" lon="35.29710871666666349711"><ele>197.09030164290297</ele><time>2012-10-12T06:45:42Z</time></trkpt><trkpt lat="32.76118745000000131995" lon="35.29715706666666363844"><ele>197.27229083733548</ele><time>2012-10-12T06:45:46Z</time></trkpt><trkpt lat="32.76115891666666612991" lon="35.29719794999999749052"><ele>197.745548144992</ele><time>2012-10-12T06:45:49Z</time></trkpt><trkpt lat="32.76115165000000217788" lon="35.29716691666666861238"><ele>198.3012781568525</ele><time>2012-10-12T06:46:04Z</time></trkpt><trkpt lat="32.76117573333333155006" lon="35.29714955000000031760"><ele>197.72098967259615</ele><time>2012-10-12T06:46:27Z</time></trkpt><trkpt lat="32.76115736666666578003" lon="35.29717568333333588271"><ele>198.0285287405455</ele><time>2012-10-12T06:47:41Z</time></trkpt><trkpt lat="32.76118721666666999681" lon="35.29717695000000077243"><ele>197.0762141296372</ele><time>2012-10-12T06:47:55Z</time></trkpt><trkpt lat="32.76120238333333389846" lon="35.29714751666666927576"><ele>196.89581353930288</ele><time>2012-10-12T06:48:06Z</time></trkpt><trkpt lat="32.76120079999999745723" lon="35.29710568333333498003"><ele>197.3684358294044</ele><time>2012-10-12T06:48:16Z</time></trkpt><trkpt lat="32.76122038333333108540" lon="35.29707826666666647952"><ele>197.00127566623732</ele><time>2012-10-12T06:48:38Z</time></trkpt><trkpt lat="32.76123248333333037863" lon="35.29704470000000071650"><ele>196.8881620502546</ele><time>2012-10-12T06:48:55Z</time></trkpt><trkpt lat="32.76125054999999974825" lon="35.29701184999999696856"><ele>196.58818369556633</ele><time>2012-10-12T06:48:58Z</time></trkpt><trkpt lat="32.76129095000000290838" lon="35.29695428333333495630"><ele>196.14623125625187</ele><time>2012-10-12T06:49:01Z</time></trkpt><trkpt lat="32.76136495000000081745" lon="35.29691141666666709398"><ele>194.7619808451136</ele><time>2012-10-12T06:49:04Z</time></trkpt><trkpt lat="32.76142728333333309365" lon="35.29680946666666585543"><ele>193.9817558839387</ele><time>2012-10-12T06:49:07Z</time></trkpt><trkpt lat="32.76148196666666478905" lon="35.29672740000000175087"><ele>193.1471081367582</ele><time>2012-10-12T06:49:10Z</time></trkpt><trkpt lat="32.76152196666666327474" lon="35.29666533333333688915"><ele>192.49080476718422</ele><time>2012-10-12T06:49:13Z</time></trkpt><trkpt lat="32.76156224999999722058" lon="35.29661891666666662104"><ele>191.69475782918826</ele><time>2012-10-12T06:49:16Z</time></trkpt><trkpt lat="32.76157516666666680294" lon="35.29658763333333126866"><ele>191.5155340231183</ele><time>2012-10-12T06:49:19Z</time></trkpt><trkpt lat="32.76157538333333008040" lon="35.29654333333333227074"><ele>191.73659343919672</ele><time>2012-10-12T06:49:23Z</time></trkpt><trkpt lat="32.76158783333332991106" lon="35.29650481666666905767"><ele>191.59228248318027</ele><time>2012-10-12T06:49:27Z</time></trkpt><trkpt lat="32.76165323333333390110" lon="35.29652010000000217360"><ele>189.732006298287</ele><time>2012-10-12T06:49:30Z</time></trkpt><trkpt lat="32.76169653333333542378" lon="35.29647331666666332239"><ele>188.73330082146558</ele><time>2012-10-12T06:49:33Z</time></trkpt><trkpt lat="32.76173108333333061637" lon="35.29638873333333037863"><ele>188.07490232718897</ele><time>2012-10-12T06:49:36Z</time></trkpt><trkpt lat="32.76177676666666371830" lon="35.29629431666666761203"><ele>187.06005299037534</ele><time>2012-10-12T06:49:39Z</time></trkpt><trkpt lat="32.76181591666667003437" lon="35.29621908333333379915"><ele>186.19609460894674</ele><time>2012-10-12T06:49:42Z</time></trkpt><trkpt lat="32.76186318333333247210" lon="35.29616298333333190840"><ele>185.09901432348562</ele><time>2012-10-12T06:49:45Z</time></trkpt><trkpt lat="32.76187646666666353212" lon="35.29609020000000185746"><ele>185.1171974967361</ele><time>2012-10-12T06:49:48Z</time></trkpt><trkpt lat="32.76180423333333635583" lon="35.29615651666667019981"><ele>186.89632867334143</ele><time>2012-10-12T06:49:51Z</time></trkpt><trkpt lat="32.76171508333333548535" lon="35.29629911666666686187"><ele>188.86518089701758</ele><time>2012-10-12T06:49:54Z</time></trkpt><trkpt lat="32.76166183333333492556" lon="35.29642178333333646378"><ele>189.91514071503707</ele><time>2012-10-12T06:49:57Z</time></trkpt><trkpt lat="32.76162358333333202154" lon="35.29644495000000148366"><ele>190.88904711312324</ele><time>2012-10-12T06:50:00Z</time></trkpt><trkpt lat="32.76160316666666716401" lon="35.29648550000000284399"><ele>191.26516115906986</ele><time>2012-10-12T06:50:03Z</time></trkpt><trkpt lat="32.76157126666666385972" lon="35.29650474999999687498"><ele>192.04707424718876</ele><time>2012-10-12T06:50:06Z</time></trkpt><trkpt lat="32.76155288333333004402" lon="35.29647523333333225537"><ele>192.70919178078418</ele><time>2012-10-12T06:51:37Z</time></trkpt><trkpt lat="32.76157266666666600941" lon="35.29649753333332995453"><ele>192.04581721513</ele><time>2012-10-12T06:54:03Z</time></trkpt><trkpt lat="32.76156866666666900301" lon="35.29646553333333258706"><ele>192.32184755102685</ele><time>2012-10-12T06:55:16Z</time></trkpt><trkpt lat="32.76156935000000203217" lon="35.29642821666666918645"><ele>192.49616800341096</ele><time>2012-10-12T06:55:20Z</time></trkpt><trkpt lat="32.76155836666666942847" lon="35.29645848333333191249"><ele>192.6457762494155</ele><time>2012-10-12T06:56:46Z</time></trkpt><trkpt lat="32.76152803333333451974" lon="35.29646293333333062492"><ele>193.46712184866297</ele><time>2012-10-12T06:57:08Z</time></trkpt><trkpt lat="32.76151351666666755591" lon="35.29642721666666460578"><ele>194.07661141545873</ele><time>2012-10-12T06:57:11Z</time></trkpt><trkpt lat="32.76151816666666860556" lon="35.29636969999999962511"><ele>194.27308346300856</ele><time>2012-10-12T06:57:14Z</time></trkpt><trkpt lat="32.76155063333333572473" lon="35.29628738333333615174"><ele>193.78026585416657</ele><time>2012-10-12T06:57:17Z</time></trkpt><trkpt lat="32.76161658333333548399" lon="35.29624081666666768342"><ele>192.0514276969784</ele><time>2012-10-12T06:57:20Z</time></trkpt><trkpt lat="32.76165283333333633209" lon="35.29615396666666526926"><ele>191.4316670149683</ele><time>2012-10-12T06:57:23Z</time></trkpt><trkpt lat="32.76167614999999955216" lon="35.29605273333333315122"><ele>191.2834338726669</ele><time>2012-10-12T06:57:26Z</time></trkpt><trkpt lat="32.76169741666666368474" lon="35.29595483333333305609"><ele>191.18446997914452</ele><time>2012-10-12T06:57:29Z</time></trkpt><trkpt lat="32.76170280000000190057" lon="35.29588578333333259707"><ele>191.40172092060425</ele><time>2012-10-12T06:57:32Z</time></trkpt><trkpt lat="32.76170584999999846332" lon="35.29581894999999747142"><ele>191.67649156427782</ele><time>2012-10-12T06:57:35Z</time></trkpt><trkpt lat="32.76170295000000010077" lon="35.29576165000000287364"><ele>192.07410530980147</ele><time>2012-10-12T06:57:38Z</time></trkpt><trkpt lat="32.76167769999999990205" lon="35.29569084999999972752"><ele>193.19729377422593</ele><time>2012-10-12T06:57:41Z</time></trkpt><trkpt lat="32.76169440000000321334" lon="35.29561334999999644424"><ele>193.13133525334905</ele><time>2012-10-12T06:57:44Z</time></trkpt><trkpt lat="32.76171781666666760202" lon="35.29554381666666529327"><ele>192.83090463860492</ele><time>2012-10-12T06:57:47Z</time></trkpt><trkpt lat="32.76173341666666516403" lon="35.29545199999999738338"><ele>192.8834037590841</ele><time>2012-10-12T06:57:50Z</time></trkpt><trkpt lat="32.76174736666666831297" lon="35.29536956666666469573"><ele>193.0478003797552</ele><time>2012-10-12T06:57:53Z</time></trkpt><trkpt lat="32.76174660000000216087" lon="35.29530701666666914207"><ele>193.5631269205159</ele><time>2012-10-12T06:57:56Z</time></trkpt><trkpt lat="32.76174600000000225464" lon="35.29523650000000145610"><ele>194.13589343893318</ele><time>2012-10-12T06:57:59Z</time></trkpt><trkpt lat="32.76176379999999710435" lon="35.29518815000000131477"><ele>194.03965849827767</ele><time>2012-10-12T06:58:02Z</time></trkpt><trkpt lat="32.76179669999999788388" lon="35.29513728333333233422"><ele>193.58048382147734</ele><time>2012-10-12T06:58:05Z</time></trkpt><trkpt lat="32.76184266666666644596" lon="35.29509505000000046948"><ele>192.7359031670143</ele><time>2012-10-12T06:58:08Z</time></trkpt><trkpt lat="32.76186955000000011751" lon="35.29503844999999984111"><ele>192.54310053261543</ele><time>2012-10-12T06:58:11Z</time></trkpt><trkpt lat="32.76191233333333485689" lon="35.29497756666666674619"><ele>192.0183360949808</ele><time>2012-10-12T06:58:14Z</time></trkpt><trkpt lat="32.76195773333333249866" lon="35.29492108333333533210"><ele>191.4317808950223</ele><time>2012-10-12T06:58:17Z</time></trkpt><trkpt lat="32.76198899999999980537" lon="35.29488225000000056752"><ele>191.05292903902145</ele><time>2012-10-12T06:58:20Z</time></trkpt><trkpt lat="32.76201248333333637675" lon="35.29483708333333424889"><ele>190.94519153894382</ele><time>2012-10-12T06:58:23Z</time></trkpt><trkpt lat="32.76204461666666389874" lon="35.29475426666666493247"><ele>191.04737925031503</ele><time>2012-10-12T06:58:26Z</time></trkpt><trkpt lat="32.76210011666666588326" lon="35.29467243333333215105"><ele>190.78666684320032</ele><time>2012-10-12T06:58:29Z</time></trkpt><trkpt lat="32.76221026666666347182" lon="35.29463791666666594438"><ele>189.4802247992437</ele><time>2012-10-12T06:58:32Z</time></trkpt><trkpt lat="32.76227038333333041464" lon="35.29465739999999840393"><ele>188.3818500232589</ele><time>2012-10-12T06:58:35Z</time></trkpt><trkpt lat="32.76234656666666467117" lon="35.29468384999999841511"><ele>186.99848722725898</ele><time>2012-10-12T06:58:38Z</time></trkpt><trkpt lat="32.76244413333333227456" lon="35.29464788333333302717"><ele>185.84206540724358</ele><time>2012-10-12T06:58:41Z</time></trkpt><trkpt lat="32.76253691666666867377" lon="35.29462793333333081591"><ele>184.58807467922472</ele><time>2012-10-12T06:58:44Z</time></trkpt><trkpt lat="32.76262721666666521969" lon="35.29455415000000328973"><ele>183.7148476928434</ele><time>2012-10-12T06:58:47Z</time></trkpt><trkpt lat="32.76269940000000246982" lon="35.29446180000000055088"><ele>183.19460680879962</ele><time>2012-10-12T06:58:50Z</time></trkpt><trkpt lat="32.76270325000000127602" lon="35.29429861666666567999"><ele>184.21259825121876</ele><time>2012-10-12T06:58:53Z</time></trkpt><trkpt lat="32.76274428333333332830" lon="35.29416774999999972806"><ele>184.3890021632301</ele><time>2012-10-12T06:58:56Z</time></trkpt><trkpt lat="32.76279518333333129476" lon="35.29402378333332990223"><ele>184.44821087688007</ele><time>2012-10-12T06:58:59Z</time></trkpt><trkpt lat="32.76282388333333273067" lon="35.29386610000000246146"><ele>184.94247622161095</ele><time>2012-10-12T06:59:02Z</time></trkpt><trkpt lat="32.76286828333333289720" lon="35.29370971666666889632"><ele>184.87370661973065</ele><time>2012-10-12T06:59:05Z</time></trkpt><trkpt lat="32.76289596666666881219" lon="35.29354455000000001519"><ele>184.3787240528804</ele><time>2012-10-12T06:59:08Z</time></trkpt><trkpt lat="32.76290050000000064756" lon="35.29335221666666910778"><ele>184.30026039530253</ele><time>2012-10-12T06:59:11Z</time></trkpt><trkpt lat="32.76289128333333167120" lon="35.29324121666666513875"><ele>184.47549704774238</ele><time>2012-10-12T06:59:14Z</time></trkpt><trkpt lat="32.76288701666666725032" lon="35.29314618333333442024"><ele>184.5594805556974</ele><time>2012-10-12T06:59:17Z</time></trkpt><trkpt lat="32.76286568333333093506" lon="35.29308476666666649635"><ele>184.96653876975137</ele><time>2012-10-12T06:59:20Z</time></trkpt><trkpt lat="32.76287339999999659312" lon="35.29298751666666333904"><ele>184.8263057609688</ele><time>2012-10-12T06:59:23Z</time></trkpt><trkpt lat="32.76290291666666831816" lon="35.29284619999999961237"><ele>184.5246561991968</ele><time>2012-10-12T06:59:26Z</time></trkpt><trkpt lat="32.76292041666666676747" lon="35.29271971666666729561"><ele>184.6632023493677</ele><time>2012-10-12T06:59:29Z</time></trkpt><trkpt lat="32.76291376666666366191" lon="35.29259129999999800020"><ele>185.23379365526603</ele><time>2012-10-12T06:59:32Z</time></trkpt><trkpt lat="32.76292484999999743422" lon="35.29249381666666351975"><ele>185.40896567738713</ele><time>2012-10-12T06:59:35Z</time></trkpt><trkpt lat="32.76296624999999806960" lon="35.29234495000000038090"><ele>185.318577149353</ele><time>2012-10-12T06:59:38Z</time></trkpt><trkpt lat="32.76300411666666434485" lon="35.29221003333333328555"><ele>185.15449538734887</ele><time>2012-10-12T06:59:41Z</time></trkpt><trkpt lat="32.76304936666666378642" lon="35.29209961666666828251"><ele>184.72757774734652</ele><time>2012-10-12T06:59:44Z</time></trkpt><trkpt lat="32.76311651666666335814" lon="35.29199034999999895490"><ele>184.53515999924835</ele><time>2012-10-12T06:59:47Z</time></trkpt><trkpt lat="32.76317335000000241507" lon="35.29188161666666445626"><ele>184.62419999916327</ele><time>2012-10-12T06:59:50Z</time></trkpt><trkpt lat="32.76318890000000294549" lon="35.29174059999999713000"><ele>185.7167199991597</ele><time>2012-10-12T06:59:53Z</time></trkpt><trkpt lat="32.76324054999999901838" lon="35.29162111666666845622"><ele>185.99603999918068</ele><time>2012-10-12T06:59:56Z</time></trkpt><trkpt lat="32.76333901666667003383" lon="35.29153788333333352512"><ele>185.14083999924313</ele><time>2012-10-12T06:59:59Z</time></trkpt><trkpt lat="32.76341003333333645742" lon="35.29142939999999839529"><ele>184.98919999926457</ele><time>2012-10-12T07:00:02Z</time></trkpt><trkpt lat="32.76348088333333663513" lon="35.29134795000000224263"><ele>184.58083999922502</ele><time>2012-10-12T07:00:05Z</time></trkpt><trkpt lat="32.76355663333333012588" lon="35.29125270000000114123"><ele>184.22263999934532</ele><time>2012-10-12T07:00:08Z</time></trkpt><trkpt lat="32.76362301666666354549" lon="35.29116556666666326691"><ele>183.6862374242236</ele><time>2012-10-12T07:00:11Z</time></trkpt><trkpt lat="32.76370686666666642850" lon="35.29108875000000011823"><ele>182.7221866793538</ele><time>2012-10-12T07:00:14Z</time></trkpt><trkpt lat="32.76379556666666559295" lon="35.29100840000000260943"><ele>181.92577434822823</ele><time>2012-10-12T07:00:17Z</time></trkpt><trkpt lat="32.76387985000000213631" lon="35.29093106666666557203"><ele>181.39194913861388</ele><time>2012-10-12T07:00:20Z</time></trkpt><trkpt lat="32.76397031666666492811" lon="35.29084743333333307191"><ele>180.78054661865662</ele><time>2012-10-12T07:00:23Z</time></trkpt><trkpt lat="32.76404744999999962829" lon="35.29077121666666982946"><ele>180.25008738422383</ele><time>2012-10-12T07:00:26Z</time></trkpt><trkpt lat="32.76410210000000233777" lon="35.29063130000000114705"><ele>180.28212850179776</ele><time>2012-10-12T07:00:29Z</time></trkpt><trkpt lat="32.76414291666666400715" lon="35.29050885000000192804"><ele>180.36471465945516</ele><time>2012-10-12T07:00:32Z</time></trkpt><trkpt lat="32.76420386666666928477" lon="35.29040656666666819774"><ele>180.08059792574673</ele><time>2012-10-12T07:00:35Z</time></trkpt><trkpt lat="32.76429294999999797255" lon="35.29032376666666692699"><ele>179.46815264101917</ele><time>2012-10-12T07:00:38Z</time></trkpt><trkpt lat="32.76438346666666490137" lon="35.29024034999999770434"><ele>178.79763069383444</ele><time>2012-10-12T07:00:41Z</time></trkpt><trkpt lat="32.76447625000000130058" lon="35.29014038333333047603"><ele>178.1564057793958</ele><time>2012-10-12T07:00:44Z</time></trkpt><trkpt lat="32.76457070000000015852" lon="35.29004631666666824685"><ele>177.40233481378542</ele><time>2012-10-12T07:00:47Z</time></trkpt><trkpt lat="32.76465551666666442543" lon="35.28993901666666488381"><ele>177.2595599995052</ele><time>2012-10-12T07:00:50Z</time></trkpt><trkpt lat="32.76474414999999851261" lon="35.28984766666666672563"><ele>177.06313999948804</ele><time>2012-10-12T07:00:53Z</time></trkpt><trkpt lat="32.76481474999999932152" lon="35.28973671666666689362"><ele>177.13579999948018</ele><time>2012-10-12T07:00:56Z</time></trkpt><trkpt lat="32.76487208333333001065" lon="35.28963018333333678811"><ele>177.29339999948286</ele><time>2012-10-12T07:00:59Z</time></trkpt><trkpt lat="32.76492686666666998008" lon="35.28952118333333487499"><ele>177.60563514020592</ele><time>2012-10-12T07:01:02Z</time></trkpt><trkpt lat="32.76500029999999696884" lon="35.28941635000000331956"><ele>177.79987786264581</ele><time>2012-10-12T07:01:05Z</time></trkpt><trkpt lat="32.76508634999999713955" lon="35.28933866666666574474"><ele>177.65263716747802</ele><time>2012-10-12T07:01:08Z</time></trkpt><trkpt lat="32.76517965000000032205" lon="35.28928284999999931415"><ele>177.25697616304944</ele><time>2012-10-12T07:01:11Z</time></trkpt><trkpt lat="32.76524599999999765032" lon="35.28921923333333410255"><ele>177.14460121546253</ele><time>2012-10-12T07:01:14Z</time></trkpt><trkpt lat="32.76523586666666432166" lon="35.28913743333333030705"><ele>177.84529095628864</ele><time>2012-10-12T07:01:17Z</time></trkpt><trkpt lat="32.76524491666666705214" lon="35.28905568333333064857"><ele>178.37227839745938</ele><time>2012-10-12T07:01:20Z</time></trkpt><trkpt lat="32.76526005000000196787" lon="35.28897289999999742349"><ele>178.848369808242</ele><time>2012-10-12T07:01:23Z</time></trkpt><trkpt lat="32.76530429999999682877" lon="35.28889916666666692890"><ele>178.98058363946828</ele><time>2012-10-12T07:01:26Z</time></trkpt><trkpt lat="32.76531789999999944030" lon="35.28882165000000270538"><ele>179.42208964982422</ele><time>2012-10-12T07:01:29Z</time></trkpt><trkpt lat="32.76534508333333661767" lon="35.28874301666666468691"><ele>179.69414031549627</ele><time>2012-10-12T07:01:32Z</time></trkpt><trkpt lat="32.76536936666666832707" lon="35.28866643333333286137"><ele>179.54297621391297</ele><time>2012-10-12T07:01:35Z</time></trkpt><trkpt lat="32.76539615000000083000" lon="35.28860471666666853707"><ele>179.36271549791985</ele><time>2012-10-12T07:01:38Z</time></trkpt><trkpt lat="32.76543240000000167811" lon="35.28854900000000327509"><ele>179.21321228762656</ele><time>2012-10-12T07:01:41Z</time></trkpt><trkpt lat="32.76545579999999802112" lon="35.28850288333333651281"><ele>179.22172896283274</ele><time>2012-10-12T07:01:44Z</time></trkpt><trkpt lat="32.76547450000000338832" lon="35.28845634999999703041"><ele>179.2340696556274</ele><time>2012-10-12T07:01:47Z</time></trkpt><trkpt lat="32.76550480000000220571" lon="35.28843770000000290565"><ele>179.18973076442435</ele><time>2012-10-12T07:01:51Z</time></trkpt><trkpt lat="32.76551333333333104747" lon="35.28847104999999828578"><ele>179.14108031963957</ele><time>2012-10-12T07:01:57Z</time></trkpt><trkpt lat="32.76552193333333207192" lon="35.28850296666666963574"><ele>179.09522739803484</ele><time>2012-10-12T07:02:36Z</time></trkpt><trkpt lat="32.76555154999999786014" lon="35.28850101666666461142"><ele>179.040198938042</ele><time>2012-10-12T07:07:54Z</time></trkpt><trkpt lat="32.76559333333333512428" lon="35.28851296666666570445"><ele>178.95183743963574</ele><time>2012-10-12T07:07:57Z</time></trkpt><trkpt lat="32.76564489999999807424" lon="35.28851326666666921028"><ele>178.85459233884285</ele><time>2012-10-12T07:08:00Z</time></trkpt><trkpt lat="32.76573696666666535293" lon="35.28851914999999905831"><ele>178.67970918524736</ele><time>2012-10-12T07:08:03Z</time></trkpt><trkpt lat="32.76580183333333451401" lon="35.28845654999999936763"><ele>178.56442178364236</ele><time>2012-10-12T07:08:06Z</time></trkpt><trkpt lat="32.76585035000000090122" lon="35.28838976666666837900"><ele>178.461925684442</ele><time>2012-10-12T07:08:09Z</time></trkpt><trkpt lat="32.76587390000000254986" lon="35.28835440000000289729"><ele>178.40510126043785</ele><time>2012-10-12T07:08:12Z</time></trkpt><trkpt lat="32.76591078333333229011" lon="35.28834208333333322116"><ele>178.31607173964693</ele><time>2012-10-12T07:08:15Z</time></trkpt><trkpt lat="32.76595456666666450474" lon="35.28829781666666320916"><ele>178.19663928444865</ele><time>2012-10-12T07:08:18Z</time></trkpt><trkpt lat="32.76599623333333255459" lon="35.28828083333333154314"><ele>178.08440951964658</ele><time>2012-10-12T07:08:21Z</time></trkpt><trkpt lat="32.76604220000000111668" lon="35.28831141666666582069"><ele>177.98553633564538</ele><time>2012-10-12T07:08:24Z</time></trkpt><trkpt lat="32.76606986666666898600" lon="35.28831256666666860156"><ele>177.91817341404538</ele><time>2012-10-12T07:08:28Z</time></trkpt><trkpt lat="32.76610188333333439914" lon="35.28830219999999684433"><ele>177.8314007324456</ele><time>2012-10-12T07:08:31Z</time></trkpt><trkpt lat="32.76617455000000234122" lon="35.28825208333333307564"><ele>177.60123529964517</ele><time>2012-10-12T07:08:34Z</time></trkpt><trkpt lat="32.76618441666666825540" lon="35.28815190000000256987"><ele>177.4739491276458</ele><time>2012-10-12T07:08:37Z</time></trkpt><trkpt lat="32.76621168333333145029" lon="35.28807900000000330465"><ele>177.31482619165544</ele><time>2012-10-12T07:08:40Z</time></trkpt><trkpt lat="32.76627363333333420314" lon="35.28805940000000163081"><ele>176.9816899963684</ele><time>2012-10-12T07:08:43Z</time></trkpt><trkpt lat="32.76637288333333231094" lon="35.28799035000000117179"><ele>176.1515063467811</ele><time>2012-10-12T07:08:46Z</time></trkpt><trkpt lat="32.76639476666666439542" lon="35.28788643333333396868"><ele>175.8614451228342</ele><time>2012-10-12T07:08:49Z</time></trkpt><trkpt lat="32.76641843333333525834" lon="35.28779606666666524006"><ele>175.4116216124018</ele><time>2012-10-12T07:08:52Z</time></trkpt><trkpt lat="32.76638468333333520377" lon="35.28774125000000339014"><ele>175.46682201962136</ele><time>2012-10-12T07:08:55Z</time></trkpt><trkpt lat="32.76633524999999735883" lon="35.28769371666666643250"><ele>175.63831868364326</ele><time>2012-10-12T07:08:58Z</time></trkpt><trkpt lat="32.76628440000000352939" lon="35.28767384999999734418"><ele>175.902236332397</ele><time>2012-10-12T07:09:01Z</time></trkpt><trkpt lat="32.76625593333333341661" lon="35.28760960000000324044"><ele>175.85708715484415</ele><time>2012-10-12T07:09:04Z</time></trkpt><trkpt lat="32.76630420000000043501" lon="35.28750396666666944157"><ele>175.18846081884334</ele><time>2012-10-12T07:09:07Z</time></trkpt><trkpt lat="32.76632623333333071969" lon="35.28739008333333515566"><ele>174.67103242368597</ele><time>2012-10-12T07:09:10Z</time></trkpt><trkpt lat="32.76622265000000311375" lon="35.28732848333333294022"><ele>175.00416501207124</ele><time>2012-10-12T07:09:13Z</time></trkpt><trkpt lat="32.76616656666666926867" lon="35.28727388333333436776"><ele>175.06356656047552</ele><time>2012-10-12T07:09:16Z</time></trkpt><trkpt lat="32.76614471666666617011" lon="35.28715473333333108030"><ele>174.75157518847536</ele><time>2012-10-12T07:09:19Z</time></trkpt><trkpt lat="32.76607285000000047148" lon="35.28702719999999715128"><ele>174.69119816605343</ele><time>2012-10-12T07:09:22Z</time></trkpt><trkpt lat="32.76596763333333228729" lon="35.28695406666666656292"><ele>175.04768258205544</ele><time>2012-10-12T07:09:25Z</time></trkpt><trkpt lat="32.76586458333333240489" lon="35.28689488333333201808"><ele>175.48534924964002</ele><time>2012-10-12T07:09:28Z</time></trkpt><trkpt lat="32.76578933333333054634" lon="35.28682446666666550072"><ele>175.79444537564106</ele><time>2012-10-12T07:09:31Z</time></trkpt><trkpt lat="32.76569828333333589399" lon="35.28680194999999741867"><ele>176.30591353839844</ele><time>2012-10-12T07:09:34Z</time></trkpt><trkpt lat="32.76562440000000009377" lon="35.28674579999999849633"><ele>176.6999748860051</ele><time>2012-10-12T07:09:37Z</time></trkpt><trkpt lat="32.76556324999999958436" lon="35.28664986666666436577"><ele>177.02191156759716</ele><time>2012-10-12T07:09:40Z</time></trkpt><trkpt lat="32.76550015000000115606" lon="35.28655489999999872452"><ele>177.4087015747758</ele><time>2012-10-12T07:09:43Z</time></trkpt><trkpt lat="32.76546961666666391011" lon="35.28639720000000323807"><ele>177.58889111639434</ele><time>2012-10-12T07:09:46Z</time></trkpt><trkpt lat="32.76542369999999948504" lon="35.28629693333333250393"><ele>177.94234602196624</ele><time>2012-10-12T07:09:49Z</time></trkpt><trkpt lat="32.76534070000000298251" lon="35.28627846666666556530"><ele>178.55007402515466</ele><time>2012-10-12T07:09:52Z</time></trkpt><trkpt lat="32.76526115000000061173" lon="35.28633273333333164601"><ele>179.1382476331721</ele><time>2012-10-12T07:09:55Z</time></trkpt><trkpt lat="32.76519389999999987140" lon="35.28641223333332987977"><ele>179.65596185717655</ele><time>2012-10-12T07:09:58Z</time></trkpt><trkpt lat="32.76513661666666621386" lon="35.28645946666666333158"><ele>180.10083204117896</ele><time>2012-10-12T07:10:01Z</time></trkpt><trkpt lat="32.76507903333333615592" lon="35.28644665000000202326"><ele>180.52656965635825</ele><time>2012-10-12T07:10:04Z</time></trkpt><trkpt lat="32.76500465000000161808" lon="35.28645809999999727324"><ele>181.0899865619659</ele><time>2012-10-12T07:10:07Z</time></trkpt><trkpt lat="32.76493721666666658621" lon="35.28642668333333176633"><ele>181.5740235863812</ele><time>2012-10-12T07:10:10Z</time></trkpt><trkpt lat="32.76488206666666513911" lon="35.28638810000000347600"><ele>181.95543269399752</ele><time>2012-10-12T07:10:13Z</time></trkpt><trkpt lat="32.76483121666666420424" lon="35.28639491666666572200"><ele>182.33741170560194</ele><time>2012-10-12T07:10:16Z</time></trkpt><trkpt lat="32.76477283333333190285" lon="35.28639521666666922783"><ele>182.77023327559863</ele><time>2012-10-12T07:10:19Z</time></trkpt><trkpt lat="32.76471561666666332258" lon="35.28639795000000134451"><ele>183.19691730001293</ele><time>2012-10-12T07:10:22Z</time></trkpt><trkpt lat="32.76466560000000072250" lon="35.28637334999999808360"><ele>183.5410874651809</ele><time>2012-10-12T07:10:25Z</time></trkpt><trkpt lat="32.76463276666666502024" lon="35.28635175000000145928"><ele>183.75893702760317</ele><time>2012-10-12T07:10:28Z</time></trkpt><trkpt lat="32.76460351666666781512" lon="35.28632253333333324008"><ele>183.9396118907821</ele><time>2012-10-12T07:10:31Z</time></trkpt><trkpt lat="32.76458790000000220743" lon="35.28627484999999808224"><ele>183.9967765859736</ele><time>2012-10-12T07:10:34Z</time></trkpt><trkpt lat="32.76458389999999809561" lon="35.28623746666666960436"><ele>183.98087999960975</ele><time>2012-10-12T07:10:37Z</time></trkpt><trkpt lat="32.76457466666666817900" lon="35.28626866666666472838"><ele>184.08479999957916</ele><time>2012-10-12T07:11:20Z</time></trkpt><trkpt lat="32.76455191666666877381" lon="35.28629398333333000437"><ele>184.27897999957304</ele><time>2012-10-12T07:11:39Z</time></trkpt><trkpt lat="32.76452773333333112760" lon="35.28633691666667004938"><ele>184.50461999961195</ele><time>2012-10-12T07:11:42Z</time></trkpt><trkpt lat="32.76450846666666905094" lon="35.28636596666666491728"><ele>184.67819999957257</ele><time>2012-10-12T07:11:45Z</time></trkpt><trkpt lat="32.76449646666666382089" lon="35.28639588333333421133"><ele>184.80049999961332</ele><time>2012-10-12T07:11:48Z</time></trkpt><trkpt lat="32.76452284999999875481" lon="35.28637439999999969586"><ele>184.58475999960055</ele><time>2012-10-12T07:12:14Z</time></trkpt><trkpt lat="32.76455331666666381807" lon="35.28636348333333216942"><ele>184.3522999996113</ele><time>2012-10-12T07:12:18Z</time></trkpt><trkpt lat="32.76459248333333107439" lon="35.28634788333333460741"><ele>184.05029028880847</ele><time>2012-10-12T07:12:21Z</time></trkpt><trkpt lat="32.76459791666666632182" lon="35.28628641666666965193"><ele>183.93793524959747</ele><time>2012-10-12T07:12:25Z</time></trkpt><trkpt lat="32.76459286666666770316" lon="35.28620813333333217088"><ele>183.8811199995837</ele><time>2012-10-12T07:12:28Z</time></trkpt><trkpt lat="32.76456979999999674646" lon="35.28614664999999916972"><ele>183.96536366042227</ele><time>2012-10-12T07:12:31Z</time></trkpt><trkpt lat="32.76453871666666373130" lon="35.28609438333333514493"><ele>184.09450776123023</ele><time>2012-10-12T07:12:34Z</time></trkpt><trkpt lat="32.76451506666666801948" lon="35.28604203333333089176"><ele>184.16018417880352</ele><time>2012-10-12T07:12:37Z</time></trkpt><trkpt lat="32.76448020000000127538" lon="35.28600889999999878910"><ele>184.31001502681204</ele><time>2012-10-12T07:12:40Z</time></trkpt><trkpt lat="32.76445011666666573547" lon="35.28598126666666701112"><ele>184.43047338843274</ele><time>2012-10-12T07:12:43Z</time></trkpt><trkpt lat="32.76442370000000181562" lon="35.28595656666666968704"><ele>184.5274315708278</ele><time>2012-10-12T07:12:46Z</time></trkpt><trkpt lat="32.76441348333333536402" lon="35.28592305000000095561"><ele>184.51071304442635</ele><time>2012-10-12T07:12:49Z</time></trkpt><trkpt lat="32.76439693333333025294" lon="35.28587976666666747860"><ele>184.5002937980575</ele><time>2012-10-12T07:12:52Z</time></trkpt><trkpt lat="32.76438816666667008803" lon="35.28582746666666736246"><ele>184.42316492763035</ele><time>2012-10-12T07:12:55Z</time></trkpt><trkpt lat="32.76437336666666766405" lon="35.28578954999999695019"><ele>184.4023480860376</ele><time>2012-10-12T07:12:58Z</time></trkpt><trkpt lat="32.76434473333333130540" lon="35.28573998333333605615"><ele>184.4049657340719</ele><time>2012-10-12T07:13:01Z</time></trkpt><trkpt lat="32.76432011666666710425" lon="35.28570913333333436412"><ele>184.4260969020621</ele><time>2012-10-12T07:13:04Z</time></trkpt><trkpt lat="32.76429723333333043911" lon="35.28567381666666591400"><ele>184.41898674207525</ele><time>2012-10-12T07:13:07Z</time></trkpt><trkpt lat="32.76429089999999888505" lon="35.28561164999999988368"><ele>184.2642530460752</ele><time>2012-10-12T07:13:10Z</time></trkpt><trkpt lat="32.76426898333333070923" lon="35.28556778333333454611"><ele>184.2094002988895</ele><time>2012-10-12T07:13:14Z</time></trkpt><trkpt lat="32.76423493333333425426" lon="35.28552390000000116288"><ele>184.18003413728505</ele><time>2012-10-12T07:13:17Z</time></trkpt><trkpt lat="32.76421870000000069467" lon="35.28549673333333203118"><ele>184.13936305888157</ele><time>2012-10-12T07:13:21Z</time></trkpt><trkpt lat="32.76419055000000213340" lon="35.28548885000000012724"><ele>184.19260988288576</ele><time>2012-10-12T07:13:29Z</time></trkpt><trkpt lat="32.76415544999999696074" lon="35.28547720000000254004"><ele>184.24875093731345</ele><time>2012-10-12T07:13:37Z</time></trkpt><trkpt lat="32.76411801666666434585" lon="35.28544741666666340052"><ele>184.23607688769522</ele><time>2012-10-12T07:13:40Z</time></trkpt><trkpt lat="32.76408068333333289956" lon="35.28541966666666951369"><ele>184.21864579172055</ele><time>2012-10-12T07:13:43Z</time></trkpt><trkpt lat="32.76404741666666353694" lon="35.28540399999999976899"><ele>184.1754497597976</ele><time>2012-10-12T07:13:46Z</time></trkpt><trkpt lat="32.76404348333333160781" lon="35.28532776666666848087"><ele>183.5173411246154</ele><time>2012-10-12T07:13:49Z</time></trkpt><trkpt lat="32.76402420000000148548" lon="35.28530281666666468254"><ele>183.33886688937736</ele><time>2012-10-12T07:13:52Z</time></trkpt><trkpt lat="32.76399825000000021191" lon="35.28527483333333236715"><ele>183.14400515979142</ele><time>2012-10-12T07:14:10Z</time></trkpt><trkpt lat="32.76398323333333451046" lon="35.28523895000000010214"><ele>182.8535344174015</ele><time>2012-10-12T07:14:14Z</time></trkpt><trkpt lat="32.76398886666666498968" lon="35.28520188333333607034"><ele>182.51255718703158</ele><time>2012-10-12T07:14:19Z</time></trkpt><trkpt lat="32.76399263333333067294" lon="35.28516933333333582823"><ele>182.21611257583214</ele><time>2012-10-12T07:14:24Z</time></trkpt><trkpt lat="32.76396706666666602814" lon="35.28518618333333023429"><ele>182.41048711657925</ele><time>2012-10-12T07:14:27Z</time></trkpt><trkpt lat="32.76394485000000145192" lon="35.28520571666666683086"><ele>182.62561838940508</ele><time>2012-10-12T07:14:32Z</time></trkpt><trkpt lat="32.76389791666666440051" lon="35.28521340000000350301"><ele>182.78023159984443</ele><time>2012-10-12T07:14:36Z</time></trkpt><trkpt lat="32.76387453333333610317" lon="35.28519318333333387727"><ele>182.6358336382104</ele><time>2012-10-12T07:14:40Z</time></trkpt><trkpt lat="32.76386358333333248538" lon="35.28515378333333529781"><ele>182.28971439583216</ele><time>2012-10-12T07:14:43Z</time></trkpt><trkpt lat="32.76384556666666725278" lon="35.28511933333333416840"><ele>181.99807564782188</ele><time>2012-10-12T07:14:47Z</time></trkpt><trkpt lat="32.76383413333333294304" lon="35.28508568333333528244"><ele>181.7008385854359</ele><time>2012-10-12T07:14:52Z</time></trkpt><trkpt lat="32.76382731666666359160" lon="35.28505169999999679931"><ele>181.39202785739303</ele><time>2012-10-12T07:14:57Z</time></trkpt><trkpt lat="32.76380255000000119026" lon="35.28502696666666338388"><ele>181.19173875658876</ele><time>2012-10-12T07:15:07Z</time></trkpt><trkpt lat="32.76377443333333161490" lon="35.28498768333333401870"><ele>180.85330669903294</ele><time>2012-10-12T07:15:10Z</time></trkpt><trkpt lat="32.76373811666666568954" lon="35.28495201666666503115"><ele>180.51550672744875</ele><time>2012-10-12T07:15:13Z</time></trkpt><trkpt lat="32.76375248333333445316" lon="35.28491238333333512855"><ele>180.156526634245</ele><time>2012-10-12T07:15:16Z</time></trkpt><trkpt lat="32.76373901666666910160" lon="35.28488335000000120090"><ele>179.85485519068797</ele><time>2012-10-12T07:15:19Z</time></trkpt><trkpt lat="32.76369946666666521651" lon="35.28486199999999683996"><ele>179.5541140478407</ele><time>2012-10-12T07:15:22Z</time></trkpt><trkpt lat="32.76366678333333481987" lon="35.28482385000000220998"><ele>179.09584477950594</ele><time>2012-10-12T07:15:25Z</time></trkpt><trkpt lat="32.76367111666666431802" lon="35.28477931666666478350"><ele>178.66424641625738</ele><time>2012-10-12T07:15:28Z</time></trkpt><trkpt lat="32.76363983333333607106" lon="35.28474423333333476194"><ele>178.22461552790955</ele><time>2012-10-12T07:15:31Z</time></trkpt><trkpt lat="32.76360480000000308110" lon="35.28471069999999798483"><ele>177.77989252468083</ele><time>2012-10-12T07:15:34Z</time></trkpt><trkpt lat="32.76353748333333015808" lon="35.28468205000000068594"><ele>177.27324900749622</ele><time>2012-10-12T07:15:37Z</time></trkpt><trkpt lat="32.76348863333333127912" lon="35.28464833333333672272"><ele>176.7564717599345</ele><time>2012-10-12T07:15:40Z</time></trkpt><trkpt lat="32.76344948333333206847" lon="35.28462460000000078253"><ele>176.36787370711372</ele><time>2012-10-12T07:15:43Z</time></trkpt><trkpt lat="32.76338379999999972370" lon="35.28462891666666934043"><ele>176.1913921039433</ele><time>2012-10-12T07:15:46Z</time></trkpt><trkpt lat="32.76340353333333155206" lon="35.28459693333333291321"><ele>175.90363560950382</ele><time>2012-10-12T07:15:52Z</time></trkpt><trkpt lat="32.76337781666666870706" lon="35.28458333333333030168"><ele>175.66013999989104</ele><time>2012-10-12T07:15:58Z</time></trkpt><trkpt lat="32.76334731666666755245" lon="35.28460685000000296441"><ele>175.81700940515532</ele><time>2012-10-12T07:16:11Z</time></trkpt><trkpt lat="32.76330475000000319596" lon="35.28462236666666740348"><ele>175.84689983596473</ele><time>2012-10-12T07:16:14Z</time></trkpt><trkpt lat="32.76327083333333689552" lon="35.28460141666666771698"><ele>175.4860324999747</ele><time>2012-10-12T07:16:17Z</time></trkpt><trkpt lat="32.76325556666666471983" lon="35.28456915000000293503"><ele>175.1078216935035</ele><time>2012-10-12T07:16:21Z</time></trkpt><trkpt lat="32.76323278333333632872" lon="35.28454583333333260953"><ele>174.84009029989397</ele><time>2012-10-12T07:16:26Z</time></trkpt><trkpt lat="32.76320623333333514893" lon="35.28450860000000233185"><ele>174.44584200631616</ele><time>2012-10-12T07:16:29Z</time></trkpt><trkpt lat="32.76317566666666891706" lon="35.28449403333333123101"><ele>174.2155853278837</ele><time>2012-10-12T07:16:32Z</time></trkpt><trkpt lat="32.76312204999999977417" lon="35.28449588333333508672"><ele>174.03066351230697</ele><time>2012-10-12T07:16:35Z</time></trkpt><trkpt lat="32.76307243333333474311" lon="35.28449213333333034370"><ele>173.81513652467598</ele><time>2012-10-12T07:16:38Z</time></trkpt><trkpt lat="32.76301708333333095879" lon="35.28448623333333245000"><ele>173.55990065988073</ele><time>2012-10-12T07:16:41Z</time></trkpt><trkpt lat="32.76294336666666850988" lon="35.28444648333333333312"><ele>172.95184160870735</ele><time>2012-10-12T07:16:44Z</time></trkpt><trkpt lat="32.76286513333333516584" lon="35.28442290000000269856"><ele>172.60242543667098</ele><time>2012-10-12T07:16:47Z</time></trkpt><trkpt lat="32.76280584999999945239" lon="35.28436560000000099535"><ele>172.07280501425194</ele><time>2012-10-12T07:16:50Z</time></trkpt><trkpt lat="32.76279321666666533019" lon="35.28430923333333169012"><ele>171.59814620862824</ele><time>2012-10-12T07:16:53Z</time></trkpt><trkpt lat="32.76275456666666485717" lon="35.28425595000000214441"><ele>171.13187912705706</ele><time>2012-10-12T07:16:56Z</time></trkpt><trkpt lat="32.76269494999999665197" lon="35.28421043333333528835"><ele>170.72063652865214</ele><time>2012-10-12T07:16:59Z</time></trkpt><trkpt lat="32.76265071666666983674" lon="35.28416244999999662468"><ele>170.3066248482114</ele><time>2012-10-12T07:17:02Z</time></trkpt><trkpt lat="32.76260959999999755610" lon="35.28410904999999786469"><ele>169.85725670701632</ele><time>2012-10-12T07:17:05Z</time></trkpt><trkpt lat="32.76257276666666484743" lon="35.28409571666666977308"><ele>169.73281557505706</ele><time>2012-10-12T07:17:08Z</time></trkpt><trkpt lat="32.76253281666666339333" lon="35.28410856666666717274"><ele>169.813764426235</ele><time>2012-10-12T07:17:11Z</time></trkpt><trkpt lat="32.76247801666666958909" lon="35.28411193333333528699"><ele>169.8116226382482</ele><time>2012-10-12T07:17:14Z</time></trkpt><trkpt lat="32.76242911666666657311" lon="35.28411301666666588517"><ele>169.7944761626243</ele><time>2012-10-12T07:17:17Z</time></trkpt><trkpt lat="32.76237073333333427172" lon="35.28413271666666872761"><ele>169.91394958864558</ele><time>2012-10-12T07:17:20Z</time></trkpt><trkpt lat="32.76231446666666613510" lon="35.28411098333333484334"><ele>169.71922680463868</ele><time>2012-10-12T07:17:23Z</time></trkpt><trkpt lat="32.76226253333333460205" lon="35.28408908333333471319"><ele>169.52889977583686</ele><time>2012-10-12T07:17:26Z</time></trkpt><trkpt lat="32.76219956666666632827" lon="35.28402719999999703759"><ele>169.04223662700127</ele><time>2012-10-12T07:17:29Z</time></trkpt><trkpt lat="32.76209084999999987531" lon="35.28396351666666674873"><ele>168.53963110421998</ele><time>2012-10-12T07:17:32Z</time></trkpt><trkpt lat="32.76199824999999776765" lon="35.28386809999999940146"><ele>167.63165038784896</ele><time>2012-10-12T07:17:35Z</time></trkpt><trkpt lat="32.76192621666666582314" lon="35.28384783333333274413"><ele>167.30518540385077</ele><time>2012-10-12T07:17:38Z</time></trkpt><trkpt lat="32.76186811666666898191" lon="35.28387583333333310520"><ele>167.3504827398607</ele><time>2012-10-12T07:17:41Z</time></trkpt><trkpt lat="32.76179770000000246455" lon="35.28386069999999818947"><ele>167.0659877614485</ele><time>2012-10-12T07:17:44Z</time></trkpt><trkpt lat="32.76172871666666708279" lon="35.28384391666666886067"><ele>166.77716164186842</ele><time>2012-10-12T07:17:47Z</time></trkpt><trkpt lat="32.76166221666666444889" lon="35.28379884999999660522"><ele>166.3114169690225</ele><time>2012-10-12T07:17:50Z</time></trkpt><trkpt lat="32.76159189999999910015" lon="35.28372294999999780885"><ele>165.72900462218584</ele><time>2012-10-12T07:17:53Z</time></trkpt><trkpt lat="32.76153213333333269475" lon="35.28370383333333393239"><ele>165.52880755179226</ele><time>2012-10-12T07:17:56Z</time></trkpt><trkpt lat="32.76146719999999845641" lon="35.28373739999999969541"><ele>165.48315824618587</ele><time>2012-10-12T07:17:59Z</time></trkpt><trkpt lat="32.76141485000000130867" lon="35.28376829999999841903"><ele>165.50978412703776</ele><time>2012-10-12T07:18:02Z</time></trkpt><trkpt lat="32.76134378333333074806" lon="35.28377893333333048531"><ele>165.4025873886193</ele><time>2012-10-12T07:18:05Z</time></trkpt><trkpt lat="32.76128986666666520478" lon="35.28379590000000121108"><ele>165.373715027046</ele><time>2012-10-12T07:18:08Z</time></trkpt><trkpt lat="32.76125423333333230858" lon="35.28378786666666400151"><ele>165.23759083502284</ele><time>2012-10-12T07:18:11Z</time></trkpt><trkpt lat="32.76121063333333438550" lon="35.28384336666666598603"><ele>165.56549276939276</ele><time>2012-10-12T07:18:14Z</time></trkpt><trkpt lat="32.76117808333333414339" lon="35.28385734999999812089"><ele>165.65521716578579</ele><time>2012-10-12T07:18:17Z</time></trkpt><trkpt lat="32.76113508333333612654" lon="35.28386496666666971578"><ele>165.7088246838165</ele><time>2012-10-12T07:18:20Z</time></trkpt><trkpt lat="32.76110863333333611536" lon="35.28389321666666944566"><ele>165.88845433021459</ele><time>2012-10-12T07:18:23Z</time></trkpt><trkpt lat="32.76108278333333601040" lon="35.28390350000000097452"><ele>165.9579615718037</ele><time>2012-10-12T07:18:26Z</time></trkpt><trkpt lat="32.76104518333333004421" lon="35.28386483333333245582"><ele>165.7228684837953</ele><time>2012-10-12T07:18:29Z</time></trkpt><trkpt lat="32.76100256666666865613" lon="35.28388068333333649207"><ele>165.83066299422052</ele><time>2012-10-12T07:18:32Z</time></trkpt><trkpt lat="32.76100120000000259779" lon="35.28393545000000131040"><ele>166.17914154220682</ele><time>2012-10-12T07:18:43Z</time></trkpt><trkpt lat="32.76097533333333444716" lon="35.28396364999999690326"><ele>166.36640284777877</ele><time>2012-10-12T07:18:46Z</time></trkpt><trkpt lat="32.76094824999999843840" lon="35.28397566666667017898"><ele>166.45205667982233</ele><time>2012-10-12T07:19:09Z</time></trkpt><trkpt lat="32.76097291666666677656" lon="35.28399904999999847632"><ele>166.59367094978813</ele><time>2012-10-12T07:19:22Z</time></trkpt><trkpt lat="32.76095736666666624615" lon="35.28402528333333521005"><ele>166.7677021942097</ele><time>2012-10-12T07:19:27Z</time></trkpt><trkpt lat="32.76093484999999816409" lon="35.28404663333333246555"><ele>166.91441695259255</ele><time>2012-10-12T07:19:31Z</time></trkpt><trkpt lat="32.76090393333333139481" lon="35.28405876666666785013"><ele>167.0064695454063</ele><time>2012-10-12T07:19:42Z</time></trkpt><trkpt lat="32.76086784999999679258" lon="35.28407334999999989122"><ele>167.11803821139893</ele><time>2012-10-12T07:19:45Z</time></trkpt><trkpt lat="32.76082540000000165037" lon="35.28408886666666433030"><ele>167.2403912125824</ele><time>2012-10-12T07:19:48Z</time></trkpt><trkpt lat="32.76077273333333295113" lon="35.28412325000000038244"><ele>167.49602128780165</ele><time>2012-10-12T07:19:51Z</time></trkpt><trkpt lat="32.76069866666666996480" lon="35.28417113333333077207"><ele>167.8611461757798</ele><time>2012-10-12T07:19:54Z</time></trkpt><trkpt lat="32.76063173333333367054" lon="35.28418296666666975625"><ele>167.98327195502148</ele><time>2012-10-12T07:19:57Z</time></trkpt><trkpt lat="32.76055831666666762203" lon="35.28418934999999834190"><ele>168.07370314418975</ele><time>2012-10-12T07:20:00Z</time></trkpt><trkpt lat="32.76049393333333625833" lon="35.28420423333333388882"><ele>168.21994018220508</ele><time>2012-10-12T07:20:03Z</time></trkpt><trkpt lat="32.76042669999999645825" lon="35.28421734999999870297"><ele>168.3581677269973</ele><time>2012-10-12T07:20:06Z</time></trkpt><trkpt lat="32.76034643333333207238" lon="35.28424321666666685360"><ele>168.5545901958074</ele><time>2012-10-12T07:20:09Z</time></trkpt><trkpt lat="32.76028314999999935253" lon="35.28429541666666580113"><ele>168.88334004979865</ele><time>2012-10-12T07:20:12Z</time></trkpt><trkpt lat="32.76021968333333234114" lon="35.28433619999999848460"><ele>169.09838426379176</ele><time>2012-10-12T07:20:15Z</time></trkpt><trkpt lat="32.76015858333333596875" lon="35.28436874999999872671"><ele>169.2343387497928</ele><time>2012-10-12T07:20:18Z</time></trkpt><trkpt lat="32.76009316666666393303" lon="35.28440870000000018081"><ele>169.37299595979164</ele><time>2012-10-12T07:20:21Z</time></trkpt><trkpt lat="32.76004999999999967031" lon="35.28442768333333390274"><ele>169.41023599979292</ele><time>2012-10-12T07:20:24Z</time></trkpt><trkpt lat="32.75999908333333365817" lon="35.28446921666666469264"><ele>169.51926316978145</ele><time>2012-10-12T07:20:27Z</time></trkpt><trkpt lat="32.75995433333333295423" lon="35.28448385000000087075"><ele>169.50528011978813</ele><time>2012-10-12T07:20:30Z</time></trkpt><trkpt lat="32.75990844999999751508" lon="35.28453143333333485998"><ele>169.59651040378557</ele><time>2012-10-12T07:20:33Z</time></trkpt><trkpt lat="32.75985161666666556357" lon="35.28457061666667016198"><ele>169.6040559777911</ele><time>2012-10-12T07:20:36Z</time></trkpt><trkpt lat="32.75981046666666429701" lon="35.28461223333333407481"><ele>169.77842761906894</ele><time>2012-10-12T07:20:39Z</time></trkpt><trkpt lat="32.75977516666666389256" lon="35.28465691666666970150"><ele>170.05817333988642</ele><time>2012-10-12T07:20:42Z</time></trkpt><trkpt lat="32.75973188333333041555" lon="35.28467291666666483252"><ele>170.08985704984718</ele><time>2012-10-12T07:20:45Z</time></trkpt><trkpt lat="32.75969348333333641676" lon="35.28470441666666346237"><ele>170.26225424584933</ele><time>2012-10-12T07:20:48Z</time></trkpt><trkpt lat="32.75965804999999875236" lon="35.28474573333333097480"><ele>170.52600705904632</ele><time>2012-10-12T07:20:51Z</time></trkpt><trkpt lat="32.75960071666666806323" lon="35.28478093333333021064"><ele>170.69661367664588</ele><time>2012-10-12T07:20:54Z</time></trkpt><trkpt lat="32.75952319999999673428" lon="35.28480606666666830051"><ele>170.84668537584645</ele><time>2012-10-12T07:20:57Z</time></trkpt><trkpt lat="32.75949523333333246455" lon="35.28481973333333598930"><ele>170.94152675185288</ele><time>2012-10-12T07:21:00Z</time></trkpt><trkpt lat="32.75941673333333170604" lon="35.28484598333333366327"><ele>171.09112607182686</ele><time>2012-10-12T07:21:03Z</time></trkpt><trkpt lat="32.75935161666666317615" lon="35.28487568333333257442"><ele>171.24605495381238</ele><time>2012-10-12T07:21:06Z</time></trkpt><trkpt lat="32.75929605000000321979" lon="35.28492898333333016581"><ele>171.53324371380344</ele><time>2012-10-12T07:21:09Z</time></trkpt><trkpt lat="32.75924753333333683258" lon="35.28496336666666621795"><ele>171.6764106078196</ele><time>2012-10-12T07:21:12Z</time></trkpt><trkpt lat="32.75919291666666310903" lon="35.28500868333333073679"><ele>171.84578114979377</ele><time>2012-10-12T07:21:15Z</time></trkpt><trkpt lat="32.75913766666666759875" lon="35.28504893333333569672"><ele>171.95182271982654</ele><time>2012-10-12T07:21:18Z</time></trkpt><trkpt lat="32.75907660000000021228" lon="35.28507581666666936826"><ele>171.9481244078208</ele><time>2012-10-12T07:21:21Z</time></trkpt><trkpt lat="32.75900773333333404480" lon="35.28510348333333013215"><ele>171.90431195179</ele><time>2012-10-12T07:21:24Z</time></trkpt><trkpt lat="32.75894604999999870643" lon="35.28513929999999731990"><ele>171.88384030778403</ele><time>2012-10-12T07:21:27Z</time></trkpt><trkpt lat="32.75888391666666876745" lon="35.28515910000000133095"><ele>171.77629421980282</ele><time>2012-10-12T07:21:30Z</time></trkpt><trkpt lat="32.75882078333333424780" lon="35.28515088333332982984"><ele>171.56642618177585</ele><time>2012-10-12T07:21:33Z</time></trkpt><trkpt lat="32.75874651666666892424" lon="35.28513610000000255695"><ele>171.33081999971643</ele><time>2012-10-12T07:21:36Z</time></trkpt><trkpt lat="32.75869583333333423525" lon="35.28513278333333147430"><ele>171.38367999970745</ele><time>2012-10-12T07:21:39Z</time></trkpt><trkpt lat="32.75863021666666696774" lon="35.28516400000000174941"><ele>171.53733999971666</ele><time>2012-10-12T07:21:42Z</time></trkpt><trkpt lat="32.75856160000000016908" lon="35.28519026666666746905"><ele>171.6827199997144</ele><time>2012-10-12T07:21:45Z</time></trkpt><trkpt lat="32.75850456666666588035" lon="35.28521493333333580722"><ele>171.81035999971945</ele><time>2012-10-12T07:21:48Z</time></trkpt><trkpt lat="32.75843558333333049859" lon="35.28525373333333448045"><ele>171.98625999971856</ele><time>2012-10-12T07:21:51Z</time></trkpt><trkpt lat="32.75836991666666619949" lon="35.28527191666666595893"><ele>172.10869999971115</ele><time>2012-10-12T07:21:54Z</time></trkpt><trkpt lat="32.75831999999999766260" lon="35.28531325000000151704"><ele>172.2677999997186</ele><time>2012-10-12T07:21:57Z</time></trkpt><trkpt lat="32.75826045000000164009" lon="35.28534108333333563223"><ele>172.4060599997156</ele><time>2012-10-12T07:22:00Z</time></trkpt><trkpt lat="32.75819340000000323698" lon="35.28537676666666556002"><ele>172.57215999970538</ele><time>2012-10-12T07:22:03Z</time></trkpt><trkpt lat="32.75814125000000132104" lon="35.28538958333333397377"><ele>172.66549999971176</ele><time>2012-10-12T07:22:06Z</time></trkpt><trkpt lat="32.75807869999999866195" lon="35.28538061666666436622"><ele>172.71903999970783</ele><time>2012-10-12T07:22:09Z</time></trkpt><trkpt lat="32.75802745000000015807" lon="35.28539254999999741358"><ele>172.80917999970526</ele><time>2012-10-12T07:22:12Z</time></trkpt><trkpt lat="32.75794663333333289756" lon="35.28539593333333357350"><ele>172.91427999971268</ele><time>2012-10-12T07:22:15Z</time></trkpt><trkpt lat="32.75789516666666401079" lon="35.28535018333333539431"><ele>172.7991316197531</ele><time>2012-10-12T07:22:18Z</time></trkpt><trkpt lat="32.75784546666666585679" lon="35.28530941666666365109"><ele>172.6267006397361</ele><time>2012-10-12T07:22:21Z</time></trkpt><trkpt lat="32.75778574999999648298" lon="35.28524071666666372948"><ele>172.42937046972034</ele><time>2012-10-12T07:22:24Z</time></trkpt><trkpt lat="32.75773541666666943684" lon="35.28515986666666748306"><ele>172.2838039997164</ele><time>2012-10-12T07:22:27Z</time></trkpt><trkpt lat="32.75770313333333660921" lon="35.28509618333333008877"><ele>172.21108389570097</ele><time>2012-10-12T07:22:30Z</time></trkpt><trkpt lat="32.75766251666667017162" lon="35.28505894999999981110"><ele>172.1860985736938</ele><time>2012-10-12T07:22:33Z</time></trkpt><trkpt lat="32.75758925000000232330" lon="35.28506124999999826741"><ele>172.199059249685</ele><time>2012-10-12T07:22:36Z</time></trkpt><trkpt lat="32.75751813333333473111" lon="35.28506271666666549436"><ele>172.20967828767687</ele><time>2012-10-12T07:22:39Z</time></trkpt><trkpt lat="32.75745109999999726824" lon="35.28510479999999915890"><ele>172.17956201567262</ele><time>2012-10-12T07:22:42Z</time></trkpt><trkpt lat="32.75737254999999947813" lon="35.28513283333333561131"><ele>172.1248768196614</ele><time>2012-10-12T07:22:45Z</time></trkpt><trkpt lat="32.75723109999999849151" lon="35.28509524999999769079"><ele>172.16977837964896</ele><time>2012-10-12T07:22:48Z</time></trkpt><trkpt lat="32.75706919999999655602" lon="35.28509950000000117143"><ele>172.31380492749477</ele><time>2012-10-12T07:22:51Z</time></trkpt><trkpt lat="32.75693581666666887031" lon="35.28524158333333105020"><ele>173.33505570543844</ele><time>2012-10-12T07:22:54Z</time></trkpt><trkpt lat="32.75683213333333299033" lon="35.28541118333333059809"><ele>173.7386504250722</ele><time>2012-10-12T07:22:57Z</time></trkpt><trkpt lat="32.75675288333333412538" lon="35.28551801666666420942"><ele>174.62129524635742</ele><time>2012-10-12T07:23:00Z</time></trkpt><trkpt lat="32.75669401666666402662" lon="35.28560844999999801530"><ele>175.15752875278983</ele><time>2012-10-12T07:23:03Z</time></trkpt><trkpt lat="32.75665070000000156369" lon="35.28568260000000123000"><ele>175.45785094675708</ele><time>2012-10-12T07:23:06Z</time></trkpt><trkpt lat="32.75660288333333625133" lon="35.28577213333333162382"><ele>175.68173987795763</ele><time>2012-10-12T07:23:09Z</time></trkpt><trkpt lat="32.75656098333332977290" lon="35.28584808333333455721"><ele>175.79163757359223</ele><time>2012-10-12T07:23:12Z</time></trkpt><trkpt lat="32.75653251666666676556" lon="35.28590896666666765213"><ele>175.79753509637683</ele><time>2012-10-12T07:23:15Z</time></trkpt><trkpt lat="32.75650153333333491901" lon="35.28594859999999755473"><ele>175.82587457877938</ele><time>2012-10-12T07:23:18Z</time></trkpt><trkpt lat="32.75645826666666948768" lon="35.28600436666666695373"><ele>175.81080222676792</ele><time>2012-10-12T07:23:21Z</time></trkpt><trkpt lat="32.75643259999999656884" lon="35.28602813333333187984"><ele>175.80615342039084</ele><time>2012-10-12T07:23:24Z</time></trkpt><trkpt lat="32.75642373333333523533" lon="35.28606218333333544024"><ele>175.7040149979668</ele><time>2012-10-12T07:23:32Z</time></trkpt><trkpt lat="32.75639608333333541168" lon="35.28605153333333532828"><ele>175.81505496755724</ele><time>2012-10-12T07:24:44Z</time></trkpt><trkpt lat="32.75638673333333628079" lon="35.28602074999999871352"><ele>175.96925432755995</ele><time>2012-10-12T07:25:13Z</time></trkpt><trkpt lat="32.75641304999999903202" lon="35.28601270000000056370"><ele>175.92235472516907</ele><time>2012-10-12T07:25:26Z</time></trkpt><trkpt lat="32.75638260000000201444" lon="35.28601653333333132423"><ele>175.999588466764</ele><time>2012-10-12T07:26:55Z</time></trkpt><trkpt lat="32.75638004999999708389" lon="35.28598146666666934834"><ele>176.15860102995353</ele><time>2012-10-12T07:29:32Z</time></trkpt><trkpt lat="32.75636791666666880474" lon="35.28594118333333540249"><ele>176.38096636952724</ele><time>2012-10-12T07:29:35Z</time></trkpt><trkpt lat="32.75633818333333380224" lon="35.28588913333333465516"><ele>176.75278136432033</ele><time>2012-10-12T07:29:38Z</time></trkpt><trkpt lat="32.75628226666666620304" lon="35.28581654999999983602"><ele>177.4194416123064</ele><time>2012-10-12T07:29:41Z</time></trkpt><trkpt lat="32.75623755000000159043" lon="35.28575581666666494129"><ele>178.03979999949058</ele><time>2012-10-12T07:29:44Z</time></trkpt><trkpt lat="32.75619005000000072414" lon="35.28568880000000262953"><ele>178.72689999946905</ele><time>2012-10-12T07:29:47Z</time></trkpt><trkpt lat="32.75614300000000156388" lon="35.28560901666666893561"><ele>179.48789999946544</ele><time>2012-10-12T07:29:50Z</time></trkpt><trkpt lat="32.75609578333333615774" lon="35.28555546666666486999"><ele>180.09249999948173</ele><time>2012-10-12T07:29:53Z</time></trkpt><trkpt lat="32.75606236666666859492" lon="35.28549476666666606661"><ele>180.65719999947945</ele><time>2012-10-12T07:29:56Z</time></trkpt><trkpt lat="32.75602769999999708261" lon="35.28544146666666847523"><ele>181.1849999994936</ele><time>2012-10-12T07:29:59Z</time></trkpt><trkpt lat="32.75597520000000173468" lon="35.28539711666666534029"><ele>181.83597701702186</ele><time>2012-10-12T07:30:02Z</time></trkpt><trkpt lat="32.75595403333333166529" lon="35.28534296666666847386"><ele>182.49490210180355</ele><time>2012-10-12T07:30:05Z</time></trkpt><trkpt lat="32.75592879999999951224" lon="35.28528233333333474775"><ele>183.26719756738834</ele><time>2012-10-12T07:30:08Z</time></trkpt><trkpt lat="32.75591320000000195023" lon="35.28522578333333115097"><ele>183.950621336997</ele><time>2012-10-12T07:30:11Z</time></trkpt><trkpt lat="32.75589994999999987613" lon="35.28517560000000230502"><ele>184.56506974015926</ele><time>2012-10-12T07:30:14Z</time></trkpt><trkpt lat="32.75588996666666474766" lon="35.28511885000000347645"><ele>185.23089473055418</ele><time>2012-10-12T07:30:17Z</time></trkpt><trkpt lat="32.75588034999999820229" lon="35.28505028333333370938"><ele>186.0260062961766</ele><time>2012-10-12T07:30:20Z</time></trkpt><trkpt lat="32.75587536666666466090" lon="35.28501130000000074460"><ele>186.47854379776993</ele><time>2012-10-12T07:30:23Z</time></trkpt><trkpt lat="32.75588433333333426845" lon="35.28493749999999806732"><ele>187.15785999936202</ele><time>2012-10-12T07:30:26Z</time></trkpt><trkpt lat="32.75588178333333644332" lon="35.28486074999999999591"><ele>187.98048883530848</ele><time>2012-10-12T07:30:29Z</time></trkpt><trkpt lat="32.75588706666666638512" lon="35.28479914999999778047"><ele>188.56009418176183</ele><time>2012-10-12T07:30:32Z</time></trkpt><trkpt lat="32.75589348333333106211" lon="35.28470878333333615728"><ele>189.41635586252463</ele><time>2012-10-12T07:30:35Z</time></trkpt><trkpt lat="32.75589533333333491782" lon="35.28461990000000270129"><ele>190.30626803126793</ele><time>2012-10-12T07:30:38Z</time></trkpt><trkpt lat="32.75590394999999688253" lon="35.28453501666666625169"><ele>191.2778703236801</ele><time>2012-10-12T07:30:41Z</time></trkpt><trkpt lat="32.75591816666666744595" lon="35.28445271666666371857"><ele>192.29158160326034</ele><time>2012-10-12T07:30:44Z</time></trkpt><trkpt lat="32.75593613333333564697" lon="35.28437571666666627834"><ele>193.16508826799733</ele><time>2012-10-12T07:30:47Z</time></trkpt><trkpt lat="32.75596223333333512073" lon="35.28429436666666418887"><ele>193.97210948883108</ele><time>2012-10-12T07:30:50Z</time></trkpt><trkpt lat="32.75598966666666456149" lon="35.28421333333333365090"><ele>194.7365167992446</ele><time>2012-10-12T07:30:53Z</time></trkpt><trkpt lat="32.75600801666666939127" lon="35.28412325000000038244"><ele>195.7482363931667</ele><time>2012-10-12T07:30:56Z</time></trkpt><trkpt lat="32.75603493333333204873" lon="35.28403328333333632827"><ele>196.6105848535875</ele><time>2012-10-12T07:30:59Z</time></trkpt><trkpt lat="32.75605268333332986685" lon="35.28394101666666671235"><ele>197.6306758644599</ele><time>2012-10-12T07:31:02Z</time></trkpt><trkpt lat="32.75606545000000124901" lon="35.28384814999999719021"><ele>198.72660932281886</ele><time>2012-10-12T07:31:05Z</time></trkpt><trkpt lat="32.75608736666666942483" lon="35.28375615000000209420"><ele>199.64673915672034</ele><time>2012-10-12T07:31:08Z</time></trkpt><trkpt lat="32.75610799999999755983" lon="35.28366616666666999436"><ele>200.29325343924307</ele><time>2012-10-12T07:31:11Z</time></trkpt><trkpt lat="32.75612885000000318314" lon="35.28357568333333205146"><ele>200.8912235295842</ele><time>2012-10-12T07:31:14Z</time></trkpt><trkpt lat="32.75614666666666607853" lon="35.28348898333333494293"><ele>201.47479567921562</ele><time>2012-10-12T07:31:17Z</time></trkpt><trkpt lat="32.75617481666666463980" lon="35.28341753333333485898"><ele>201.67072502644143</ele><time>2012-10-12T07:31:20Z</time></trkpt><trkpt lat="32.75618501666667015115" lon="35.28331998333333530127"><ele>202.4613154367157</ele><time>2012-10-12T07:31:23Z</time></trkpt><trkpt lat="32.75620779999999854226" lon="35.28322228333333043793"><ele>202.96744971765912</ele><time>2012-10-12T07:31:26Z</time></trkpt><trkpt lat="32.75622293333333345799" lon="35.28312361666666419069"><ele>203.61448350001135</ele><time>2012-10-12T07:31:29Z</time></trkpt><trkpt lat="32.75624118333333001374" lon="35.28303613333333288438"><ele>204.05561950646282</ele><time>2012-10-12T07:31:32Z</time></trkpt><trkpt lat="32.75626210000000071432" lon="35.28294781666666324327"><ele>204.41110275678642</ele><time>2012-10-12T07:31:35Z</time></trkpt><trkpt lat="32.75628464999999778229" lon="35.28285711666666912834"><ele>204.6715913060211</ele><time>2012-10-12T07:31:38Z</time></trkpt><trkpt lat="32.75629585000000076889" lon="35.28275901666666669598"><ele>205.23426868277136</ele><time>2012-10-12T07:31:41Z</time></trkpt><trkpt lat="32.75631626666666562642" lon="35.28267499999999756710"><ele>205.46266079923606</ele><time>2012-10-12T07:31:44Z</time></trkpt><trkpt lat="32.75633306666667010631" lon="35.28257746666666605506"><ele>205.89625374631612</ele><time>2012-10-12T07:31:47Z</time></trkpt><trkpt lat="32.75634550000000189129" lon="35.28248548333333189930"><ele>206.38923633116084</ele><time>2012-10-12T07:31:50Z</time></trkpt><trkpt lat="32.75635893333333115152" lon="35.28239771666666513283"><ele>206.82618457205757</ele><time>2012-10-12T07:31:53Z</time></trkpt><trkpt lat="32.75637753333333535011" lon="35.28231173333333003939"><ele>207.13173479597623</ele><time>2012-10-12T07:31:56Z</time></trkpt><trkpt lat="32.75638396666666807278" lon="35.28221229999999764004"><ele>207.83736078158364</ele><time>2012-10-12T07:31:59Z</time></trkpt><trkpt lat="32.75639354999999852680" lon="35.28212081666666932733"><ele>208.40445174440745</ele><time>2012-10-12T07:32:02Z</time></trkpt><trkpt lat="32.75639951666666860319" lon="35.28203333333333091559"><ele>208.7048459992586</ele><time>2012-10-12T07:32:05Z</time></trkpt><trkpt lat="32.75639053333333094997" lon="35.28194628333333326964"><ele>209.09897267135733</ele><time>2012-10-12T07:32:08Z</time></trkpt><trkpt lat="32.75637551666666524852" lon="35.28185983333333552991"><ele>209.60840141933983</ele><time>2012-10-12T07:32:11Z</time></trkpt><trkpt lat="32.75636358333333220116" lon="35.28177641666666630726"><ele>210.02959644934705</ele><time>2012-10-12T07:32:14Z</time></trkpt><trkpt lat="32.75634828333333103956" lon="35.28170126666666561732"><ele>210.4879856553792</ele><time>2012-10-12T07:32:17Z</time></trkpt><trkpt lat="32.75633034999999892989" lon="35.28161868333333472947"><ele>210.9944093173586</ele><time>2012-10-12T07:32:20Z</time></trkpt><trkpt lat="32.75631005000000328664" lon="35.28153309999999720503"><ele>211.52903888329246</ele><time>2012-10-12T07:32:23Z</time></trkpt><trkpt lat="32.75628866666666993979" lon="35.28145229999999799020"><ele>212.05131967930225</ele><time>2012-10-12T07:32:26Z</time></trkpt><trkpt lat="32.75626851666666539131" lon="35.28137244999999921902"><ele>212.52565496539168</ele><time>2012-10-12T07:32:29Z</time></trkpt><trkpt lat="32.75625446666666817919" lon="35.28129678333333174578"><ele>212.86731544735227</ele><time>2012-10-12T07:32:32Z</time></trkpt><trkpt lat="32.75624299999999777810" lon="35.28121519999999833317"><ele>213.5010276472402</ele><time>2012-10-12T07:32:35Z</time></trkpt><trkpt lat="32.75622299999999853526" lon="35.28114156666666900719"><ele>214.67631233518773</ele><time>2012-10-12T07:32:38Z</time></trkpt><trkpt lat="32.75620968333333138389" lon="35.28108009999999694628"><ele>215.569048856053</ele><time>2012-10-12T07:32:41Z</time></trkpt><trkpt lat="32.75619541666666378887" lon="35.28099540000000189366"><ele>216.69412531923155</ele><time>2012-10-12T07:32:44Z</time></trkpt><trkpt lat="32.75618440000000219925" lon="35.28091640000000239752"><ele>217.68242042791553</ele><time>2012-10-12T07:32:47Z</time></trkpt><trkpt lat="32.75618355000000292421" lon="35.28084368333333031842"><ele>218.37880111155394</ele><time>2012-10-12T07:32:50Z</time></trkpt><trkpt lat="32.75618071666666963893" lon="35.28077418333333525879"><ele>219.0882261675111</ele><time>2012-10-12T07:32:53Z</time></trkpt><trkpt lat="32.75618413333333478477" lon="35.28070501666666558549"><ele>219.657568261576</ele><time>2012-10-12T07:32:56Z</time></trkpt><trkpt lat="32.75618014999999871861" lon="35.28061199999999786314"><ele>220.60868222324893</ele><time>2012-10-12T07:32:59Z</time></trkpt><trkpt lat="32.75615553333333451747" lon="35.28052619999999706124"><ele>221.92030011440906</ele><time>2012-10-12T07:33:02Z</time></trkpt><trkpt lat="32.75616953333333469800" lon="35.28045275000000202681"><ele>222.30766314316284</ele><time>2012-10-12T07:33:05Z</time></trkpt><trkpt lat="32.75617516666666517722" lon="35.28036219999999900665"><ele>222.78217067130848</ele><time>2012-10-12T07:33:08Z</time></trkpt><trkpt lat="32.75619139999999873680" lon="35.28029983333333063911"><ele>222.74638113531265</ele><time>2012-10-12T07:33:11Z</time></trkpt><trkpt lat="32.75619149999999990541" lon="35.28024128333333209184"><ele>223.020465707283</ele><time>2012-10-12T07:33:14Z</time></trkpt><trkpt lat="32.75620949999999709235" lon="35.28016986666666809924"><ele>222.9964466233277</ele><time>2012-10-12T07:33:17Z</time></trkpt><trkpt lat="32.75622760000000255332" lon="35.28011614999999778775"><ele>222.88974653363653</ele><time>2012-10-12T07:33:20Z</time></trkpt><trkpt lat="32.75623734999999925321" lon="35.28003518333333232704"><ele>223.08223089889773</ele><time>2012-10-12T07:33:23Z</time></trkpt><trkpt lat="32.75625116666666514220" lon="35.27996259999999750789"><ele>223.16653415938396</ele><time>2012-10-12T07:33:26Z</time></trkpt><trkpt lat="32.75625976666666616666" lon="35.27990376666666350047"><ele>223.35734712737977</ele><time>2012-10-12T07:33:29Z</time></trkpt><trkpt lat="32.75627043333333432429" lon="35.27983051666666369783"><ele>223.60551438736866</ele><time>2012-10-12T07:33:32Z</time></trkpt><trkpt lat="32.75628065000000077589" lon="35.27976375000000075488"><ele>223.83672564935716</ele><time>2012-10-12T07:33:35Z</time></trkpt><trkpt lat="32.75629288333333022365" lon="35.27968811666666937299"><ele>224.10446709738812</ele><time>2012-10-12T07:33:38Z</time></trkpt><trkpt lat="32.75630971666666368947" lon="35.27961503333333581622"><ele>224.33259026739026</ele><time>2012-10-12T07:33:41Z</time></trkpt><trkpt lat="32.75631948333333554046" lon="35.27955728333333240698"><ele>224.37986708189084</ele><time>2012-10-12T07:33:44Z</time></trkpt><trkpt lat="32.75633693333332985276" lon="35.27950588333333570290"><ele>224.15742899794358</ele><time>2012-10-12T07:33:47Z</time></trkpt><trkpt lat="32.75635003333333372666" lon="35.27944258333333493738"><ele>223.95027048750762</ele><time>2012-10-12T07:33:50Z</time></trkpt><trkpt lat="32.75635973333333339497" lon="35.27938670000000342952"><ele>223.780137573912</ele><time>2012-10-12T07:33:53Z</time></trkpt><trkpt lat="32.75635423333333307028" lon="35.27931098333333181927"><ele>223.7158627083044</ele><time>2012-10-12T07:33:56Z</time></trkpt><trkpt lat="32.75635653333333152659" lon="35.27924889999999891188"><ele>223.60119050191744</ele><time>2012-10-12T07:33:59Z</time></trkpt><trkpt lat="32.75636178333333248247" lon="35.27917575000000027785"><ele>223.4407042515085</ele><time>2012-10-12T07:34:02Z</time></trkpt><trkpt lat="32.75637308333333663768" lon="35.27905763333333055698"><ele>223.14890986345932</ele><time>2012-10-12T07:34:05Z</time></trkpt><trkpt lat="32.75636051666666759274" lon="35.27897494999999850052"><ele>223.14795888508098</ele><time>2012-10-12T07:34:08Z</time></trkpt><trkpt lat="32.75634683333333185828" lon="35.27890814999999946622"><ele>223.18808487150383</ele><time>2012-10-12T07:34:11Z</time></trkpt><trkpt lat="32.75632963333333691480" lon="35.27883769999999685751"><ele>223.26531346824348</ele><time>2012-10-12T07:34:14Z</time></trkpt><trkpt lat="32.75631113333333388482" lon="35.27876934999999747333"><ele>223.3663868378727</ele><time>2012-10-12T07:34:17Z</time></trkpt><trkpt lat="32.75629141666667010213" lon="35.27868885000000176433"><ele>223.01351109759182</ele><time>2012-10-12T07:34:20Z</time></trkpt><trkpt lat="32.75626261666666749761" lon="35.27862058333333550308"><ele>222.76018130560985</ele><time>2012-10-12T07:34:23Z</time></trkpt><trkpt lat="32.75622563333333658875" lon="35.27854628333333408818"><ele>222.81509999941355</ele><time>2012-10-12T07:34:26Z</time></trkpt><trkpt lat="32.75618008333333364135" lon="35.27846291666666900255"><ele>223.09869999949024</ele><time>2012-10-12T07:34:29Z</time></trkpt><trkpt lat="32.75613211666667012878" lon="35.27836479999999852453"><ele>223.3105999993899</ele><time>2012-10-12T07:34:32Z</time></trkpt><trkpt lat="32.75610163333332991442" lon="35.27827111666666581868"><ele>223.1820999995439</ele><time>2012-10-12T07:34:35Z</time></trkpt><trkpt lat="32.75606491666666642004" lon="35.27820323333333618621"><ele>223.40495999950625</ele><time>2012-10-12T07:34:38Z</time></trkpt><trkpt lat="32.75601559999999778938" lon="35.27814903333333518276"><ele>224.01491999953967</ele><time>2012-10-12T07:34:41Z</time></trkpt><trkpt lat="32.75596118333333350847" lon="35.27806823333333596793"><ele>224.51159999949434</ele><time>2012-10-12T07:34:44Z</time></trkpt><trkpt lat="32.75590233333333145538" lon="35.27800615000000306054"><ele>225.26125999954155</ele><time>2012-10-12T07:34:47Z</time></trkpt><trkpt lat="32.75584915000000307828" lon="35.27793081666666807905"><ele>225.7772199994202</ele><time>2012-10-12T07:34:50Z</time></trkpt><trkpt lat="32.75579791666666551464" lon="35.27785924999999878082"><ele>226.27098699949624</ele><time>2012-10-12T07:34:53Z</time></trkpt><trkpt lat="32.75573409999999796582" lon="35.27777911666666454948"><ele>226.90939862031738</ele><time>2012-10-12T07:34:56Z</time></trkpt><trkpt lat="32.75569019999999653692" lon="35.27771128333333194860"><ele>227.19713212116105</ele><time>2012-10-12T07:34:59Z</time></trkpt><trkpt lat="32.75561284999999855927" lon="35.27762026666666628216"><ele>227.8962567419419</ele><time>2012-10-12T07:35:02Z</time></trkpt><trkpt lat="32.75555796666666452666" lon="35.27753564999999724705"><ele>228.14304489234237</ele><time>2012-10-12T07:35:05Z</time></trkpt><trkpt lat="32.75551348333333123719" lon="35.27744471666666470355"><ele>228.07488952435887</ele><time>2012-10-12T07:35:08Z</time></trkpt><trkpt lat="32.75545996666666326291" lon="35.27736131666666352658"><ele>228.20544873238003</ele><time>2012-10-12T07:35:11Z</time></trkpt><trkpt lat="32.75540283333333491100" lon="35.27726361666666576866"><ele>228.25663373146307</ele><time>2012-10-12T07:35:14Z</time></trkpt><trkpt lat="32.75533269999999674837" lon="35.27716420000000141499"><ele>228.71637325080536</ele><time>2012-10-12T07:35:17Z</time></trkpt><trkpt lat="32.75527571666666659667" lon="35.27708531666666402771"><ele>229.06714765909766</ele><time>2012-10-12T07:35:20Z</time></trkpt><trkpt lat="32.75525556666666915362" lon="35.27702014999999846623"><ele>229.08600247697365</ele><time>2012-10-12T07:35:23Z</time></trkpt><trkpt lat="32.75528306666666367164" lon="35.27705371666666422925"><ele>228.7023622266853</ele><time>2012-10-12T07:35:27Z</time></trkpt><trkpt lat="32.75532833333333115888" lon="35.27710743333333454075"><ele>228.1774765595827</ele><time>2012-10-12T07:35:30Z</time></trkpt><trkpt lat="32.75539151666666981555" lon="35.27720211666666472183"><ele>227.83900557102174</ele><time>2012-10-12T07:35:33Z</time></trkpt><trkpt lat="32.75545401666666833762" lon="35.27730716666666666015"><ele>227.74176539152504</ele><time>2012-10-12T07:35:36Z</time></trkpt><trkpt lat="32.75550428333333030650" lon="35.27740254999999791607"><ele>227.81448028597848</ele><time>2012-10-12T07:35:39Z</time></trkpt><trkpt lat="32.75553766666666888341" lon="35.27745181666666951514"><ele>227.69000185552358</ele><time>2012-10-12T07:35:42Z</time></trkpt><trkpt lat="32.75556250000000346745" lon="35.27747971666666870760"><ele>227.49797799948655</ele><time>2012-10-12T07:35:45Z</time></trkpt><trkpt lat="32.75556808333332980965" lon="35.27751493333333598912"><ele>227.74105574362343</ele><time>2012-10-12T07:35:48Z</time></trkpt><trkpt lat="32.75558601666666902474" lon="35.27754433333333139444"><ele>227.68403478346036</ele><time>2012-10-12T07:35:52Z</time></trkpt><trkpt lat="32.75555883333333184737" lon="35.27753355000000112796"><ele>228.10526657556852</ele><time>2012-10-12T07:36:04Z</time></trkpt><trkpt lat="32.75554631666666693945" lon="35.27750230000000186692"><ele>228.03384239634556</ele><time>2012-10-12T07:36:51Z</time></trkpt><trkpt lat="32.75553156666666865249" lon="35.27745761666666624023"><ele>227.86423030669485</ele><time>2012-10-12T07:36:55Z</time></trkpt><trkpt lat="32.75549211666666593601" lon="35.27740364999999655993"><ele>228.05265293872242</ele><time>2012-10-12T07:36:58Z</time></trkpt><trkpt lat="32.75554505000000204973" lon="35.27732375000000075715"><ele>226.2618747595166</ele><time>2012-10-12T07:37:01Z</time></trkpt><trkpt lat="32.75570909999999713591" lon="35.27729063333333670016"><ele>222.97678056281703</ele><time>2012-10-12T07:37:04Z</time></trkpt><trkpt lat="32.75578306666666605906" lon="35.27709579999999789379"><ele>219.95280954833584</ele><time>2012-10-12T07:37:07Z</time></trkpt><trkpt lat="32.75570933333333556448" lon="35.27680878333333680530"><ele>219.667312703475</ele><time>2012-10-12T07:37:10Z</time></trkpt><trkpt lat="32.75573231666666629280" lon="35.27652249999999867214"><ele>217.8419178795024</ele><time>2012-10-12T07:37:13Z</time></trkpt><trkpt lat="32.75573118333333155761" lon="35.27624486666666570045"><ele>216.4278399995874</ele><time>2012-10-12T07:37:16Z</time></trkpt><trkpt lat="32.75572533333333069550" lon="35.27603978333333145656"><ele>214.78937999959365</ele><time>2012-10-12T07:37:19Z</time></trkpt><trkpt lat="32.75577866666666437823" lon="35.27587393333333665169"><ele>212.6282399996342</ele><time>2012-10-12T07:37:22Z</time></trkpt><trkpt lat="32.75580568333333530973" lon="35.27573858333333589599"><ele>211.10225999956788</ele><time>2012-10-12T07:37:25Z</time></trkpt><trkpt lat="32.75576199999999715828" lon="35.27570171666666709598"><ele>211.42161999961903</ele><time>2012-10-12T07:37:28Z</time></trkpt><trkpt lat="32.75571905000000327846" lon="35.27566516666666984747"><ele>211.73307999955372</ele><time>2012-10-12T07:37:31Z</time></trkpt><trkpt lat="32.75568311666666687643" lon="35.27562065000000046666"><ele>211.876579999575</ele><time>2012-10-12T07:37:34Z</time></trkpt><trkpt lat="32.75565251666666455321" lon="35.27565169999999739048"><ele>212.57803999958196</ele><time>2012-10-12T07:37:37Z</time></trkpt><trkpt lat="32.75563243333333218743" lon="35.27573448333333061555"><ele>213.56261999956624</ele><time>2012-10-12T07:37:40Z</time></trkpt><trkpt lat="32.75561778333333506907" lon="35.27582168333333356713"><ele>214.50605999954868</ele><time>2012-10-12T07:37:43Z</time></trkpt><trkpt lat="32.75563391666666746005" lon="35.27591695000000271421"><ele>215.07397999958252</ele><time>2012-10-12T07:37:46Z</time></trkpt><trkpt lat="32.75565993333333381088" lon="35.27600231666666985575"><ele>215.41641999959077</ele><time>2012-10-12T07:37:49Z</time></trkpt><trkpt lat="32.75569165000000282362" lon="35.27608560000000181844"><ele>215.65927999954528</ele><time>2012-10-12T07:37:52Z</time></trkpt><trkpt lat="32.75570979999999821075" lon="35.27617064999999740849"><ele>216.1123399995742</ele><time>2012-10-12T07:37:55Z</time></trkpt><trkpt lat="32.75571763333333308310" lon="35.27623839999999688644"><ele>216.5686399995473</ele><time>2012-10-12T07:37:58Z</time></trkpt><trkpt lat="32.75572716666666650553" lon="35.27618935000000277569"><ele>216.01933999959596</ele><time>2012-10-12T07:38:02Z</time></trkpt><trkpt lat="32.75572191666666554966" lon="35.27606835000000273794"><ele>215.07853999961026</ele><time>2012-10-12T07:38:05Z</time></trkpt><trkpt lat="32.75574891666666843548" lon="35.27585528333333542150"><ele>212.8999799995652</ele><time>2012-10-12T07:38:08Z</time></trkpt><trkpt lat="32.75577586666666718429" lon="35.27567643333333080591"><ele>211.00955999954618</ele><time>2012-10-12T07:38:11Z</time></trkpt><trkpt lat="32.75577814999999759493" lon="35.27560911666666498832"><ele>210.41121999959594</ele><time>2012-10-12T07:38:14Z</time></trkpt><trkpt lat="32.75575363333333456239" lon="35.27558719999999681249"><ele>210.58015999953076</ele><time>2012-10-12T07:38:27Z</time></trkpt><trkpt lat="32.75578363333332987395" lon="35.27560704999999785514"><ele>210.31489999960732</ele><time>2012-10-12T07:38:31Z</time></trkpt><trkpt lat="32.75580893333333420969" lon="35.27562788333333543278"><ele>210.1255799995807</ele><time>2012-10-12T07:38:34Z</time></trkpt><trkpt lat="32.75582066666666491983" lon="35.27566271666666608553"><ele>210.24921999959585</ele><time>2012-10-12T07:38:39Z</time></trkpt><trkpt lat="32.75584899999999777265" lon="35.27569761666666892097"><ele>210.13437999962667</ele><time>2012-10-12T07:38:43Z</time></trkpt><trkpt lat="32.75584796666666420606" lon="35.27566474999999712736"><ele>209.8731799995872</ele><time>2012-10-12T07:38:48Z</time></trkpt><trkpt lat="32.75580905000000342397" lon="35.27563751666667002382"><ele>210.20481999955447</ele><time>2012-10-12T07:38:56Z</time></trkpt><trkpt lat="32.75577710000000308810" lon="35.27562128333333646424"><ele>210.52853999955718</ele><time>2012-10-12T07:39:00Z</time></trkpt><trkpt lat="32.75574786666666682322" lon="35.27557698333333036089"><ele>210.57737999954804</ele><time>2012-10-12T07:39:03Z</time></trkpt><trkpt lat="32.75576758333333060591" lon="35.27553795000000036453"><ele>209.96557999961814</ele><time>2012-10-12T07:39:17Z</time></trkpt><trkpt lat="32.75576530000000019527" lon="35.27558818333333334749"><ele>210.42041999957272</ele><time>2012-10-12T07:39:20Z</time></trkpt><trkpt lat="32.75575128333333196906" lon="35.27562209999999964793"><ele>210.90715999959167</ele><time>2012-10-12T07:40:52Z</time></trkpt><trkpt lat="32.75575936666666621022" lon="35.27559046666666375813"><ele>210.52503999955746</ele><time>2012-10-12T07:41:34Z</time></trkpt><trkpt lat="32.75578991666666439642" lon="35.27558425000000141836"><ele>210.03289999962035</ele><time>2012-10-12T07:41:57Z</time></trkpt><trkpt lat="32.75582131666666896308" lon="35.27558646666666675173"><ele>209.59935999954382</ele><time>2012-10-12T07:42:02Z</time></trkpt><trkpt lat="32.75583403333333620822" lon="35.27561916666666519404"><ele>209.69091999952232</ele><time>2012-10-12T07:42:13Z</time></trkpt><trkpt lat="32.75579646666666633337" lon="35.27561793333333639566"><ele>210.22151999960613</ele><time>2012-10-12T07:42:16Z</time></trkpt><trkpt lat="32.75578498333333499204" lon="35.27557898333333241681"><ele>210.05969999954416</ele><time>2012-10-12T07:42:28Z</time></trkpt><trkpt lat="32.75576383333333296832" lon="35.27560968333333590863"><ele>210.62213999960213</ele><time>2012-10-12T07:42:44Z</time></trkpt><trkpt lat="32.75576015000000040800" lon="35.27564893333333628789"><ele>211.00487999959378</ele><time>2012-10-12T07:43:09Z</time></trkpt><trkpt lat="32.75576650000000000773" lon="35.27561471666666648161"><ele>210.62601999957354</ele><time>2012-10-12T07:43:22Z</time></trkpt><trkpt lat="32.75574328333333085084" lon="35.27559756666666856972"><ele>210.81627999962677</ele><time>2012-10-12T07:43:42Z</time></trkpt><trkpt lat="32.75577201666666837809" lon="35.27558156666666633328"><ele>210.26811999954808</ele><time>2012-10-12T07:44:20Z</time></trkpt><trkpt lat="32.75576734999999928277" lon="35.27561666666666440051"><ele>210.63015999956653</ele><time>2012-10-12T07:44:29Z</time></trkpt><trkpt lat="32.75574639999999959628" lon="35.27563913333333545097"><ele>211.1205599995984</ele><time>2012-10-12T07:45:29Z</time></trkpt><trkpt lat="32.75573116666666351193" lon="35.27566796666666704141"><ele>211.58211999962296</ele><time>2012-10-12T07:45:37Z</time></trkpt><trkpt lat="32.75572311666666536212" lon="35.27570398333333656637"><ele>212.00057999961993</ele><time>2012-10-12T07:45:50Z</time></trkpt><trkpt lat="32.75574293333333031342" lon="35.27572823333333218443"><ele>211.9189199996079</ele><time>2012-10-12T07:45:54Z</time></trkpt><trkpt lat="32.75574681666666521096" lon="35.27576128333333116416"><ele>212.1406199995766</ele><time>2012-10-12T07:45:57Z</time></trkpt><trkpt lat="32.75576611666666337896" lon="35.27578558333333091923"><ele>212.066819999601</ele><time>2012-10-12T07:46:00Z</time></trkpt><trkpt lat="32.75578624999999988177" lon="35.27582173333333059873"><ele>212.0805599995526</ele><time>2012-10-12T07:46:03Z</time></trkpt><trkpt lat="32.75580643333333341616" lon="35.27585446666666513238"><ele>212.06487999955988</ele><time>2012-10-12T07:46:06Z</time></trkpt><trkpt lat="32.75579363333333304809" lon="35.27589593333333084502"><ele>212.59751999955662</ele><time>2012-10-12T07:46:09Z</time></trkpt><trkpt lat="32.75578873333333262963" lon="35.27593346666666462852"><ele>212.98335999956612</ele><time>2012-10-12T07:46:12Z</time></trkpt><trkpt lat="32.75577255000000320706" lon="35.27596210000000098717"><ele>213.45691999953476</ele><time>2012-10-12T07:46:17Z</time></trkpt><trkpt lat="32.75575570000000169557" lon="35.27599346666666946248"><ele>213.96303999957124</ele><time>2012-10-12T07:46:20Z</time></trkpt><trkpt lat="32.75573128333333272622" lon="35.27600865000000140981"><ele>214.44217999959235</ele><time>2012-10-12T07:46:23Z</time></trkpt><trkpt lat="32.75572791666666461197" lon="35.27605640000000164491"><ele>214.89175999961478</ele><time>2012-10-12T07:46:26Z</time></trkpt><trkpt lat="32.75572720000000259688" lon="35.27609051666666317715"><ele>215.18865999950438</ele><time>2012-10-12T07:46:49Z</time></trkpt><trkpt lat="32.75572248333333646997" lon="35.27613569999999754145"><ele>215.63611999950484</ele><time>2012-10-12T07:46:52Z</time></trkpt><trkpt lat="32.75571466666666964329" lon="35.27623123333333410301"><ele>216.55115999953344</ele><time>2012-10-12T07:46:55Z</time></trkpt><trkpt lat="32.75572283333332990196" lon="35.27634565000000321788"><ele>217.08075965557774</ele><time>2012-10-12T07:46:58Z</time></trkpt><trkpt lat="32.75572776666666641177" lon="35.27646383333333091059"><ele>217.61157217549746</ele><time>2012-10-12T07:47:01Z</time></trkpt><trkpt lat="32.75572476666666688061" lon="35.27655946666666864076"><ele>218.1455615611091</ele><time>2012-10-12T07:47:04Z</time></trkpt><trkpt lat="32.75573023333333111395" lon="35.27665030000000001564"><ele>218.52494027793307</ele><time>2012-10-12T07:47:07Z</time></trkpt><trkpt lat="32.75572205000000280961" lon="35.27674716666666654419"><ele>219.1482199274498</ele><time>2012-10-12T07:47:10Z</time></trkpt><trkpt lat="32.75572613333333293895" lon="35.27684190000000086229"><ele>219.56754083790167</ele><time>2012-10-12T07:47:13Z</time></trkpt><trkpt lat="32.75573773333333349456" lon="35.27694495000000074469"><ele>219.90373919308752</ele><time>2012-10-12T07:47:16Z</time></trkpt><trkpt lat="32.75574676666666817937" lon="35.27705635000000228274"><ele>220.31807273066784</ele><time>2012-10-12T07:47:19Z</time></trkpt><trkpt lat="32.75574373333333255687" lon="35.27715580000000272776"><ele>221.1513997563802</ele><time>2012-10-12T07:47:22Z</time></trkpt><trkpt lat="32.75572703333333635101" lon="35.27724261666666905057"><ele>222.22134727310507</ele><time>2012-10-12T07:47:25Z</time></trkpt><trkpt lat="32.75568476666666839492" lon="35.27729958333333115661"><ele>223.49747463948486</ele><time>2012-10-12T07:47:28Z</time></trkpt><trkpt lat="32.75566103333333245473" lon="35.27733034999999972570"><ele>224.2147311963492</ele><time>2012-10-12T07:47:31Z</time></trkpt><trkpt lat="32.75567104999999656911" lon="35.27737566666666424453"><ele>224.45521916757212</ele><time>2012-10-12T07:47:34Z</time></trkpt><trkpt lat="32.75569936666666848168" lon="35.27742591666666527317"><ele>224.39269374347808</ele><time>2012-10-12T07:47:37Z</time></trkpt><trkpt lat="32.75574606666666710453" lon="35.27747601666666810161"><ele>223.96200463312144</ele><time>2012-10-12T07:47:40Z</time></trkpt><trkpt lat="32.75579785000000043738" lon="35.27750668333333550208"><ele>223.23878596592033</ele><time>2012-10-12T07:47:43Z</time></trkpt><trkpt lat="32.75586735000000260243" lon="35.27758641666666505898"><ele>222.55584786343337</ele><time>2012-10-12T07:47:46Z</time></trkpt><trkpt lat="32.75597899999999640386" lon="35.27769181666666753472"><ele>221.15351814355952</ele><time>2012-10-12T07:47:49Z</time></trkpt><trkpt lat="32.75607863333333114042" lon="35.27776120000000048549"><ele>219.6152632059147</ele><time>2012-10-12T07:47:52Z</time></trkpt><trkpt lat="32.75618261666666342080" lon="35.27780698333333475603"><ele>217.75480882673048</ele><time>2012-10-12T07:47:55Z</time></trkpt><trkpt lat="32.75629479999999915663" lon="35.27783875000000080036"><ele>215.6622868794916</ele><time>2012-10-12T07:47:58Z</time></trkpt><trkpt lat="32.75641156666666375941" lon="35.27785858333333379733"><ele>213.52239312753838</ele><time>2012-10-12T07:48:01Z</time></trkpt><trkpt lat="32.75653656666666790898" lon="35.27785433333333031669"><ele>211.07247555144306</ele><time>2012-10-12T07:48:04Z</time></trkpt><trkpt lat="32.75668319999999766878" lon="35.27787606666666420097"><ele>208.38830678992585</ele><time>2012-10-12T07:48:07Z</time></trkpt><trkpt lat="32.75689671666666669125" lon="35.27787796666666508827"><ele>204.27875954670088</ele><time>2012-10-12T07:48:10Z</time></trkpt><trkpt lat="32.75707241666666647006" lon="35.27787333333333208429"><ele>200.84696239951924</ele><time>2012-10-12T07:48:13Z</time></trkpt><trkpt lat="32.75719850000000121781" lon="35.27783073333333163646"><ele>199.39195526367266</ele><time>2012-10-12T07:48:16Z</time></trkpt><trkpt lat="32.75728850000000136333" lon="35.27782316666666417859"><ele>198.62690543967258</ele><time>2012-10-12T07:48:19Z</time></trkpt><trkpt lat="32.75737581666666642377" lon="35.27779548333333536903"><ele>197.67202195333726</ele><time>2012-10-12T07:48:22Z</time></trkpt><trkpt lat="32.75747018333333215878" lon="35.27777411666667006784"><ele>196.69962210696943</ele><time>2012-10-12T07:48:25Z</time></trkpt><trkpt lat="32.75757096666666967621" lon="35.27775586666666640667"><ele>195.68667010530646</ele><time>2012-10-12T07:48:28Z</time></trkpt><trkpt lat="32.75769691666666716401" lon="35.27765776666666397432"><ele>193.49242526370455</ele><time>2012-10-12T07:48:31Z</time></trkpt><trkpt lat="32.75783526666666745086" lon="35.27755126666666996016"><ele>190.93412290538362</ele><time>2012-10-12T07:48:34Z</time></trkpt><trkpt lat="32.75803925000000305090" lon="35.27737933333333586461"><ele>188.2110497599802</ele><time>2012-10-12T07:48:37Z</time></trkpt><trkpt lat="32.75821711666666402607" lon="35.27722074999999790634"><ele>186.3527991379082</ele><time>2012-10-12T07:48:40Z</time></trkpt><trkpt lat="32.75840705000000241398" lon="35.27706466666666784704"><ele>184.4750819517932</ele><time>2012-10-12T07:48:43Z</time></trkpt><trkpt lat="32.75863480000000294012" lon="35.27700831666666658748"><ele>184.11089237743752</ele><time>2012-10-12T07:48:46Z</time></trkpt><trkpt lat="32.75885275000000262935" lon="35.27702994999999930315"><ele>183.50419859771722</ele><time>2012-10-12T07:48:49Z</time></trkpt><trkpt lat="32.75906574999999776310" lon="35.27715981666666777983"><ele>183.45874278982086</ele><time>2012-10-12T07:48:52Z</time></trkpt><trkpt lat="32.75928281666666919136" lon="35.27726475000000050386"><ele>182.87617486972798</ele><time>2012-10-12T07:48:55Z</time></trkpt><trkpt lat="32.75946634999999673710" lon="35.27728545000000082155"><ele>181.33575882576335</ele><time>2012-10-12T07:48:58Z</time></trkpt><trkpt lat="32.75960143333333007831" lon="35.27731854999999683287"><ele>180.3854972509203</ele><time>2012-10-12T07:49:01Z</time></trkpt><trkpt lat="32.75972821666666590090" lon="35.27733154999999953816"><ele>179.43043624131502</ele><time>2012-10-12T07:49:04Z</time></trkpt><trkpt lat="32.75988571666666615556" lon="35.27735791666666642641"><ele>178.3100905196978</ele><time>2012-10-12T07:49:07Z</time></trkpt><trkpt lat="32.76004031666666804767" lon="35.27736149999999781812"><ele>176.98172302365055</ele><time>2012-10-12T07:49:10Z</time></trkpt><trkpt lat="32.76014378333333354476" lon="35.27735249999999922466"><ele>176.00283831966397</ele><time>2012-10-12T07:49:13Z</time></trkpt><trkpt lat="32.76026195000000029722" lon="35.27729736666666582323"><ele>174.58889965725777</ele><time>2012-10-12T07:49:16Z</time></trkpt><trkpt lat="32.76032346666666938972" lon="35.27716973333333072560"><ele>173.23582228443513</ele><time>2012-10-12T07:49:19Z</time></trkpt><trkpt lat="32.76040843333333185683" lon="35.27700151666666528172"><ele>171.56449992608367</ele><time>2012-10-12T07:49:22Z</time></trkpt><trkpt lat="32.76053009999999687807" lon="35.27687850000000224782"><ele>170.15731659172837</ele><time>2012-10-12T07:49:25Z</time></trkpt><trkpt lat="32.76066525000000240198" lon="35.27676948333333228902"><ele>168.85009149168073</ele><time>2012-10-12T07:49:28Z</time></trkpt><trkpt lat="32.76071501666666563324" lon="35.27678378333333597539"><ele>168.66998773811437</ele><time>2012-10-12T07:49:31Z</time></trkpt><trkpt lat="32.76072343333333236615" lon="35.27675078333333402725"><ele>168.45790393410527</ele><time>2012-10-12T07:49:35Z</time></trkpt><trkpt lat="32.76068791666666868423" lon="35.27671421666666873307"><ele>168.44615393970122</ele><time>2012-10-12T07:49:38Z</time></trkpt><trkpt lat="32.76062579999999968550" lon="35.27667606666666699766"><ele>168.5468983421085</ele><time>2012-10-12T07:49:41Z</time></trkpt><trkpt lat="32.76054436666666447309" lon="35.27665451666666740493"><ele>168.81860847812464</ele><time>2012-10-12T07:49:44Z</time></trkpt><trkpt lat="32.76046231666666841420" lon="35.27666406666666887304"><ele>169.2656218269178</ele><time>2012-10-12T07:49:47Z</time></trkpt><trkpt lat="32.76038530000000292830" lon="35.27666458333333565633"><ele>169.63768359971863</ele><time>2012-10-12T07:49:50Z</time></trkpt><trkpt lat="32.76030875000000008868" lon="35.27662908333333291466"><ele>169.76913819972594</ele><time>2012-10-12T07:49:53Z</time></trkpt><trkpt lat="32.76025691666666972424" lon="35.27652376666666356186"><ele>169.27790913571098</ele><time>2012-10-12T07:49:56Z</time></trkpt><trkpt lat="32.76021279999999791244" lon="35.27645119999999678839"><ele>168.93274352614054</ele><time>2012-10-12T07:49:59Z</time></trkpt><trkpt lat="32.76012881666666487490" lon="35.27640159999999980300"><ele>168.85179522537342</ele><time>2012-10-12T07:50:02Z</time></trkpt><trkpt lat="32.76004136666666965993" lon="35.27637616666666531273"><ele>168.93045801575946</ele><time>2012-10-12T07:50:05Z</time></trkpt><trkpt lat="32.75996779999999830579" lon="35.27634253333333447245"><ele>168.87172234220498</ele><time>2012-10-12T07:50:08Z</time></trkpt><trkpt lat="32.75989673333333485061" lon="35.27627546666666802366"><ele>168.47690798061203</ele><time>2012-10-12T07:50:11Z</time></trkpt><trkpt lat="32.75981759999999809452" lon="35.27621216666666725814"><ele>168.37959715168583</ele><time>2012-10-12T07:50:14Z</time></trkpt><trkpt lat="32.75973228333333508999" lon="35.27614386666666490555"><ele>168.49239567326953</ele><time>2012-10-12T07:50:17Z</time></trkpt><trkpt lat="32.75966048333333446863" lon="35.27608684999999866250"><ele>168.60093468726865</ele><time>2012-10-12T07:50:20Z</time></trkpt><trkpt lat="32.75959311666666451401" lon="35.27602035000000313403"><ele>168.69770469047987</ele><time>2012-10-12T07:50:23Z</time></trkpt><trkpt lat="32.75950343333333592000" lon="35.27596736666666998872"><ele>169.26863866037428</ele><time>2012-10-12T07:50:26Z</time></trkpt><trkpt lat="32.75941389999999842075" lon="35.27592485000000266382"><ele>169.90907139720136</ele><time>2012-10-12T07:50:29Z</time></trkpt><trkpt lat="32.75932698333333092933" lon="35.27588016666666703713"><ele>170.53844175560195</ele><time>2012-10-12T07:50:32Z</time></trkpt><trkpt lat="32.75924485000000174750" lon="35.27583891666666460196"><ele>171.14414859356455</ele><time>2012-10-12T07:50:35Z</time></trkpt><trkpt lat="32.75916883333333373685" lon="35.27579338333333680566"><ele>171.70900535557524</ele><time>2012-10-12T07:50:38Z</time></trkpt><trkpt lat="32.75908936666666448900" lon="35.27572338333333590299"><ele>172.29920875399097</ele><time>2012-10-12T07:50:41Z</time></trkpt><trkpt lat="32.75902130000000056498" lon="35.27563588333333655100"><ele>172.80672181316504</ele><time>2012-10-12T07:50:44Z</time></trkpt><trkpt lat="32.75894933333333369774" lon="35.27557205000000095652"><ele>173.37020123156208</ele><time>2012-10-12T07:50:47Z</time></trkpt><trkpt lat="32.75888893333333129476" lon="35.27549573333333654546"><ele>173.84877839317883</ele><time>2012-10-12T07:50:50Z</time></trkpt><trkpt lat="32.75882041666666566471" lon="35.27542145000000317623"><ele>174.40898502956628</ele><time>2012-10-12T07:50:53Z</time></trkpt><trkpt lat="32.75882653333333394130" lon="35.27533263333333479750"><ele>173.80764687327698</ele><time>2012-10-12T07:50:56Z</time></trkpt><trkpt lat="32.75883664999999922429" lon="35.27525446666666653073"><ele>173.22573200288596</ele><time>2012-10-12T07:50:59Z</time></trkpt><trkpt lat="32.75886581666666330648" lon="35.27515540000000271448"><ele>172.40745805732863</ele><time>2012-10-12T07:51:02Z</time></trkpt><trkpt lat="32.75889018333333524424" lon="35.27502088333333318815"><ele>171.45218644049595</ele><time>2012-10-12T07:51:05Z</time></trkpt><trkpt lat="32.75888249999999857209" lon="35.27486728333333587670"><ele>170.56037403974898</ele><time>2012-10-12T07:51:08Z</time></trkpt><trkpt lat="32.75882914999999684369" lon="35.27470153333333513501"><ele>169.67522822057674</ele><time>2012-10-12T07:51:11Z</time></trkpt><trkpt lat="32.75874995000000211576" lon="35.27456038333333054879"><ele>169.05561008508064</ele><time>2012-10-12T07:51:14Z</time></trkpt><trkpt lat="32.75864048333333045093" lon="35.27447893333333439614"><ele>170.33455421394714</ele><time>2012-10-12T07:51:17Z</time></trkpt><trkpt lat="32.75853866666666647234" lon="35.27440781666666680394"><ele>171.38316060754343</ele><time>2012-10-12T07:51:20Z</time></trkpt><trkpt lat="32.75844503333333079809" lon="35.27433228333333659066"><ele>172.23466534198542</ele><time>2012-10-12T07:51:23Z</time></trkpt><trkpt lat="32.75839988333333252513" lon="35.27422753333333105275"><ele>172.55888215318652</ele><time>2012-10-12T07:51:26Z</time></trkpt><trkpt lat="32.75836978333333604496" lon="35.27411473333333447044"><ele>172.69159526038248</ele><time>2012-10-12T07:51:29Z</time></trkpt><trkpt lat="32.75831468333333162946" lon="35.27401224999999840293"><ele>172.9240979156274</ele><time>2012-10-12T07:51:32Z</time></trkpt><trkpt lat="32.75823739999999872907" lon="35.27392940000000010059"><ele>173.2093382012464</ele><time>2012-10-12T07:51:35Z</time></trkpt><trkpt lat="32.75816136666666977817" lon="35.27386513333333084574"><ele>173.4283041852362</ele><time>2012-10-12T07:51:38Z</time></trkpt><trkpt lat="32.75807576666666420806" lon="35.27382898333333116625"><ele>173.69778761407528</ele><time>2012-10-12T07:51:41Z</time></trkpt><trkpt lat="32.75799553333333591354" lon="35.27377786666666992232"><ele>173.83085143009205</ele><time>2012-10-12T07:51:44Z</time></trkpt><trkpt lat="32.75792194999999651372" lon="35.27370634999999765569"><ele>174.03634880243536</ele><time>2012-10-12T07:51:47Z</time></trkpt><trkpt lat="32.75785774999999944157" lon="35.27362783333333595692"><ele>174.51897689958295</ele><time>2012-10-12T07:51:50Z</time></trkpt><trkpt lat="32.75779461666666492192" lon="35.27355175000000286900"><ele>174.94244582960454</ele><time>2012-10-12T07:51:53Z</time></trkpt><trkpt lat="32.75774018333333259534" lon="35.27348976666666402480"><ele>175.2522867076108</ele><time>2012-10-12T07:51:56Z</time></trkpt><trkpt lat="32.75768671666666875808" lon="35.27341775000000012597"><ele>175.5042536096096</ele><time>2012-10-12T07:51:59Z</time></trkpt><trkpt lat="32.75763713333333271294" lon="35.27334988333333143373"><ele>175.68748919163252</ele><time>2012-10-12T07:52:02Z</time></trkpt><trkpt lat="32.75758886666666569454" lon="35.27329201666666591564"><ele>175.82882605564492</ele><time>2012-10-12T07:52:05Z</time></trkpt><trkpt lat="32.75754270000000190066" lon="35.27322691666666543142"><ele>175.91182673964477</ele><time>2012-10-12T07:52:08Z</time></trkpt><trkpt lat="32.75749206666666424326" lon="35.27316425000000066348"><ele>175.96931195967292</ele><time>2012-10-12T07:52:11Z</time></trkpt><trkpt lat="32.75744638333333114133" lon="35.27311474999999774127"><ele>175.9973580896748</ele><time>2012-10-12T07:52:14Z</time></trkpt><trkpt lat="32.75740090000000037662" lon="35.27306523333333387882"><ele>175.99234528768397</ele><time>2012-10-12T07:52:17Z</time></trkpt><trkpt lat="32.75734409999999741103" lon="35.27298916666666883657"><ele>175.8989597997076</ele><time>2012-10-12T07:52:20Z</time></trkpt><trkpt lat="32.75729348333333490473" lon="35.27292163333333263608"><ele>175.76414503570442</ele><time>2012-10-12T07:52:23Z</time></trkpt><trkpt lat="32.75724008333333614473" lon="35.27285135000000337868"><ele>175.7583429456855</ele><time>2012-10-12T07:52:26Z</time></trkpt><trkpt lat="32.75718128333333112323" lon="35.27277728333333328692"><ele>175.68555818250206</ele><time>2012-10-12T07:52:29Z</time></trkpt><trkpt lat="32.75712788333333236324" lon="35.27270591666666632591"><ele>175.53538023771827</ele><time>2012-10-12T07:52:32Z</time></trkpt><trkpt lat="32.75707201666666890105" lon="35.27262759999999985894"><ele>175.4414881083252</ele><time>2012-10-12T07:52:35Z</time></trkpt><trkpt lat="32.75701318333333489363" lon="35.27254108333332993652"><ele>175.910760221533</ele><time>2012-10-12T07:52:38Z</time></trkpt><trkpt lat="32.75695246666666804458" lon="35.27244850000000297996"><ele>176.33916478356224</ele><time>2012-10-12T07:52:41Z</time></trkpt><trkpt lat="32.75689626666666498522" lon="35.27233915000000052942"><ele>176.61653261079778</ele><time>2012-10-12T07:52:44Z</time></trkpt><trkpt lat="32.75685428333333248929" lon="35.27223368333333297642"><ele>176.7084907231939</ele><time>2012-10-12T07:52:47Z</time></trkpt><trkpt lat="32.75679015000000049440" lon="35.27213556666666960382"><ele>177.0060762324014</ele><time>2012-10-12T07:52:50Z</time></trkpt><trkpt lat="32.75673069999999853508" lon="35.27202488333333008086"><ele>177.34747734517686</ele><time>2012-10-12T07:52:53Z</time></trkpt><trkpt lat="32.75667786666666358997" lon="35.27191181666666608407"><ele>177.7032573244084</ele><time>2012-10-12T07:52:56Z</time></trkpt><trkpt lat="32.75662021666666845476" lon="35.27179943333333511646"><ele>177.99130298039302</ele><time>2012-10-12T07:52:59Z</time></trkpt><trkpt lat="32.75655040000000184364" lon="35.27170356666666606316"><ele>178.2789476732082</ele><time>2012-10-12T07:53:02Z</time></trkpt><trkpt lat="32.75648121666666412466" lon="35.27159449999999907277"><ele>178.41046821567187</ele><time>2012-10-12T07:53:05Z</time></trkpt><trkpt lat="32.75640446666666605324" lon="35.27148773333333053870"><ele>178.45312299487873</ele><time>2012-10-12T07:53:08Z</time></trkpt><trkpt lat="32.75634136666666762494" lon="35.27138151666666487927"><ele>178.30817969089773</ele><time>2012-10-12T07:53:11Z</time></trkpt><trkpt lat="32.75630338333333213541" lon="35.27126200000000011414"><ele>177.92394521573175</ele><time>2012-10-12T07:53:14Z</time></trkpt><trkpt lat="32.75627031666666511001" lon="35.27115041666666428455"><ele>177.7238936396948</ele><time>2012-10-12T07:53:17Z</time></trkpt><trkpt lat="32.75623550000000250293" lon="35.27105898333333300343"><ele>177.72498314352956</ele><time>2012-10-12T07:53:20Z</time></trkpt><trkpt lat="32.75621431666666438787" lon="35.27097750000000075943"><ele>177.7890157195963</ele><time>2012-10-12T07:53:23Z</time></trkpt><trkpt lat="32.75619700000000023010" lon="35.27092404999999786241"><ele>177.86756699156066</ele><time>2012-10-12T07:53:26Z</time></trkpt><trkpt lat="32.75618041666666613310" lon="35.27088868333333238070"><ele>177.97893213957508</ele><time>2012-10-12T07:53:29Z</time></trkpt><trkpt lat="32.75617391666666833316" lon="35.27084926666666575557"><ele>177.95473131155043</ele><time>2012-10-12T07:53:32Z</time></trkpt><trkpt lat="32.75619066666666867604" lon="35.27080356666666460796"><ele>177.6354734715447</ele><time>2012-10-12T07:53:35Z</time></trkpt><trkpt lat="32.75617989999999934980" lon="35.27076689999999814518"><ele>177.66834790677873</ele><time>2012-10-12T07:53:39Z</time></trkpt><trkpt lat="32.75614854999999892016" lon="35.27070713333333173978"><ele>177.87764738838783</ele><time>2012-10-12T07:53:42Z</time></trkpt><trkpt lat="32.75610698333333203891" lon="35.27063136666666309793"><ele>178.14829235318908</ele><time>2012-10-12T07:53:45Z</time></trkpt><trkpt lat="32.75605600000000094951" lon="35.27053688333333525406"><ele>178.45088745558533</ele><time>2012-10-12T07:53:48Z</time></trkpt><trkpt lat="32.75599540000000331474" lon="35.27044193333333055307"><ele>178.82884673235182</ele><time>2012-10-12T07:53:51Z</time></trkpt><trkpt lat="32.75592480000000250584" lon="35.27033813333333256423"><ele>179.51675891151908</ele><time>2012-10-12T07:53:54Z</time></trkpt><trkpt lat="32.75585184999999910360" lon="35.27023411666666419251"><ele>180.2148275655704</ele><time>2012-10-12T07:53:57Z</time></trkpt><trkpt lat="32.75577953333333169894" lon="35.27012605000000178279"><ele>180.79409672759775</ele><time>2012-10-12T07:54:00Z</time></trkpt><trkpt lat="32.75570559999999886713" lon="35.27002523333333527944"><ele>181.28466659161194</ele><time>2012-10-12T07:54:03Z</time></trkpt><trkpt lat="32.75563688333333089986" lon="35.26992291666666545780"><ele>181.6270302496328</ele><time>2012-10-12T07:54:06Z</time></trkpt><trkpt lat="32.75556894999999713036" lon="35.26981986666666557539"><ele>181.86121539165129</ele><time>2012-10-12T07:54:09Z</time></trkpt><trkpt lat="32.75551133333333098108" lon="35.26970378333333400178"><ele>181.8971212796682</ele><time>2012-10-12T07:54:12Z</time></trkpt><trkpt lat="32.75546649999999715419" lon="35.26958951666667019254"><ele>181.78084141969393</ele><time>2012-10-12T07:54:15Z</time></trkpt><trkpt lat="32.75541208333333287328" lon="35.26948709999999920228"><ele>181.92470915958876</ele><time>2012-10-12T07:54:18Z</time></trkpt><trkpt lat="32.75535304999999652864" lon="35.26938423333333361143"><ele>182.26236508283296</ele><time>2012-10-12T07:54:21Z</time></trkpt><trkpt lat="32.75529223333333561641" lon="35.26927593333333277315"><ele>182.49519303000818</ele><time>2012-10-12T07:54:24Z</time></trkpt><trkpt lat="32.75522899999999992815" lon="35.26915964999999886231"><ele>182.60620289564395</ele><time>2012-10-12T07:54:27Z</time></trkpt><trkpt lat="32.75516921666666547708" lon="35.26904198333333084747"><ele>182.56851102286532</ele><time>2012-10-12T07:54:30Z</time></trkpt><trkpt lat="32.75510003333333486353" lon="35.26892511666666507608"><ele>182.44912876607782</ele><time>2012-10-12T07:54:33Z</time></trkpt><trkpt lat="32.75505523333333002256" lon="35.26882460000000207856"><ele>182.18991968612622</ele><time>2012-10-12T07:54:36Z</time></trkpt><trkpt lat="32.75499018333333367536" lon="35.26872250000000263981"><ele>182.0058937796382</ele><time>2012-10-12T07:54:39Z</time></trkpt><trkpt lat="32.75492978333333127239" lon="35.26861980000000329483"><ele>182.05090565245672</ele><time>2012-10-12T07:54:42Z</time></trkpt><trkpt lat="32.75486781666666757928" lon="35.26852298333333379787"><ele>182.05139621846152</ele><time>2012-10-12T07:54:45Z</time></trkpt><trkpt lat="32.75480928333332997227" lon="35.26842194999999691163"><ele>181.99061091687358</ele><time>2012-10-12T07:54:48Z</time></trkpt><trkpt lat="32.75477089999999691372" lon="35.26831051666666638766"><ele>181.85118807088767</ele><time>2012-10-12T07:54:51Z</time></trkpt><trkpt lat="32.75474776666666798519" lon="35.26819108333333474548"><ele>181.66098757170033</ele><time>2012-10-12T07:54:54Z</time></trkpt><trkpt lat="32.75472326666666589290" lon="35.26807209999999770389"><ele>181.44699868450488</ele><time>2012-10-12T07:54:57Z</time></trkpt><trkpt lat="32.75469291666667004392" lon="35.26794881666666725550"><ele>181.19344018972635</ele><time>2012-10-12T07:55:00Z</time></trkpt><trkpt lat="32.75466670000000135587" lon="35.26783325000000246519"><ele>181.60053999958149</ele><time>2012-10-12T07:55:03Z</time></trkpt><trkpt lat="32.75463535000000092623" lon="35.26771396666666902320"><ele>182.27861999958103</ele><time>2012-10-12T07:55:06Z</time></trkpt><trkpt lat="32.75460166666666594892" lon="35.26759981666666732281"><ele>182.92309999958866</ele><time>2012-10-12T07:55:09Z</time></trkpt><trkpt lat="32.75454896666666826377" lon="35.26748603333333420551"><ele>183.9934352697304</ele><time>2012-10-12T07:55:12Z</time></trkpt><trkpt lat="32.75448673333333005075" lon="35.26737478333333086766"><ele>185.34082744262116</ele><time>2012-10-12T07:55:15Z</time></trkpt><trkpt lat="32.75440963333333144192" lon="35.26725946666666544616"><ele>186.7869435130147</ele><time>2012-10-12T07:55:18Z</time></trkpt><trkpt lat="32.75435481666666959200" lon="35.26714868333333186001"><ele>187.88767732898177</ele><time>2012-10-12T07:55:21Z</time></trkpt><trkpt lat="32.75431065000000074861" lon="35.26703518333333420287"><ele>188.7910999994166</ele><time>2012-10-12T07:55:24Z</time></trkpt><trkpt lat="32.75426900000000074442" lon="35.26691859999999678621"><ele>189.61063999943062</ele><time>2012-10-12T07:55:27Z</time></trkpt><trkpt lat="32.75423551666666810434" lon="35.26679610000000053560"><ele>190.37307999940975</ele><time>2012-10-12T07:55:30Z</time></trkpt><trkpt lat="32.75421341666666563697" lon="35.26666860000000269793"><ele>191.04423999942506</ele><time>2012-10-12T07:55:33Z</time></trkpt><trkpt lat="32.75419981666667013087" lon="35.26653406666666512592"><ele>191.6591199993966</ele><time>2012-10-12T07:55:36Z</time></trkpt><trkpt lat="32.75418163333333154696" lon="35.26641121666666833789"><ele>192.27593999943488</ele><time>2012-10-12T07:55:39Z</time></trkpt><trkpt lat="32.75416353333333319142" lon="35.26627893333333219061"><ele>192.92591999942863</ele><time>2012-10-12T07:55:42Z</time></trkpt><trkpt lat="32.75414648333333644814" lon="35.26615034999999664933"><ele>193.42712754422533</ele><time>2012-10-12T07:55:45Z</time></trkpt><trkpt lat="32.75412178333333201863" lon="35.26601784999999722459"><ele>193.95803136187192</ele><time>2012-10-12T07:55:48Z</time></trkpt><trkpt lat="32.75409183333333373866" lon="35.26590153333333432784"><ele>194.47961846345504</ele><time>2012-10-12T07:55:51Z</time></trkpt><trkpt lat="32.75404921666666524516" lon="35.26578843333333423971"><ele>195.07915230507763</ele><time>2012-10-12T07:55:54Z</time></trkpt><trkpt lat="32.75400843333333256169" lon="35.26567820000000352820"><ele>195.63078387787388</ele><time>2012-10-12T07:55:57Z</time></trkpt><trkpt lat="32.75397319999999723450" lon="35.26557136666666991687"><ele>196.1078763642962</ele><time>2012-10-12T07:56:00Z</time></trkpt><trkpt lat="32.75394601666666716255" lon="35.26545563333333177525"><ele>196.51992222508684</ele><time>2012-10-12T07:56:03Z</time></trkpt><trkpt lat="32.75391928333333169121" lon="35.26534671666667009049"><ele>197.0015125722839</ele><time>2012-10-12T07:56:06Z</time></trkpt><trkpt lat="32.75389249999999918828" lon="35.26523755000000193149"><ele>197.48297791950907</ele><time>2012-10-12T07:56:09Z</time></trkpt><trkpt lat="32.75386911666666378551" lon="35.26512331666666710817"><ele>197.89692190994697</ele><time>2012-10-12T07:56:12Z</time></trkpt><trkpt lat="32.75384220000000112805" lon="35.26501069999999771198"><ele>198.25451505876634</ele><time>2012-10-12T07:56:15Z</time></trkpt><trkpt lat="32.75381791666666941865" lon="35.26491219999999771062"><ele>198.51105471958834</ele><time>2012-10-12T07:56:18Z</time></trkpt><trkpt lat="32.75379240000000180544" lon="35.26482118333333204419"><ele>198.70016264281153</ele><time>2012-10-12T07:56:21Z</time></trkpt><trkpt lat="32.75377193333333281089" lon="35.26473788333333203582"><ele>198.82812954203155</ele><time>2012-10-12T07:56:24Z</time></trkpt><trkpt lat="32.75373954999999881466" lon="35.26463669999999694937"><ele>199.0026753075218</ele><time>2012-10-12T07:56:27Z</time></trkpt><trkpt lat="32.75371193333333508235" lon="35.26453349999999886677"><ele>199.2772733435154</ele><time>2012-10-12T07:56:30Z</time></trkpt><trkpt lat="32.75368656666666566935" lon="35.26443030000000078417"><ele>199.50832529234088</ele><time>2012-10-12T07:56:33Z</time></trkpt><trkpt lat="32.75367126666666450774" lon="35.26433048333333175606"><ele>199.6611515131585</ele><time>2012-10-12T07:56:36Z</time></trkpt><trkpt lat="32.75369940000000212876" lon="35.26422378333333540468"><ele>199.630266994746</ele><time>2012-10-12T07:56:39Z</time></trkpt><trkpt lat="32.75369080000000110431" lon="35.26411963333333687842"><ele>199.7535220091545</ele><time>2012-10-12T07:56:42Z</time></trkpt><trkpt lat="32.75367893333333313421" lon="35.26403401666666326264"><ele>199.86072051797439</ele><time>2012-10-12T07:56:45Z</time></trkpt><trkpt lat="32.75367296666667016325" lon="35.26394690000000053942"><ele>199.94352689237198</ele><time>2012-10-12T07:56:48Z</time></trkpt><trkpt lat="32.75365916666666521451" lon="35.26385315000000275631"><ele>200.03918807959226</ele><time>2012-10-12T07:56:51Z</time></trkpt><trkpt lat="32.75364308333332985512" lon="35.26377145000000012942"><ele>200.11576976760603</ele><time>2012-10-12T07:56:54Z</time></trkpt><trkpt lat="32.75362061666666591009" lon="35.26367975000000143382"><ele>199.9866599996667</ele><time>2012-10-12T07:56:57Z</time></trkpt><trkpt lat="32.75360770000000343316" lon="35.26360928333333077944"><ele>199.83303999965221</ele><time>2012-10-12T07:57:00Z</time></trkpt><trkpt lat="32.75361413333333615583" lon="35.26354851666666689880"><ele>199.67947999965975</ele><time>2012-10-12T07:57:03Z</time></trkpt><trkpt lat="32.75362954999999942629" lon="35.26348471666666739566"><ele>199.50785999966516</ele><time>2012-10-12T07:57:06Z</time></trkpt><trkpt lat="32.75362925000000302589" lon="35.26341219999999765378"><ele>199.33417999965366</ele><time>2012-10-12T07:57:09Z</time></trkpt><trkpt lat="32.75363540000000028840" lon="35.26336059999999861247"><ele>199.20295999965933</ele><time>2012-10-12T07:57:12Z</time></trkpt><trkpt lat="32.75363544999999731999" lon="35.26330971666666869169"><ele>199.08077999967122</ele><time>2012-10-12T07:57:15Z</time></trkpt><trkpt lat="32.75366161666666897645" lon="35.26326101666666801293"><ele>198.93249999966375</ele><time>2012-10-12T07:57:18Z</time></trkpt><trkpt lat="32.75370269999999806032" lon="35.26322421666666429019"><ele>198.79487999966003</ele><time>2012-10-12T07:57:21Z</time></trkpt><trkpt lat="32.75373428333332981310" lon="35.26320191666666659103"><ele>198.70345999966753</ele><time>2012-10-12T07:57:24Z</time></trkpt><trkpt lat="32.75376088333333512992" lon="35.26317991666666529227"><ele>198.69297434579016</ele><time>2012-10-12T07:57:27Z</time></trkpt><trkpt lat="32.75380086666666556994" lon="35.26317271666666641750"><ele>198.90096484937555</ele><time>2012-10-12T07:57:32Z</time></trkpt><trkpt lat="32.75375315000000142618" lon="35.26318255000000334576"><ele>198.6558139529996</ele><time>2012-10-12T07:57:38Z</time></trkpt><trkpt lat="32.75372661666666829205" lon="35.26324561666666568271"><ele>198.81753999965906</ele><time>2012-10-12T07:57:41Z</time></trkpt><trkpt lat="32.75369134999999687352" lon="35.26328048333333242681"><ele>198.94353999966484</ele><time>2012-10-12T07:57:44Z</time></trkpt><trkpt lat="32.75366388333333134142" lon="35.26332871666666335386"><ele>199.09225999965756</ele><time>2012-10-12T07:57:47Z</time></trkpt><trkpt lat="32.75363511666666482824" lon="35.26331478333333535602"><ele>199.0933399996702</ele><time>2012-10-12T07:58:53Z</time></trkpt><trkpt lat="32.75359278333333179489" lon="35.26331383333333491237"><ele>199.1418599996687</ele><time>2012-10-12T07:58:56Z</time></trkpt><trkpt lat="32.75351966666666925221" lon="35.26332261666667022837"><ele>199.25067999966842</ele><time>2012-10-12T07:58:59Z</time></trkpt><trkpt lat="32.75344690000000014152" lon="35.26337238333333345963"><ele>199.45743999966297</ele><time>2012-10-12T07:59:02Z</time></trkpt><trkpt lat="32.75336266666666773517" lon="35.26343803333333681849"><ele>199.71607999966966</ele><time>2012-10-12T07:59:05Z</time></trkpt><trkpt lat="32.75328474999999883721" lon="35.26348061666666922065"><ele>199.9117799996699</ele><time>2012-10-12T07:59:08Z</time></trkpt><trkpt lat="32.75320140000000179725" lon="35.26350853333333645878"><ele>200.07879999966755</ele><time>2012-10-12T07:59:11Z</time></trkpt><trkpt lat="32.75311558333333294968" lon="35.26355516666667000436"><ele>200.29369999967048</ele><time>2012-10-12T07:59:14Z</time></trkpt><trkpt lat="32.75303866666666863239" lon="35.26361279999999709389"><ele>200.52431999965248</ele><time>2012-10-12T07:59:17Z</time></trkpt><trkpt lat="32.75294591666666832452" lon="35.26365031666666993715"><ele>200.72565999966747</ele><time>2012-10-12T07:59:20Z</time></trkpt><trkpt lat="32.75286026666666572282" lon="35.26370753333333141200"><ele>201.1011199996196</ele><time>2012-10-12T07:59:23Z</time></trkpt><trkpt lat="32.75277646666666697683" lon="35.26376129999999875508"><ele>201.54768133404176</ele><time>2012-10-12T07:59:26Z</time></trkpt><trkpt lat="32.75271243333333615055" lon="35.26379430000000070322"><ele>201.9077484524407</ele><time>2012-10-12T07:59:29Z</time></trkpt><trkpt lat="32.75265996666666978854" lon="35.26386579999999781876"><ele>202.38380523802724</ele><time>2012-10-12T07:59:32Z</time></trkpt><trkpt lat="32.75263075000000156933" lon="35.26393131666666391766"><ele>202.75669169762952</ele><time>2012-10-12T07:59:35Z</time></trkpt><trkpt lat="32.75260459999999795855" lon="35.26402794999999912307"><ele>203.2489640588492</ele><time>2012-10-12T07:59:38Z</time></trkpt><trkpt lat="32.75253478333333134742" lon="35.26410324999999801321"><ele>203.84073641364418</ele><time>2012-10-12T07:59:41Z</time></trkpt><trkpt lat="32.75247490000000283317" lon="35.26417246666666471810"><ele>204.3799896347936</ele><time>2012-10-12T07:59:44Z</time></trkpt><trkpt lat="32.75241906666666835690" lon="35.26423793333333378541"><ele>204.89754570200742</ele><time>2012-10-12T07:59:47Z</time></trkpt><trkpt lat="32.75237185000000295076" lon="35.26428871666666964302"><ele>205.3233626184122</ele><time>2012-10-12T07:59:50Z</time></trkpt><trkpt lat="32.75232728333333653836" lon="35.26438904999999834899"><ele>205.96472940318813</ele><time>2012-10-12T07:59:53Z</time></trkpt><trkpt lat="32.75228884999999934280" lon="35.26446491666666815945"><ele>206.48016470161818</ele><time>2012-10-12T07:59:56Z</time></trkpt><trkpt lat="32.75222961666666776637" lon="35.26454214999999692282"><ele>207.10883518638786</ele><time>2012-10-12T07:59:59Z</time></trkpt><trkpt lat="32.75218341666666788115" lon="35.26461545000000086247"><ele>207.7076713456209</ele><time>2012-10-12T08:00:02Z</time></trkpt><trkpt lat="32.75214353333333150431" lon="35.26469208333333682504"><ele>208.3541126796498</ele><time>2012-10-12T08:00:05Z</time></trkpt><trkpt lat="32.75211778333333256796" lon="35.26475355000000178052"><ele>208.84749589123317</ele><time>2012-10-12T08:00:08Z</time></trkpt><trkpt lat="32.75207211666666751171" lon="35.26478481666666908723"><ele>209.2790117936101</ele><time>2012-10-12T08:00:11Z</time></trkpt><trkpt lat="32.75202800000000280534" lon="35.26480790000000098416"><ele>209.70246735959014</ele><time>2012-10-12T08:00:14Z</time></trkpt><trkpt lat="32.75196673333333308165" lon="35.26483246666666815372"><ele>210.26363241561629</ele><time>2012-10-12T08:00:17Z</time></trkpt><trkpt lat="32.75190556666666452657" lon="35.26484090000000293230"><ele>210.7283447276446</ele><time>2012-10-12T08:00:20Z</time></trkpt><trkpt lat="32.75184285000000272703" lon="35.26485133333333266137"><ele>211.22635663958997</ele><time>2012-10-12T08:00:23Z</time></trkpt><trkpt lat="32.75178878333333187811" lon="35.26484438333333315541"><ele>211.53376439762752</ele><time>2012-10-12T08:00:26Z</time></trkpt><trkpt lat="32.75173278333333115597" lon="35.26485524999999654483"><ele>212.0004467896083</ele><time>2012-10-12T08:00:29Z</time></trkpt><trkpt lat="32.75166506666666776937" lon="35.26480296666666447436"><ele>211.98691017560878</ele><time>2012-10-12T08:00:32Z</time></trkpt><trkpt lat="32.75160716666666615993" lon="35.26476708333333220935"><ele>212.01806849963765</ele><time>2012-10-12T08:00:35Z</time></trkpt><trkpt lat="32.75154728333333054024" lon="35.26473194999999805077"><ele>212.03833494165212</ele><time>2012-10-12T08:00:38Z</time></trkpt><trkpt lat="32.75148561666666324754" lon="35.26469523333333455639"><ele>212.02200836369678</ele><time>2012-10-12T08:00:41Z</time></trkpt><trkpt lat="32.75142704999999665461" lon="35.26466623333333672008"><ele>212.0392823957282</ele><time>2012-10-12T08:00:44Z</time></trkpt><trkpt lat="32.75136630000000081964" lon="35.26464966666666356332"><ele>212.18221511964242</ele><time>2012-10-12T08:00:47Z</time></trkpt><trkpt lat="32.75130536666666358769" lon="35.26461953333333099181"><ele>212.154209231679</ele><time>2012-10-12T08:00:50Z</time></trkpt><trkpt lat="32.75124395000000276923" lon="35.26458788333333416176"><ele>212.1272792787662</ele><time>2012-10-12T08:00:53Z</time></trkpt><trkpt lat="32.75119431666666969249" lon="35.26454503333333434512"><ele>212.28823581073948</ele><time>2012-10-12T08:00:56Z</time></trkpt><trkpt lat="32.75114221666666480814" lon="35.26448243333333465444"><ele>212.26211805080928</ele><time>2012-10-12T08:00:59Z</time></trkpt><trkpt lat="32.75107538333333678793" lon="35.26442035000000174705"><ele>212.36683266676528</ele><time>2012-10-12T08:01:02Z</time></trkpt><trkpt lat="32.75098126666666331630" lon="35.26434230000000269456"><ele>212.53778353886432</ele><time>2012-10-12T08:01:05Z</time></trkpt><trkpt lat="32.75089911666666608880" lon="35.26422500000000326281"><ele>212.04637679965916</ele><time>2012-10-12T08:01:08Z</time></trkpt><trkpt lat="32.75080993333333623241" lon="35.26409036666666452220"><ele>211.29875598046806</ele><time>2012-10-12T08:01:11Z</time></trkpt><trkpt lat="32.75073658333333526116" lon="35.26393155000000234622"><ele>209.97637418375746</ele><time>2012-10-12T08:01:14Z</time></trkpt><trkpt lat="32.75063988333333497849" lon="35.26376831666666333831"><ele>208.63304974851434</ele><time>2012-10-12T08:01:17Z</time></trkpt><trkpt lat="32.75054198333333488335" lon="35.26363861666666821293"><ele>208.1490387444995</ele><time>2012-10-12T08:01:20Z</time></trkpt><trkpt lat="32.75045408333333085693" lon="35.26349065000000138070"><ele>207.32468266775535</ele><time>2012-10-12T08:01:23Z</time></trkpt><trkpt lat="32.75036298333333206756" lon="35.26335393333333456667"><ele>206.80497261246575</ele><time>2012-10-12T08:01:26Z</time></trkpt><trkpt lat="32.75027838333333107812" lon="35.26318558333333186283"><ele>206.24629348563673</ele><time>2012-10-12T08:01:29Z</time></trkpt><trkpt lat="32.75013239999999825613" lon="35.26305348333333000710"><ele>206.89774475479612</ele><time>2012-10-12T08:01:32Z</time></trkpt><trkpt lat="32.74997753333333605497" lon="35.26295315000000130112"><ele>208.07758907315662</ele><time>2012-10-12T08:01:35Z</time></trkpt><trkpt lat="32.74989241666666828223" lon="35.26288173333333020310"><ele>208.71522438350732</ele><time>2012-10-12T08:01:38Z</time></trkpt><trkpt lat="32.74979091666666874971" lon="35.26291901666666461779"><ele>210.2761073855212</ele><time>2012-10-12T08:01:41Z</time></trkpt><trkpt lat="32.74971586666666922838" lon="35.26291361666666546171"><ele>211.23034625871514</ele><time>2012-10-12T08:01:44Z</time></trkpt><trkpt lat="32.74964498333333295932" lon="35.26284139999999922566"><ele>211.66434562036608</ele><time>2012-10-12T08:01:47Z</time></trkpt><trkpt lat="32.74960846666666469673" lon="35.26277728333333527644"><ele>211.67981368441198</ele><time>2012-10-12T08:01:50Z</time></trkpt><trkpt lat="32.74957448333333331902" lon="35.26268823333333557457"><ele>211.3658999997495</ele><time>2012-10-12T08:01:53Z</time></trkpt><trkpt lat="32.74951761666666527617" lon="35.26260919999999998709"><ele>210.86509999973538</ele><time>2012-10-12T08:01:56Z</time></trkpt><trkpt lat="32.74947685000000063837" lon="35.26250213333333505261"><ele>210.1431399997461</ele><time>2012-10-12T08:01:59Z</time></trkpt><trkpt lat="32.74943919999999764059" lon="35.26238800000000139789"><ele>209.3665599997481</ele><time>2012-10-12T08:02:02Z</time></trkpt><trkpt lat="32.74940029999999779875" lon="35.26228906666666773617"><ele>208.70091999974613</ele><time>2012-10-12T08:02:05Z</time></trkpt><trkpt lat="32.74937899999999757483" lon="35.26219216666666511628"><ele>208.02879999972814</ele><time>2012-10-12T08:02:08Z</time></trkpt><trkpt lat="32.74937686666666536439" lon="35.26209863333333061064"><ele>207.35791999971894</ele><time>2012-10-12T08:02:11Z</time></trkpt><trkpt lat="32.74942411666666686187" lon="35.26196161666666739620"><ele>206.30817111773186</ele><time>2012-10-12T08:02:14Z</time></trkpt><trkpt lat="32.74943686666667019836" lon="35.26184370000000001255"><ele>205.41554772770755</ele><time>2012-10-12T08:02:17Z</time></trkpt><trkpt lat="32.74942529999999862866" lon="35.26173200000000207410"><ele>204.63820111972618</ele><time>2012-10-12T08:02:20Z</time></trkpt><trkpt lat="32.74936036666666439032" lon="35.26160208333333656583"><ele>203.99763949971808</ele><time>2012-10-12T08:02:23Z</time></trkpt><trkpt lat="32.74931108333333185101" lon="35.26146111666666627116"><ele>203.31974910967193</ele><time>2012-10-12T08:02:26Z</time></trkpt><trkpt lat="32.74927091666666711944" lon="35.26131561666666414112"><ele>202.6529818696288</ele><time>2012-10-12T08:02:29Z</time></trkpt><trkpt lat="32.74923198333333118626" lon="35.26117374999999753982"><ele>202.16371999962166</ele><time>2012-10-12T08:02:32Z</time></trkpt><trkpt lat="32.74920801666666392293" lon="35.26101133333333592645"><ele>201.55667999965078</ele><time>2012-10-12T08:02:35Z</time></trkpt><trkpt lat="32.74916836666666597466" lon="35.26076206666666479350"><ele>200.64567999961542</ele><time>2012-10-12T08:02:38Z</time></trkpt><trkpt lat="32.74910306666666315323" lon="35.26056846666666899637"><ele>200.18655999965634</ele><time>2012-10-12T08:02:41Z</time></trkpt><trkpt lat="32.74904738333333398259" lon="35.26037294999999716083"><ele>199.65270262640348</ele><time>2012-10-12T08:02:44Z</time></trkpt><trkpt lat="32.74897016666666615947" lon="35.26022598333333490928"><ele>199.45206273164675</ele><time>2012-10-12T08:02:47Z</time></trkpt><trkpt lat="32.74885888333333383571" lon="35.26017765000000281361"><ele>199.89436770325827</ele><time>2012-10-12T08:02:50Z</time></trkpt><trkpt lat="32.74877028333333583987" lon="35.26010993333333232158"><ele>200.04043720123502</ele><time>2012-10-12T08:02:53Z</time></trkpt><trkpt lat="32.74870370000000008304" lon="35.26007928333333296678"><ele>200.67548597793342</ele><time>2012-10-12T08:02:56Z</time></trkpt><trkpt lat="32.74865436666666340670" lon="35.26005415000000198233"><ele>201.2668571043993</ele><time>2012-10-12T08:02:59Z</time></trkpt><trkpt lat="32.74863429999999908659" lon="35.26001051666666796791"><ele>201.30035216036097</ele><time>2012-10-12T08:03:02Z</time></trkpt><trkpt lat="32.74860488333333563560" lon="35.26001358333333257633"><ele>201.7610884815002</ele><time>2012-10-12T08:03:05Z</time></trkpt><trkpt lat="32.74859715000000193186" lon="35.25997635000000229866"><ele>201.64564453992583</ele><time>2012-10-12T08:03:14Z</time></trkpt><trkpt lat="32.74857553333333015644" lon="35.25995218333333269811"><ele>201.81808692278472</ele><time>2012-10-12T08:03:17Z</time></trkpt><trkpt lat="32.74851431666666456977" lon="35.25988269999999857873"><ele>202.29164025636558</ele><time>2012-10-12T08:03:20Z</time></trkpt><trkpt lat="32.74844985000000008313" lon="35.25987023333333070241"><ele>203.16756276992626</ele><time>2012-10-12T08:03:23Z</time></trkpt><trkpt lat="32.74839965000000319151" lon="35.25981806666666784622"><ele>203.57186390510682</ele><time>2012-10-12T08:03:26Z</time></trkpt><trkpt lat="32.74835559999999645697" lon="35.25974688333333517676"><ele>203.7535459324123</ele><time>2012-10-12T08:03:29Z</time></trkpt><trkpt lat="32.74830719999999928405" lon="35.25967320000000171376"><ele>203.9728218619724</ele><time>2012-10-12T08:03:32Z</time></trkpt><trkpt lat="32.74826371666666346982" lon="35.25961983333333193968"><ele>204.24703905158916</ele><time>2012-10-12T08:03:35Z</time></trkpt><trkpt lat="32.74819614999999828342" lon="35.25955944999999758238"><ele>204.6991558800312</ele><time>2012-10-12T08:03:38Z</time></trkpt><trkpt lat="32.74812913333333597166" lon="35.25949740000000076634"><ele>204.8385891772455</ele><time>2012-10-12T08:03:41Z</time></trkpt><trkpt lat="32.74807398333333452456" lon="35.25946248333332988523"><ele>205.06025938243138</ele><time>2012-10-12T08:03:44Z</time></trkpt><trkpt lat="32.74799528333333142882" lon="35.25943573333333347364"><ele>205.6054635101468</ele><time>2012-10-12T08:03:47Z</time></trkpt><trkpt lat="32.74793038333333328183" lon="35.25942563333333623632"><ele>206.19361357499199</ele><time>2012-10-12T08:03:50Z</time></trkpt><trkpt lat="32.74786926666666886376" lon="35.25940916666666424817"><ele>206.28963207978254</ele><time>2012-10-12T08:03:53Z</time></trkpt><trkpt lat="32.74782439999999894553" lon="35.25935616666667016261"><ele>205.5962977278998</ele><time>2012-10-12T08:03:56Z</time></trkpt><trkpt lat="32.74777461666666766860" lon="35.25927434999999832144"><ele>204.42771684100663</ele><time>2012-10-12T08:03:59Z</time></trkpt><trkpt lat="32.74772475000000326872" lon="35.25920191666666880792"><ele>203.40799168986547</ele><time>2012-10-12T08:04:02Z</time></trkpt><trkpt lat="32.74766815000000264035" lon="35.25910960000000216041"><ele>202.06462789427312</ele><time>2012-10-12T08:04:05Z</time></trkpt><trkpt lat="32.74763123333333680876" lon="35.25901998333333153823"><ele>200.67424962940578</ele><time>2012-10-12T08:04:08Z</time></trkpt><trkpt lat="32.74759255000000024438" lon="35.25887734999999878482"><ele>198.36573781063407</ele><time>2012-10-12T08:04:11Z</time></trkpt><trkpt lat="32.74754301666666833626" lon="35.25872043333333039072"><ele>196.11143182049457</ele><time>2012-10-12T08:04:14Z</time></trkpt><trkpt lat="32.74743868333333551845" lon="35.25852799999999831471"><ele>194.69912630374395</ele><time>2012-10-12T08:04:17Z</time></trkpt><trkpt lat="32.74730318333333656255" lon="35.25834563333333449009"><ele>192.89502813424176</ele><time>2012-10-12T08:04:20Z</time></trkpt><trkpt lat="32.74711806666666547017" lon="35.25817616666666509673"><ele>190.52996678387234</ele><time>2012-10-12T08:04:23Z</time></trkpt><trkpt lat="32.74690246666666837427" lon="35.25809611666666398833"><ele>188.764357393483</ele><time>2012-10-12T08:04:26Z</time></trkpt><trkpt lat="32.74670001666666507845" lon="35.25800381666666538649"><ele>186.8185447082987</ele><time>2012-10-12T08:04:29Z</time></trkpt><trkpt lat="32.74658618333333492956" lon="35.25794766666666646415"><ele>185.64165277592954</ele><time>2012-10-12T08:04:32Z</time></trkpt><trkpt lat="32.74646226666666848359" lon="35.25797768333332982138"><ele>185.62414940148537</ele><time>2012-10-12T08:04:35Z</time></trkpt><trkpt lat="32.74634216666666475248" lon="35.25800871666666580495"><ele>185.6451031239112</ele><time>2012-10-12T08:04:38Z</time></trkpt><trkpt lat="32.74620654999999658230" lon="35.25807756666666392675"><ele>186.07819842630755</ele><time>2012-10-12T08:04:41Z</time></trkpt><trkpt lat="32.74602408333333158907" lon="35.25813343333333449436"><ele>185.82548440396394</ele><time>2012-10-12T08:04:44Z</time></trkpt><trkpt lat="32.74587236666666711926" lon="35.25818936666667013924"><ele>185.6693637648003</ele><time>2012-10-12T08:04:47Z</time></trkpt><trkpt lat="32.74568099999999759575" lon="35.25824656666666356841"><ele>185.20843940789396</ele><time>2012-10-12T08:04:50Z</time></trkpt><trkpt lat="32.74549571666666736292" lon="35.25827488333333548098"><ele>184.37050955876543</ele><time>2012-10-12T08:04:53Z</time></trkpt><trkpt lat="32.74532154999999988831" lon="35.25830429999999893198"><ele>183.92097318785036</ele><time>2012-10-12T08:04:56Z</time></trkpt><trkpt lat="32.74517998333333679284" lon="35.25832634999999726233"><ele>183.72643043783472</ele><time>2012-10-12T08:04:59Z</time></trkpt><trkpt lat="32.74508606666666565843" lon="35.25838983333333231940"><ele>183.98391191983495</ele><time>2012-10-12T08:05:02Z</time></trkpt><trkpt lat="32.74499631666666488172" lon="35.25843935000000328728"><ele>184.06306843786217</ele><time>2012-10-12T08:05:05Z</time></trkpt><trkpt lat="32.74486625000000117325" lon="35.25851458333332999473"><ele>184.08795624982073</ele><time>2012-10-12T08:05:08Z</time></trkpt><trkpt lat="32.74475484999999963520" lon="35.25852191666666612946"><ele>183.65263532982303</ele><time>2012-10-12T08:05:11Z</time></trkpt><trkpt lat="32.74468739999999655765" lon="35.25852958333333475593"><ele>183.40124619981447</ele><time>2012-10-12T08:05:14Z</time></trkpt><trkpt lat="32.74466046666666585452" lon="35.25856261666666568999"><ele>183.45929479181373</ele><time>2012-10-12T08:05:17Z</time></trkpt><trkpt lat="32.74463921666666976762" lon="35.25859608333333028440"><ele>183.5345700898237</ele><time>2012-10-12T08:05:20Z</time></trkpt><trkpt lat="32.74466593333333008786" lon="35.25858556666666743240"><ele>183.60852820781446</ele><time>2012-10-12T08:05:40Z</time></trkpt><trkpt lat="32.74471223333333114169" lon="35.25855663333333467335"><ele>183.66578026382498</ele><time>2012-10-12T08:05:43Z</time></trkpt><trkpt lat="32.74473735000000118589" lon="35.25853560000000186392"><ele>183.65722755184393</ele><time>2012-10-12T08:05:46Z</time></trkpt><trkpt lat="32.74473081666666729461" lon="35.25850005000000209066"><ele>183.41972309383777</ele><time>2012-10-12T08:05:50Z</time></trkpt><trkpt lat="32.74473223333333038454" lon="35.25854036666666502242"><ele>183.66241629580475</ele><time>2012-10-12T08:06:17Z</time></trkpt><trkpt lat="32.74475388333333114588" lon="35.25856103333333635419"><ele>183.88421649184025</ele><time>2012-10-12T08:06:22Z</time></trkpt><trkpt lat="32.74478884999999905858" lon="35.25854970000000321306"><ele>183.9752720838504</ele><time>2012-10-12T08:06:37Z</time></trkpt><trkpt lat="32.74486406666666482579" lon="35.25853926666666637857"><ele>184.24692892783082</ele><time>2012-10-12T08:06:40Z</time></trkpt><trkpt lat="32.74493284999999787033" lon="35.25851891666666659830"><ele>184.4063741698361</ele><time>2012-10-12T08:06:43Z</time></trkpt><trkpt lat="32.74502626666667026711" lon="35.25849540000000104101"><ele>184.62357004787611</ele><time>2012-10-12T08:06:46Z</time></trkpt><trkpt lat="32.74510678333333402179" lon="35.25846305000000313612"><ele>184.68187136188698</ele><time>2012-10-12T08:06:49Z</time></trkpt><trkpt lat="32.74525831666666420006" lon="35.25839668333333065675"><ele>184.6369033978311</ele><time>2012-10-12T08:06:52Z</time></trkpt><trkpt lat="32.74538318333333108967" lon="35.25836034999999668571"><ele>184.68481682183202</ele><time>2012-10-12T08:06:55Z</time></trkpt><trkpt lat="32.74548546666666481997" lon="35.25831449999999733791"><ele>184.7450824318975</ele><time>2012-10-12T08:06:58Z</time></trkpt><trkpt lat="32.74560499999999763077" lon="35.25828860000000020136"><ele>185.22348495993143</ele><time>2012-10-12T08:07:01Z</time></trkpt><trkpt lat="32.74569538333333440505" lon="35.25825265000000285909"><ele>185.37100274838815</ele><time>2012-10-12T08:07:04Z</time></trkpt><trkpt lat="32.74580163333333615583" lon="35.25823084999999679212"><ele>185.76352447752924</ele><time>2012-10-12T08:07:07Z</time></trkpt><trkpt lat="32.74589486666666715564" lon="35.25819520000000295568"><ele>185.87892084479589</ele><time>2012-10-12T08:07:10Z</time></trkpt><trkpt lat="32.74598918333333585906" lon="35.25818861666666492738"><ele>186.35774632035188</ele><time>2012-10-12T08:07:13Z</time></trkpt><trkpt lat="32.74607894999999757601" lon="35.25817095000000023219"><ele>186.65274089075282</ele><time>2012-10-12T08:07:16Z</time></trkpt><trkpt lat="32.74616220000000055279" lon="35.25816795000000070104"><ele>187.10172923678158</ele><time>2012-10-12T08:07:19Z</time></trkpt><trkpt lat="32.74625000000000341061" lon="35.25811998333333008304"><ele>186.9277599998925</ele><time>2012-10-12T08:07:22Z</time></trkpt><trkpt lat="32.74632094999999765150" lon="35.25807616666666888250"><ele>186.53592420395177</ele><time>2012-10-12T08:07:25Z</time></trkpt><trkpt lat="32.74640721666666820511" lon="35.25802421666666930378"><ele>186.09035154037068</ele><time>2012-10-12T08:07:28Z</time></trkpt><trkpt lat="32.74650201666666760048" lon="35.25803024999999735201"><ele>186.50164015389154</ele><time>2012-10-12T08:07:31Z</time></trkpt><trkpt lat="32.74656805000000048267" lon="35.25800389999999850943"><ele>186.36118783110584</ele><time>2012-10-12T08:07:34Z</time></trkpt><trkpt lat="32.74665818333333078272" lon="35.25797391666666413812"><ele>186.2602093658801</ele><time>2012-10-12T08:07:37Z</time></trkpt><trkpt lat="32.74675371666666734427" lon="35.25796580000000091104"><ele>186.48526103833686</ele><time>2012-10-12T08:07:40Z</time></trkpt><trkpt lat="32.74678563333333158880" lon="35.25799363333333502624"><ele>186.9772346863371</ele><time>2012-10-12T08:07:43Z</time></trkpt><trkpt lat="32.74682465000000064492" lon="35.25801065000000278360"><ele>187.34432916755856</ele><time>2012-10-12T08:07:47Z</time></trkpt><trkpt lat="32.74686890000000261125" lon="35.25804680000000246309"><ele>187.9859830911583</ele><time>2012-10-12T08:07:50Z</time></trkpt><trkpt lat="32.74691334999999980937" lon="35.25807758333333197243"><ele>188.55154853789492</ele><time>2012-10-12T08:07:53Z</time></trkpt><trkpt lat="32.74694664999999815791" lon="35.25812595000000015943"><ele>189.31167198270722</ele><time>2012-10-12T08:07:56Z</time></trkpt><trkpt lat="32.74700758333333538985" lon="35.25813651666666714846"><ele>189.65330123792245</ele><time>2012-10-12T08:07:59Z</time></trkpt><trkpt lat="32.74707471666666691590" lon="35.25815415000000285772"><ele>190.10670669314558</ele><time>2012-10-12T08:08:02Z</time></trkpt><trkpt lat="32.74717961666666354859" lon="35.25820238333333378478"><ele>191.0322476446766</ele><time>2012-10-12T08:08:05Z</time></trkpt><trkpt lat="32.74724971666666561987" lon="35.25823938333333273931"><ele>191.63959734705017</ele><time>2012-10-12T08:08:08Z</time></trkpt><trkpt lat="32.74731178333333048158" lon="35.25829131666666427236"><ele>192.3300971102068</ele><time>2012-10-12T08:08:11Z</time></trkpt><trkpt lat="32.74735849999999715010" lon="35.25834135000000202353"><ele>192.91060780783474</ele><time>2012-10-12T08:08:14Z</time></trkpt><trkpt lat="32.74739926666666889332" lon="35.25840333333333376231"><ele>193.54835135980156</ele><time>2012-10-12T08:08:17Z</time></trkpt><trkpt lat="32.74744573333333619303" lon="35.25847683333333293376"><ele>194.2299893117671</ele><time>2012-10-12T08:08:20Z</time></trkpt><trkpt lat="32.74749841666666583251" lon="35.25854840000000223199"><ele>194.80858281576664</ele><time>2012-10-12T08:08:23Z</time></trkpt><trkpt lat="32.74753996666666466808" lon="35.25862648333333027040"><ele>195.37544904931747</ele><time>2012-10-12T08:08:26Z</time></trkpt><trkpt lat="32.74755975000000063346" lon="35.25869623333333180426"><ele>195.87026867171025</ele><time>2012-10-12T08:08:29Z</time></trkpt><trkpt lat="32.74755426666666835445" lon="35.25875298333333063283"><ele>196.3563168702079</ele><time>2012-10-12T08:08:32Z</time></trkpt><trkpt lat="32.74755208333333200699" lon="35.25881051666666365918"><ele>197.36095124981173</ele><time>2012-10-12T08:08:35Z</time></trkpt><trkpt lat="32.74757424999999955162" lon="35.25885088333333072796"><ele>197.9772835538138</ele><time>2012-10-12T08:08:38Z</time></trkpt><trkpt lat="32.74760520000000241225" lon="35.25890326666666396704"><ele>198.7649019389991</ele><time>2012-10-12T08:08:41Z</time></trkpt><trkpt lat="32.74760055000000136260" lon="35.25896120000000166783"><ele>199.78231992947653</ele><time>2012-10-12T08:08:44Z</time></trkpt><trkpt lat="32.74762823333333017217" lon="35.25902399999999659030"><ele>200.7553642558044</ele><time>2012-10-12T08:08:47Z</time></trkpt><trkpt lat="32.74765853333333609498" lon="35.25909318333333430928"><ele>201.82232536305307</ele><time>2012-10-12T08:08:50Z</time></trkpt><trkpt lat="32.74769723333333359960" lon="35.25915609999999844604"><ele>202.7407611022171</ele><time>2012-10-12T08:08:53Z</time></trkpt><trkpt lat="32.74774839999999898055" lon="35.25922208333333429664"><ele>203.65114767986248</ele><time>2012-10-12T08:08:56Z</time></trkpt><trkpt lat="32.74779534999999697220" lon="35.25928340000000105192"><ele>204.4910428462699</ele><time>2012-10-12T08:08:59Z</time></trkpt><trkpt lat="32.74784435000000115679" lon="35.25933415000000081818"><ele>205.13489104424494</ele><time>2012-10-12T08:09:02Z</time></trkpt><trkpt lat="32.74789926666666417532" lon="35.25936483333333626433"><ele>205.4072452638947</ele><time>2012-10-12T08:09:05Z</time></trkpt><trkpt lat="32.74797646666666395276" lon="35.25931618333333261717"><ele>203.9498226701715</ele><time>2012-10-12T08:09:08Z</time></trkpt><trkpt lat="32.74803678333333323280" lon="35.25924291666666476885"><ele>202.3167754697313</ele><time>2012-10-12T08:09:11Z</time></trkpt><trkpt lat="32.74812458333333609062" lon="35.25909943333333274040"><ele>199.75991557974618</ele><time>2012-10-12T08:09:14Z</time></trkpt><trkpt lat="32.74822726666666738993" lon="35.25892893333333688588"><ele>197.33840430061886</ele><time>2012-10-12T08:09:17Z</time></trkpt><trkpt lat="32.74831793333333251894" lon="35.25876559999999670936"><ele>195.62641729256455</ele><time>2012-10-12T08:09:20Z</time></trkpt><trkpt lat="32.74836883333333048540" lon="35.25859874999999732381"><ele>195.09658189969545</ele><time>2012-10-12T08:09:23Z</time></trkpt><trkpt lat="32.74841756666666725550" lon="35.25844895000000178698"><ele>194.73444616051552</ele><time>2012-10-12T08:09:26Z</time></trkpt><trkpt lat="32.74846165000000297596" lon="35.25830030000000192558"><ele>194.38797376692247</ele><time>2012-10-12T08:09:29Z</time></trkpt><trkpt lat="32.74851551666666438223" lon="35.25815620000000194523"><ele>194.0929998669139</ele><time>2012-10-12T08:09:32Z</time></trkpt><trkpt lat="32.74855885000000199625" lon="35.25803003333333407454"><ele>193.84452485492145</ele><time>2012-10-12T08:09:35Z</time></trkpt><trkpt lat="32.74860356666666660885" lon="35.25790508333333406199"><ele>193.63954501569012</ele><time>2012-10-12T08:09:38Z</time></trkpt><trkpt lat="32.74865516666666565015" lon="35.25778313333333358059"><ele>193.64863062368545</ele><time>2012-10-12T08:09:41Z</time></trkpt><trkpt lat="32.74871031666666709725" lon="35.25767609999999763204"><ele>193.64357388288366</ele><time>2012-10-12T08:09:44Z</time></trkpt><trkpt lat="32.74874094999999840638" lon="35.25754526666666777146"><ele>193.5422801692811</ele><time>2012-10-12T08:09:47Z</time></trkpt><trkpt lat="32.74875680000000244263" lon="35.25741141666666322863"><ele>193.36921999960504</ele><time>2012-10-12T08:09:50Z</time></trkpt><trkpt lat="32.74876998333333233404" lon="35.25728906666666517822"><ele>193.17493999961994</ele><time>2012-10-12T08:09:53Z</time></trkpt><trkpt lat="32.74879183333333543260" lon="35.25717585000000298123"><ele>192.96041999961432</ele><time>2012-10-12T08:09:56Z</time></trkpt><trkpt lat="32.74882201666666503570" lon="35.25706195000000064965"><ele>192.7641824623922</ele><time>2012-10-12T08:09:59Z</time></trkpt><trkpt lat="32.74885404999999849451" lon="35.25693878333333231012"><ele>192.77722178399208</ele><time>2012-10-12T08:10:02Z</time></trkpt><trkpt lat="32.74887090000000000600" lon="35.25682245000000136770"><ele>192.8324012547819</ele><time>2012-10-12T08:10:05Z</time></trkpt><trkpt lat="32.74886481666666782075" lon="35.25672066666666637502"><ele>192.96189814357672</ele><time>2012-10-12T08:10:08Z</time></trkpt><trkpt lat="32.74885606666666859610" lon="35.25661964999999753445"><ele>193.10375886196587</ele><time>2012-10-12T08:10:11Z</time></trkpt><trkpt lat="32.74879669999999975971" lon="35.25650308333333526889"><ele>193.48915934756613</ele><time>2012-10-12T08:10:14Z</time></trkpt><trkpt lat="32.74875263333333208493" lon="35.25639013333333338096"><ele>193.8197313851692</ele><time>2012-10-12T08:10:17Z</time></trkpt><trkpt lat="32.74871518333333142436" lon="35.25628196666666980263"><ele>194.00181731880562</ele><time>2012-10-12T08:10:20Z</time></trkpt><trkpt lat="32.74866683333333128303" lon="35.25617594999999937500"><ele>194.03754468364673</ele><time>2012-10-12T08:10:23Z</time></trkpt><trkpt lat="32.74861713333333312903" lon="35.25606223333333133496"><ele>194.04189506203267</ele><time>2012-10-12T08:10:26Z</time></trkpt><trkpt lat="32.74856991666666772289" lon="35.25594511666666619476"><ele>194.08742703762007</ele><time>2012-10-12T08:10:29Z</time></trkpt><trkpt lat="32.74851728333333511500" lon="35.25582886666666837527"><ele>194.1972805004068</ele><time>2012-10-12T08:10:32Z</time></trkpt><trkpt lat="32.74846413333333572382" lon="35.25570696666666492547"><ele>194.36201575639208</ele><time>2012-10-12T08:10:35Z</time></trkpt><trkpt lat="32.74841221666666513102" lon="35.25557735000000292303"><ele>194.57970702319437</ele><time>2012-10-12T08:10:38Z</time></trkpt><trkpt lat="32.74836404999999928123" lon="35.25545181666666394449"><ele>194.83613426398227</ele><time>2012-10-12T08:10:41Z</time></trkpt><trkpt lat="32.74831733333333261271" lon="35.25532400000000166074"><ele>195.13880511956918</ele><time>2012-10-12T08:10:44Z</time></trkpt><trkpt lat="32.74827348333333532082" lon="35.25519503333333659612"><ele>195.47756374114132</ele><time>2012-10-12T08:10:47Z</time></trkpt><trkpt lat="32.74823821666666390229" lon="35.25506829999999780512"><ele>195.80872525636514</ele><time>2012-10-12T08:10:50Z</time></trkpt><trkpt lat="32.74819128333333395631" lon="35.25494016666666396986"><ele>196.2601470835333</ele><time>2012-10-12T08:10:53Z</time></trkpt><trkpt lat="32.74816086666666592464" lon="35.25481690000000156715"><ele>196.6345597531282</ele><time>2012-10-12T08:10:56Z</time></trkpt><trkpt lat="32.74812573333333176606" lon="35.25468131666666948831"><ele>197.09717541072254</ele><time>2012-10-12T08:10:59Z</time></trkpt><trkpt lat="32.74808815000000095097" lon="35.25454643333333137889"><ele>197.5334838763411</ele><time>2012-10-12T08:11:02Z</time></trkpt><trkpt lat="32.74805084999999849060" lon="35.25442233333333064138"><ele>197.7418781275664</ele><time>2012-10-12T08:11:05Z</time></trkpt><trkpt lat="32.74801173333333537130" lon="35.25428756666666885167"><ele>197.92749854674992</ele><time>2012-10-12T08:11:08Z</time></trkpt><trkpt lat="32.74797118333333401097" lon="35.25415573333333441042"><ele>198.09607662036626</ele><time>2012-10-12T08:11:11Z</time></trkpt><trkpt lat="32.74793058333333561905" lon="35.25401926666666696519"><ele>198.22882779156166</ele><time>2012-10-12T08:11:14Z</time></trkpt><trkpt lat="32.74789046666666791907" lon="35.25388271666666639703"><ele>198.02348573092982</ele><time>2012-10-12T08:11:17Z</time></trkpt><trkpt lat="32.74784493333333301734" lon="35.25373826666666587926"><ele>197.61586401255468</ele><time>2012-10-12T08:11:20Z</time></trkpt><trkpt lat="32.74779121666666981127" lon="35.25361168333333239389"><ele>196.9498732581631</ele><time>2012-10-12T08:11:23Z</time></trkpt><trkpt lat="32.74773859999999814363" lon="35.25348436666666884776"><ele>196.325225273345</ele><time>2012-10-12T08:11:26Z</time></trkpt><trkpt lat="32.74768371666666411102" lon="35.25334275000000161526"><ele>195.6889623957341</ele><time>2012-10-12T08:11:29Z</time></trkpt><trkpt lat="32.74762009999999889942" lon="35.25320574999999934107"><ele>195.08203045572589</ele><time>2012-10-12T08:11:32Z</time></trkpt><trkpt lat="32.74756446666666676037" lon="35.25306559999999933552"><ele>194.53981155812275</ele><time>2012-10-12T08:11:35Z</time></trkpt><trkpt lat="32.74750266666666931314" lon="35.25292205000000222981"><ele>194.01936134372852</ele><time>2012-10-12T08:11:38Z</time></trkpt><trkpt lat="32.74744154999999778966" lon="35.25277774999999991223"><ele>193.3830046757391</ele><time>2012-10-12T08:11:41Z</time></trkpt><trkpt lat="32.74739273333333500204" lon="35.25262538333333139917"><ele>192.7839255773299</ele><time>2012-10-12T08:11:44Z</time></trkpt><trkpt lat="32.74733426666666957772" lon="35.25247043333333607507"><ele>192.20879252453477</ele><time>2012-10-12T08:11:47Z</time></trkpt><trkpt lat="32.74728228333333390765" lon="35.25231349999999963529"><ele>191.6842799757118</ele><time>2012-10-12T08:11:50Z</time></trkpt><trkpt lat="32.74724286666666728252" lon="35.25216375000000113005"><ele>191.22994791970632</ele><time>2012-10-12T08:11:53Z</time></trkpt><trkpt lat="32.74719236666666688507" lon="35.25201299999999804413"><ele>190.72471420770452</ele><time>2012-10-12T08:11:56Z</time></trkpt><trkpt lat="32.74713676666666373194" lon="35.25184548333333367509"><ele>190.10713773890447</ele><time>2012-10-12T08:11:59Z</time></trkpt><trkpt lat="32.74709415000000234386" lon="35.25166184999999785532"><ele>189.4695299508793</ele><time>2012-10-12T08:12:02Z</time></trkpt><trkpt lat="32.74713608333333070277" lon="35.25148355000000321979"><ele>188.7496609156995</ele><time>2012-10-12T08:12:05Z</time></trkpt><trkpt lat="32.74723380000000361179" lon="35.25134566666666557921"><ele>188.02473657566836</ele><time>2012-10-12T08:12:08Z</time></trkpt><trkpt lat="32.74733161666666347855" lon="35.25122203333333459341"><ele>187.2327565989254</ele><time>2012-10-12T08:12:11Z</time></trkpt><trkpt lat="32.74742398333333426308" lon="35.25106441666666512447"><ele>186.11934591770793</ele><time>2012-10-12T08:12:14Z</time></trkpt><trkpt lat="32.74749305000000276777" lon="35.25096623333333667460"><ele>185.47582018933727</ele><time>2012-10-12T08:12:17Z</time></trkpt><trkpt lat="32.74756446666666676037" lon="35.25087058333333089877"><ele>184.902096023719</ele><time>2012-10-12T08:12:20Z</time></trkpt><trkpt lat="32.74763121666666876308" lon="35.25074368333333296732"><ele>184.23797864013218</ele><time>2012-10-12T08:12:23Z</time></trkpt><trkpt lat="32.74770563333333228684" lon="35.25059011666666464180"><ele>183.5293081205287</ele><time>2012-10-12T08:12:26Z</time></trkpt><trkpt lat="32.74779116666666567426" lon="35.25044308333333020755"><ele>182.95882205972708</ele><time>2012-10-12T08:12:29Z</time></trkpt><trkpt lat="32.74787425000000240516" lon="35.25033371666666681676"><ele>182.63021365574895</ele><time>2012-10-12T08:12:32Z</time></trkpt><trkpt lat="32.74797363333333066748" lon="35.25019348333333368828"><ele>182.43336364936414</ele><time>2012-10-12T08:12:35Z</time></trkpt><trkpt lat="32.74807818333333386818" lon="35.25005765000000224063"><ele>182.31581693498458</ele><time>2012-10-12T08:12:38Z</time></trkpt><trkpt lat="32.74818758333333335031" lon="35.24990396666666470082"><ele>182.05465095176407</ele><time>2012-10-12T08:12:41Z</time></trkpt><trkpt lat="32.74830013333333056380" lon="35.24971681666666967203"><ele>181.54827685737723</ele><time>2012-10-12T08:12:44Z</time></trkpt><trkpt lat="32.74841496666666529336" lon="35.24954173333333073970"><ele>180.93603048937038</ele><time>2012-10-12T08:12:47Z</time></trkpt><trkpt lat="32.74853556666666776209" lon="35.24936926666666892061"><ele>180.25953891500976</ele><time>2012-10-12T08:12:50Z</time></trkpt><trkpt lat="32.74867346666666634292" lon="35.24916025000000274758"><ele>179.64563849581006</ele><time>2012-10-12T08:12:53Z</time></trkpt><trkpt lat="32.74877585000000124182" lon="35.24898736666666820838"><ele>179.14387278934637</ele><time>2012-10-12T08:12:56Z</time></trkpt><trkpt lat="32.74889960000000144191" lon="35.24882051666666882284"><ele>178.47242705255218</ele><time>2012-10-12T08:12:59Z</time></trkpt><trkpt lat="32.74903258333333155861" lon="35.24862929999999749953"><ele>177.56829048776186</ele><time>2012-10-12T08:13:02Z</time></trkpt><trkpt lat="32.74916936666666344991" lon="35.24845138333333238734"><ele>176.71386204297085</ele><time>2012-10-12T08:13:05Z</time></trkpt><trkpt lat="32.74929148333333017717" lon="35.24828726666666511846"><ele>176.03971967660902</ele><time>2012-10-12T08:13:08Z</time></trkpt><trkpt lat="32.74942244999999729771" lon="35.24809650000000260661"><ele>175.3673446958318</ele><time>2012-10-12T08:13:11Z</time></trkpt><trkpt lat="32.74955966666666995479" lon="35.24792144999999976562"><ele>174.9380860318367</ele><time>2012-10-12T08:13:14Z</time></trkpt><trkpt lat="32.74969010000000224636" lon="35.24774698333333589062"><ele>173.54768338293957</ele><time>2012-10-12T08:13:17Z</time></trkpt><trkpt lat="32.74982775000000145837" lon="35.24755768333333350029"><ele>172.05194332173204</ele><time>2012-10-12T08:13:20Z</time></trkpt><trkpt lat="32.74997806666666377851" lon="35.24736215000000072450"><ele>170.7237684365468</ele><time>2012-10-12T08:13:23Z</time></trkpt><trkpt lat="32.75012850000000241835" lon="35.24716253333333071396"><ele>169.6344744957245</ele><time>2012-10-12T08:13:26Z</time></trkpt><trkpt lat="32.75030623333333323899" lon="35.24698006666666572073"><ele>168.60399624297068</ele><time>2012-10-12T08:13:29Z</time></trkpt><trkpt lat="32.75046438333333043147" lon="35.24683124999999961346"><ele>167.6928011497566</ele><time>2012-10-12T08:13:32Z</time></trkpt><trkpt lat="32.75061064999999871361" lon="35.24666189999999943439"><ele>166.62928150135298</ele><time>2012-10-12T08:13:35Z</time></trkpt><trkpt lat="32.75079318333333588953" lon="35.24647768333333175406"><ele>165.51761373934275</ele><time>2012-10-12T08:13:38Z</time></trkpt><trkpt lat="32.75097900000000095133" lon="35.24630646666666677902"><ele>164.55051555175237</ele><time>2012-10-12T08:13:41Z</time></trkpt><trkpt lat="32.75116301666666629444" lon="35.24617486666666366091"><ele>164.0048090989052</ele><time>2012-10-12T08:13:44Z</time></trkpt><trkpt lat="32.75137456666666935234" lon="35.24617880000000269547"><ele>162.8937431419724</ele><time>2012-10-12T08:13:47Z</time></trkpt><trkpt lat="32.75156596666666786177" lon="35.24610045000000013715"><ele>161.3025081067778</ele><time>2012-10-12T08:13:50Z</time></trkpt><trkpt lat="32.75150161666666548399" lon="35.24591668333333416285"><ele>161.72797992200762</ele><time>2012-10-12T08:13:53Z</time></trkpt><trkpt lat="32.75143996666666623696" lon="35.24579728333333150658"><ele>162.1087030988084</ele><time>2012-10-12T08:13:56Z</time></trkpt><trkpt lat="32.75140346666666602005" lon="35.24572811666666893871"><ele>162.31528408281747</ele><time>2012-10-12T08:13:59Z</time></trkpt><trkpt lat="32.75136499999999983856" lon="35.24570476666666962728"><ele>162.5603012796177</ele><time>2012-10-12T08:14:02Z</time></trkpt><trkpt lat="32.75133031666666738602" lon="35.24569051666667007794"><ele>162.78337520841464</ele><time>2012-10-12T08:14:05Z</time></trkpt><trkpt lat="32.75130690000000299733" lon="35.24570678333333262344"><ele>162.9591980011953</ele><time>2012-10-12T08:14:10Z</time></trkpt><trkpt lat="32.75133883333333528753" lon="35.24572913333333445962"><ele>162.76201852760167</ele><time>2012-10-12T08:14:49Z</time></trkpt><trkpt lat="32.75132525000000072168" lon="35.24569410000000146965"><ele>162.82129464761277</ele><time>2012-10-12T08:14:56Z</time></trkpt><trkpt lat="32.75128418333333257806" lon="35.24571308333333519158"><ele>163.1214183716244</ele><time>2012-10-12T08:15:10Z</time></trkpt><trkpt lat="32.75121021666666365491" lon="35.24571168333333304190"><ele>163.37092091451927</ele><time>2012-10-12T08:15:13Z</time></trkpt><trkpt lat="32.75114801666666863866" lon="35.24572463333333161017"><ele>163.4147867525164</ele><time>2012-10-12T08:15:16Z</time></trkpt><trkpt lat="32.75108674999999891497" lon="35.24568165000000163900"><ele>163.38027228172487</ele><time>2012-10-12T08:15:19Z</time></trkpt><trkpt lat="32.75101630000000341170" lon="35.24560371666666469537"><ele>163.28740756212173</ele><time>2012-10-12T08:15:22Z</time></trkpt><trkpt lat="32.75093491666666523088" lon="35.24548814999999990505"><ele>163.11821341773032</ele><time>2012-10-12T08:15:25Z</time></trkpt><trkpt lat="32.75082321666666729243" lon="35.24535473333333612800"><ele>162.96374224451398</ele><time>2012-10-12T08:15:28Z</time></trkpt><trkpt lat="32.75073793333333327382" lon="35.24523658333333031578"><ele>162.91668912770638</ele><time>2012-10-12T08:15:31Z</time></trkpt><trkpt lat="32.75064880000000044902" lon="35.24508628333333604132"><ele>162.88956210210313</ele><time>2012-10-12T08:15:34Z</time></trkpt><trkpt lat="32.75055065000000098507" lon="35.24492756666666792853"><ele>162.90563500209623</ele><time>2012-10-12T08:15:37Z</time></trkpt><trkpt lat="32.75046110000000254558" lon="35.24480811666666824067"><ele>162.96106253648983</ele><time>2012-10-12T08:15:40Z</time></trkpt><trkpt lat="32.75036854999999746951" lon="35.24468128333333538649"><ele>162.9354732401186</ele><time>2012-10-12T08:15:43Z</time></trkpt><trkpt lat="32.75027481666666773208" lon="35.24454843333333542432"><ele>162.83690881331802</ele><time>2012-10-12T08:15:46Z</time></trkpt><trkpt lat="32.75016956666666345654" lon="35.24440336666666695464"><ele>162.7675164589087</ele><time>2012-10-12T08:15:49Z</time></trkpt><trkpt lat="32.75009283333333343080" lon="35.24425181666666873070"><ele>162.765992851706</ele><time>2012-10-12T08:15:52Z</time></trkpt><trkpt lat="32.74999848333333574146" lon="35.24413133333333547625"><ele>162.7703671677023</ele><time>2012-10-12T08:15:55Z</time></trkpt><trkpt lat="32.74994825000000275850" lon="35.24401828333333241972"><ele>162.81903752570042</ele><time>2012-10-12T08:15:58Z</time></trkpt><trkpt lat="32.74996711666666726614" lon="35.24387301666666871824"><ele>162.92036491449488</ele><time>2012-10-12T08:16:01Z</time></trkpt><trkpt lat="32.75002150000000256114" lon="35.24374815000000182863"><ele>163.0088799996198</ele><time>2012-10-12T08:16:04Z</time></trkpt><trkpt lat="32.75010158333333265546" lon="35.24363966666666669880"><ele>163.52959999962798</ele><time>2012-10-12T08:16:07Z</time></trkpt><trkpt lat="32.75016633333333260225" lon="35.24355473333333321762"><ele>163.93727999962832</ele><time>2012-10-12T08:16:10Z</time></trkpt><trkpt lat="32.75019869999999855281" lon="35.24351450000000340879"><ele>164.13039999961123</ele><time>2012-10-12T08:16:13Z</time></trkpt><trkpt lat="32.75025508333333590372" lon="35.24346548333333117853"><ele>164.3656799996377</ele><time>2012-10-12T08:16:16Z</time></trkpt><trkpt lat="32.75035685000000285072" lon="35.24342263333333136188"><ele>164.57135999963663</ele><time>2012-10-12T08:16:19Z</time></trkpt><trkpt lat="32.75050446666666914552" lon="35.24339893333333151304"><ele>164.5631721212088</ele><time>2012-10-12T08:16:22Z</time></trkpt><trkpt lat="32.75062448333333264827" lon="35.24337023333333007713"><ele>164.55141490681746</ele><time>2012-10-12T08:16:25Z</time></trkpt><trkpt lat="32.75075031666666802721" lon="35.24329946666667012778"><ele>164.79472288597483</ele><time>2012-10-12T08:16:28Z</time></trkpt><trkpt lat="32.75082609999999760930" lon="35.24317346666666850297"><ele>165.46454965718854</ele><time>2012-10-12T08:16:31Z</time></trkpt><trkpt lat="32.75087583333333185465" lon="35.24304850000000044474"><ele>166.19286359959818</ele><time>2012-10-12T08:16:34Z</time></trkpt><trkpt lat="32.75088099999999968759" lon="35.24290098333333531855"><ele>167.09625300759348</ele><time>2012-10-12T08:16:37Z</time></trkpt><trkpt lat="32.75090385000000026139" lon="35.24279669999999953234"><ele>167.7441637900116</ele><time>2012-10-12T08:16:40Z</time></trkpt><trkpt lat="32.75089756666666573892" lon="35.24268366666666452147"><ele>168.44110313562578</ele><time>2012-10-12T08:16:43Z</time></trkpt><trkpt lat="32.75090286666666372639" lon="35.24256503333333512273"><ele>169.18021668440332</ele><time>2012-10-12T08:16:46Z</time></trkpt><trkpt lat="32.75091094999999796755" lon="35.24244986666666790143"><ele>169.905146604411</ele><time>2012-10-12T08:16:49Z</time></trkpt><trkpt lat="32.75092599999999976035" lon="35.24233953333333602131"><ele>170.61682534360767</ele><time>2012-10-12T08:16:52Z</time></trkpt><trkpt lat="32.75094851666666784240" lon="35.24224736666666757401"><ele>171.23782555002393</ele><time>2012-10-12T08:16:55Z</time></trkpt><trkpt lat="32.75095723333333097571" lon="35.24214475000000135196"><ele>171.90694456761707</ele><time>2012-10-12T08:16:58Z</time></trkpt><trkpt lat="32.75101091666666519586" lon="35.24206346666666433975"><ele>172.56923999963428</ele><time>2012-10-12T08:17:01Z</time></trkpt><trkpt lat="32.75101936666666802012" lon="35.24196678333333210276"><ele>173.2856399996325</ele><time>2012-10-12T08:17:04Z</time></trkpt><trkpt lat="32.75104378333332988404" lon="35.24188608333333405653"><ele>173.92527999960632</ele><time>2012-10-12T08:17:07Z</time></trkpt><trkpt lat="32.75106521666666736792" lon="35.24180725000000080627"><ele>174.54431999961514</ele><time>2012-10-12T08:17:10Z</time></trkpt><trkpt lat="32.75110251666666982828" lon="35.24172333333333284600"><ele>175.23803999962973</ele><time>2012-10-12T08:17:13Z</time></trkpt><trkpt lat="32.75111821666666855890" lon="35.24168854999999922484"><ele>175.5261599996285</ele><time>2012-10-12T08:17:16Z</time></trkpt><trkpt lat="32.75113544999999959373" lon="35.24159174999999777356"><ele>176.26447999963275</ele><time>2012-10-12T08:17:19Z</time></trkpt><trkpt lat="32.75115346666666482633" lon="35.24150198333333605660"><ele>176.95403999959302</ele><time>2012-10-12T08:17:22Z</time></trkpt><trkpt lat="32.75113098333333283563" lon="35.24146298333333504615"><ele>177.18087999960335</ele><time>2012-10-12T08:17:25Z</time></trkpt><trkpt lat="32.75103888333333657101" lon="35.24146174999999914235"><ele>176.968719999631</ele><time>2012-10-12T08:17:28Z</time></trkpt><trkpt lat="32.75099744999999984429" lon="35.24139755000000207019"><ele>177.33151999960148</ele><time>2012-10-12T08:17:31Z</time></trkpt><trkpt lat="32.75093770000000148457" lon="35.24136440000000192185"><ele>177.42679999960635</ele><time>2012-10-12T08:17:34Z</time></trkpt><trkpt lat="32.75087023333333036135" lon="35.24136023333333156415"><ele>177.2948799996224</ele><time>2012-10-12T08:17:37Z</time></trkpt><trkpt lat="32.75083349999999882129" lon="35.24134646666666981218"><ele>177.30583999959126</ele><time>2012-10-12T08:17:40Z</time></trkpt><trkpt lat="32.75078849999999874854" lon="35.24134086666666831889"><ele>177.2381599996019</ele><time>2012-10-12T08:17:43Z</time></trkpt><trkpt lat="32.75076099999999712509" lon="35.24132443333333242208"><ele>177.2904799996164</ele><time>2012-10-12T08:17:56Z</time></trkpt><trkpt lat="32.75072935000000029504" lon="35.24132914999999854899"><ele>177.18055999962803</ele><time>2012-10-12T08:18:00Z</time></trkpt><trkpt lat="32.75073301666666480969" lon="35.24129260000000130049"><ele>177.45251999960277</ele><time>2012-10-12T08:18:24Z</time></trkpt><trkpt lat="32.75076091666666400215" lon="35.24128861666666523433"><ele>177.54815999962042</ele><time>2012-10-12T08:19:01Z</time></trkpt></trkseg></trk></gpx>